# Wetter Temperatur Luftdruck Luftfeuchtigkeit Sichtweite Windgeschwindigkeit Windrichtung Zeit
1 Clouds 9 1015 60 10000 2.1 290 20:45 02.04.2020
2 Clouds 9 1015 46 10000 2.6 300 20:25 02.04.2020
3 Clouds 9 1015 46 10000 3.1 300 19:57 02.04.2020
4 Clouds 9 1015 46 10000 3.1 300 19:39 02.04.2020
5 Clouds 9 1015 60 10000 3.6 300 19:20 02.04.2020
6 Clouds 10 1015 60 10000 3.6 300 18:56 02.04.2020
7 Clouds 10 1015 60 10000 4.1 310 18:37 02.04.2020
8 Clouds 10 1016 49 10000 3.6 310 18:18 02.04.2020
9 Clouds 10 1016 49 10000 4.1 310 17:43 02.04.2020
10 Clouds 10 1016 49 10000 4.1 310 17:24 02.04.2020
11 Clouds 10 1016 45 10000 3.6 310 16:58 02.04.2020
12 Clouds 10 1016 45 10000 4.1 330 16:40 02.04.2020
13 Clouds 10 1016 45 10000 4.6 10 16:22 02.04.2020
14 Clouds 10 1016 45 10000 4.6 10 15:57 02.04.2020
15 Clouds 10 1016 39 10000 4.1 320 15:39 02.04.2020
16 Clouds 10 1016 39 10000 4.1 320 15:19 02.04.2020
17 Clouds 10 1016 39 10000 4.1 320 14:57 02.04.2020
18 Clouds 10 1016 43 10000 2.1 340 14:38 02.04.2020
19 Clouds 10 1017 42 10000 3.6 340 14:18 02.04.2020
20 Clouds 10 1017 42 10000 3.6 340 13:55 02.04.2020
21 Clouds 9 1017 42 10000 4.1 340 13:37 02.04.2020
22 Clouds 9 1017 45 10000 3.1 330 13:18 02.04.2020
23 Clouds 9 1017 45 10000 3.1 350 12:45 02.04.2020
24 Clouds 9 1017 45 10000 3.1 350 12:45 02.04.2020
25 Clouds 9 1017 45 10000 3.1 350 12:45 02.04.2020
26 Clear 9 1017 49 10000 3.1 10 12:20 02.04.2020
27 Clear 8 1017 49 10000 3.1 10 11:58 02.04.2020
28 Clear 8 1017 49 10000 2.1 10 11:39 02.04.2020
29 Clear 8 1017 49 10000 2.1 10 11:20 02.04.2020
30 Clear 7 1017 56 10000 3.1 20 10:57 02.04.2020
31 Clear 6 1017 60 10000 2.6 10 10:38 02.04.2020
32 Clear 5 1017 58 10000 2.6 350 10:20 02.04.2020
33 Clear 5 1017 58 10000 2.6 350 09:59 02.04.2020
34 Clear 4 1016 74 10000 3.1 350 09:41 02.04.2020
35 Clear 2 1016 80 10000 3.6 340 09:21 02.04.2020
36 Clear 1 1016 86 10000 3.1 340 08:48 02.04.2020
37 Clear 1 1016 86 10000 3.1 340 08:28 02.04.2020
38 Clear 1 1016 86 10000 3.1 350 07:59 02.04.2020
39 Clear 1 1016 86 10000 3.1 350 07:40 02.04.2020
40 Clear 1 1016 86 10000 3.6 350 07:19 02.04.2020
41 Clear 1 1016 86 10000 3.6 350 06:25 02.04.2020
42 Clear 1 1016 74 10000 3.1 350 05:46 02.04.2020
43 Clear 2 1016 74 10000 3.1 350 05:18 02.04.2020
44 Clear 4 1017 60 10000 4.6 20 02:46 02.04.2020
45 Clear 5 1017 56 10000 5.7 30 01:28 02.04.2020
46 Clear 5 1017 45 10000 4.1 20 00:42 02.04.2020
47 Clear 5 1017 42 10000 3.1 20 00:22 02.04.2020
48 Clear 6 1017 42 10000 3.6 20 23:41 01.04.2020
49 Clear 6 1017 42 10000 3.6 20 23:20 01.04.2020
50 Clear 6 1017 42 10000 3.6 20 22:58 01.04.2020
51 Clear 7 1017 36 10000 3.1 20 22:39 01.04.2020
52 Clear 7 1017 36 10000 3.1 20 22:21 01.04.2020
53 Clear 7 1017 34 10000 3.6 20 21:42 01.04.2020
54 Clear 8 1017 34 10000 3.6 20 21:22 01.04.2020
55 Clear 8 1017 34 10000 3.6 20 21:21 01.04.2020
56 Clear 9 1017 34 10000 3.1 10 20:57 01.04.2020
57 Clear 10 1017 34 10000 3.1 10 20:39 01.04.2020
58 Clear 10 1017 34 10000 3.1 10 20:21 01.04.2020
59 Clear 10 1017 34 10000 4.1 30 20:00 01.04.2020
60 Clear 11 1018 27 10000 4.1 350 19:41 01.04.2020
61 Clear 12 1018 27 10000 4.1 350 19:21 01.04.2020
62 Clear 12 1018 30 10000 4.6 10 18:46 01.04.2020
63 Clear 12 1018 30 10000 4.6 10 18:46 01.04.2020
64 Clear 12 1018 30 10000 4.6 10 18:26 01.04.2020
65 Clear 12 1017 30 10000 5.1 40 17:59 01.04.2020
66 Clear 12 1018 27 10000 4.1 10 17:39 01.04.2020
67 -273 0 0 0 0 0 17:20 01.04.2020
68 Clear 13 1019 30 10000 2.6 350 16:59 01.04.2020
69 Clear 12 1019 30 10000 2.6 350 16:41 01.04.2020
70 Clear 13 1019 27 10000 3.1 30 16:22 01.04.2020
71 Clear 12 1019 27 10000 3.1 30 15:58 01.04.2020
72 Clear 12 1019 32 10000 4.1 40 15:38 01.04.2020
73 Clear 12 1019 32 10000 4.1 40 15:38 01.04.2020
74 Clear 12 1019 32 10000 4.1 40 15:20 01.04.2020
75 Clear 12 1020 34 10000 2.6 30 14:57 01.04.2020
76 Clear 12 1020 34 10000 2.6 30 14:57 01.04.2020
77 Clear 11 1020 32 10000 2.6 60 14:38 01.04.2020
78 Clear 11 1020 32 10000 2.6 60 14:19 01.04.2020
79 Clear 11 1021 34 10000 3.6 30 13:58 01.04.2020
80 Clear 11 1021 34 10000 4.6 40 13:37 01.04.2020
81 Clear 10 1021 34 10000 4.6 40 13:19 01.04.2020
82 Clear 10 1021 34 10000 3.6 60 12:55 01.04.2020
83 Clear 10 1022 39 10000 3.1 40 12:36 01.04.2020
84 Clear 9 1022 39 10000 3.1 60 12:18 01.04.2020
85 Clear 8 1022 45 10000 3.1 30 11:42 01.04.2020
86 Clear 8 1022 45 10000 3.1 30 11:23 01.04.2020
87 Clear 7 1022 48 10000 3.6 60 10:58 01.04.2020
88 Clear 6 1022 52 10000 3.1 60 10:38 01.04.2020
89 Clear 5 1022 60 10000 3.1 40 10:19 01.04.2020
90 Clear 5 1022 60 10000 3.1 40 09:57 01.04.2020
91 Clear 4 1022 64 10000 3.6 30 09:39 01.04.2020
92 Clear 3 1022 69 10000 3.1 30 09:18 01.04.2020
93 Clear 1 1022 64 10000 3.6 20 08:42 01.04.2020
94 Clear 0 1022 69 10000 3.6 30 08:18 01.04.2020
95 Clear 0 1022 64 10000 3.1 20 07:48 01.04.2020
96 Clear 1 1022 64 10000 3.6 30 07:22 01.04.2020
97 Clear 1 1023 69 10000 2.1 10 06:58 01.04.2020
98 Clear 1 1023 69 10000 2.1 10 06:38 01.04.2020
99 Clear 1 1023 69 10000 2.1 360 06:20 01.04.2020
100 Clear 2 1023 64 10000 2.6 10 04:38 01.04.2020
101 Clear 3 1024 59 10000 2.6 20 03:35 01.04.2020
102 Clear 3 1024 59 10000 2.6 30 02:59 01.04.2020
103 Clear 4 1024 59 10000 3.1 30 02:24 01.04.2020
104 Clear 4 1024 55 10000 3.6 40 01:46 01.04.2020
105 Clear 5 1024 48 10000 4.1 30 01:23 01.04.2020
106 Clear 5 1025 52 10000 5.1 30 00:47 01.04.2020
107 Clear 6 1025 52 10000 5.1 30 00:21 01.04.2020
108 Clear 6 1025 56 10000 5.1 20 23:54 31.03.2020
109 Clear 6 1025 52 10000 5.1 20 23:36 31.03.2020
110 Clear 6 1025 52 10000 5.1 20 23:18 31.03.2020
111 Clear 7 1025 66 10000 5.1 20 22:40 31.03.2020
112 Clear 7 1025 66 10000 4.6 20 22:20 31.03.2020
113 Clear 8 1025 66 10000 5.1 30 21:57 31.03.2020
114 Clear 8 1025 66 10000 5.1 30 21:39 31.03.2020
115 Clouds 8 1025 57 10000 5.1 30 21:20 31.03.2020
116 Clouds 9 1025 49 10000 5.1 30 20:56 31.03.2020
117 Clouds 9 1024 39 10000 5.7 60 20:37 31.03.2020
118 Clouds 10 1024 39 10000 5.7 60 20:18 31.03.2020
119 Clouds 10 1024 40 10000 6.7 50 19:55 31.03.2020
120 Clouds 11 1024 40 10000 6.7 50 19:37 31.03.2020
121 Clouds 11 1024 37 10000 6.7 50 19:18 31.03.2020
122 Clouds 12 1024 37 10000 5.7 40 18:43 31.03.2020
123 Clouds 12 1025 37 10000 6.2 50 18:20 31.03.2020
124 Clouds 12 1025 37 10000 6.2 50 17:56 31.03.2020
125 Clouds 12 1025 37 10000 6.7 50 17:38 31.03.2020
126 Clouds 12 1025 43 10000 6.2 50 17:20 31.03.2020
127 Clouds 12 1026 48 10000 6.7 60 16:42 31.03.2020
128 Clouds 11 1026 43 10000 6.7 60 16:20 31.03.2020
129 Clouds 11 1026 43 10000 6.7 60 15:59 31.03.2020
130 Clouds 11 1026 40 10000 7.2 80 15:41 31.03.2020
131 Clear 11 1026 40 10000 7.2 80 15:23 31.03.2020
132 Clouds 11 1026 46 10000 6.2 40 15:00 31.03.2020
133 Clouds 11 1026 50 10000 6.7 50 14:41 31.03.2020
134 Clouds 10 1027 46 10000 7.2 60 14:22 31.03.2020
135 Clouds 10 1027 46 10000 7.2 60 13:58 31.03.2020
136 Clouds 10 1027 57 10000 6.7 40 13:39 31.03.2020
137 Clouds 9 1027 57 10000 7.2 30 13:19 31.03.2020
138 Clouds 9 1027 61 10000 7.7 50 12:44 31.03.2020
139 Clouds 8 1027 61 10000 7.7 50 12:20 31.03.2020
140 Clouds 8 1028 65 8000 7.2 60 11:56 31.03.2020
141 Clouds 8 1028 65 8000 7.2 60 11:37 31.03.2020
142 Clouds 7 1028 70 8000 6.7 50 11:19 31.03.2020
143 Clouds 7 1028 70 8000 6.7 50 10:55 31.03.2020
144 Clouds 6 1028 70 8000 6.7 50 10:55 31.03.2020
145 Clouds 6 1028 80 8000 6.2 40 10:37 31.03.2020
146 Clouds 5 1028 86 8000 5.7 30 10:18 31.03.2020
147 Clouds 4 1028 86 10000 4.1 10 09:44 31.03.2020
148 Clouds 4 1028 86 10000 4.1 10 09:25 31.03.2020
149 Clear 3 1027 86 10000 3.1 20 08:58 31.03.2020
150 Clear 2 1027 88 10000 3.6 10 08:40 31.03.2020
151 Clear 2 1027 88 10000 2.6 20 08:20 31.03.2020
152 Clear 2 1027 88 10000 2.6 20 07:57 31.03.2020
153 Clear 2 1026 93 10000 3.6 10 07:38 31.03.2020
154 Clear 2 1026 86 10000 4.1 10 07:20 31.03.2020
155 Clear 2 1026 86 10000 4.6 10 06:53 31.03.2020
156 Clear 2 1026 86 10000 4.6 10 06:35 31.03.2020
157 Clear 2 1026 85 10000 4.1 20 05:41 31.03.2020
158 Clear 3 1026 85 10000 4.6 10 05:20 31.03.2020
159 Clouds 4 1027 77 10000 2.6 10 02:40 31.03.2020
160 Clear 4 1027 78 10000 4.6 20 01:47 31.03.2020
161 Clear 5 1027 78 10000 4.6 20 01:19 31.03.2020
162 Clear 5 1027 65 10000 5.1 20 00:42 31.03.2020
163 Clear 5 1027 60 10000 2.1 10 00:19 31.03.2020
164 Clear 5 1027 56 10000 4.1 20 23:39 30.03.2020
165 Clear 6 1027 56 10000 4.1 20 23:20 30.03.2020
166 Clear 6 1027 56 10000 4.6 20 22:57 30.03.2020
167 Clear 6 1027 56 10000 4.6 30 22:38 30.03.2020
168 Clear 6 1026 48 10000 5.7 30 22:18 30.03.2020
169 Clear 6 1026 48 10000 5.7 30 21:57 30.03.2020
170 Clear 7 1026 48 10000 5.1 20 21:37 30.03.2020
171 Clear 7 1026 42 10000 6.2 20 21:19 30.03.2020
172 Clear 7 1026 42 10000 6.2 20 20:57 30.03.2020
173 Clear 7 1026 42 10000 8.7 30 20:38 30.03.2020
174 Clear 8 1026 42 10000 8.7 30 20:19 30.03.2020
175 Clear 9 1026 36 10000 9.3 30 19:41 30.03.2020
176 Clear 9 1026 36 10000 9.3 30 19:41 30.03.2020
177 Clear 9 1026 36 10000 9.3 30 19:22 30.03.2020
178 Clear 9 1026 36 10000 9.3 30 19:22 30.03.2020
179 Clear 9 1026 34 10000 9.3 30 18:59 30.03.2020
180 Clear 9 1026 31 10000 9.3 30 18:41 30.03.2020
181 Clear 9 1026 31 10000 10.3 40 18:22 30.03.2020
182 Clear 9 1026 31 10000 10.3 40 17:57 30.03.2020
183 Clear 10 1026 31 10000 9.3 40 17:39 30.03.2020
184 Clear 9 1026 31 10000 9.3 40 17:39 30.03.2020
185 Clear 9 1027 31 10000 9.3 20 17:19 30.03.2020
186 Clear 9 1027 31 10000 9.3 20 16:57 30.03.2020
187 Clear 9 1027 31 10000 8.2 30 16:38 30.03.2020
188 Clear 9 1027 29 10000 9.3 30 16:20 30.03.2020
189 Clear 9 1027 29 10000 9.3 30 15:55 30.03.2020
190 Clear 9 1028 26 10000 7.7 30 15:37 30.03.2020
191 Clear 8 1028 26 10000 9.3 30 15:18 30.03.2020
192 Clear 8 1028 26 10000 9.3 30 14:55 30.03.2020
193 Clear 8 1028 26 10000 8.7 20 14:36 30.03.2020
194 Clear 7 1029 24 10000 9.3 30 14:18 30.03.2020
195 Clear 7 1029 28 10000 9.3 20 13:44 30.03.2020
196 Clear 6 1029 28 10000 9.3 40 13:21 30.03.2020
197 Clear 6 1029 28 10000 9.3 40 13:21 30.03.2020
198 Clear 6 1029 28 10000 9.3 40 12:59 30.03.2020
199 Clear 5 1030 30 10000 8.7 40 12:41 30.03.2020
200 Clear 5 1030 32 10000 9.3 40 12:19 30.03.2020
201 Clear 5 1030 32 10000 9.3 40 11:57 30.03.2020
202 Clear 4 1030 35 10000 9.3 40 11:38 30.03.2020
203 Clear 4 1031 34 10000 9.8 30 11:20 30.03.2020
204 Clear 3 1031 43 10000 7.7 30 10:41 30.03.2020
205 Clear 2 1031 43 10000 8.2 30 10:22 30.03.2020
206 Clear 2 1031 43 10000 8.2 30 09:57 30.03.2020
207 Clear 2 1031 43 10000 8.2 30 09:57 30.03.2020
208 Clear 1 1031 47 10000 7.7 20 09:38 30.03.2020
209 Clear 0 1031 82 10000 6.2 20 09:19 30.03.2020
210 Clear 0 1030 82 10000 6.7 20 08:42 30.03.2020
211 Clear 0 1030 82 10000 5.1 10 08:23 30.03.2020
212 Clear 0 1030 82 10000 5.1 10 07:50 30.03.2020
213 Clear 0 1030 82 10000 5.7 20 07:31 30.03.2020
214 Clear 0 1030 82 10000 4.6 10 06:57 30.03.2020
215 Clear 0 1030 47 10000 5.1 10 06:33 30.03.2020
216 Clear 1 1030 47 10000 7.2 10 05:55 30.03.2020
217 Clear 1 1030 47 10000 7.2 10 05:34 30.03.2020
218 Clear 1 1030 47 10000 7.2 10 04:26 30.03.2020
219 Clear 1 1030 47 10000 7.7 10 03:45 30.03.2020
220 Clouds 2 1030 44 10000 6.2 20 02:42 30.03.2020
221 Clouds 3 1030 44 10000 6.7 10 01:52 30.03.2020
222 Clouds 4 1030 44 10000 7.7 10 00:56 30.03.2020
223 Clouds 4 1030 44 10000 7.7 20 00:25 30.03.2020
224 Clouds 4 1030 41 10000 8.7 10 23:55 29.03.2020
225 Clouds 4 1030 41 10000 8.7 10 23:36 29.03.2020
226 Clouds 4 1030 41 10000 8.7 10 23:18 29.03.2020
227 Clouds 5 1030 38 10000 10.3 20 22:39 29.03.2020
228 Clouds 5 1030 41 10000 9.3 20 22:20 29.03.2020
229 Clouds 5 1029 41 10000 9.8 10 21:58 29.03.2020
230 Clouds 5 1029 41 10000 9.8 10 21:37 29.03.2020
231 Clouds 5 1029 41 10000 9.8 10 21:19 29.03.2020
232 Clouds 6 1029 41 10000 7.7 20 20:55 29.03.2020
233 Clouds 6 1028 41 10000 8.7 30 20:37 29.03.2020
234 Clouds 6 1027 41 10000 8.7 30 20:18 29.03.2020
235 Clouds 6 1028 39 10000 8.7 10 19:55 29.03.2020
236 Clouds 6 1028 39 10000 8.7 10 19:37 29.03.2020
237 Clouds 7 1028 39 10000 8.7 20 19:18 29.03.2020
238 Clouds 7 1027 36 10000 9.8 30 18:55 29.03.2020
239 Clouds 7 1027 36 10000 9.8 30 18:37 29.03.2020
240 Clouds 7 1028 33 10000 8.7 10 18:18 29.03.2020
241 Clouds 7 1028 33 10000 8.7 10 17:54 29.03.2020
242 Clouds 8 1027 31 10000 9.8 20 17:36 29.03.2020
243 Clouds 8 1028 28 10000 10.3 20 17:18 29.03.2020
244 Clouds 8 1028 28 10000 10.3 20 16:55 29.03.2020
245 Clouds 8 1028 33 10000 10.3 10 16:36 29.03.2020
246 Clouds 8 1028 33 10000 10.3 10 16:36 29.03.2020
247 Clouds 8 1028 33 10000 10.3 10 16:36 29.03.2020
248 Clouds 8 1028 33 10000 10.3 10 16:36 29.03.2020
249 Clouds 8 1028 33 10000 10.3 10 16:36 29.03.2020
250 Clouds 8 1028 33 10000 10.3 10 16:18 29.03.2020
251 Clouds 8 1028 36 10000 9.8 10 15:40 29.03.2020
252 Clouds 8 1028 36 10000 9.8 10 15:22 29.03.2020
253 Clouds 8 1028 31 10000 9.8 20 14:57 29.03.2020
254 Clouds 8 1028 36 10000 8.7 10 14:39 29.03.2020
255 Clouds 8 1028 39 10000 8.7 10 14:19 29.03.2020
256 Clouds 8 1028 39 10000 8.7 10 13:56 29.03.2020
257 Clouds 8 1028 42 10000 9.8 10 13:38 29.03.2020
258 Clouds 8 1028 45 10000 10.3 30 13:19 29.03.2020
259 Clouds 8 1028 45 10000 6.7 10 12:55 29.03.2020
260 Clouds 7 1028 45 10000 6.7 10 12:37 29.03.2020
261 Clouds 7 1028 52 10000 7.7 20 12:18 29.03.2020
262 Clouds 7 1028 52 10000 7.7 20 12:18 29.03.2020
263 Clouds 7 1028 52 10000 8.2 10 11:39 29.03.2020
264 Clouds 6 1028 56 10000 7.7 10 11:21 29.03.2020
265 Clouds 6 1028 56 10000 7.7 10 10:59 29.03.2020
266 Clouds 6 1028 56 10000 7.2 10 10:37 29.03.2020
267 Clouds 5 1028 56 10000 8.2 10 10:18 29.03.2020
268 Clouds 5 1028 56 10000 8.2 10 10:18 29.03.2020
269 Clouds 5 1027 56 10000 6.7 360 09:40 29.03.2020
270 Clouds 4 1027 64 10000 4.6 360 09:19 29.03.2020
271 Clear 4 1027 64 10000 5.7 10 08:54 29.03.2020
272 Clear 4 1027 64 10000 5.7 10 08:28 29.03.2020
273 Clear 4 1027 64 10000 5.7 10 07:58 29.03.2020
274 Clear 4 1027 56 10000 5.7 10 07:40 29.03.2020
275 Clouds 4 1027 60 10000 5.7 360 07:20 29.03.2020
276 Clouds 5 1026 60 10000 7.2 20 05:41 29.03.2020
277 Clouds 6 1026 70 10000 8.7 20 03:58 29.03.2020
278 Clouds 6 1026 70 10000 8.2 10 03:28 29.03.2020
279 Clouds 6 1026 65 10000 6.2 10 01:51 29.03.2020
280 Clouds 6 1026 65 10000 6.2 10 01:23 29.03.2020
281 Clouds 6 1025 70 10000 6.7 360 00:55 29.03.2020
282 Clouds 6 1025 70 10000 7.7 10 00:32 29.03.2020
283 Clouds 7 1025 70 10000 7.7 10 23:56 28.03.2020
284 Clouds 7 1025 75 10000 7.2 10 23:38 28.03.2020
285 Clouds 7 1024 70 10000 6.7 10 23:18 28.03.2020
286 Clouds 8 1024 70 10000 6.2 360 22:39 28.03.2020
287 Clouds 8 1024 70 10000 6.2 360 22:21 28.03.2020
288 Clouds 9 1024 66 10000 6.2 360 21:55 28.03.2020
289 Clouds 9 1023 61 10000 6.7 360 21:37 28.03.2020
290 Clouds 10 1022 57 10000 6.2 360 21:18 28.03.2020
291 -273 0 0 0 0 0 20:42 28.03.2020
292 Clouds 11 1022 53 10000 6.7 360 20:23 28.03.2020
293 Rain 12 1021 54 10000 6.2 360 19:58 28.03.2020
294 Rain 13 1021 47 10000 5.7 360 19:39 28.03.2020
295 Rain 13 1020 44 10000 6.7 10 19:21 28.03.2020
296 Rain 14 1020 44 10000 6.7 10 18:59 28.03.2020
297 Rain 14 1020 47 10000 5.7 20 18:39 28.03.2020
298 Rain 15 1020 44 8000 6.2 10 18:19 28.03.2020
299 Rain 15 1019 44 10000 6.2 360 17:39 28.03.2020
300 Clouds 15 1019 48 9000 5.1 10 17:21 28.03.2020
301 Clouds 16 1019 48 9000 5.1 10 16:57 28.03.2020
302 Clouds 16 1019 48 9000 5.1 350 16:37 28.03.2020
303 Clouds 16 1019 48 7000 5.1 360 16:18 28.03.2020
304 Clouds 16 1019 48 9000 5.1 360 15:39 28.03.2020
305 Clouds 16 1019 48 9000 4.1 20 15:19 28.03.2020
306 Clouds 16 1019 48 9000 4.1 20 14:57 28.03.2020
307 Clouds 16 1019 48 9000 4.6 10 14:39 28.03.2020
308 Clear 16 1020 47 8000 4.6 350 14:20 28.03.2020
309 Clear 16 1020 47 8000 4.6 350 14:20 28.03.2020
310 -273 0 0 0 0 0 14:20 28.03.2020
311 Clear 15 1020 51 8000 3.1 350 13:42 28.03.2020
312 Clear 15 1020 51 8000 3.1 350 13:23 28.03.2020
313 Clear 14 1020 54 8000 3.1 350 12:41 28.03.2020
314 Clear 13 1020 54 8000 3.1 350 12:22 28.03.2020
315 Clear 12 1020 62 6000 2.1 340 11:43 28.03.2020
316 Haze 11 1020 66 5000 3.6 350 11:24 28.03.2020
317 Mist 10 1020 66 5000 3.1 360 10:58 28.03.2020
318 Mist 10 1020 66 5000 3.1 360 10:38 28.03.2020
319 Mist 9 1020 70 5000 3.6 360 10:19 28.03.2020
320 Mist 8 1020 75 4400 3.1 360 09:43 28.03.2020
321 Mist 7 1020 81 3900 2.1 350 09:24 28.03.2020
322 Mist 6 1020 81 3900 2.1 350 08:57 28.03.2020
323 Mist 5 1020 86 3600 1.5 0 08:39 28.03.2020
324 Mist 6 1020 86 3600 1.5 0 08:39 28.03.2020
325 Mist 5 1020 86 3300 2.07 17 08:20 28.03.2020
326 Mist 4 1019 86 3600 1 330 07:44 28.03.2020
327 Mist 3 1019 80 4100 1 0 07:26 28.03.2020
328 Mist 4 1019 86 5000 1 330 06:36 28.03.2020
329 Mist 4 1019 80 5000 1.5 320 05:43 28.03.2020
330 Mist 4 1019 80 5000 0.5 0 05:21 28.03.2020
331 Clouds 4 1019 75 6000 1 0 04:41 28.03.2020
332 Clouds 4 1019 80 6000 1.5 0 03:54 28.03.2020
333 Clouds 5 1019 75 6000 1.5 0 02:25 28.03.2020
334 Clouds 5 1018 75 7000 2.1 340 01:41 28.03.2020
335 Clouds 6 1018 70 7000 2.6 340 01:18 28.03.2020
336 Clouds 6 1019 65 8000 3.1 350 00:37 28.03.2020
337 Clouds 6 1018 61 8000 2.6 340 23:59 27.03.2020
338 Clouds 6 1018 61 9000 2.6 350 23:41 27.03.2020
339 Clouds 7 1018 61 9000 3.1 360 23:21 27.03.2020
340 Clouds 7 1018 61 9000 3.1 360 22:56 27.03.2020
341 Clouds 7 1018 57 10000 2.6 350 22:38 27.03.2020
342 Clouds 7 1018 57 10000 2.1 350 22:20 27.03.2020
343 Clouds 8 1018 66 10000 2.1 350 21:45 27.03.2020
344 Clouds 8 1018 66 10000 2.1 350 21:25 27.03.2020
345 Clouds 8 1018 66 10000 2.1 360 20:59 27.03.2020
346 Clouds 9 1018 68 10000 1.5 350 20:41 27.03.2020
347 Clouds 9 1018 63 10000 1.5 350 20:21 27.03.2020
348 Clouds 9 1017 63 10000 2.1 360 19:58 27.03.2020
349 Clouds 10 1017 63 10000 3.6 10 19:40 27.03.2020
350 Clouds 11 1017 63 10000 4.1 10 19:21 27.03.2020
351 Clouds 12 1017 63 10000 3.6 10 18:45 27.03.2020
352 Clouds 12 1017 63 10000 4.6 10 18:26 27.03.2020
353 Clouds 13 1016 63 10000 4.1 10 17:59 27.03.2020
354 Clouds 13 1016 63 10000 4.1 10 17:40 27.03.2020
355 Clouds 13 1017 51 10000 4.6 10 17:20 27.03.2020
356 Clouds 13 1017 51 10000 4.1 10 16:45 27.03.2020
357 Clouds 13 1017 51 10000 4.1 10 16:27 27.03.2020
358 Clouds 13 1017 51 10000 4.6 10 15:57 27.03.2020
359 Clouds 13 1017 51 10000 5.1 340 15:39 27.03.2020
360 Clouds 13 1017 51 10000 3.6 350 15:21 27.03.2020
361 Clouds 13 1017 51 10000 3.6 360 14:45 27.03.2020
362 Clouds 13 1017 40 10000 3.6 20 14:24 27.03.2020
363 Clouds 13 1017 40 10000 3.6 20 13:56 27.03.2020
364 Clouds 12 1018 40 10000 4.1 30 13:37 27.03.2020
365 Clouds 12 1018 43 10000 5.1 360 13:18 27.03.2020
366 Clouds 12 1018 43 10000 4.1 10 12:49 27.03.2020
367 Clouds 11 1018 43 10000 4.1 10 12:21 27.03.2020
368 Clouds 11 1018 50 10000 4.6 350 11:59 27.03.2020
369 Clouds 10 1018 49 10000 4.1 360 11:41 27.03.2020
370 Clouds 9 1018 52 10000 3.6 350 11:22 27.03.2020
371 Clouds 8 1019 52 10000 4.1 340 10:54 27.03.2020
372 Clouds 8 1019 52 10000 4.1 340 10:36 27.03.2020
373 Clouds 7 1019 56 10000 4.6 350 10:18 27.03.2020
374 Clouds 7 1019 56 10000 4.6 350 09:56 27.03.2020
375 Clouds 6 1019 60 10000 3.6 350 09:37 27.03.2020
376 Clouds 5 1018 60 10000 3.1 350 09:18 27.03.2020
377 Clouds 5 1018 60 10000 1.5 360 08:54 27.03.2020
378 Clouds 4 1018 60 10000 1.5 360 08:36 27.03.2020
379 Clouds 4 1018 60 10000 1.5 360 08:18 27.03.2020
380 Clouds 3 1018 64 10000 3.1 340 07:49 27.03.2020
381 Clouds 3 1018 64 10000 2.6 350 07:22 27.03.2020
382 Clouds 2 1018 64 10000 2.6 350 06:45 27.03.2020
383 Clouds 2 1018 64 10000 2.6 350 06:26 27.03.2020
384 Clouds 3 1018 59 10000 1.5 0 03:42 27.03.2020
385 Clouds 4 1018 59 10000 2.1 340 02:25 27.03.2020
386 Clouds 5 1018 55 10000 3.1 360 01:22 27.03.2020
387 Clouds 5 1019 52 10000 3.1 350 00:47 27.03.2020
388 Clouds 5 1018 48 10000 3.6 360 00:23 27.03.2020
389 Clouds 5 1018 48 10000 3.6 350 23:42 26.03.2020
390 Clear 6 1018 45 10000 3.1 360 23:21 26.03.2020
391 Clear 6 1018 45 10000 3.1 360 22:58 26.03.2020
392 Clear 6 1018 45 10000 3.1 360 22:37 26.03.2020
393 Clear 6 1018 45 10000 3.1 360 22:19 26.03.2020
394 Clear 6 1018 45 10000 2.1 360 21:55 26.03.2020
395 Clear 6 1018 41 10000 2.1 360 21:37 26.03.2020
396 Clear 7 1018 39 10000 2.1 10 21:18 26.03.2020
397 Clear 7 1018 39 10000 2.1 10 20:56 26.03.2020
398 Clear 7 1018 41 10000 3.1 30 20:37 26.03.2020
399 Clear 8 1018 39 10000 4.1 50 20:19 26.03.2020
400 Clear 8 1018 36 10000 4.6 60 19:54 26.03.2020
401 Clear 9 1018 36 10000 4.6 60 19:36 26.03.2020
402 Clear 9 1018 31 10000 6.2 70 19:18 26.03.2020
403 Clear 10 1017 31 10000 6.7 70 18:41 26.03.2020
404 Clear 11 1017 29 10000 6.7 60 18:23 26.03.2020
405 Clear 10 1017 29 10000 6.7 60 18:23 26.03.2020
406 Clear 11 1017 29 10000 6.7 60 17:56 26.03.2020
407 Clear 11 1017 27 10000 6.7 60 17:37 26.03.2020
408 Clear 11 1017 32 10000 6.2 50 17:18 26.03.2020
409 Clear 11 1017 29 10000 7.7 60 16:40 26.03.2020
410 Clear 11 1017 32 10000 7.2 50 16:21 26.03.2020
411 Clear 11 1017 32 10000 7.2 50 15:58 26.03.2020
412 Clear 11 1017 29 10000 7.7 50 15:39 26.03.2020
413 Clear 11 1017 31 10000 7.7 60 15:20 26.03.2020
414 Clear 10 1017 31 10000 7.7 60 14:57 26.03.2020
415 Clear 10 1017 34 10000 7.2 60 14:38 26.03.2020
416 Clear 10 1018 34 10000 7.2 60 14:18 26.03.2020
417 Clear 10 1018 34 10000 6.7 60 13:41 26.03.2020
418 Clear 10 1018 34 10000 6.7 60 13:23 26.03.2020
419 Clear 9 1017 34 10000 7.7 50 12:56 26.03.2020
420 Clear 9 1018 34 10000 7.2 60 12:37 26.03.2020
421 Clear 8 1018 36 10000 6.7 40 12:19 26.03.2020
422 Clear 8 1018 39 10000 6.2 50 11:44 26.03.2020
423 Clear 7 1018 36 10000 6.7 50 11:20 26.03.2020
424 Clear 7 1018 36 10000 6.7 50 10:56 26.03.2020
425 Clear 6 1018 41 10000 7.2 60 10:37 26.03.2020
426 Clear 6 1018 38 10000 6.7 40 10:18 26.03.2020
427 Clear 6 1018 38 10000 6.7 40 10:18 26.03.2020
428 Clear 5 1018 41 10000 5.7 30 09:42 26.03.2020
429 Clear 4 1018 44 10000 5.1 30 09:19 26.03.2020
430 Clear 4 1018 44 10000 5.1 30 08:54 26.03.2020
431 Clear 4 1018 44 10000 4.1 10 08:36 26.03.2020
432 Clouds 4 1018 44 10000 4.1 10 08:18 26.03.2020
433 Clouds 3 1018 44 10000 4.6 20 07:41 26.03.2020
434 Clouds 3 1018 44 10000 3.6 20 07:20 26.03.2020
435 Clouds 3 1018 47 10000 2.6 10 06:47 26.03.2020
436 Clouds 3 1018 44 10000 3.6 10 05:52 26.03.2020
437 Clouds 4 1018 41 10000 4.1 10 03:59 26.03.2020
438 Clouds 4 1018 41 10000 4.6 10 03:36 26.03.2020
439 Clouds 4 1018 47 10000 3.6 10 02:54 26.03.2020
440 Clouds 5 1019 38 10000 4.1 20 01:50 26.03.2020
441 Clouds 6 1019 41 10000 3.6 30 00:48 26.03.2020
442 Clouds 6 1019 44 10000 3.6 30 23:56 25.03.2020
443 Clouds 6 1019 51 10000 2.6 30 23:36 25.03.2020
444 Clouds 7 1019 48 10000 4.6 30 23:18 25.03.2020
445 Clouds 7 1019 45 10000 5.1 20 22:39 25.03.2020
446 Clouds 7 1019 45 10000 5.1 20 22:20 25.03.2020
447 Clouds 7 1019 45 10000 4.6 20 21:56 25.03.2020
448 Clouds 8 1019 42 10000 4.1 10 21:37 25.03.2020
449 Clouds 8 1019 42 10000 3.6 360 21:19 25.03.2020
450 Clouds 8 1018 42 10000 3.6 360 20:54 25.03.2020
451 Clouds 8 1018 42 10000 3.6 360 20:36 25.03.2020
452 Clear 9 1018 36 10000 3.1 360 20:18 25.03.2020
453 Clear 9 1018 34 10000 4.1 360 19:42 25.03.2020
454 Clear 10 1019 29 10000 5.1 10 19:22 25.03.2020
455 Clear 11 1019 29 10000 5.1 10 18:57 25.03.2020
456 Clear 11 1019 25 10000 5.7 30 18:38 25.03.2020
457 Clear 12 1019 27 10000 6.7 30 18:20 25.03.2020
458 Clear 12 1019 23 10000 6.2 40 17:55 25.03.2020
459 Clear 12 1019 23 10000 6.2 40 17:36 25.03.2020
460 Clear 12 1019 23 10000 6.2 20 17:18 25.03.2020
461 Clear 12 1019 25 10000 5.1 40 16:43 25.03.2020
462 Clear 12 1019 25 10000 5.1 40 16:43 25.03.2020
463 Clear 12 1020 25 10000 5.1 40 16:23 25.03.2020
464 Clear 12 1020 25 10000 5.1 40 15:57 25.03.2020
465 Clear 12 1020 23 10000 6.2 40 15:38 25.03.2020
466 Clear 12 1020 23 10000 6.2 40 15:19 25.03.2020
467 Clear 12 1021 29 10000 4.6 40 14:42 25.03.2020
468 Clear 11 1022 34 10000 5.1 50 14:21 25.03.2020
469 Clear 11 1022 34 10000 5.1 50 13:56 25.03.2020
470 Clear 10 1022 37 10000 5.1 60 13:38 25.03.2020
471 Clear 10 1022 34 10000 5.1 40 13:19 25.03.2020
472 Clear 9 1023 36 10000 5.1 50 12:37 25.03.2020
473 Clear 9 1023 36 10000 4.1 50 12:19 25.03.2020
474 Clear 9 1023 36 10000 4.1 50 11:55 25.03.2020
475 Clear 8 1023 39 10000 3.6 50 11:36 25.03.2020
476 Clear 7 1023 42 10000 4.1 70 11:18 25.03.2020
477 Clear 7 1023 41 10000 3.6 50 10:55 25.03.2020
478 Clear 7 1023 41 10000 3.6 50 10:36 25.03.2020
479 Clear 5 1024 44 10000 4.1 60 10:18 25.03.2020
480 Clear 5 1024 44 10000 4.1 60 09:42 25.03.2020
481 Clear 4 1024 51 10000 2.1 20 09:22 25.03.2020
482 Clear 4 1024 51 10000 2.1 20 08:56 25.03.2020
483 Clear 3 1024 55 10000 2.6 350 08:38 25.03.2020
484 Clear 3 1024 55 10000 2.6 350 08:38 25.03.2020
485 Clear 3 1023 51 10000 3.6 70 08:19 25.03.2020
486 Clear 1 1024 83 10000 2.1 350 07:41 25.03.2020
487 Clear 1 1024 83 10000 2.1 360 07:20 25.03.2020
488 Clear 1 1023 55 10000 1.5 20 06:48 25.03.2020
489 Clear 1 1023 55 10000 1.5 20 06:28 25.03.2020
490 Clear 2 1023 55 10000 2.1 10 05:56 25.03.2020
491 Clear 2 1023 55 10000 1.5 20 05:30 25.03.2020
492 Clear 2 1023 55 10000 2.6 40 04:39 25.03.2020
493 Clear 3 1024 55 10000 1.5 50 03:36 25.03.2020
494 Clear 3 1024 51 10000 2.1 50 02:40 25.03.2020
495 Clear 4 1024 47 10000 3.6 50 01:23 25.03.2020
496 Clear 5 1024 38 10000 4.6 90 00:49 25.03.2020
497 Clear 5 1024 38 10000 4.6 90 00:24 25.03.2020
498 Clear 6 1025 48 10000 3.6 50 23:46 24.03.2020
499 Clear 6 1025 41 10000 4.6 50 23:28 24.03.2020
500 Clear 6 1025 41 10000 4.6 50 22:57 24.03.2020
501 Clear 7 1024 33 10000 6.2 80 22:38 24.03.2020
502 Clear 7 1024 33 10000 6.2 80 22:19 24.03.2020
503 Clear 7 1024 33 10000 5.1 80 21:56 24.03.2020
504 Clear 7 1024 38 10000 4.6 60 21:38 24.03.2020
505 Clear 8 1023 33 10000 4.1 80 21:18 24.03.2020
506 Clear 8 1023 33 10000 4.1 80 20:57 24.03.2020
507 Clear 8 1024 42 10000 3.6 50 20:39 24.03.2020
508 Clear 9 1024 31 10000 4.1 50 20:21 24.03.2020
509 Clear 10 1024 27 10000 5.1 70 19:45 24.03.2020
510 Clear 11 1024 23 10000 6.2 80 19:19 24.03.2020
511 Clear 11 1024 23 10000 6.2 80 18:56 24.03.2020
512 Clear 12 1024 22 10000 6.2 60 18:37 24.03.2020
513 Clear 12 1024 27 10000 5.1 60 18:19 24.03.2020
514 Clear 12 1024 27 10000 5.1 60 17:56 24.03.2020
515 Clear 13 1024 25 10000 6.2 60 17:37 24.03.2020
516 Clear 13 1024 24 10000 5.7 70 17:19 24.03.2020
517 Clear 13 1025 26 10000 6.2 60 16:54 24.03.2020
518 Clear 13 1025 26 10000 6.2 60 16:36 24.03.2020
519 Clear 13 1025 26 10000 6.2 60 16:36 24.03.2020
520 Clear 13 1025 24 10000 6.2 70 16:18 24.03.2020
521 Clear 13 1025 26 10000 6.2 60 15:42 24.03.2020
522 Clear 13 1025 26 10000 6.2 60 15:23 24.03.2020
523 Clear 12 1026 25 10000 5.1 70 14:44 24.03.2020
524 Clear 12 1026 25 10000 5.1 70 14:22 24.03.2020
525 Clear 12 1026 25 10000 5.1 70 13:59 24.03.2020
526 Clear 11 1026 25 10000 5.1 80 13:40 24.03.2020
527 Clear 11 1026 31 10000 4.6 70 13:22 24.03.2020
528 Clear 10 1026 31 10000 4.6 60 12:42 24.03.2020
529 Clear 9 1027 28 10000 4.6 100 12:24 24.03.2020
530 Clear 8 1027 28 10000 5.7 90 11:41 24.03.2020
531 Clear 7 1027 38 10000 4.1 70 11:22 24.03.2020
532 Clear 6 1028 41 10000 3.6 60 10:59 24.03.2020
533 Clear 6 1028 41 10000 3.6 60 10:41 24.03.2020
534 Clear 6 1028 41 10000 3.6 70 10:19 24.03.2020
535 Clear 5 1027 48 10000 4.6 90 09:47 24.03.2020
536 Clear 4 1027 48 10000 4.6 90 09:27 24.03.2020
537 Clear 3 1027 51 10000 4.1 90 08:58 24.03.2020
538 Clear 2 1027 64 10000 3.1 60 08:38 24.03.2020
539 Clear 1 1027 63 10000 3.1 60 08:20 24.03.2020
540 Clear 1 1027 63 10000 2.1 70 07:44 24.03.2020
541 Clear 0 1027 63 10000 2.1 70 07:22 24.03.2020
542 Clear 0 1027 63 10000 2.6 60 06:42 24.03.2020
543 Clear 0 1027 46 10000 1.5 0 06:23 24.03.2020
544 Clear 1 1027 50 10000 2.6 70 04:53 24.03.2020
545 Clear 1 1027 55 10000 1.5 30 03:43 24.03.2020
546 Clear 2 1027 51 10000 2.1 40 02:45 24.03.2020
547 Clear 3 1027 47 10000 3.6 90 01:38 24.03.2020
548 Clear 4 1027 44 10000 4.1 90 00:42 24.03.2020
549 Clear 4 1026 44 10000 3.6 70 00:22 24.03.2020
550 Clear 5 1026 55 10000 4.6 80 23:39 23.03.2020
551 Clear 5 1026 38 10000 4.6 100 23:21 23.03.2020
552 Clear 6 1026 48 10000 4.1 80 22:45 23.03.2020
553 Clear 6 1026 48 10000 3.6 60 22:24 23.03.2020
554 Clear 6 1026 48 10000 3.6 60 21:58 23.03.2020
555 Clear 6 1026 45 10000 3.6 60 21:40 23.03.2020
556 Clear 7 1026 36 10000 5.1 90 21:20 23.03.2020
557 Clear 7 1026 36 10000 5.1 90 20:57 23.03.2020
558 Clear 8 1026 36 10000 5.1 90 20:38 23.03.2020
559 Clear 8 1026 36 10000 5.1 90 20:19 23.03.2020
560 Clear 9 1025 34 10000 6.2 100 19:45 23.03.2020
561 Clear 9 1025 34 10000 6.2 100 19:26 23.03.2020
562 Clear 10 1025 34 10000 6.2 90 18:57 23.03.2020
563 Clear 10 1025 34 10000 6.2 90 18:39 23.03.2020
564 Clear 11 1025 32 10000 6.7 100 18:20 23.03.2020
565 Clear 11 1025 32 10000 6.7 100 17:42 23.03.2020
566 Clear 11 1025 34 10000 6.7 90 17:21 23.03.2020
567 Clear 11 1025 34 10000 6.7 80 16:57 23.03.2020
568 Clear 11 1025 34 10000 6.7 80 16:39 23.03.2020
569 Clear 12 1025 32 10000 6.7 100 16:20 23.03.2020
570 Clear 11 1025 34 10000 6.2 90 15:42 23.03.2020
571 Clear 11 1025 34 10000 6.7 80 15:20 23.03.2020
572 Clear 11 1025 34 10000 6.7 80 14:55 23.03.2020
573 Clear 11 1025 34 10000 6.7 80 14:36 23.03.2020
574 Clear 10 1026 34 10000 7.7 80 14:18 23.03.2020
575 Clear 10 1026 34 10000 7.2 100 13:40 23.03.2020
576 Clear 9 1026 36 10000 7.7 90 13:21 23.03.2020
577 Clear 8 1026 36 10000 7.7 100 12:45 23.03.2020
578 Clear 8 1026 36 10000 7.2 90 12:26 23.03.2020
579 Clear 7 1025 45 10000 6.7 90 11:59 23.03.2020
580 Clear 7 1025 45 10000 6.7 90 11:40 23.03.2020
581 Clear 6 1025 48 10000 9.3 90 11:20 23.03.2020
582 Clear 6 1025 48 10000 9.3 90 10:58 23.03.2020
583 Clear 6 1026 41 10000 6.7 80 10:58 23.03.2020
584 Clear 5 1026 44 10000 6.2 100 10:39 23.03.2020
585 Clear 5 1026 48 10000 6.2 100 10:21 23.03.2020
586 Clear 4 1026 48 10000 6.2 70 09:46 23.03.2020
587 Clear 3 1026 51 10000 5.7 80 09:21 23.03.2020
588 Clear 3 1026 51 10000 5.7 80 08:58 23.03.2020
589 Clear 3 1026 51 10000 5.7 80 08:58 23.03.2020
590 Clear 2 1026 55 10000 5.1 80 08:37 23.03.2020
591 Clear 2 1026 59 10000 3.6 80 08:19 23.03.2020
592 Clear 1 1026 49 10000 4.1 70 07:48 23.03.2020
593 Clear 1 1026 49 10000 4.1 70 07:29 23.03.2020
594 Clear 1 1024 55 10000 6.2 80 06:52 23.03.2020
595 Clear 1 1024 55 10000 6.2 80 06:20 23.03.2020
596 Clear 2 1024 55 10000 5.1 80 05:34 23.03.2020
597 Clear 3 1025 59 10000 3.1 50 03:45 23.03.2020
598 Clear 4 1025 51 10000 3.6 30 02:40 23.03.2020
599 Clear 5 1025 48 10000 4.6 70 01:34 23.03.2020
600 Clear 5 1024 41 10000 5.1 80 00:43 23.03.2020
601 Clear 6 1024 36 10000 7.2 80 23:53 22.03.2020
602 Clear 7 1024 41 10000 4.6 60 23:27 22.03.2020
603 Clear 7 1024 41 10000 4.6 60 22:59 22.03.2020
604 Clear 7 1024 31 10000 8.2 90 22:39 22.03.2020
605 Clear 8 1023 36 10000 6.7 70 22:18 22.03.2020
606 Clear 8 1023 42 10000 6.2 70 21:40 22.03.2020
607 Clear 9 1023 45 10000 5.7 60 21:20 22.03.2020
608 Clear 9 1023 45 10000 5.7 60 20:58 22.03.2020
609 Clear 9 1023 49 10000 4.1 50 20:39 22.03.2020
610 Clouds 9 1023 49 10000 4.1 50 20:21 22.03.2020
611 Clouds 9 1022 45 10000 4.1 60 19:55 22.03.2020
612 Clouds 10 1022 43 10000 4.6 70 19:37 22.03.2020
613 Clouds 10 1022 43 10000 4.6 70 19:19 22.03.2020
614 Clouds 10 1022 46 10000 5.1 60 18:56 22.03.2020
615 Clouds 10 1021 43 10000 6.2 70 18:38 22.03.2020
616 Clouds 10 1021 43 10000 6.7 70 18:18 22.03.2020
617 Clouds 11 1021 43 10000 6.7 70 17:56 22.03.2020
618 Clouds 11 1021 43 10000 8.7 60 17:37 22.03.2020
619 Clear 11 1021 50 10000 8.7 70 17:19 22.03.2020
620 Clear 10 1021 53 10000 8.2 70 16:55 22.03.2020
621 Clear 10 1021 53 10000 8.2 70 16:36 22.03.2020
622 Clouds 10 1021 57 10000 7.7 60 16:18 22.03.2020
623 Clouds 10 1021 53 10000 7.7 70 15:39 22.03.2020
624 Clouds 9 1021 61 10000 6.7 70 15:19 22.03.2020
625 Clouds 9 1021 57 10000 7.7 70 14:46 22.03.2020
626 Clouds 9 1021 57 10000 7.7 70 14:18 22.03.2020
627 Clouds 9 1021 57 10000 8.7 60 13:42 22.03.2020
628 Clouds 9 1021 57 10000 8.7 60 13:20 22.03.2020
629 Clouds 8 1021 61 10000 8.7 70 12:47 22.03.2020
630 Clouds 8 1021 52 10000 8.7 70 12:23 22.03.2020
631 Clouds 8 1021 52 10000 8.7 70 12:23 22.03.2020
632 Clouds 8 1021 52 10000 8.7 70 11:59 22.03.2020
633 Clouds 7 1021 52 10000 8.2 60 11:41 22.03.2020
634 Clouds 7 1021 61 10000 8.2 60 11:23 22.03.2020
635 Clouds 6 1021 61 10000 8.2 60 10:58 22.03.2020
636 Clouds 6 1021 61 10000 7.7 60 10:39 22.03.2020
637 Clouds 6 1021 61 10000 7.7 60 10:21 22.03.2020
638 Clouds 5 1021 65 10000 6.7 50 09:43 22.03.2020
639 Clouds 5 1021 65 10000 6.7 50 09:24 22.03.2020
640 Clouds 5 1021 65 10000 7.2 50 08:48 22.03.2020
641 Clouds 5 1021 65 10000 7.2 50 08:48 22.03.2020
642 Clouds 5 1021 65 10000 7.2 50 08:29 22.03.2020
643 Clouds 5 1021 65 10000 7.2 50 07:53 22.03.2020
644 Clouds 5 1021 65 10000 7.2 50 07:32 22.03.2020
645 Clouds 5 1020 70 10000 7.7 50 06:41 22.03.2020
646 Clouds 6 1020 70 10000 7.2 50 05:41 22.03.2020
647 Clouds 6 1020 70 10000 6.7 50 04:34 22.03.2020
648 Clouds 7 1020 65 10000 5.7 50 01:45 22.03.2020
649 Clouds 7 1020 65 10000 5.7 50 00:50 22.03.2020
650 Clouds 7 1020 70 10000 5.7 50 00:31 22.03.2020
651 Clouds 7 1020 65 10000 6.7 50 23:45 21.03.2020
652 Clouds 7 1020 65 10000 6.7 50 23:22 21.03.2020
653 Clouds 7 1020 65 10000 6.2 50 22:58 21.03.2020
654 Clouds 8 1020 65 10000 6.2 50 22:38 21.03.2020
655 Clouds 8 1020 65 10000 6.7 50 22:19 21.03.2020
656 Clouds 8 1020 70 10000 7.2 50 21:57 21.03.2020
657 Clouds 8 1020 70 10000 7.2 50 21:38 21.03.2020
658 Clouds 8 1020 70 10000 5.7 50 21:19 21.03.2020
659 Clouds 8 1020 65 10000 6.2 60 20:42 21.03.2020
660 Clouds 8 1020 70 10000 7.7 60 20:22 21.03.2020
661 Clouds 8 1020 70 10000 7.7 60 19:55 21.03.2020
662 Clouds 8 1020 70 10000 6.7 60 19:36 21.03.2020
663 Clouds 8 1020 70 10000 7.2 50 19:18 21.03.2020
664 Clouds 8 1020 70 10000 7.7 50 18:41 21.03.2020
665 Clouds 8 1020 70 10000 8.2 50 18:21 21.03.2020
666 Clouds 8 1020 70 10000 8.2 50 17:59 21.03.2020
667 Clouds 8 1019 70 10000 5.7 60 17:41 21.03.2020
668 Clouds 8 1020 75 10000 7.7 60 17:22 21.03.2020
669 Clouds 8 1019 70 10000 6.7 60 16:42 21.03.2020
670 Clouds 8 1020 70 10000 8.7 50 16:24 21.03.2020
671 Clouds 8 1020 70 10000 8.2 50 15:59 21.03.2020
672 Clouds 8 1020 70 10000 8.2 50 15:40 21.03.2020
673 Clouds 8 1020 75 10000 8.2 40 15:22 21.03.2020
674 Clouds 8 1020 75 10000 8.2 40 14:57 21.03.2020
675 Clouds 8 1020 70 10000 7.7 50 14:39 21.03.2020
676 Clouds 8 1020 70 10000 7.2 50 14:20 21.03.2020
677 Clouds 8 1020 70 10000 7.2 50 13:58 21.03.2020
678 Clouds 8 1020 75 10000 7.7 50 13:39 21.03.2020
679 Clouds 8 1021 75 10000 7.2 60 13:21 21.03.2020
680 Clouds 8 1021 75 10000 7.2 60 12:57 21.03.2020
681 Clouds 8 1021 75 10000 7.2 50 12:37 21.03.2020
682 Clouds 7 1021 75 10000 7.7 50 12:19 21.03.2020
683 Clouds 7 1021 75 10000 7.2 50 11:55 21.03.2020
684 Clouds 7 1021 75 10000 7.2 50 11:37 21.03.2020
685 Clouds 7 1021 81 10000 6.2 50 11:18 21.03.2020
686 Clouds 7 1021 81 10000 5.7 40 10:56 21.03.2020
687 Clouds 7 1021 81 10000 5.7 40 10:38 21.03.2020
688 Clouds 6 1021 87 10000 6.2 40 10:19 21.03.2020
689 Clouds 6 1021 81 10000 5.7 40 10:19 21.03.2020
690 Clouds 6 1021 87 10000 6.2 40 09:55 21.03.2020
691 Clouds 6 1021 87 10000 6.2 30 09:36 21.03.2020
692 Clouds 6 1021 87 10000 5.7 30 09:18 21.03.2020
693 Clouds 6 1021 87 10000 5.7 30 08:42 21.03.2020
694 Clouds 6 1021 87 10000 5.1 20 08:23 21.03.2020
695 Clouds 6 1021 87 10000 5.7 20 07:43 21.03.2020
696 Clouds 6 1021 87 10000 5.7 20 07:23 21.03.2020
697 Clouds 6 1021 87 10000 5.1 10 06:48 21.03.2020
698 Clouds 6 1021 87 10000 5.1 10 06:28 21.03.2020
699 Clouds 6 1021 93 10000 5.1 20 05:46 21.03.2020
700 Clouds 6 1021 81 10000 5.7 20 04:46 21.03.2020
701 Clouds 7 1022 81 10000 5.1 20 02:55 21.03.2020
702 Clouds 7 1022 81 10000 5.7 20 02:33 21.03.2020
703 Clouds 7 1022 81 10000 5.1 20 01:33 21.03.2020
704 Clouds 8 1022 75 10000 5.1 10 00:56 21.03.2020
705 Clouds 8 1022 75 10000 5.1 10 00:37 21.03.2020
706 Clouds 8 1022 75 10000 5.7 20 23:53 20.03.2020
707 Clouds 8 1022 75 10000 5.7 20 23:28 20.03.2020
708 Clouds 8 1022 81 10000 5.1 20 22:59 20.03.2020
709 Clouds 8 1022 76 10000 6.2 20 22:41 20.03.2020
710 Clouds 9 1022 81 10000 5.1 20 22:22 20.03.2020
711 Clouds 9 1022 81 10000 5.1 20 21:56 20.03.2020
712 Clouds 9 1022 81 9000 5.7 20 21:38 20.03.2020
713 Clouds 9 1022 76 8000 6.7 20 21:18 20.03.2020
714 Clouds 9 1022 76 8000 6.7 20 20:57 20.03.2020
715 Clouds 9 1022 76 7000 6.7 30 20:39 20.03.2020
716 Clouds 9 1022 76 7000 5.7 20 20:18 20.03.2020
717 Clouds 10 1022 81 7000 5.7 20 19:46 20.03.2020
718 Clouds 10 1022 81 6000 5.1 10 19:19 20.03.2020
719 Clouds 10 1022 81 6000 5.1 10 18:56 20.03.2020
720 Clouds 11 1022 76 6000 6.2 10 18:37 20.03.2020
721 Mist 11 1021 81 5000 6.2 10 18:19 20.03.2020
722 Mist 12 1021 76 5000 5.7 360 17:40 20.03.2020
723 Mist 13 1021 76 5000 5.7 360 17:21 20.03.2020
724 Mist 13 1021 76 5000 5.7 360 16:59 20.03.2020
725 Clouds 14 1021 71 7000 6.2 360 16:41 20.03.2020
726 Clouds 15 1021 71 6000 6.2 10 16:20 20.03.2020
727 Clouds 15 1021 71 6000 5.7 10 15:43 20.03.2020
728 Clouds 16 1021 76 6000 5.1 360 15:22 20.03.2020
729 Clouds 16 1021 76 6000 5.1 360 14:57 20.03.2020
730 Clouds 16 1021 67 7000 5.1 360 14:38 20.03.2020
731 Clouds 15 1022 71 8000 5.1 360 14:19 20.03.2020
732 Clouds 16 1022 71 9000 5.1 10 13:46 20.03.2020
733 Clouds 15 1022 71 6000 5.1 10 13:20 20.03.2020
734 Clouds 15 1022 71 6000 5.1 10 12:57 20.03.2020
735 Clouds 15 1022 71 7000 5.1 360 12:37 20.03.2020
736 Clouds 15 1022 76 6000 4.6 10 12:18 20.03.2020
737 Clouds 14 1022 71 7000 5.1 20 11:39 20.03.2020
738 Clouds 13 1022 76 7000 4.6 20 11:20 20.03.2020
739 Clouds 13 1022 81 6000 4.1 10 10:54 20.03.2020
740 Clouds 13 1022 81 6000 4.1 10 10:36 20.03.2020
741 Clouds 13 1022 81 6000 3.1 40 10:18 20.03.2020
742 Mist 12 1022 81 4600 4.1 30 09:44 20.03.2020
743 Mist 11 1022 87 4200 3.6 20 09:20 20.03.2020
744 Mist 11 1022 87 4200 3.6 20 08:43 20.03.2020
745 Mist 11 1022 87 4200 3.6 20 08:23 20.03.2020
746 Mist 10 1022 93 3900 2.6 20 07:57 20.03.2020
747 Mist 10 1021 87 4000 3.1 10 07:38 20.03.2020
748 Mist 10 1021 87 5000 3.6 350 07:19 20.03.2020
749 Clouds 11 1021 87 6000 3.6 360 06:42 20.03.2020
750 Clouds 11 1021 81 6000 2.1 360 05:57 20.03.2020
751 Clouds 11 1021 81 7000 3.6 330 04:36 20.03.2020
752 Clouds 11 1021 81 6000 2.6 340 02:50 20.03.2020
753 Clouds 12 1021 81 9000 2.1 20 01:50 20.03.2020
754 Clouds 12 1021 81 10000 2.6 10 00:38 20.03.2020
755 Clouds 13 1021 71 10000 2.6 10 23:59 19.03.2020
756 Clouds 13 1021 71 10000 2.6 10 23:40 19.03.2020
757 Clouds 13 1021 76 10000 2.6 90 23:22 19.03.2020
758 Clouds 13 1021 71 10000 3.6 10 22:41 19.03.2020
759 Clouds 14 1021 71 10000 3.6 10 22:22 19.03.2020
760 Clouds 14 1021 71 10000 3.1 360 21:58 19.03.2020
761 Clouds 14 1021 76 10000 2.6 350 21:38 19.03.2020
762 Clouds 14 1021 76 10000 2.6 350 21:19 19.03.2020
763 Clouds 15 1021 67 10000 2.6 360 20:44 19.03.2020
764 Clouds 15 1021 67 10000 2.6 360 20:25 19.03.2020
765 Clouds 16 1021 63 10000 2.1 10 19:59 19.03.2020
766 Clouds 16 1021 63 10000 2.6 40 19:39 19.03.2020
767 Clouds 17 1021 55 10000 2.1 30 19:21 19.03.2020
768 Clouds 17 1021 55 10000 2.1 30 18:58 19.03.2020
769 Clouds 18 1020 52 10000 1.5 70 18:40 19.03.2020
770 Clouds 18 1020 52 10000 1.5 70 18:22 19.03.2020
771 Clouds 19 1021 59 10000 3.1 30 17:54 19.03.2020
772 Clouds 19 1021 59 10000 3.1 30 17:36 19.03.2020
773 Clouds 20 1021 48 10000 1 0 17:18 19.03.2020
774 Clouds 20 1021 52 10000 1.5 40 16:41 19.03.2020
775 Clouds 20 1021 52 10000 2.6 40 16:21 19.03.2020
776 Clouds 19 1021 49 10000 1.5 40 15:43 19.03.2020
777 Clouds 19 1022 45 10000 1 0 15:24 19.03.2020
778 Clouds 19 1022 48 10000 2.1 170 14:43 19.03.2020
779 Clouds 19 1022 48 10000 2.1 170 14:23 19.03.2020
780 Clouds 19 1022 48 10000 1.5 0 13:59 19.03.2020
781 Clouds 18 1023 55 10000 2.1 60 13:38 19.03.2020
782 Clouds 18 1023 63 10000 2.6 50 13:18 19.03.2020
783 Clouds 17 1023 59 10000 2.1 30 12:42 19.03.2020
784 Clouds 17 1023 59 10000 2.1 30 12:24 19.03.2020
785 Clouds 17 1023 67 10000 1.5 80 11:59 19.03.2020
786 Clouds 16 1024 62 10000 1.5 0 11:41 19.03.2020
787 Clouds 15 1024 67 10000 1 0 11:22 19.03.2020
788 Clouds 14 1024 71 10000 1.5 0 10:44 19.03.2020
789 Clouds 13 1024 76 10000 1 0 10:22 19.03.2020
790 Clouds 12 1024 76 10000 1 0 09:58 19.03.2020
791 Clouds 11 1024 76 10000 1 40 09:40 19.03.2020
792 Clouds 11 1024 76 10000 1 40 09:20 19.03.2020
793 Clouds 9 1024 81 10000 1.5 360 08:46 19.03.2020
794 Clouds 8 1024 75 10000 1 10 08:23 19.03.2020
795 Clouds 7 1024 75 10000 1 0 07:48 19.03.2020
796 Clouds 7 1024 75 10000 1 0 07:30 19.03.2020
797 Clouds 7 1024 81 10000 1 10 06:51 19.03.2020
798 Clouds 7 1024 87 10000 2.1 350 06:18 19.03.2020
799 Clouds 8 1024 87 10000 1 350 05:23 19.03.2020
800 Clouds 8 1024 87 10000 1 350 04:41 19.03.2020
801 Clouds 8 1024 93 10000 1 10 03:39 19.03.2020
802 Clouds 9 1025 87 7000 2.6 350 01:45 19.03.2020
803 Clouds 9 1025 87 7000 2.1 350 00:39 19.03.2020
804 Clouds 9 1025 87 7000 2.1 350 00:18 19.03.2020
805 Clouds 10 1025 81 8000 1.5 360 23:41 18.03.2020
806 Clouds 10 1025 81 9000 1 360 23:21 18.03.2020
807 Clouds 11 1025 76 10000 1.5 360 22:42 18.03.2020
808 Clouds 11 1025 76 10000 1.5 360 22:22 18.03.2020
809 Clouds 11 1025 76 10000 1.5 360 21:55 18.03.2020
810 Clouds 12 1025 66 10000 1 0 21:37 18.03.2020
811 Clouds 12 1025 66 10000 1 0 21:19 18.03.2020
812 Clouds 12 1025 66 10000 2.1 50 20:55 18.03.2020
813 Clouds 13 1025 62 10000 1.5 10 20:37 18.03.2020
814 Clouds 13 1025 54 10000 0.5 100 20:18 18.03.2020
815 Clouds 14 1025 51 10000 1.27 334 19:40 18.03.2020
816 Clouds 15 1025 51 10000 1.27 334 19:21 18.03.2020
817 Clouds 16 1025 55 10000 0.5 150 18:57 18.03.2020
818 Clouds 16 1025 51 10000 1 120 18:38 18.03.2020
819 Clouds 17 1025 55 10000 1.5 140 18:19 18.03.2020
820 Clouds 18 1025 55 10000 2.1 180 17:55 18.03.2020
821 Clouds 17 1025 55 10000 2.1 180 17:37 18.03.2020
822 Clouds 17 1026 55 10000 1.5 160 17:18 18.03.2020
823 Clouds 18 1026 52 10000 3.1 160 16:42 18.03.2020
824 Clouds 18 1026 52 10000 3.6 220 16:20 18.03.2020
825 Clouds 18 1026 52 10000 3.6 220 15:57 18.03.2020
826 Clouds 18 1027 55 10000 2.1 220 15:38 18.03.2020
827 Clouds 17 1027 55 10000 2.1 210 15:20 18.03.2020
828 Clouds 17 1027 55 10000 2.1 180 14:42 18.03.2020
829 Clouds 17 1028 51 10000 3.6 190 14:21 18.03.2020
830 Clouds 17 1028 63 10000 3.1 150 13:42 18.03.2020
831 Clear 16 1028 63 10000 1.5 0 13:19 18.03.2020
832 Clear 16 1028 63 10000 1.5 0 12:55 18.03.2020
833 Clear 15 1028 72 10000 1 0 12:37 18.03.2020
834 Clear 15 1029 72 10000 0.5 0 12:19 18.03.2020
835 Clear 14 1029 76 9000 0.5 0 11:38 18.03.2020
836 Clear 13 1029 82 8000 1 0 11:19 18.03.2020
837 Clear 13 1029 82 8000 1 0 10:58 18.03.2020
838 Clear 13 1029 81 6000 1.21 218 10:38 18.03.2020
839 Mist 12 1029 87 4900 1.21 218 10:19 18.03.2020
840 Mist 11 1029 93 4300 1 350 09:43 18.03.2020
841 Mist 11 1029 93 4300 1 350 09:25 18.03.2020
842 Mist 10 1029 100 3700 1 360 08:56 18.03.2020
843 Mist 9 1029 93 3900 1.5 360 08:38 18.03.2020
844 Mist 9 1029 93 3500 1.5 360 08:20 18.03.2020
845 Mist 9 1029 93 3000 0.5 360 07:44 18.03.2020
846 Mist 9 1029 93 3000 0.5 360 07:26 18.03.2020
847 Mist 9 1029 87 5000 1 0 06:44 18.03.2020
848 Mist 9 1029 93 5000 1.46 209 06:20 18.03.2020
849 Mist 9 1029 93 5000 1.5 80 05:34 18.03.2020
850 Clouds 9 1029 93 6000 1 360 04:25 18.03.2020
851 Clear 10 1029 93 6000 1 60 02:44 18.03.2020
852 Clouds 10 1030 87 6000 1 30 01:48 18.03.2020
853 Clouds 10 1030 93 6000 1 40 01:27 18.03.2020
854 Mist 10 1030 93 4800 1 170 00:24 18.03.2020
855 Clouds 10 1030 93 6000 2.1 350 23:50 17.03.2020
856 Clouds 10 1030 93 6000 2.1 350 23:28 17.03.2020
857 Clouds 10 1030 93 7000 1.5 360 22:59 17.03.2020
858 Clouds 10 1031 81 8000 1 0 22:40 17.03.2020
859 Clouds 10 1030 81 9000 1 350 22:22 17.03.2020
860 Clouds 10 1030 76 10000 1.5 100 21:40 17.03.2020
861 Clouds 10 1030 76 10000 1.5 100 21:21 17.03.2020
862 Clouds 11 1030 71 10000 1 360 20:41 17.03.2020
863 Clouds 11 1030 71 10000 1 360 20:23 17.03.2020
864 Clouds 12 1030 66 10000 0.72 239 19:59 17.03.2020
865 Clouds 12 1030 62 10000 0.72 239 19:40 17.03.2020
866 Clouds 13 1030 76 10000 0.72 239 19:18 17.03.2020
867 Clouds 14 1030 62 10000 1 350 18:56 17.03.2020
868 Clouds 14 1030 62 10000 1 350 18:37 17.03.2020
869 Clouds 14 1030 58 10000 1 0 18:19 17.03.2020
870 Clouds 15 1030 58 10000 1.5 0 17:41 17.03.2020
871 Clouds 15 1030 58 10000 1.5 0 17:41 17.03.2020
872 Clouds 15 1030 58 10000 1.5 0 17:22 17.03.2020
873 Clouds 15 1030 58 10000 1.5 0 16:56 17.03.2020
874 Clouds 15 1030 62 10000 1.5 0 16:38 17.03.2020
875 Clouds 15 1030 58 10000 0.5 0 16:18 17.03.2020
876 Clouds 14 1031 62 10000 1 0 15:43 17.03.2020
877 Clouds 14 1031 62 10000 1 0 15:21 17.03.2020
878 Clouds 14 1031 62 10000 1 0 14:43 17.03.2020
879 Clouds 13 1031 66 10000 1.5 0 14:21 17.03.2020
880 Clouds 13 1032 62 10000 1.5 0 13:46 17.03.2020
881 Clouds 13 1032 62 10000 1.5 0 13:28 17.03.2020
882 Clouds 13 1032 62 10000 0.5 0 12:59 17.03.2020
883 Clouds 12 1032 62 10000 1 0 12:40 17.03.2020
884 Clouds 12 1032 66 10000 1 0 12:22 17.03.2020
885 Clouds 11 1032 62 10000 1.5 0 11:47 17.03.2020
886 Clouds 11 1031 76 8000 0.5 0 11:29 17.03.2020
887 Clouds 10 1031 66 10000 1.5 340 10:58 17.03.2020
888 Clouds 10 1031 66 10000 1.5 340 10:39 17.03.2020
889 Clouds 10 1031 71 10000 2.1 10 10:21 17.03.2020
890 Clouds 10 1031 71 10000 2.1 10 09:59 17.03.2020
891 Clouds 9 1031 76 10000 1 0 09:40 17.03.2020
892 Clouds 9 1031 76 10000 1 0 09:19 17.03.2020
893 Clouds 8 1030 81 10000 1 140 08:48 17.03.2020
894 Clouds 8 1030 81 10000 1 20 08:23 17.03.2020
895 Clouds 8 1030 81 10000 1 20 07:56 17.03.2020
896 Clouds 8 1030 75 10000 1.5 360 07:38 17.03.2020
897 Clouds 8 1030 81 10000 2.1 350 07:19 17.03.2020
898 Clouds 8 1029 87 6000 0.5 150 06:38 17.03.2020
899 Clouds 8 1029 87 6000 1.19 26 05:58 17.03.2020
900 Clouds 8 1028 75 10000 2.1 150 03:56 17.03.2020
901 Clouds 8 1028 87 10000 2.1 350 02:54 17.03.2020
902 Clouds 9 1028 81 10000 1 0 01:49 17.03.2020
903 Clouds 9 1028 81 10000 1 0 01:25 17.03.2020
904 Clouds 9 1027 76 10000 1.5 340 00:47 17.03.2020
905 Clouds 9 1027 81 10000 1.5 320 23:50 16.03.2020
906 Clouds 9 1027 81 10000 1.5 320 23:32 16.03.2020
907 Clouds 9 1026 81 10000 0.5 320 22:43 16.03.2020
908 Clouds 9 1026 81 10000 0.5 320 22:25 16.03.2020
909 Clouds 9 1026 81 10000 0.5 0 21:59 16.03.2020
910 Clouds 9 1026 81 10000 0.5 80 21:40 16.03.2020
911 Clouds 10 1026 81 10000 1 100 21:22 16.03.2020
912 Clouds 10 1026 81 10000 1 100 20:56 16.03.2020
913 Clouds 10 1025 81 10000 0.52 297 20:38 16.03.2020
914 Rain 10 1025 81 10000 1.21 334 20:19 16.03.2020
915 Rain 10 1024 81 10000 1 350 19:41 16.03.2020
916 Rain 10 1024 81 10000 1.5 0 19:21 16.03.2020
917 Rain 10 1024 81 10000 1.5 0 18:56 16.03.2020
918 Rain 11 1023 76 10000 2.1 350 18:37 16.03.2020
919 Clouds 11 1024 76 10000 2.1 350 18:18 16.03.2020
920 Clouds 11 1023 76 10000 2.1 340 17:42 16.03.2020
921 Clouds 11 1023 76 10000 2.1 330 17:22 16.03.2020
922 Rain 11 1023 76 10000 1.5 340 16:46 16.03.2020
923 Rain 11 1023 76 10000 1.5 340 16:28 16.03.2020
924 Clouds 11 1022 76 10000 2.1 350 15:57 16.03.2020
925 Clouds 11 1022 76 10000 2.1 350 15:39 16.03.2020
926 Rain 11 1022 76 10000 3.1 330 15:19 16.03.2020
927 Clouds 11 1021 76 10000 2.6 310 14:43 16.03.2020
928 Rain 11 1021 76 10000 1.5 340 14:19 16.03.2020
929 Rain 10 1021 81 10000 1.5 360 13:42 16.03.2020
930 Rain 10 1021 81 10000 1.5 360 13:24 16.03.2020
931 Clouds 10 1021 81 10000 2.1 340 12:55 16.03.2020
932 Clouds 10 1021 81 10000 2.1 340 12:36 16.03.2020
933 Rain 10 1020 76 10000 3.1 340 12:18 16.03.2020
934 Clouds 10 1020 76 10000 3.1 350 11:41 16.03.2020
935 Clouds 9 1020 87 10000 2.6 10 11:19 16.03.2020
936 Clouds 9 1019 87 10000 3.6 340 10:43 16.03.2020
937 Clouds 9 1019 87 10000 3.6 360 10:24 16.03.2020
938 Clouds 8 1019 87 10000 3.1 350 09:46 16.03.2020
939 Clouds 8 1018 87 10000 2.1 350 09:28 16.03.2020
940 Clouds 8 1018 87 10000 2.1 350 08:58 16.03.2020
941 Clouds 7 1017 87 10000 2.6 300 08:26 16.03.2020
942 Clouds 7 1017 87 10000 2.6 300 07:56 16.03.2020
943 Clouds 7 1017 87 10000 2.1 330 07:38 16.03.2020
944 Rain 7 1016 87 10000 1.5 0 07:18 16.03.2020
945 Rain 7 1016 87 10000 2.6 320 06:27 16.03.2020
946 Clouds 7 1015 87 10000 2.6 350 05:54 16.03.2020
947 Clouds 6 1014 87 10000 0.9 356 03:31 16.03.2020
948 Clouds 8 1012 81 10000 0.5 330 01:29 16.03.2020
949 Clouds 8 1012 75 10000 0.5 0 00:43 16.03.2020
950 Clouds 8 1012 76 10000 2.1 330 23:49 15.03.2020
951 Clouds 8 1012 76 10000 1 0 23:23 15.03.2020
952 Clouds 9 1011 71 10000 2.1 340 22:58 15.03.2020
953 Clouds 9 1011 71 10000 2.1 340 22:38 15.03.2020
954 Clouds 9 1011 71 10000 1.5 10 22:20 15.03.2020
955 Clouds 10 1011 58 10000 1.5 330 21:39 15.03.2020
956 Clouds 10 1011 58 10000 1.5 330 21:20 15.03.2020
957 Clouds 11 1011 58 10000 1.53 260 20:55 15.03.2020
958 Clouds 11 1011 58 10000 0.5 170 20:36 15.03.2020
959 Clouds 12 1010 54 10000 2.6 160 20:18 15.03.2020
960 Clouds 13 1010 50 10000 3.1 170 19:42 15.03.2020
961 Clouds 14 1010 51 10000 4.6 160 19:24 15.03.2020
962 Clouds 14 1010 51 10000 4.6 160 18:59 15.03.2020
963 Clouds 15 1010 48 10000 4.6 170 18:40 15.03.2020
964 Clouds 15 1010 48 10000 4.6 180 18:21 15.03.2020
965 Clouds 16 1010 48 10000 4.6 180 17:57 15.03.2020
966 Clouds 16 1010 48 10000 6.2 170 17:38 15.03.2020
967 Clouds 16 1010 48 10000 6.2 180 17:18 15.03.2020
968 Clouds 16 1010 51 10000 5.7 160 16:43 15.03.2020
969 Clouds 16 1010 51 10000 5.7 160 16:25 15.03.2020
970 Clouds 16 1011 51 10000 6.2 180 15:59 15.03.2020
971 Clouds 16 1011 51 10000 6.2 180 15:41 15.03.2020
972 Clouds 16 1011 54 10000 7.2 170 15:20 15.03.2020
973 Clouds 15 1012 54 10000 7.7 170 14:46 15.03.2020
974 Clouds 15 1012 54 10000 7.7 170 14:25 15.03.2020
975 Clouds 15 1012 58 10000 6.7 190 13:59 15.03.2020
976 Clouds 14 1012 58 10000 5.7 190 13:38 15.03.2020
977 Clouds 14 1012 58 10000 5.7 190 13:20 15.03.2020
978 Clouds 13 1014 66 10000 5.1 170 12:44 15.03.2020
979 Clouds 13 1014 66 10000 5.1 170 12:26 15.03.2020
980 Clouds 12 1014 76 10000 5.1 210 11:59 15.03.2020
981 Clouds 12 1014 76 10000 5.1 210 11:40 15.03.2020
982 Clouds 10 1014 76 10000 7.2 190 11:22 15.03.2020
983 Clouds 10 1015 81 10000 6.2 160 10:56 15.03.2020
984 Clouds 10 1015 81 10000 6.2 160 10:37 15.03.2020
985 Clouds 10 1015 76 10000 5.7 170 10:18 15.03.2020
986 Clouds 9 1015 76 10000 4.6 170 09:40 15.03.2020
987 Clouds 9 1015 71 10000 5.1 190 09:22 15.03.2020
988 Clouds 9 1015 81 10000 4.1 180 08:44 15.03.2020
989 Clouds 8 1015 81 10000 4.6 170 08:21 15.03.2020
990 Clouds 8 1015 81 10000 4.6 170 07:51 15.03.2020
991 Clouds 8 1015 81 10000 4.1 180 07:32 15.03.2020
992 Clouds 8 1015 87 10000 4.1 180 06:53 15.03.2020
993 Clouds 8 1015 87 10000 3.1 160 06:24 15.03.2020
994 Clouds 7 1016 93 10000 3.1 180 05:21 15.03.2020
995 Clouds 7 1016 87 10000 4.1 160 04:43 15.03.2020
996 Clouds 7 1016 87 10000 4.1 160 04:25 15.03.2020
997 Clouds 7 1016 93 10000 3.6 170 03:54 15.03.2020
998 Clouds 7 1017 93 10000 2.6 160 02:47 15.03.2020
999 Clouds 7 1017 93 10000 3.6 160 01:40 15.03.2020
1000 Clouds 8 1018 87 10000 2.6 150 00:47 15.03.2020
1001 Clouds 8 1018 87 10000 2.6 150 00:27 15.03.2020
1002 Clouds 8 1018 87 10000 3.1 180 23:58 14.03.2020
1003 Clouds 8 1018 87 10000 3.6 170 23:37 14.03.2020
1004 Clouds 8 1018 81 10000 4.6 180 23:18 14.03.2020
1005 Clouds 9 1018 87 10000 4.1 180 22:44 14.03.2020
1006 Clouds 9 1018 87 10000 4.1 180 22:26 14.03.2020
1007 Clouds 9 1018 87 10000 2.6 210 21:57 14.03.2020
1008 Clouds 9 1019 87 10000 3.1 180 21:37 14.03.2020
1009 Clouds 10 1019 81 10000 3.6 160 21:19 14.03.2020
1010 Clouds 10 1019 81 10000 3.6 160 21:19 14.03.2020
1011 Clouds 10 1019 81 10000 3.6 160 20:59 14.03.2020
1012 Clouds 10 1019 81 10000 2.1 160 20:41 14.03.2020
1013 Rain 10 1019 81 10000 2.1 170 20:20 14.03.2020
1014 Rain 10 1019 81 10000 2.1 170 19:59 14.03.2020
1015 Rain 10 1018 81 10000 2.6 180 19:40 14.03.2020
1016 Clouds 10 1018 81 10000 3.6 180 19:20 14.03.2020
1017 Rain 11 1018 81 10000 2.1 200 18:39 14.03.2020
1018 Clouds 11 1019 81 10000 5.1 190 18:20 14.03.2020
1019 Clouds 11 1018 81 10000 4.6 190 17:41 14.03.2020
1020 Rain 11 1018 76 10000 5.1 210 17:21 14.03.2020
1021 Rain 11 1018 76 10000 5.1 210 16:58 14.03.2020
1022 Clouds 11 1018 76 10000 5.7 190 16:38 14.03.2020
1023 Rain 11 1018 81 10000 5.1 200 16:18 14.03.2020
1024 Clouds 11 1018 76 10000 5.1 200 15:28 14.03.2020
1025 Clouds 11 1019 81 10000 5.7 200 14:59 14.03.2020
1026 Clouds 11 1019 76 10000 4.6 210 14:59 14.03.2020
1027 Clouds 11 1019 81 10000 5.7 200 14:39 14.03.2020
1028 Clouds 10 1019 76 10000 5.1 220 14:20 14.03.2020
1029 Clouds 10 1019 76 10000 5.1 220 13:57 14.03.2020
1030 Clouds 10 1019 76 10000 6.7 190 13:38 14.03.2020
1031 Rain 10 1019 76 10000 5.7 180 13:19 14.03.2020
1032 Clouds 9 1019 71 10000 6.2 180 12:44 14.03.2020
1033 Clouds 9 1019 71 10000 6.2 180 12:25 14.03.2020
1034 Rain 9 1020 70 10000 5.7 170 11:46 14.03.2020
1035 Rain 9 1020 70 10000 5.7 170 11:26 14.03.2020
1036 Rain 8 1020 75 10000 5.7 160 10:57 14.03.2020
1037 Rain 8 1020 75 10000 5.7 160 10:39 14.03.2020
1038 Rain 8 1020 81 9000 5.1 160 10:20 14.03.2020
1039 Rain 7 1020 81 10000 4.1 160 09:41 14.03.2020
1040 Clouds 7 1020 81 10000 5.1 160 09:22 14.03.2020
1041 Drizzle 7 1020 81 10000 3.6 160 08:47 14.03.2020
1042 Drizzle 6 1020 81 10000 3.6 160 08:27 14.03.2020
1043 Clouds 6 1020 75 10000 3.6 160 07:49 14.03.2020
1044 Clouds 6 1020 75 10000 3.6 160 07:23 14.03.2020
1045 Clouds 6 1019 75 10000 4.1 160 06:59 14.03.2020
1046 Clouds 6 1020 75 10000 3.1 140 06:39 14.03.2020
1047 Clouds 6 1019 81 10000 2.1 190 05:19 14.03.2020
1048 Clouds 6 1020 87 10000 1.5 90 03:43 14.03.2020
1049 Clouds 6 1021 81 10000 2.1 80 03:23 14.03.2020
1050 Clouds 7 1021 75 10000 1.5 50 02:22 14.03.2020
1051 Clouds 7 1021 57 10000 2.6 240 00:44 14.03.2020
1052 Clouds 7 1021 57 10000 2.6 210 23:46 13.03.2020
1053 Clouds 7 1021 57 10000 2.6 210 23:27 13.03.2020
1054 Rain 7 1021 57 10000 2.6 220 22:49 13.03.2020
1055 Rain 7 1021 57 10000 2.6 220 22:26 13.03.2020
1056 Rain 7 1021 65 10000 2.6 220 21:44 13.03.2020
1057 Rain 7 1021 53 10000 2.6 250 21:22 13.03.2020
1058 Rain 8 1021 53 10000 2.6 250 20:59 13.03.2020
1059 Rain 8 1021 53 10000 1.5 250 20:40 13.03.2020
1060 Rain 8 1021 56 10000 2.1 240 20:20 13.03.2020
1061 Rain 9 1021 57 10000 1.5 0 19:48 13.03.2020
1062 Rain 9 1021 61 10000 2.1 250 19:30 13.03.2020
1063 Rain 11 1021 61 10000 3.6 250 18:49 13.03.2020
1064 Rain 11 1021 61 10000 3.6 250 18:31 13.03.2020
1065 Rain 11 1021 61 10000 3.6 270 17:57 13.03.2020
1066 Rain 11 1022 61 10000 3.6 280 17:39 13.03.2020
1067 Clouds 11 1022 50 10000 3.1 230 17:20 13.03.2020
1068 Rain 12 1022 45 10000 4.6 230 16:42 13.03.2020
1069 Rain 12 1022 45 10000 4.6 230 16:24 13.03.2020
1070 Rain 12 1022 43 10000 3.6 250 15:58 13.03.2020
1071 Rain 12 1022 43 10000 4.6 250 15:38 13.03.2020
1072 Clouds 12 1022 46 10000 3.6 270 15:20 13.03.2020
1073 Clouds 12 1023 50 10000 4.6 260 14:43 13.03.2020
1074 Clouds 12 1023 50 10000 4.6 260 14:22 13.03.2020
1075 Clouds 12 1023 50 10000 4.1 280 13:58 13.03.2020
1076 Clouds 11 1023 53 10000 4.6 250 13:39 13.03.2020
1077 Clouds 11 1023 57 10000 4.6 260 13:20 13.03.2020
1078 Clouds 11 1023 57 10000 4.6 260 12:55 13.03.2020
1079 Clouds 10 1023 57 10000 4.6 250 12:36 13.03.2020
1080 Clouds 10 1023 61 10000 5.1 260 12:18 13.03.2020
1081 Clouds 10 1023 61 10000 5.1 230 11:43 13.03.2020
1082 Clouds 10 1023 61 10000 5.1 230 11:25 13.03.2020
1083 Clouds 9 1023 70 10000 4.1 240 10:57 13.03.2020
1084 Clouds 8 1023 70 10000 4.1 240 10:39 13.03.2020
1085 Clouds 8 1023 70 10000 4.6 240 10:21 13.03.2020
1086 Clear 7 1023 70 10000 4.1 250 09:44 13.03.2020
1087 Clear 6 1022 75 10000 5.7 240 09:25 13.03.2020
1088 Clear 4 1022 80 10000 4.6 230 08:48 13.03.2020
1089 Clear 4 1022 80 10000 4.6 230 08:23 13.03.2020
1090 Clear 4 1021 75 10000 5.1 240 07:58 13.03.2020
1091 Clear 4 1021 75 10000 3.6 240 07:38 13.03.2020
1092 Clear 4 1021 75 10000 2.6 260 07:19 13.03.2020
1093 Clear 4 1021 75 10000 4.6 230 06:44 13.03.2020
1094 Clear 4 1021 75 10000 4.6 230 06:44 13.03.2020
1095 Clear 4 1021 75 10000 3.1 230 06:18 13.03.2020
1096 Clear 4 1022 80 10000 3.6 230 05:43 13.03.2020
1097 Clear 4 1020 75 10000 4.1 250 04:39 13.03.2020
1098 Clear 4 1020 80 10000 5.7 250 03:50 13.03.2020
1099 Clouds 5 1019 70 10000 5.7 250 01:49 13.03.2020
1100 Clouds 6 1019 65 10000 5.1 240 01:19 13.03.2020
1101 Clouds 6 1019 65 10000 5.1 240 00:56 13.03.2020
1102 Clouds 6 1019 65 10000 6.2 250 00:38 13.03.2020
1103 Clouds 6 1020 60 10000 4.6 260 00:18 13.03.2020
1104 Clouds 6 1020 60 10000 4.6 270 23:37 12.03.2020
1105 Clouds 7 1019 61 10000 4.1 250 23:18 12.03.2020
1106 Clouds 7 1019 61 10000 4.6 260 22:44 12.03.2020
1107 Clouds 7 1019 61 10000 4.6 260 22:25 12.03.2020
1108 Clouds 8 1018 61 10000 3.6 260 21:55 12.03.2020
1109 Clouds 8 1018 57 10000 5.1 260 21:36 12.03.2020
1110 Clouds 8 1018 53 10000 4.6 280 21:18 12.03.2020
1111 Clouds 9 1018 53 10000 4.1 270 20:42 12.03.2020
1112 Rain 9 1017 53 10000 4.1 290 20:20 12.03.2020
1113 Rain 10 1017 59 10000 5.1 290 19:42 12.03.2020
1114 Rain 10 1016 40 10000 6.7 270 19:21 12.03.2020
1115 Rain 10 1016 40 10000 6.7 270 18:58 12.03.2020
1116 Rain 11 1016 59 10000 7.2 250 18:39 12.03.2020
1117 Rain 11 1017 54 10000 6.2 270 18:21 12.03.2020
1118 Rain 12 1016 50 10000 5.1 260 17:41 12.03.2020
1119 Clouds 12 1016 47 10000 4.6 290 17:22 12.03.2020
1120 Clouds 12 1016 47 10000 4.6 290 16:59 12.03.2020
1121 Clouds 12 1016 46 10000 6.7 270 16:41 12.03.2020
1122 Clouds 12 1016 43 10000 8.7 240 16:22 12.03.2020
1123 Clouds 12 1016 46 10000 7.7 260 15:49 12.03.2020
1124 Clouds 12 1016 46 10000 7.7 260 15:28 12.03.2020
1125 Clouds 12 1016 46 10000 7.7 260 15:28 12.03.2020
1126 Clouds 13 1016 47 10000 7.7 250 15:28 12.03.2020
1127 Clouds 12 1017 50 10000 6.7 250 14:56 12.03.2020
1128 Clouds 12 1017 50 10000 6.7 250 14:56 12.03.2020
1129 Clouds 12 1017 50 10000 6.7 250 14:37 12.03.2020
1130 Clouds 12 1017 58 10000 5.7 250 14:18 12.03.2020
1131 Clouds 11 1017 66 10000 4.6 280 13:40 12.03.2020
1132 Clouds 11 1017 66 10000 5.1 250 13:21 12.03.2020
1133 Clouds 11 1017 66 10000 5.1 250 12:55 12.03.2020
1134 Clouds 11 1017 66 10000 5.1 250 12:55 12.03.2020
1135 Clouds 11 1017 66 10000 4.1 250 12:37 12.03.2020
1136 Clouds 11 1017 66 10000 4.1 250 12:37 12.03.2020
1137 Clouds 10 1017 66 10000 4.1 260 12:18 12.03.2020
1138 Clouds 10 1017 66 10000 4.1 260 12:18 12.03.2020
1139 Clouds 10 1017 66 10000 4.1 260 11:55 12.03.2020
1140 Clouds 10 1017 66 10000 5.1 260 11:36 12.03.2020
1141 Rain 10 1017 61 10000 6.2 250 11:18 12.03.2020
1142 Clouds 10 1017 66 10000 6.2 270 10:43 12.03.2020
1143 Clouds 10 1017 66 10000 6.7 270 10:23 12.03.2020
1144 Clouds 10 1017 66 10000 6.7 270 09:59 12.03.2020
1145 Clouds 10 1016 71 10000 5.7 270 09:40 12.03.2020
1146 Rain 9 1016 76 10000 4.6 260 09:22 12.03.2020
1147 Rain 9 1016 76 10000 6.2 270 08:39 12.03.2020
1148 Rain 9 1015 81 10000 4.6 280 08:18 12.03.2020
1149 Rain 10 1015 76 10000 4.6 260 07:47 12.03.2020
1150 Clouds 10 1014 76 10000 5.1 250 07:22 12.03.2020
1151 Rain 10 1014 87 10000 5.7 240 06:26 12.03.2020
1152 Rain 10 1014 87 10000 8.2 260 05:35 12.03.2020
1153 Clouds 12 1013 87 10000 6.7 220 03:45 12.03.2020
1154 Clouds 12 1014 81 10000 5.7 220 02:19 12.03.2020
1155 Clouds 12 1015 76 10000 7.2 230 01:24 12.03.2020
1156 Clouds 12 1015 81 10000 5.1 220 00:42 12.03.2020
1157 Clouds 12 1014 66 10000 10.8 210 23:59 11.03.2020
1158 Clouds 12 1014 66 10000 10.8 210 23:37 11.03.2020
1159 Clear 12 1016 76 10000 8.7 220 23:18 11.03.2020
1160 Clear 12 1015 71 10000 6.7 220 22:42 11.03.2020
1161 Clear 12 1015 71 10000 6.7 220 22:23 11.03.2020
1162 Clear 13 1015 67 10000 6.2 210 21:58 11.03.2020
1163 Clear 13 1015 71 10000 5.7 200 21:40 11.03.2020
1164 Clear 13 1015 71 10000 5.7 200 21:22 11.03.2020
1165 Clear 14 1015 67 10000 5.7 200 20:57 11.03.2020
1166 Clear 14 1015 67 10000 5.7 200 20:57 11.03.2020
1167 Clear 14 1015 67 10000 5.7 190 20:37 11.03.2020
1168 Clouds 14 1015 67 10000 5.7 190 20:19 11.03.2020
1169 Clouds 14 1016 71 10000 3.6 220 19:42 11.03.2020
1170 Clouds 15 1016 71 10000 3.6 220 19:24 11.03.2020
1171 Clouds 15 1016 63 10000 8.2 210 18:57 11.03.2020
1172 Clouds 15 1016 63 10000 8.2 210 18:38 11.03.2020
1173 Clouds 15 1016 63 10000 8.2 210 18:38 11.03.2020
1174 Clouds 15 1016 63 10000 6.2 210 18:19 11.03.2020
1175 Clouds 16 1016 63 10000 8.2 220 17:55 11.03.2020
1176 Clouds 16 1016 63 10000 8.2 220 17:55 11.03.2020
1177 Clouds 16 1016 63 10000 8.2 220 17:37 11.03.2020
1178 Clouds 16 1016 59 10000 7.2 220 17:19 11.03.2020
1179 Clouds 16 1016 59 10000 6.7 210 16:44 11.03.2020
1180 Clouds 16 1016 63 10000 7.7 210 16:20 11.03.2020
1181 Clouds 16 1016 59 10000 6.7 220 15:44 11.03.2020
1182 Clouds 16 1017 63 10000 8.7 230 15:23 11.03.2020
1183 Clouds 16 1017 63 10000 8.7 230 14:56 11.03.2020
1184 Clouds 16 1017 67 10000 8.2 220 14:38 11.03.2020
1185 Clouds 16 1017 63 10000 7.7 230 14:19 11.03.2020
1186 Clouds 16 1017 63 10000 6.7 220 13:44 11.03.2020
1187 Clouds 16 1017 63 10000 6.7 220 13:25 11.03.2020
1188 Clouds 16 1018 63 10000 8.2 230 12:57 11.03.2020
1189 Clouds 16 1018 63 10000 7.7 220 12:39 11.03.2020
1190 Clouds 15 1018 67 10000 8.7 210 12:19 11.03.2020
1191 Clouds 15 1018 67 10000 7.7 210 11:41 11.03.2020
1192 Clouds 14 1018 72 10000 8.2 210 11:23 11.03.2020
1193 Clouds 14 1018 72 10000 8.2 210 10:56 11.03.2020
1194 Clouds 14 1018 76 10000 6.7 220 10:37 11.03.2020
1195 Clouds 14 1017 76 10000 7.2 220 10:18 11.03.2020
1196 Clouds 13 1018 76 10000 6.2 220 09:41 11.03.2020
1197 Clouds 13 1017 76 10000 6.2 220 09:23 11.03.2020
1198 Clouds 13 1017 82 10000 8.2 220 08:45 11.03.2020
1199 Clouds 12 1017 82 10000 8.2 220 08:26 11.03.2020
1200 Clouds 12 1017 82 10000 6.2 210 07:56 11.03.2020
1201 Clouds 12 1017 82 10000 6.2 200 07:37 11.03.2020
1202 Clouds 12 1017 82 10000 5.1 210 07:18 11.03.2020
1203 Clouds 12 1016 82 10000 6.2 210 06:37 11.03.2020
1204 Clouds 13 1017 93 10000 5.7 240 05:33 11.03.2020
1205 Clouds 13 1017 93 10000 6.2 230 03:39 11.03.2020
1206 Clouds 13 1016 82 10000 6.7 220 01:57 11.03.2020
1207 Clouds 13 1017 93 10000 6.2 240 01:26 11.03.2020
1208 Clouds 13 1016 82 10000 6.7 220 00:45 11.03.2020
1209 Clouds 13 1016 82 10000 7.7 210 23:56 10.03.2020
1210 Clouds 13 1016 82 10000 7.7 210 23:55 10.03.2020
1211 Clouds 13 1016 82 10000 7.7 210 23:55 10.03.2020
1212 Clouds 13 1016 82 10000 7.7 210 23:55 10.03.2020
1213 Clouds 13 1016 82 10000 7.7 210 23:37 10.03.2020
1214 Clouds 13 1015 82 10000 7.7 220 23:18 10.03.2020
1215 Clouds 13 1015 82 10000 6.7 220 22:38 10.03.2020
1216 Clouds 13 1015 82 10000 6.7 220 22:19 10.03.2020
1217 Clouds 13 1015 82 10000 6.7 220 22:19 10.03.2020
1218 Clouds 13 1015 82 10000 6.7 220 21:56 10.03.2020
1219 Clouds 13 1016 87 10000 6.2 230 21:38 10.03.2020
1220 Clouds 13 1016 87 10000 6.7 240 21:19 10.03.2020
1221 Clouds 13 1016 87 10000 6.7 240 20:57 10.03.2020
1222 Clouds 14 1015 87 10000 6.7 240 20:38 10.03.2020
1223 Clouds 14 1014 77 10000 7.7 220 20:18 10.03.2020
1224 Clouds 14 1014 77 10000 7.7 220 19:56 10.03.2020
1225 Clouds 14 1014 77 10000 7.7 220 19:36 10.03.2020
1226 Clouds 14 1014 77 10000 7.2 230 19:18 10.03.2020
1227 Clouds 14 1014 77 10000 7.2 230 18:43 10.03.2020
1228 Clouds 14 1013 77 10000 8.2 240 18:25 10.03.2020
1229 Clouds 14 1013 77 10000 8.2 240 17:57 10.03.2020
1230 Clouds 15 1013 77 10000 8.2 240 17:38 10.03.2020
1231 Clouds 15 1013 77 10000 8.2 230 17:20 10.03.2020
1232 Clouds 15 1013 77 10000 9.8 240 16:38 10.03.2020
1233 Clouds 15 1013 77 10000 9.8 240 16:18 10.03.2020
1234 Clouds 14 1013 77 10000 8.2 230 15:55 10.03.2020
1235 Clouds 14 1013 77 10000 7.2 230 15:37 10.03.2020
1236 Clouds 14 1013 82 10000 7.7 230 15:18 10.03.2020
1237 Clouds 14 1013 82 10000 7.2 230 14:41 10.03.2020
1238 Clouds 14 1013 82 10000 6.2 230 14:19 10.03.2020
1239 Clouds 14 1013 82 10000 6.2 230 13:57 10.03.2020
1240 Clouds 13 1013 82 10000 7.7 230 13:37 10.03.2020
1241 Clouds 13 1013 82 10000 8.2 230 13:19 10.03.2020
1242 Clouds 13 1013 87 10000 7.2 230 12:39 10.03.2020
1243 Clouds 12 1013 82 10000 6.2 240 12:19 10.03.2020
1244 Clouds 12 1013 82 10000 6.2 240 11:57 10.03.2020
1245 Clouds 12 1013 82 10000 6.2 240 11:39 10.03.2020
1246 Clouds 12 1013 87 10000 8.2 230 11:20 10.03.2020
1247 Clouds 11 1013 87 10000 6.2 230 10:41 10.03.2020
1248 Clouds 11 1013 87 10000 6.2 230 10:23 10.03.2020
1249 Clouds 11 1013 87 10000 6.7 240 09:57 10.03.2020
1250 Clouds 11 1012 93 10000 6.7 230 09:39 10.03.2020
1251 Clouds 10 1012 93 10000 6.7 240 09:18 10.03.2020
1252 Clouds 10 1012 93 10000 6.7 230 08:46 10.03.2020
1253 Clouds 10 1012 93 10000 6.2 240 08:28 10.03.2020
1254 Clouds 10 1012 93 10000 6.2 230 07:50 10.03.2020
1255 Clouds 10 1012 93 10000 6.2 230 07:31 10.03.2020
1256 Rain 9 1012 93 10000 4.6 220 06:45 10.03.2020
1257 Clouds 9 1012 93 10000 4.6 220 06:27 10.03.2020
1258 Rain 9 1012 93 7000 5.1 220 05:41 10.03.2020
1259 Drizzle 8 1012 93 6000 5.7 200 04:48 10.03.2020
1260 Rain 7 1014 93 9000 6.7 210 03:41 10.03.2020
1261 Rain 7 1014 93 10000 8.2 190 02:27 10.03.2020
1262 Rain 7 1016 93 8000 6.7 190 01:25 10.03.2020
1263 Rain 7 1017 87 9000 5.1 220 00:42 10.03.2020
1264 Rain 7 1017 87 9000 5.1 220 00:23 10.03.2020
1265 Rain 7 1018 81 10000 7.2 220 23:41 09.03.2020
1266 Rain 7 1018 87 10000 5.7 230 23:21 09.03.2020
1267 Drizzle 8 1018 66 10000 5.7 230 22:43 09.03.2020
1268 Drizzle 8 1018 66 10000 5.7 230 22:22 09.03.2020
1269 Drizzle 8 1018 66 10000 5.7 230 22:22 09.03.2020
1270 Rain 8 1019 70 10000 4.6 240 21:59 09.03.2020
1271 Clouds 9 1018 61 10000 5.7 230 21:40 09.03.2020
1272 Clouds 9 1019 57 10000 3.6 220 21:21 09.03.2020
1273 Clouds 9 1019 57 10000 3.6 220 20:56 09.03.2020
1274 Clouds 9 1019 57 10000 5.1 230 20:38 09.03.2020
1275 Clouds 9 1019 57 10000 5.1 230 20:20 09.03.2020
1276 Clouds 9 1019 66 10000 2.6 230 19:45 09.03.2020
1277 Clouds 9 1019 66 10000 2.6 230 19:45 09.03.2020
1278 Clouds 9 1019 66 10000 2.6 230 19:25 09.03.2020
1279 Clouds 9 1019 66 10000 2.6 230 19:25 09.03.2020
1280 Clouds 10 1019 53 10000 4.1 240 18:58 09.03.2020
1281 Clouds 10 1019 53 10000 4.1 240 18:58 09.03.2020
1282 Clouds 10 1018 53 10000 5.1 250 18:39 09.03.2020
1283 Clouds 10 1018 53 10000 3.6 260 18:20 09.03.2020
1284 Clouds 11 1018 53 10000 3.6 260 17:58 09.03.2020
1285 Clouds 11 1018 57 10000 5.1 260 17:38 09.03.2020
1286 Clouds 11 1018 57 10000 5.1 260 17:38 09.03.2020
1287 Clouds 11 1018 50 10000 6.7 260 17:20 09.03.2020
1288 Rain 11 1018 54 10000 6.2 260 16:58 09.03.2020
1289 Rain 11 1018 54 10000 6.2 260 16:40 09.03.2020
1290 Clouds 11 1018 62 10000 5.1 260 16:22 09.03.2020
1291 Clouds 11 1018 62 10000 5.1 260 15:58 09.03.2020
1292 Clouds 11 1018 62 10000 4.1 260 15:39 09.03.2020
1293 Clouds 11 1018 62 10000 4.1 260 15:21 09.03.2020
1294 Rain 11 1018 66 10000 3.6 260 14:57 09.03.2020
1295 Rain 11 1018 62 10000 7.2 290 14:37 09.03.2020
1296 Rain 11 1018 62 10000 7.2 290 14:19 09.03.2020
1297 Rain 10 1018 66 10000 7.7 260 13:55 09.03.2020
1298 Clouds 10 1018 66 10000 7.7 260 13:37 09.03.2020
1299 Clouds 10 1018 71 10000 4.1 260 13:18 09.03.2020
1300 Clouds 9 1018 76 10000 7.7 290 12:43 09.03.2020
1301 Clouds 9 1018 75 10000 4.6 270 12:22 09.03.2020
1302 Rain 9 1018 76 10000 5.1 260 11:54 09.03.2020
1303 Clouds 8 1018 81 10000 4.6 260 11:36 09.03.2020
1304 Clouds 8 1018 81 10000 4.6 260 11:18 09.03.2020
1305 Clouds 8 1018 81 10000 5.7 270 10:54 09.03.2020
1306 Clouds 7 1017 75 10000 6.2 250 10:36 09.03.2020
1307 Clouds 7 1017 75 10000 6.2 250 10:18 09.03.2020
1308 Clouds 6 1017 81 10000 5.1 240 09:39 09.03.2020
1309 Clouds 6 1017 81 10000 5.1 240 09:21 09.03.2020
1310 Clouds 5 1016 81 10000 3.6 250 08:44 09.03.2020
1311 Clouds 5 1016 93 10000 4.1 250 08:26 09.03.2020
1312 Clouds 5 1015 86 10000 3.1 240 07:42 09.03.2020
1313 Clouds 5 1015 86 10000 3.1 240 07:22 09.03.2020
1314 Clouds 5 1014 93 10000 5.1 250 06:46 09.03.2020
1315 Clouds 5 1015 81 10000 3.1 240 06:27 09.03.2020
1316 Clouds 5 1014 86 10000 3.6 250 05:58 09.03.2020
1317 Clouds 5 1014 81 10000 3.6 250 05:39 09.03.2020
1318 Clouds 5 1013 86 10000 5.1 250 04:43 09.03.2020
1319 Clouds 5 1013 86 10000 5.1 250 04:23 09.03.2020
1320 Clouds 5 1013 87 10000 4.1 250 03:28 09.03.2020
1321 Clouds 5 1013 86 10000 2.6 230 01:58 09.03.2020
1322 Clouds 6 1013 81 10000 4.6 240 00:40 09.03.2020
1323 Clouds 6 1013 81 10000 4.6 230 00:22 09.03.2020
1324 Clouds 6 1013 81 10000 3.6 240 23:53 08.03.2020
1325 Clouds 6 1013 81 10000 3.1 250 23:28 08.03.2020
1326 Clouds 7 1012 81 10000 4.1 240 22:58 08.03.2020
1327 Clouds 7 1012 87 10000 3.6 240 22:39 08.03.2020
1328 Clouds 7 1012 87 10000 3.6 240 22:21 08.03.2020
1329 Clouds 7 1012 87 10000 3.6 240 22:21 08.03.2020
1330 Clouds 7 1012 87 10000 3.6 250 21:57 08.03.2020
1331 Clouds 7 1012 87 10000 3.6 250 21:39 08.03.2020
1332 Clouds 7 1012 87 10000 2.6 220 21:19 08.03.2020
1333 Clouds 7 1012 87 10000 2.6 220 21:19 08.03.2020
1334 Clouds 8 1012 87 10000 2.6 220 20:56 08.03.2020
1335 Clouds 8 1012 87 10000 2.6 230 20:37 08.03.2020
1336 Clouds 8 1012 87 10000 2.6 230 20:18 08.03.2020
1337 Rain 8 1012 93 10000 1.5 0 19:38 08.03.2020
1338 Rain 8 1012 87 10000 5.1 230 19:19 08.03.2020
1339 Clouds 8 1011 87 10000 2.6 220 18:43 08.03.2020
1340 Rain 8 1012 87 10000 2.1 250 18:24 08.03.2020
1341 Rain 8 1011 87 10000 3.1 230 17:57 08.03.2020
1342 Rain 9 1012 81 10000 7.2 250 17:39 08.03.2020
1343 Rain 10 1012 81 10000 7.2 250 17:20 08.03.2020
1344 Rain 10 1012 81 10000 7.2 250 16:55 08.03.2020
1345 Rain 10 1011 87 10000 6.2 190 16:36 08.03.2020
1346 Rain 10 1011 93 6000 7.2 200 16:18 08.03.2020
1347 Drizzle 10 1012 93 4000 7.7 200 15:41 08.03.2020
1348 Drizzle 10 1012 93 4000 7.7 200 15:21 08.03.2020
1349 Rain 10 1012 81 8000 8.7 190 14:56 08.03.2020
1350 Clouds 10 1012 81 10000 8.7 200 14:37 08.03.2020
1351 Clouds 10 1013 81 10000 9.8 200 14:19 08.03.2020
1352 Clouds 10 1013 76 10000 9.8 210 13:41 08.03.2020
1353 Clouds 10 1014 76 10000 8.2 210 13:20 08.03.2020
1354 Clouds 10 1014 76 10000 8.2 210 12:43 08.03.2020
1355 Clouds 10 1014 76 10000 7.2 200 12:25 08.03.2020
1356 Clouds 10 1014 76 10000 7.7 200 11:58 08.03.2020
1357 Clouds 10 1014 76 10000 7.7 200 11:40 08.03.2020
1358 Clouds 10 1015 76 10000 8.7 200 11:21 08.03.2020
1359 Clouds 9 1015 76 10000 6.7 190 10:42 08.03.2020
1360 Clouds 9 1015 76 10000 7.7 190 10:24 08.03.2020
1361 Clouds 9 1015 76 10000 7.7 190 09:59 08.03.2020
1362 Clouds 9 1016 81 10000 5.1 190 09:37 08.03.2020
1363 Clouds 9 1016 76 10000 6.2 190 09:19 08.03.2020
1364 Clouds 8 1016 81 10000 7.7 190 08:42 08.03.2020
1365 Clouds 8 1016 81 10000 7.2 190 08:21 08.03.2020
1366 Clouds 7 1016 81 10000 7.2 190 07:45 08.03.2020
1367 Clouds 7 1016 81 10000 7.2 190 07:26 08.03.2020
1368 Clouds 7 1016 81 10000 6.2 180 06:43 08.03.2020
1369 Clouds 7 1016 81 10000 6.2 180 06:24 08.03.2020
1370 Clouds 7 1017 81 10000 5.1 180 05:43 08.03.2020
1371 Clouds 8 1019 93 10000 5.04 204 03:52 08.03.2020
1372 Clouds 8 1019 81 10000 6.2 200 02:40 08.03.2020
1373 Clouds 8 1019 87 10000 4.1 210 01:38 08.03.2020
1374 Clouds 8 1020 87 10000 4.1 220 01:18 08.03.2020
1375 Clouds 9 1020 87 10000 3.1 210 00:30 08.03.2020
1376 Clouds 9 1020 87 10000 3.6 210 23:57 07.03.2020
1377 Clouds 9 1021 71 10000 3.6 190 23:36 07.03.2020
1378 Clouds 9 1021 71 10000 3.6 190 23:36 07.03.2020
1379 Clouds 9 1021 87 10000 3.1 210 23:18 07.03.2020
1380 Clouds 9 1021 71 10000 3.6 200 22:38 07.03.2020
1381 Clouds 9 1021 71 10000 3.6 200 22:19 07.03.2020
1382 Clouds 9 1021 71 10000 3.6 200 21:45 07.03.2020
1383 Clouds 9 1021 66 10000 4.1 200 21:23 07.03.2020
1384 Clouds 9 1021 66 10000 4.1 190 20:41 07.03.2020
1385 Clouds 9 1021 66 10000 3.6 190 20:22 07.03.2020
1386 Clouds 9 1021 66 10000 3.1 190 19:55 07.03.2020
1387 Clouds 9 1021 66 10000 2.1 220 19:36 07.03.2020
1388 Clouds 9 1021 66 10000 2.1 220 19:18 07.03.2020
1389 Clouds 10 1021 66 10000 3.6 230 18:39 07.03.2020
1390 Clouds 10 1021 70 10000 3.6 230 18:21 07.03.2020
1391 Clouds 10 1021 53 10000 3.6 240 17:42 07.03.2020
1392 Clouds 10 1021 53 10000 4.1 230 17:20 07.03.2020
1393 Clouds 10 1021 57 10000 4.6 220 16:59 07.03.2020
1394 Clouds 11 1021 53 10000 3.6 230 16:41 07.03.2020
1395 Clouds 11 1021 53 10000 3.6 230 16:22 07.03.2020
1396 Clouds 11 1021 50 10000 4.1 220 15:57 07.03.2020
1397 Clouds 11 1021 53 10000 3.6 250 15:37 07.03.2020
1398 Clouds 11 1021 50 10000 4.1 220 15:37 07.03.2020
1399 Clouds 11 1021 53 10000 3.6 250 15:19 07.03.2020
1400 Clouds 11 1021 57 10000 4.6 240 14:46 07.03.2020
1401 Clouds 11 1021 53 10000 3.6 240 14:25 07.03.2020
1402 Clouds 11 1021 57 10000 2.6 240 13:59 07.03.2020
1403 Clouds 11 1021 57 10000 2.6 240 13:39 07.03.2020
1404 Clouds 11 1021 57 10000 4.6 230 13:19 07.03.2020
1405 Clouds 10 1021 66 10000 4.1 250 12:42 07.03.2020
1406 Clouds 10 1021 66 10000 4.1 250 12:20 07.03.2020
1407 Clouds 9 1022 70 10000 3.6 250 11:57 07.03.2020
1408 Clear 9 1021 75 10000 2.1 250 11:39 07.03.2020
1409 Clear 8 1021 75 10000 2.1 250 11:21 07.03.2020
1410 Clear 7 1021 87 10000 3.1 240 10:41 07.03.2020
1411 Clear 6 1021 87 10000 3.1 240 10:21 07.03.2020
1412 Clear 6 1021 87 10000 3.1 240 10:21 07.03.2020
1413 Clear 5 1021 87 10000 3.1 250 09:57 07.03.2020
1414 Clear 4 1021 93 7000 1.5 0 09:38 07.03.2020
1415 Clear 4 1021 93 7000 1.5 0 09:18 07.03.2020
1416 Clear 4 1021 93 7000 1.5 0 09:18 07.03.2020
1417 Clouds 2 1020 78 6000 2.11 242 08:44 07.03.2020
1418 Clouds 1 1020 89 6000 1.39 254 08:21 07.03.2020
1419 Clouds 1 1019 89 6000 1 0 07:51 07.03.2020
1420 Clear 1 1019 89 7000 1.39 254 07:23 07.03.2020
1421 Clear 2 1018 89 10000 1.39 254 06:59 07.03.2020
1422 Clear 2 1018 89 10000 1.39 254 06:33 07.03.2020
1423 Clear 2 1018 89 10000 1.39 254 05:53 07.03.2020
1424 Clear 2 1017 86 10000 2.02 271 04:56 07.03.2020
1425 Clear 3 1016 86 10000 2.02 271 02:58 07.03.2020
1426 Clear 3 1016 86 10000 2.02 271 02:34 07.03.2020
1427 Clear 4 1016 80 10000 2.3 294 01:46 07.03.2020
1428 Clouds 4 1015 80 10000 2.69 290 00:41 07.03.2020
1429 Clouds 4 1015 78 10000 1 340 00:22 07.03.2020
1430 Clouds 4 1014 78 10000 1.5 280 23:56 06.03.2020
1431 Clouds 4 1014 78 10000 1.5 270 23:38 06.03.2020
1432 Clear 5 1014 75 10000 1.5 270 23:19 06.03.2020
1433 Clear 5 1013 75 10000 1.5 0 22:42 06.03.2020
1434 Clear 5 1013 75 10000 1.5 0 22:18 06.03.2020
1435 Clear 5 1013 75 10000 2.1 290 21:45 06.03.2020
1436 Clear 5 1012 75 10000 1.5 290 21:19 06.03.2020
1437 Clouds 6 1011 75 10000 2.1 310 20:40 06.03.2020
1438 Clouds 6 1011 66 10000 2.1 310 20:21 06.03.2020
1439 Clouds 6 1011 66 10000 2.1 290 19:54 06.03.2020
1440 Rain 7 1010 66 10000 2.6 320 19:36 06.03.2020
1441 Rain 7 1010 66 10000 2.6 320 19:18 06.03.2020
1442 Rain 8 1009 66 10000 4.1 310 18:41 06.03.2020
1443 Rain 8 1008 66 10000 3.6 300 18:20 06.03.2020
1444 Rain 8 1008 66 10000 3.6 300 17:56 06.03.2020
1445 Rain 9 1008 66 10000 3.6 300 17:38 06.03.2020
1446 Clouds 9 1007 57 10000 4.1 310 17:19 06.03.2020
1447 Rain 9 1006 56 10000 5.1 290 16:42 06.03.2020
1448 Rain 9 1006 56 10000 5.1 290 16:21 06.03.2020
1449 Rain 9 1006 57 10000 4.6 290 15:58 06.03.2020
1450 Rain 9 1006 57 10000 4.6 290 15:40 06.03.2020
1451 Clouds 9 1006 57 10000 5.1 300 15:20 06.03.2020
1452 Clouds 9 1005 57 10000 4.6 280 14:40 06.03.2020
1453 Clouds 9 1005 61 10000 5.1 320 14:21 06.03.2020
1454 Clouds 9 1005 61 10000 5.7 320 13:43 06.03.2020
1455 Clouds 9 1004 61 10000 5.1 290 13:23 06.03.2020
1456 Clouds 8 1004 61 10000 5.1 290 12:59 06.03.2020
1457 Clouds 8 1004 61 10000 5.1 290 12:39 06.03.2020
1458 Clouds 8 1004 65 10000 4.6 300 12:20 06.03.2020
1459 Clouds 8 1004 65 10000 4.6 290 11:59 06.03.2020
1460 Clouds 8 1004 65 10000 4.6 290 11:40 06.03.2020
1461 Clouds 7 1003 75 10000 4.1 300 11:20 06.03.2020
1462 Clouds 7 1002 75 10000 4.1 280 10:42 06.03.2020
1463 Clouds 6 1002 75 10000 4.1 280 10:21 06.03.2020
1464 Clouds 6 1001 75 10000 3.6 270 09:58 06.03.2020
1465 Clouds 6 1001 75 10000 3.6 270 09:39 06.03.2020
1466 Clouds 6 1001 87 10000 5.1 300 09:21 06.03.2020
1467 Clouds 5 1000 87 10000 4.1 290 08:46 06.03.2020
1468 Rain 5 1000 87 10000 3.6 280 08:27 06.03.2020
1469 Rain 5 999 87 10000 4.6 270 07:59 06.03.2020
1470 Rain 5 999 87 10000 4.6 270 07:39 06.03.2020
1471 Clouds 5 999 87 10000 4.6 270 07:20 06.03.2020
1472 Clouds 6 998 87 10000 5.1 270 06:41 06.03.2020
1473 Clouds 6 998 87 10000 5.1 270 05:52 06.03.2020
1474 Clouds 6 997 81 10000 5.1 270 05:31 06.03.2020
1475 Clouds 6 997 87 10000 5.7 270 04:59 06.03.2020
1476 Clouds 6 996 81 10000 6.7 280 03:58 06.03.2020
1477 Rain 5 994 81 10000 9.3 270 01:43 06.03.2020
1478 Rain 5 993 87 10000 8.2 270 01:25 06.03.2020
1479 Drizzle 6 993 93 8000 8.2 270 00:48 06.03.2020
1480 Drizzle 6 992 87 7000 8.7 270 00:20 06.03.2020
1481 Drizzle 6 991 87 10000 8.2 270 23:43 05.03.2020
1482 Rain 6 991 87 10000 11.8 280 23:24 05.03.2020
1483 Rain 7 989 81 10000 9.8 270 22:55 05.03.2020
1484 Rain 7 987 93 4500 8.7 280 22:36 05.03.2020
1485 Rain 7 987 93 4500 8.7 280 22:18 05.03.2020
1486 Drizzle 7 987 87 10000 6.7 260 21:54 05.03.2020
1487 Rain 7 986 87 10000 5.7 260 21:36 05.03.2020
1488 Rain 7 986 87 10000 5.7 260 21:18 05.03.2020
1489 Rain 7 985 81 10000 7.7 250 20:42 05.03.2020
1490 Rain 7 985 81 10000 7.7 250 20:42 05.03.2020
1491 Rain 7 985 81 10000 8.2 250 20:20 05.03.2020
1492 Rain 8 984 87 7000 6.2 280 19:59 05.03.2020
1493 Rain 8 982 93 10000 4.1 210 19:39 05.03.2020
1494 Rain 9 982 93 10000 4.1 210 19:21 05.03.2020
1495 Rain 9 982 93 10000 4.1 210 19:21 05.03.2020
1496 Rain 9 982 93 6000 2.6 70 18:58 05.03.2020
1497 Rain 9 982 93 6000 2.6 70 18:37 05.03.2020
1498 Rain 10 983 93 9000 5.1 160 18:19 05.03.2020
1499 Rain 10 983 81 10000 5.7 180 17:57 05.03.2020
1500 Rain 10 983 81 10000 5.7 180 17:57 05.03.2020
1501 Rain 10 984 81 10000 7.7 180 17:39 05.03.2020
1502 Rain 10 984 81 10000 7.7 180 17:20 05.03.2020
1503 Thunderstorm 11 985 81 10000 7.7 190 16:41 05.03.2020
1504 Thunderstorm 11 985 81 10000 7.7 190 16:23 05.03.2020
1505 Rain 11 985 76 10000 7.7 190 15:57 05.03.2020
1506 Rain 12 986 76 10000 7.7 200 15:37 05.03.2020
1507 Clouds 12 986 76 10000 7.7 200 15:19 05.03.2020
1508 Rain 11 987 93 10000 5.1 180 14:41 05.03.2020
1509 Rain 11 987 93 10000 5.1 180 14:22 05.03.2020
1510 Rain 11 987 100 10000 4.1 160 13:58 05.03.2020
1511 Rain 10 988 93 10000 4.6 140 13:40 05.03.2020
1512 Rain 10 988 93 10000 4.6 140 13:20 05.03.2020
1513 Rain 10 988 93 10000 4.6 140 13:20 05.03.2020
1514 Rain 10 989 100 9000 4.6 120 12:55 05.03.2020
1515 Rain 9 990 100 6000 3.1 130 12:37 05.03.2020
1516 Rain 9 990 100 6000 3.1 130 12:18 05.03.2020
1517 Rain 9 990 93 5000 2.6 130 11:56 05.03.2020
1518 Rain 9 991 93 6000 2.6 150 11:36 05.03.2020
1519 Rain 9 991 93 6000 2.6 150 11:18 05.03.2020
1520 Rain 9 991 93 9000 5.1 140 10:55 05.03.2020
1521 Clouds 9 991 93 10000 5.1 130 10:37 05.03.2020
1522 Clouds 9 991 93 10000 5.1 130 10:19 05.03.2020
1523 Clouds 9 991 93 10000 6.7 120 09:41 05.03.2020
1524 Rain 8 993 93 10000 5.1 120 09:22 05.03.2020
1525 Rain 8 994 93 10000 4.1 120 08:43 05.03.2020
1526 Rain 8 994 93 9000 4.1 130 08:25 05.03.2020
1527 Rain 8 995 93 10000 4.6 120 07:46 05.03.2020
1528 Rain 8 996 93 7000 4.6 130 07:22 05.03.2020
1529 Rain 8 996 93 8000 3.6 120 06:48 05.03.2020
1530 Rain 8 997 93 7000 3.1 130 06:21 05.03.2020
1531 Rain 8 998 93 8000 2.6 150 05:39 05.03.2020
1532 Rain 8 999 93 7000 3.1 160 04:45 05.03.2020
1533 Drizzle 8 1000 93 10000 3.1 160 04:22 05.03.2020
1534 Clouds 8 1001 93 10000 3.1 180 03:19 05.03.2020
1535 Clouds 8 1003 100 8000 3.1 170 01:55 05.03.2020
1536 Clouds 8 1003 93 7000 2.6 170 01:20 05.03.2020
1537 Clouds 8 1004 93 6000 2.6 150 00:26 05.03.2020
1538 Clouds 7 1005 100 8000 3.6 170 23:42 04.03.2020
1539 Clouds 7 1005 100 8000 3.6 170 23:23 04.03.2020
1540 Clouds 7 1006 93 9000 3.1 160 22:58 04.03.2020
1541 Clouds 7 1006 93 9000 3.1 160 22:39 04.03.2020
1542 Clouds 7 1006 93 10000 4.1 160 22:19 04.03.2020
1543 Clouds 7 1006 93 10000 4.1 170 21:58 04.03.2020
1544 Clouds 7 1006 93 10000 4.1 170 21:40 04.03.2020
1545 Clouds 6 1006 93 10000 5.1 170 21:20 04.03.2020
1546 Clouds 7 1007 93 10000 4.6 170 20:56 04.03.2020
1547 Clouds 6 1007 93 8000 5.1 170 20:36 04.03.2020
1548 Clouds 6 1007 93 8000 5.1 170 20:18 04.03.2020
1549 Clouds 6 1007 87 10000 6.7 170 19:42 04.03.2020
1550 Clouds 6 1007 87 10000 6.2 170 19:23 04.03.2020
1551 Clouds 6 1008 87 10000 5.7 170 18:56 04.03.2020
1552 Rain 6 1008 87 9000 7.2 170 18:36 04.03.2020
1553 Rain 6 1008 87 9000 7.2 170 18:18 04.03.2020
1554 Drizzle 7 1008 87 10000 6.7 170 17:55 04.03.2020
1555 Rain 7 1008 87 10000 7.2 170 17:37 04.03.2020
1556 Rain 7 1008 87 10000 7.2 170 17:18 04.03.2020
1557 Rain 7 1008 81 10000 5.7 160 16:42 04.03.2020
1558 Rain 7 1009 81 10000 5.7 180 16:24 04.03.2020
1559 Rain 8 1010 81 10000 5.7 180 15:57 04.03.2020
1560 Clouds 8 1010 81 10000 5.1 170 15:39 04.03.2020
1561 Clouds 8 1010 81 10000 5.1 170 15:19 04.03.2020
1562 Clouds 8 1011 81 10000 5.1 170 14:54 04.03.2020
1563 Clouds 8 1011 75 10000 6.2 180 14:36 04.03.2020
1564 Clouds 8 1011 75 10000 6.2 180 14:18 04.03.2020
1565 Rain 8 1012 75 10000 6.2 190 13:54 04.03.2020
1566 Clouds 8 1012 66 10000 5.1 180 13:36 04.03.2020
1567 Clouds 7 1012 66 10000 5.1 180 13:18 04.03.2020
1568 Clouds 7 1012 70 10000 5.1 170 12:41 04.03.2020
1569 Clouds 7 1013 70 10000 5.1 170 12:23 04.03.2020
1570 Clouds 7 1013 75 10000 4.1 170 11:55 04.03.2020
1571 Clouds 6 1013 81 10000 3.6 160 11:37 04.03.2020
1572 Clouds 6 1013 81 10000 3.6 160 11:19 04.03.2020
1573 Clouds 6 1013 81 10000 3.1 160 10:44 04.03.2020
1574 Clouds 5 1013 81 10000 4.1 140 10:25 04.03.2020
1575 Clouds 4 1013 86 10000 3.1 160 09:58 04.03.2020
1576 Clouds 4 1013 93 10000 1.5 150 09:39 04.03.2020
1577 Clouds 4 1013 93 10000 2.1 210 09:19 04.03.2020
1578 Clouds 3 1013 86 10000 1 170 08:42 04.03.2020
1579 Clouds 3 1013 86 10000 1 170 08:24 04.03.2020
1580 Clouds 2 1013 86 10000 0.5 150 07:48 04.03.2020
1581 Clouds 2 1013 86 10000 2.42 218 07:29 04.03.2020
1582 Clouds 3 1013 80 10000 0.5 180 06:53 04.03.2020
1583 Clouds 3 1013 80 10000 2.42 218 06:26 04.03.2020
1584 Clouds 3 1013 86 10000 0.5 0 05:59 04.03.2020
1585 Clouds 3 1013 86 10000 1.5 240 05:28 04.03.2020
1586 Clouds 3 1013 86 10000 2.1 240 03:57 04.03.2020
1587 Clouds 3 1013 86 10000 2.6 240 03:35 04.03.2020
1588 Clouds 3 1013 86 10000 3.1 240 02:58 04.03.2020
1589 Clear 3 1013 80 10000 2.6 230 02:30 04.03.2020
1590 Clear 3 1013 86 10000 3.6 240 01:56 04.03.2020
1591 Clear 3 1013 86 10000 3.6 250 01:37 04.03.2020
1592 Clear 3 1012 80 10000 4.1 240 00:42 04.03.2020
1593 Clear 3 1012 86 10000 3.6 240 00:22 04.03.2020
1594 Clear 3 1012 86 10000 3.6 240 23:43 03.03.2020
1595 Clear 3 1012 80 10000 4.1 240 23:24 03.03.2020
1596 Clear 3 1012 80 10000 4.1 230 22:56 03.03.2020
1597 Clear 3 1011 86 10000 2.1 230 22:37 03.03.2020
1598 Clear 3 1011 86 10000 2.1 230 22:19 03.03.2020
1599 Clear 3 1011 86 10000 2.6 240 21:56 03.03.2020
1600 Clouds 3 1010 86 10000 3.1 240 21:36 03.03.2020
1601 Clouds 3 1010 86 10000 3.1 240 21:18 03.03.2020
1602 Clear 4 1010 86 10000 3.1 250 20:40 03.03.2020
1603 Clouds 4 1010 75 10000 3.1 250 20:19 03.03.2020
1604 Rain 4 1010 75 10000 3.1 250 20:19 03.03.2020
1605 Rain 4 1009 80 10000 2.6 260 19:58 03.03.2020
1606 Rain 5 1009 75 10000 1.5 280 19:37 03.03.2020
1607 Rain 5 1009 75 10000 1.5 280 19:19 03.03.2020
1608 Rain 6 1008 70 10000 2.6 290 18:58 03.03.2020
1609 Rain 6 1008 70 10000 2.6 290 18:40 03.03.2020
1610 Clouds 7 1007 61 10000 4.6 290 18:20 03.03.2020
1611 Rain 7 1007 70 10000 5.1 290 17:55 03.03.2020
1612 Rain 8 1007 70 10000 5.1 290 17:37 03.03.2020
1613 Clouds 8 1006 57 10000 4.6 260 17:19 03.03.2020
1614 Clouds 8 1005 57 10000 4.6 270 16:56 03.03.2020
1615 -273 0 0 0 0 0 16:37 03.03.2020
1616 Rain 9 1005 61 10000 4.1 260 16:18 03.03.2020
1617 Rain 9 1005 61 10000 4.1 260 16:18 03.03.2020
1618 Clouds 9 1005 57 10000 2.1 270 15:43 03.03.2020
1619 Rain 9 1004 70 10000 2.1 260 15:21 03.03.2020
1620 Clouds 8 1004 65 10000 3.1 280 14:56 03.03.2020
1621 Clouds 8 1004 65 10000 3.1 280 14:37 03.03.2020
1622 Clouds 8 1004 65 10000 3.6 230 14:19 03.03.2020
1623 Clouds 8 1004 65 10000 3.6 230 13:55 03.03.2020
1624 Clouds 8 1004 65 10000 3.1 220 13:37 03.03.2020
1625 Clouds 8 1004 65 10000 3.1 220 13:18 03.03.2020
1626 Clouds 8 1004 65 10000 3.1 220 13:18 03.03.2020
1627 Clouds 7 1004 65 10000 3.1 190 12:42 03.03.2020
1628 Clouds 7 1004 70 10000 3.6 200 12:23 03.03.2020
1629 Clouds 7 1004 70 10000 3.6 200 12:23 03.03.2020
1630 Clouds 6 1004 75 10000 3.1 190 11:55 03.03.2020
1631 Clouds 6 1003 70 10000 3.1 170 11:37 03.03.2020
1632 Rain 6 1003 70 10000 3.1 170 11:18 03.03.2020
1633 Clouds 5 1004 75 10000 3.1 210 10:55 03.03.2020
1634 Clouds 5 1004 86 10000 3.6 210 10:36 03.03.2020
1635 Clouds 4 1004 93 10000 3.1 220 10:18 03.03.2020
1636 Clouds 4 1004 93 10000 3.1 220 10:18 03.03.2020
1637 Rain 3 1004 80 10000 2.6 210 09:42 03.03.2020
1638 Rain 3 1004 80 10000 2.6 210 09:21 03.03.2020
1639 Clouds 2 1004 86 10000 3.1 200 08:42 03.03.2020
1640 Clouds 1 1004 75 10000 3.6 220 08:24 03.03.2020
1641 Clear 1 1004 82 10000 3.6 210 07:56 03.03.2020
1642 Clear 1 1004 82 10000 3.6 210 07:56 03.03.2020
1643 Clear 1 1004 82 10000 2.6 210 07:38 03.03.2020
1644 Clear 1 1004 82 10000 2.6 210 07:19 03.03.2020
1645 Clear 1 1004 82 10000 2.6 210 07:19 03.03.2020
1646 Clear 1 1004 82 10000 3.1 230 06:40 03.03.2020
1647 Clouds 2 1004 82 10000 2.1 210 06:21 03.03.2020
1648 Clear 2 1004 82 10000 4.1 220 05:43 03.03.2020
1649 Clear 2 1003 78 10000 3.6 230 04:56 03.03.2020
1650 Clear 2 1003 86 10000 3.6 240 03:26 03.03.2020
1651 Clouds 3 1003 86 10000 2.1 240 01:35 03.03.2020
1652 Clouds 3 1002 80 10000 3.1 250 00:46 03.03.2020
1653 Clouds 3 1002 80 10000 4.1 250 00:24 03.03.2020
1654 Clouds 4 1002 80 10000 4.6 260 23:51 02.03.2020
1655 Clouds 4 1001 75 10000 4.6 250 23:23 02.03.2020
1656 Clouds 4 1001 75 10000 4.6 260 22:58 02.03.2020
1657 Clouds 4 1000 75 10000 5.7 250 22:39 02.03.2020
1658 Clouds 4 1000 75 10000 5.7 250 22:20 02.03.2020
1659 Clouds 4 999 75 10000 4.1 250 21:58 02.03.2020
1660 Clouds 4 999 75 10000 4.1 250 21:39 02.03.2020
1661 Clouds 5 999 75 10000 3.1 250 21:20 02.03.2020
1662 Clouds 5 999 80 10000 5.1 290 20:57 02.03.2020
1663 Clouds 5 999 80 10000 5.1 290 20:57 02.03.2020
1664 Clouds 5 998 70 10000 4.1 280 20:38 02.03.2020
1665 Rain 5 998 70 10000 4.1 280 20:19 02.03.2020
1666 Clouds 6 998 80 10000 6.2 300 19:54 02.03.2020
1667 Clouds 6 997 70 10000 5.1 290 19:36 02.03.2020
1668 Clouds 6 997 70 10000 5.1 290 19:18 02.03.2020
1669 Clouds 6 996 70 10000 5.1 290 18:44 02.03.2020
1670 Clouds 7 995 70 10000 7.7 290 18:19 02.03.2020
1671 Clouds 7 994 70 10000 6.7 290 17:58 02.03.2020
1672 Clouds 7 993 75 10000 6.2 280 17:39 02.03.2020
1673 Clouds 7 993 75 10000 6.2 280 17:21 02.03.2020
1674 Clouds 7 992 81 10000 6.2 290 16:55 02.03.2020
1675 Clouds 8 991 81 10000 9.3 300 16:36 02.03.2020
1676 Rain 8 991 81 10000 5.1 290 16:18 02.03.2020
1677 Rain 8 989 81 10000 6.7 280 15:42 02.03.2020
1678 Rain 8 989 81 10000 6.7 280 15:20 02.03.2020
1679 Clouds 9 989 76 10000 3.6 280 14:42 02.03.2020
1680 Clouds 8 989 76 10000 3.6 280 14:20 02.03.2020
1681 Clouds 8 988 81 10000 2.6 310 13:59 02.03.2020
1682 Clouds 8 988 81 10000 2.6 310 13:39 02.03.2020
1683 Rain 8 988 81 10000 3.6 310 13:18 02.03.2020
1684 Rain 7 988 87 10000 4.1 290 12:44 02.03.2020
1685 Rain 7 987 87 10000 3.1 240 12:20 02.03.2020
1686 Rain 7 987 87 10000 4.1 190 11:57 02.03.2020
1687 Rain 7 987 87 9000 3.1 180 11:37 02.03.2020
1688 Rain 7 987 100 10000 3.1 220 11:18 02.03.2020
1689 Rain 7 987 93 10000 3.6 180 10:54 02.03.2020
1690 Rain 7 987 87 10000 5.1 180 10:36 02.03.2020
1691 Rain 7 987 87 10000 5.1 180 10:18 02.03.2020
1692 Rain 6 987 93 10000 4.1 170 09:42 02.03.2020
1693 Clouds 6 987 93 10000 4.6 170 09:24 02.03.2020
1694 Clouds 6 987 93 10000 6.2 170 08:47 02.03.2020
1695 Clouds 6 988 87 10000 5.1 170 08:22 02.03.2020
1696 Clouds 6 988 87 10000 4.1 170 07:43 02.03.2020
1697 Clouds 6 988 87 10000 4.1 170 07:20 02.03.2020
1698 Clouds 6 988 87 10000 5.1 160 06:47 02.03.2020
1699 Clouds 6 988 87 10000 6.7 170 05:55 02.03.2020
1700 Drizzle 6 989 93 8000 5.1 180 04:51 02.03.2020
1701 Clouds 6 991 93 10000 4.6 150 03:23 02.03.2020
1702 Rain 6 992 93 10000 4.6 160 02:49 02.03.2020
1703 Clouds 5 994 87 10000 5.1 170 01:54 02.03.2020
1704 Clouds 5 994 87 10000 6.2 180 01:32 02.03.2020
1705 Clouds 5 995 86 10000 5.7 190 00:24 02.03.2020
1706 Clouds 4 996 93 10000 3.6 200 23:59 01.03.2020
1707 Clouds 4 996 93 10000 3.6 200 23:41 01.03.2020
1708 Clouds 4 996 86 10000 3.6 180 23:20 01.03.2020
1709 Clouds 4 996 86 10000 5.1 180 22:43 01.03.2020
1710 Clouds 4 997 86 10000 4.1 190 22:21 01.03.2020
1711 Clouds 4 997 86 10000 4.1 190 22:21 01.03.2020
1712 Clouds 4 997 86 10000 4.6 200 21:57 01.03.2020
1713 Clouds 4 997 86 10000 3.6 210 21:39 01.03.2020
1714 Clouds 4 997 86 10000 3.6 210 21:20 01.03.2020
1715 Clouds 4 997 93 10000 3.1 210 20:44 01.03.2020
1716 Clouds 4 997 93 10000 3.1 210 20:26 01.03.2020
1717 Rain 4 996 93 10000 4.1 230 19:59 01.03.2020
1718 Clouds 4 996 93 10000 3.1 240 19:40 01.03.2020
1719 Clouds 4 996 93 10000 3.1 240 19:21 01.03.2020
1720 Clouds 4 995 93 10000 4.6 240 18:54 01.03.2020
1721 Rain 4 994 93 10000 3.6 250 18:36 01.03.2020
1722 Rain 4 994 93 10000 3.6 250 18:18 01.03.2020
1723 Rain 3 993 93 10000 1.5 290 17:54 01.03.2020
1724 Rain 3 993 93 6000 5.1 300 17:36 01.03.2020
1725 Rain 3 993 93 6000 5.1 300 17:18 01.03.2020
1726 Rain 4 991 93 4000 6.7 320 16:39 01.03.2020
1727 Rain 4 991 93 4000 6.7 320 16:19 01.03.2020
1728 Rain 5 990 93 4800 3.1 360 15:59 01.03.2020
1729 Rain 6 990 93 4800 3.1 360 15:40 01.03.2020
1730 Rain 6 991 87 7000 3.1 50 15:22 01.03.2020
1731 Rain 6 992 87 8000 4.6 160 14:58 01.03.2020
1732 Rain 6 992 87 8000 4.6 160 14:39 01.03.2020
1733 Rain 7 993 87 8000 6.7 160 14:21 01.03.2020
1734 Rain 7 993 87 8000 6.7 160 14:21 01.03.2020
1735 Rain 7 994 87 10000 6.2 180 13:57 01.03.2020
1736 Rain 7 995 81 10000 5.1 190 13:38 01.03.2020
1737 Rain 8 995 81 10000 5.1 190 13:19 01.03.2020
1738 Rain 8 995 93 8000 4.6 180 12:56 01.03.2020
1739 Clouds 8 996 76 10000 5.1 190 12:38 01.03.2020
1740 Clouds 8 996 76 10000 5.1 190 12:19 01.03.2020
1741 Clouds 8 997 70 10000 6.7 200 11:40 01.03.2020
1742 Clouds 8 997 70 10000 6.7 200 11:19 01.03.2020
1743 Clouds 8 997 70 10000 6.2 210 10:56 01.03.2020
1744 Clouds 8 997 70 10000 6.2 210 10:56 01.03.2020
1745 Clouds 8 997 75 10000 6.7 200 10:37 01.03.2020
1746 Clouds 8 997 75 10000 6.7 200 10:37 01.03.2020
1747 Clouds 8 997 75 10000 6.7 200 10:18 01.03.2020
1748 Clouds 7 997 75 10000 6.7 190 09:45 01.03.2020
1749 Clouds 6 998 81 10000 5.7 190 09:26 01.03.2020
1750 -273 0 0 0 0 0 08:51 01.03.2020
1751 Clouds 6 998 81 10000 6.2 200 08:29 01.03.2020
1752 Clouds 5 998 75 10000 6.2 200 07:59 01.03.2020
1753 Clouds 5 998 80 10000 4.6 220 07:40 01.03.2020
1754 Clouds 5 998 80 10000 4.6 220 07:22 01.03.2020
1755 Clouds 5 998 80 10000 4.1 220 06:43 01.03.2020
1756 Clouds 6 998 70 10000 6.2 210 06:23 01.03.2020
1757 Clouds 6 998 75 10000 9.8 200 03:40 01.03.2020
1758 Clouds 6 998 81 10000 6.7 220 02:23 01.03.2020
1759 Clouds 7 998 75 10000 7.2 210 01:46 01.03.2020
1760 Clouds 7 998 75 10000 7.2 210 01:20 01.03.2020
1761 Clouds 6 998 75 10000 7.2 210 00:41 01.03.2020
1762 Clouds 6 998 75 10000 7.2 210 00:20 01.03.2020
1763 Clouds 6 999 75 10000 6.7 210 23:45 29.02.2020
1764 Clouds 6 999 75 10000 7.7 210 23:26 29.02.2020
1765 Rain 6 999 75 10000 7.7 210 22:42 29.02.2020
1766 Clouds 6 999 70 10000 7.2 220 22:23 29.02.2020
1767 Rain 6 998 81 10000 7.2 230 21:42 29.02.2020
1768 Rain 6 998 81 10000 7.2 230 21:23 29.02.2020
1769 Rain 6 998 75 10000 6.7 230 20:43 29.02.2020
1770 Rain 6 998 70 10000 7.7 240 20:22 29.02.2020
1771 Rain 6 998 75 10000 8.2 240 19:57 29.02.2020
1772 Rain 7 998 70 10000 6.2 240 19:38 29.02.2020
1773 Rain 7 997 66 10000 5.7 210 19:19 29.02.2020
1774 Rain 8 997 75 10000 6.7 270 18:43 29.02.2020
1775 Rain 8 997 75 10000 6.7 270 18:25 29.02.2020
1776 Rain 9 996 59 10000 6.7 220 17:58 29.02.2020
1777 Rain 9 996 59 10000 7.2 230 17:40 29.02.2020
1778 Rain 9 996 60 10000 7.2 230 17:21 29.02.2020
1779 Rain 9 996 66 10000 6.7 220 16:54 29.02.2020
1780 Rain 9 997 70 10000 6.2 260 16:36 29.02.2020
1781 Rain 8 997 70 10000 6.2 260 16:18 29.02.2020
1782 Rain 9 996 70 10000 8.7 280 15:41 29.02.2020
1783 Clouds 9 995 62 10000 9.8 230 15:23 29.02.2020
1784 Clouds 10 994 66 10000 7.7 230 14:42 29.02.2020
1785 Clouds 10 994 66 10000 7.7 230 14:24 29.02.2020
1786 Clouds 10 994 66 10000 7.7 230 14:24 29.02.2020
1787 Clouds 9 994 76 10000 8.2 250 13:58 29.02.2020
1788 Rain 9 994 76 10000 8.7 250 13:38 29.02.2020
1789 Rain 8 994 76 10000 8.7 250 13:20 29.02.2020
1790 Thunderstorm 8 993 87 10000 6.2 240 12:43 29.02.2020
1791 Rain 8 992 81 8000 12.3 250 12:22 29.02.2020
1792 Rain 10 990 66 10000 13.4 200 11:57 29.02.2020
1793 Clouds 12 990 66 10000 13.4 200 11:39 29.02.2020
1794 Clouds 12 990 66 10000 12.3 200 11:21 29.02.2020
1795 Clouds 12 991 71 10000 8.7 210 10:46 29.02.2020
1796 Clouds 11 991 66 10000 9.3 200 10:28 29.02.2020
1797 Clouds 11 992 66 10000 8.2 180 09:50 29.02.2020
1798 Clouds 11 992 66 10000 8.7 180 09:27 29.02.2020
1799 Clouds 10 992 71 10000 8.7 180 08:55 29.02.2020
1800 Clouds 10 993 76 10000 8.7 180 08:37 29.02.2020
1801 Clouds 9 993 76 10000 8.7 180 08:19 29.02.2020
1802 Clouds 9 994 76 10000 8.2 170 07:41 29.02.2020
1803 Clouds 9 995 87 10000 7.7 170 07:19 29.02.2020
1804 Clouds 9 996 87 10000 6.7 170 06:50 29.02.2020
1805 Clouds 9 997 81 10000 9.8 180 06:25 29.02.2020
1806 Clouds 9 998 81 10000 8.2 180 05:48 29.02.2020
1807 Clouds 9 998 81 10000 7.2 180 05:18 29.02.2020
1808 Clouds 10 1001 81 10000 6.7 180 03:43 29.02.2020
1809 Clouds 10 1002 81 10000 7.2 190 03:22 29.02.2020
1810 Clouds 10 1003 81 10000 7.2 210 02:39 29.02.2020
1811 Clouds 10 1003 81 10000 7.2 210 02:39 29.02.2020
1812 Clouds 10 1004 81 10000 7.7 190 01:31 29.02.2020
1813 Clouds 10 1005 87 10000 6.2 210 00:38 29.02.2020
1814 Clouds 11 1006 87 10000 6.2 190 23:58 28.02.2020
1815 Clouds 11 1006 87 10000 6.7 190 23:38 28.02.2020
1816 Clouds 10 1006 87 10000 6.7 190 23:20 28.02.2020
1817 Clouds 10 1006 87 10000 6.7 190 22:42 28.02.2020
1818 Clouds 10 1007 87 10000 7.2 190 22:22 28.02.2020
1819 Rain 10 1007 87 10000 5.1 180 21:42 28.02.2020
1820 Rain 10 1007 87 10000 5.1 180 21:21 28.02.2020
1821 Clouds 10 1008 87 10000 5.7 180 20:56 28.02.2020
1822 Clouds 10 1008 87 10000 4.1 180 20:38 28.02.2020
1823 Clouds 10 1008 87 10000 4.1 180 20:19 28.02.2020
1824 Clouds 9 1009 87 10000 6.2 180 19:56 28.02.2020
1825 Clouds 9 1009 87 10000 6.2 180 19:38 28.02.2020
1826 Clouds 9 1009 87 10000 5.7 170 19:19 28.02.2020
1827 Clouds 8 1010 87 10000 4.6 180 18:46 28.02.2020
1828 Clouds 8 1010 87 10000 4.6 180 18:24 28.02.2020
1829 Clouds 8 1010 87 10000 5.7 170 17:41 28.02.2020
1830 Rain 7 1010 81 10000 6.2 180 17:23 28.02.2020
1831 Rain 7 1011 81 10000 7.2 180 16:57 28.02.2020
1832 Rain 7 1012 81 10000 7.2 180 16:38 28.02.2020
1833 Rain 7 1012 81 10000 7.2 180 16:19 28.02.2020
1834 Clouds 7 1012 70 10000 10.3 170 15:56 28.02.2020
1835 Clouds 7 1012 70 10000 10.3 170 15:37 28.02.2020
1836 Clouds 7 1012 70 10000 7.7 170 15:18 28.02.2020
1837 Clouds 7 1013 75 10000 6.7 160 14:45 28.02.2020
1838 Rain 7 1014 70 10000 7.7 170 14:19 28.02.2020
1839 Rain 7 1015 70 10000 8.2 180 13:59 28.02.2020
1840 Rain 7 1015 70 10000 8.2 180 13:40 28.02.2020
1841 Clouds 6 1015 68 10000 9.3 170 13:20 28.02.2020
1842 Rain 6 1016 68 10000 8.7 160 12:46 28.02.2020
1843 Rain 6 1016 70 10000 7.2 170 12:27 28.02.2020
1844 Clouds 6 1017 68 10000 7.7 170 11:59 28.02.2020
1845 Rain 6 1018 70 10000 6.7 180 11:40 28.02.2020
1846 Clouds 5 1018 70 10000 6.7 180 11:21 28.02.2020
1847 Clouds 4 1018 75 10000 5.7 180 10:43 28.02.2020
1848 Clouds 4 1018 80 10000 4.6 180 10:24 28.02.2020
1849 Clouds 3 1019 80 10000 5.1 160 09:59 28.02.2020
1850 Clouds 3 1019 80 10000 5.1 160 09:40 28.02.2020
1851 Clouds 2 1019 86 10000 3.1 150 09:18 28.02.2020
1852 Clouds 2 1018 70 10000 3.1 140 08:42 28.02.2020
1853 Clouds 1 1019 80 10000 3.1 170 08:20 28.02.2020
1854 Clouds 1 1018 86 10000 2.6 140 07:45 28.02.2020
1855 Clouds 1 1019 79 10000 2.6 130 07:25 28.02.2020
1856 Clouds 0 1019 79 10000 1.5 130 06:52 28.02.2020
1857 Clouds 0 1019 79 10000 1 110 06:33 28.02.2020
1858 Clouds 0 1019 86 10000 1 190 05:30 28.02.2020
1859 Clouds 1 1018 82 10000 1.85 231 04:31 28.02.2020
1860 Clouds 1 1019 82 10000 2.1 230 02:55 28.02.2020
1861 Clouds 2 1018 82 10000 1.85 231 02:34 28.02.2020
1862 Clear 2 1018 80 10000 0.5 0 01:48 28.02.2020
1863 Clear 3 1017 76 10000 3.1 250 00:32 28.02.2020
1864 Clouds 3 1017 76 10000 4.1 240 23:47 27.02.2020
1865 Clear 3 1016 76 10000 4.1 240 23:23 27.02.2020
1866 Clouds 3 1016 74 10000 3.6 230 22:58 27.02.2020
1867 Clouds 3 1015 74 10000 4.1 230 22:39 27.02.2020
1868 Clouds 3 1015 74 10000 4.1 230 22:21 27.02.2020
1869 Clouds 4 1014 74 10000 3.1 250 21:42 27.02.2020
1870 Clouds 4 1014 74 10000 3.6 260 21:23 27.02.2020
1871 Clouds 4 1013 74 10000 3.1 270 20:59 27.02.2020
1872 Clouds 4 1013 74 10000 3.1 270 20:41 27.02.2020
1873 Clouds 5 1012 68 10000 3.6 260 20:23 27.02.2020
1874 Clouds 5 1012 68 10000 3.6 260 20:23 27.02.2020
1875 Clouds 5 1011 66 10000 3.6 280 19:57 27.02.2020
1876 Clouds 5 1010 66 10000 5.1 300 19:39 27.02.2020
1877 Clouds 5 1010 66 10000 5.1 300 19:21 27.02.2020
1878 Clouds 6 1009 60 10000 7.7 300 18:55 27.02.2020
1879 Clouds 6 1009 60 10000 7.7 300 18:37 27.02.2020
1880 Clouds 6 1007 66 10000 7.2 300 18:18 27.02.2020
1881 -273 0 0 0 0 0 17:54 27.02.2020
1882 Clouds 6 1005 65 10000 9.3 310 17:36 27.02.2020
1883 Clouds 6 1005 65 10000 9.3 310 17:18 27.02.2020
1884 Clouds 7 1003 65 10000 9.8 300 16:41 27.02.2020
1885 Clouds 7 1003 65 10000 9.8 300 16:41 27.02.2020
1886 Clouds 7 1002 70 10000 10.8 300 16:20 27.02.2020
1887 Clouds 7 1000 70 10000 10.3 310 15:59 27.02.2020
1888 Clouds 7 1000 70 10000 10.3 310 15:38 27.02.2020
1889 Clouds 7 998 70 10000 9.8 300 15:20 27.02.2020
1890 Clouds 7 996 65 10000 12.9 300 14:59 27.02.2020
1891 Clouds 7 996 65 10000 12.9 300 14:38 27.02.2020
1892 Rain 8 994 70 10000 13.4 310 14:20 27.02.2020
1893 Rain 9 991 81 8000 9.8 260 13:43 27.02.2020
1894 Clouds 10 990 81 10000 10.3 260 13:22 27.02.2020
1895 Clouds 11 990 87 10000 6.2 230 12:57 27.02.2020
1896 Clouds 10 990 87 10000 6.2 230 12:39 27.02.2020
1897 Drizzle 10 990 93 8000 6.2 210 12:19 27.02.2020
1898 Clouds 9 990 100 10000 7.7 200 11:45 27.02.2020
1899 Clouds 8 991 93 10000 5.7 190 11:22 27.02.2020
1900 Rain 7 992 93 3800 5.1 170 10:45 27.02.2020
1901 Rain 6 992 93 3200 7.2 150 10:25 27.02.2020
1902 Rain 5 994 93 3100 5.7 150 09:59 27.02.2020
1903 Rain 4 995 93 5000 7.7 150 09:40 27.02.2020
1904 Rain 4 995 93 5000 7.7 150 09:21 27.02.2020
1905 Rain 4 996 93 4500 9.3 150 08:42 27.02.2020
1906 Rain 3 997 93 6000 8.7 170 08:22 27.02.2020
1907 Rain 3 1000 86 7000 8.7 160 07:46 27.02.2020
1908 Rain 4 1001 86 9000 7.7 160 07:26 27.02.2020
1909 Rain 3 1002 86 10000 7.2 160 06:54 27.02.2020
1910 Rain 3 1003 86 10000 5.7 160 06:19 27.02.2020
1911 Clouds 3 1007 80 10000 3.6 170 04:21 27.02.2020
1912 Clouds 3 1010 73 10000 2.1 190 02:35 27.02.2020
1913 Clouds 3 1011 71 10000 3.1 250 00:47 27.02.2020
1914 Clouds 3 1011 71 10000 3.1 230 00:28 27.02.2020
1915 Clouds 3 1012 80 10000 3.6 240 23:40 26.02.2020
1916 Clear 3 1012 80 10000 3.6 240 23:20 26.02.2020
1917 Clear 3 1012 80 10000 4.1 230 22:59 26.02.2020
1918 Clouds 3 1012 70 10000 3.6 250 22:39 26.02.2020
1919 Clouds 3 1012 70 10000 3.6 250 22:21 26.02.2020
1920 Clouds 3 1012 86 10000 4.6 250 21:57 26.02.2020
1921 Clouds 3 1012 86 10000 4.6 250 21:38 26.02.2020
1922 Clouds 4 1012 75 10000 3.1 270 21:19 26.02.2020
1923 Clouds 4 1012 75 10000 3.1 270 21:19 26.02.2020
1924 Clouds 4 1012 70 10000 4.1 250 20:55 26.02.2020
1925 Clear 4 1012 70 10000 3.1 230 20:37 26.02.2020
1926 Clouds 4 1012 63 10000 3.1 230 20:18 26.02.2020
1927 Clouds 5 1012 64 10000 3.1 250 19:47 26.02.2020
1928 Clouds 5 1011 64 10000 4.1 270 19:21 26.02.2020
1929 Clouds 5 1011 64 10000 4.6 280 18:59 26.02.2020
1930 Clouds 5 1011 64 10000 4.6 280 18:41 26.02.2020
1931 Clouds 5 1011 64 10000 4.6 280 18:41 26.02.2020
1932 Clouds 6 1010 64 10000 4.6 270 18:22 26.02.2020
1933 Rain 6 1010 70 10000 7.2 270 17:58 26.02.2020
1934 Rain 6 1010 64 10000 6.2 260 17:39 26.02.2020
1935 Rain 6 1010 54 10000 6.2 260 17:18 26.02.2020
1936 Rain 6 1010 54 10000 6.2 260 17:18 26.02.2020
1937 Rain 6 1009 65 10000 7.2 270 16:56 26.02.2020
1938 Rain 6 1009 65 10000 6.2 270 16:37 26.02.2020
1939 Rain 6 1009 65 10000 6.2 270 16:18 26.02.2020
1940 Rain 7 1008 61 10000 7.7 280 15:42 26.02.2020
1941 Rain 7 1008 61 10000 7.7 280 15:23 26.02.2020
1942 Rain 6 1008 70 10000 7.2 260 14:43 26.02.2020
1943 Rain 6 1008 70 10000 7.2 260 14:23 26.02.2020
1944 Rain 6 1008 80 10000 7.2 270 13:44 26.02.2020
1945 Rain 5 1008 81 10000 6.2 250 13:44 26.02.2020
1946 Rain 6 1008 80 10000 7.2 270 13:23 26.02.2020
1947 Rain 5 1008 86 10000 6.7 260 12:59 26.02.2020
1948 Rain 5 1008 86 10000 7.2 270 12:38 26.02.2020
1949 Rain 5 1008 86 8000 8.2 270 12:18 26.02.2020
1950 Rain 5 1007 70 10000 6.2 260 11:43 26.02.2020
1951 Clouds 5 1007 75 10000 7.7 260 11:23 26.02.2020
1952 Clouds 4 1006 75 10000 6.7 270 10:59 26.02.2020
1953 Clouds 4 1006 86 10000 6.2 260 10:39 26.02.2020
1954 Clouds 4 1006 86 10000 6.2 260 10:21 26.02.2020
1955 Clouds 3 1005 93 10000 6.2 250 09:44 26.02.2020
1956 Clouds 2 1005 86 10000 4.6 270 09:24 26.02.2020
1957 Clouds 2 1004 93 10000 6.7 260 08:59 26.02.2020
1958 Rain 2 1003 93 10000 6.7 250 08:37 26.02.2020
1959 Rain 2 1003 81 4400 6.2 250 08:18 26.02.2020
1960 Rain 2 1003 81 4400 6.2 250 07:43 26.02.2020
1961 Rain 2 1003 81 10000 2.1 280 07:25 26.02.2020
1962 Snow 2 1002 81 10000 6.7 260 06:52 26.02.2020
1963 Clouds 2 1002 81 10000 7.2 240 06:34 26.02.2020
1964 Clouds 2 1002 81 10000 6.7 250 05:53 26.02.2020
1965 Clouds 2 1002 81 10000 6.7 250 05:53 26.02.2020
1966 Rain 2 1002 86 10000 5.1 270 05:24 26.02.2020
1967 Snow 3 1002 66 10000 7.7 250 04:23 26.02.2020
1968 Clouds 4 1002 65 10000 8.2 250 02:23 26.02.2020
1969 Clouds 4 1002 65 10000 7.7 240 01:45 26.02.2020
1970 Clouds 4 1002 80 10000 8.2 260 00:48 26.02.2020
1971 Clouds 4 1002 80 10000 7.2 250 00:24 26.02.2020
1972 Clouds 4 1002 80 10000 7.2 240 23:45 25.02.2020
1973 Clouds 4 1002 80 10000 7.2 240 23:27 25.02.2020
1974 Rain 4 1002 80 10000 6.7 250 22:59 25.02.2020
1975 Rain 4 1002 80 10000 6.7 250 22:41 25.02.2020
1976 Clouds 4 1002 75 10000 7.7 250 22:19 25.02.2020
1977 Clouds 4 1002 80 10000 5.7 260 21:56 25.02.2020
1978 Rain 4 1001 80 10000 4.6 250 21:36 25.02.2020
1979 Rain 5 1001 80 10000 4.6 250 21:18 25.02.2020
1980 Rain 5 1002 86 10000 5.7 260 20:55 25.02.2020
1981 Rain 5 1003 86 10000 7.7 270 20:36 25.02.2020
1982 Rain 5 1003 86 10000 7.7 270 20:18 25.02.2020
1983 Rain 6 1002 75 10000 4.6 230 19:42 25.02.2020
1984 Rain 6 1002 75 10000 4.6 230 19:19 25.02.2020
1985 Rain 7 1003 75 10000 5.7 230 18:43 25.02.2020
1986 Rain 7 1003 75 10000 5.7 230 18:22 25.02.2020
1987 Rain 7 1003 70 10000 6.2 240 18:00 25.02.2020
1988 Rain 7 1003 70 10000 6.2 240 17:38 25.02.2020
1989 Rain 7 1003 81 10000 5.7 230 17:20 25.02.2020
1990 Rain 7 1004 81 10000 6.7 240 16:59 25.02.2020
1991 Rain 7 1003 87 8000 7.7 280 16:40 25.02.2020
1992 Rain 7 1003 87 8000 7.7 280 16:40 25.02.2020
1993 Rain 7 1003 87 8000 7.7 280 16:22 25.02.2020
1994 Rain 9 1003 76 10000 3.6 260 15:59 25.02.2020
1995 Rain 9 1003 76 10000 3.6 260 15:41 25.02.2020
1996 Rain 9 1004 81 10000 3.6 240 15:19 25.02.2020
1997 Rain 9 1005 70 10000 6.7 250 14:58 25.02.2020
1998 Rain 10 1005 71 10000 7.2 240 14:38 25.02.2020
1999 Rain 10 1005 71 10000 7.2 240 14:18 25.02.2020
2000 Rain 9 1006 76 10000 6.2 230 13:56 25.02.2020
2001 Clouds 9 1006 87 10000 5.1 250 13:38 25.02.2020
2002 Clouds 9 1006 87 10000 5.1 250 13:19 25.02.2020
2003 Rain 9 1007 70 10000 7.7 240 12:42 25.02.2020
2004 Clouds 10 1007 61 10000 6.7 250 12:23 25.02.2020
2005 Clouds 9 1007 61 10000 7.2 260 11:58 25.02.2020
2006 Clouds 9 1007 66 10000 5.7 260 11:39 25.02.2020
2007 Clouds 9 1007 66 10000 5.7 260 11:19 25.02.2020
2008 Clouds 9 1007 70 10000 6.2 260 10:59 25.02.2020
2009 Rain 8 1008 70 10000 5.7 260 10:40 25.02.2020
2010 Rain 8 1008 70 10000 5.7 260 10:22 25.02.2020
2011 Clouds 7 1008 81 10000 5.7 260 09:42 25.02.2020
2012 Rain 8 1008 81 10000 6.2 260 09:42 25.02.2020
2013 Clouds 7 1008 81 10000 5.7 260 09:22 25.02.2020
2014 Clouds 7 1008 81 10000 4.1 250 08:56 25.02.2020
2015 Clouds 7 1008 81 10000 4.6 250 08:37 25.02.2020
2016 Clouds 7 1008 81 10000 4.6 250 08:19 25.02.2020
2017 Clouds 7 1008 87 10000 3.6 260 07:41 25.02.2020
2018 Rain 8 1008 87 10000 3.1 250 07:20 25.02.2020
2019 Clouds 8 1008 87 10000 3.1 270 06:41 25.02.2020
2020 Rain 9 1007 93 5000 5.1 220 05:39 25.02.2020
2021 Rain 9 1009 93 10000 5.7 210 03:44 25.02.2020
2022 Rain 9 1010 87 10000 6.7 220 02:00 25.02.2020
2023 Drizzle 9 1010 87 10000 7.2 210 00:55 25.02.2020
2024 Clouds 10 1011 93 10000 5.7 230 00:29 25.02.2020
2025 Rain 10 1011 81 10000 6.7 220 23:44 24.02.2020
2026 Rain 10 1011 81 10000 6.7 220 23:22 24.02.2020
2027 Clouds 10 1012 81 10000 6.2 220 22:43 24.02.2020
2028 Clouds 10 1013 87 10000 5.1 230 22:21 24.02.2020
2029 Clouds 10 1013 87 10000 6.2 240 21:58 24.02.2020
2030 Clouds 10 1013 87 10000 6.2 240 21:39 24.02.2020
2031 Clouds 11 1013 87 10000 6.2 230 21:20 24.02.2020
2032 Clouds 11 1013 71 10000 7.2 220 20:59 24.02.2020
2033 Clouds 11 1013 66 10000 7.2 230 20:41 24.02.2020
2034 Clouds 11 1013 66 10000 7.2 230 20:19 24.02.2020
2035 Clouds 11 1014 76 10000 6.2 240 19:58 24.02.2020
2036 Clouds 12 1014 76 10000 5.7 230 19:40 24.02.2020
2037 Clouds 12 1014 76 10000 5.7 230 19:21 24.02.2020
2038 Clouds 12 1013 66 10000 6.7 220 18:55 24.02.2020
2039 Clouds 12 1013 66 10000 6.7 230 18:37 24.02.2020
2040 Clouds 12 1013 66 10000 6.7 230 18:19 24.02.2020
2041 Clouds 12 1014 66 10000 8.2 230 17:42 24.02.2020
2042 Clouds 12 1014 66 10000 8.7 220 17:21 24.02.2020
2043 Clouds 12 1014 66 10000 8.2 230 16:58 24.02.2020
2044 Clouds 12 1014 66 10000 6.2 230 16:39 24.02.2020
2045 Clouds 12 1014 66 10000 6.2 230 16:21 24.02.2020
2046 Clouds 12 1015 81 10000 6.2 230 15:59 24.02.2020
2047 Clouds 12 1015 81 10000 6.2 230 15:59 24.02.2020
2048 Clouds 12 1016 71 10000 7.7 220 15:40 24.02.2020
2049 Clouds 12 1016 71 10000 7.7 220 15:21 24.02.2020
2050 Clouds 12 1016 71 10000 7.2 220 14:58 24.02.2020
2051 Clouds 12 1016 71 10000 7.2 220 14:39 24.02.2020
2052 Clouds 12 1017 71 10000 10.3 220 14:19 24.02.2020
2053 Clouds 12 1017 71 10000 10.8 210 13:56 24.02.2020
2054 Clouds 12 1018 76 10000 8.7 200 13:37 24.02.2020
2055 Clouds 12 1018 76 10000 8.7 200 13:19 24.02.2020
2056 Clouds 12 1018 76 10000 8.2 200 12:55 24.02.2020
2057 Clouds 12 1018 76 10000 8.2 200 12:37 24.02.2020
2058 Clouds 11 1019 81 10000 6.7 200 12:18 24.02.2020
2059 Clouds 11 1020 81 10000 8.7 210 11:42 24.02.2020
2060 Clouds 11 1020 81 10000 8.7 210 11:23 24.02.2020
2061 Clouds 11 1020 87 10000 8.2 210 10:44 24.02.2020
2062 Clouds 11 1020 87 10000 5.7 210 10:25 24.02.2020
2063 Clouds 11 1021 87 10000 6.7 220 09:41 24.02.2020
2064 Clouds 10 1021 87 10000 6.2 210 09:20 24.02.2020
2065 Clouds 10 1021 93 10000 5.7 210 08:57 24.02.2020
2066 Clouds 10 1022 93 10000 5.1 210 08:37 24.02.2020
2067 Clouds 10 1022 93 10000 5.1 210 08:19 24.02.2020
2068 Clouds 11 1022 93 10000 4.1 210 07:41 24.02.2020
2069 Clouds 11 1022 93 10000 4.1 210 07:23 24.02.2020
2070 Clouds 11 1023 87 10000 3.6 210 06:34 24.02.2020
2071 Clouds 11 1023 87 10000 4.1 210 05:52 24.02.2020
2072 Clouds 11 1023 93 10000 2.6 200 05:28 24.02.2020
2073 Mist 11 1025 100 5000 1 0 03:27 24.02.2020
2074 Drizzle 10 1025 100 3600 1 0 02:51 24.02.2020
2075 Drizzle 11 1026 93 4400 1 0 01:41 24.02.2020
2076 Rain 11 1026 93 6000 2.6 310 00:52 24.02.2020
2077 Drizzle 11 1026 93 3400 2.1 250 00:22 24.02.2020
2078 Rain 11 1026 93 7000 4.1 230 23:59 23.02.2020
2079 Rain 11 1026 93 7000 4.1 230 23:40 23.02.2020
2080 Drizzle 11 1026 93 6000 3.1 230 23:18 23.02.2020
2081 Drizzle 12 1026 93 5000 4.1 230 22:54 23.02.2020
2082 Rain 12 1026 93 6000 3.1 250 22:36 23.02.2020
2083 Rain 12 1026 93 6000 3.1 250 22:18 23.02.2020
2084 Drizzle 12 1025 93 8000 4.1 240 21:43 23.02.2020
2085 Drizzle 12 1025 93 3700 4.1 260 21:19 23.02.2020
2086 Drizzle 12 1025 93 6000 5.7 240 20:56 23.02.2020
2087 Drizzle 12 1025 93 7000 6.2 240 20:37 23.02.2020
2088 Drizzle 12 1025 93 7000 6.2 240 20:19 23.02.2020
2089 Clouds 12 1025 93 7000 5.7 250 19:56 23.02.2020
2090 Clouds 12 1025 93 7000 5.7 250 19:37 23.02.2020
2091 Clouds 12 1025 87 10000 5.7 240 19:18 23.02.2020
2092 Clouds 12 1025 87 10000 5.7 240 19:18 23.02.2020
2093 Clouds 12 1024 87 10000 7.2 240 18:54 23.02.2020
2094 Rain 12 1023 82 10000 7.7 240 18:36 23.02.2020
2095 Rain 12 1023 82 10000 7.7 240 18:18 23.02.2020
2096 Clouds 12 1024 87 10000 6.7 240 17:54 23.02.2020
2097 Clouds 13 1023 87 10000 7.2 240 17:36 23.02.2020
2098 Clouds 13 1023 87 10000 7.2 240 17:18 23.02.2020
2099 Clouds 13 1023 76 10000 8.2 230 16:42 23.02.2020
2100 Clouds 13 1023 76 10000 8.2 230 16:23 23.02.2020
2101 Clouds 13 1022 76 10000 9.3 230 15:57 23.02.2020
2102 Clouds 13 1023 76 10000 8.2 230 15:38 23.02.2020
2103 Clouds 13 1023 76 10000 8.2 230 15:20 23.02.2020
2104 Clouds 12 1023 76 10000 8.7 220 14:56 23.02.2020
2105 Clouds 12 1023 76 10000 8.2 230 14:37 23.02.2020
2106 Clouds 12 1023 76 10000 8.2 230 14:19 23.02.2020
2107 Clouds 12 1023 76 10000 7.7 230 13:56 23.02.2020
2108 Clouds 12 1023 76 10000 7.7 220 13:38 23.02.2020
2109 Clouds 12 1023 76 10000 7.7 220 13:19 23.02.2020
2110 Clouds 12 1023 76 10000 8.7 230 12:41 23.02.2020
2111 Clouds 12 1023 76 10000 8.7 220 12:21 23.02.2020
2112 Clouds 11 1024 76 10000 7.2 230 11:54 23.02.2020
2113 Clouds 11 1023 71 10000 8.2 220 11:36 23.02.2020
2114 Clouds 11 1024 81 10000 7.2 230 11:18 23.02.2020
2115 Clouds 11 1023 76 10000 8.2 210 10:41 23.02.2020
2116 Clouds 11 1023 76 10000 8.2 210 10:23 23.02.2020
2117 Clouds 10 1023 81 10000 7.7 210 09:59 23.02.2020
2118 Clouds 10 1024 81 10000 6.7 210 09:39 23.02.2020
2119 Clouds 10 1024 81 10000 6.7 210 09:20 23.02.2020
2120 Clouds 10 1024 81 10000 6.2 210 08:51 23.02.2020
2121 Clouds 10 1024 81 10000 6.2 200 08:30 23.02.2020
2122 Clouds 10 1024 81 10000 7.7 200 07:54 23.02.2020
2123 Clouds 10 1024 81 10000 6.7 200 07:35 23.02.2020
2124 Clouds 10 1024 87 10000 6.7 210 06:39 23.02.2020
2125 Clouds 10 1025 93 9000 6.2 230 05:43 23.02.2020
2126 Clouds 10 1025 81 10000 6.2 210 04:26 23.02.2020
2127 Clouds 10 1027 81 10000 5.7 220 02:59 23.02.2020
2128 Clouds 10 1027 81 10000 5.7 220 02:59 23.02.2020
2129 Clouds 10 1027 81 10000 5.1 220 02:26 23.02.2020
2130 Clouds 10 1028 81 10000 5.1 220 01:24 23.02.2020
2131 Clouds 10 1028 87 10000 5.7 240 00:46 23.02.2020
2132 Clouds 11 1028 87 10000 5.1 230 00:24 23.02.2020
2133 Clouds 11 1028 81 10000 6.2 240 23:45 22.02.2020
2134 Clouds 11 1028 81 10000 6.2 240 23:26 22.02.2020
2135 Clouds 11 1028 76 10000 5.7 230 22:57 22.02.2020
2136 Clouds 11 1028 76 10000 6.7 230 22:38 22.02.2020
2137 Clouds 11 1028 76 10000 6.7 230 22:18 22.02.2020
2138 Clouds 11 1028 76 10000 6.2 230 21:40 22.02.2020
2139 Clouds 12 1029 81 10000 6.7 240 21:22 22.02.2020
2140 Clouds 12 1028 71 10000 6.7 230 20:46 22.02.2020
2141 Clouds 12 1028 71 10000 5.7 230 20:24 22.02.2020
2142 Clouds 12 1028 71 10000 5.7 230 19:56 22.02.2020
2143 Clouds 12 1028 71 10000 5.1 230 19:37 22.02.2020
2144 Clouds 12 1028 71 10000 5.1 230 19:18 22.02.2020
2145 Clouds 12 1027 71 10000 6.2 220 18:39 22.02.2020
2146 Clouds 12 1027 71 10000 5.7 230 18:39 22.02.2020
2147 Clouds 12 1027 71 10000 6.2 220 18:21 22.02.2020
2148 Clouds 12 1027 71 10000 6.7 230 17:57 22.02.2020
2149 Clouds 12 1027 71 10000 6.7 230 17:39 22.02.2020
2150 Clouds 12 1027 71 10000 6.2 230 17:21 22.02.2020
2151 Clouds 12 1027 66 10000 6.2 220 16:57 22.02.2020
2152 Clouds 12 1026 66 10000 7.2 230 16:39 22.02.2020
2153 Clouds 12 1026 66 10000 7.2 230 16:20 22.02.2020
2154 Clouds 12 1026 66 10000 7.2 230 16:20 22.02.2020
2155 Clouds 12 1027 62 10000 6.2 220 15:43 22.02.2020
2156 Clouds 12 1026 62 10000 6.7 230 15:25 22.02.2020
2157 Clouds 12 1027 62 10000 7.7 220 14:55 22.02.2020
2158 Clouds 12 1027 62 10000 7.7 220 14:37 22.02.2020
2159 Clouds 12 1026 62 10000 6.2 210 14:18 22.02.2020
2160 Clouds 12 1027 62 10000 6.2 220 13:41 22.02.2020
2161 Clouds 12 1027 62 10000 6.2 220 13:19 22.02.2020
2162 Clouds 11 1027 58 10000 7.2 210 12:46 22.02.2020
2163 Clouds 11 1027 71 10000 6.7 230 12:24 22.02.2020
2164 Clouds 10 1026 66 10000 5.7 200 11:55 22.02.2020
2165 Clouds 10 1027 66 10000 7.7 210 11:36 22.02.2020
2166 Clouds 9 1027 66 10000 7.7 210 11:18 22.02.2020
2167 Clouds 8 1027 70 10000 6.2 220 10:40 22.02.2020
2168 Clouds 8 1027 75 10000 6.7 200 10:20 22.02.2020
2169 Clouds 7 1027 81 10000 7.2 190 09:58 22.02.2020
2170 Clouds 6 1028 75 10000 5.1 210 09:39 22.02.2020
2171 Clouds 6 1028 75 10000 5.1 210 09:21 22.02.2020
2172 Clouds 6 1028 75 10000 5.1 210 09:21 22.02.2020
2173 Clouds 5 1028 86 10000 4.6 240 08:50 22.02.2020
2174 Clouds 5 1027 81 10000 5.1 210 08:28 22.02.2020
2175 Clouds 4 1027 80 10000 4.6 230 07:52 22.02.2020
2176 Clouds 5 1027 81 10000 5.7 210 07:20 22.02.2020
2177 Clouds 4 1026 81 10000 6.2 210 06:53 22.02.2020
2178 Clouds 4 1025 86 10000 4.1 190 06:34 22.02.2020
2179 Clear 4 1027 80 10000 4.6 230 04:42 22.02.2020
2180 Clear 4 1028 75 10000 4.1 200 03:45 22.02.2020
2181 Clear 4 1028 80 10000 5.1 220 02:34 22.02.2020
2182 Clouds 4 1028 80 10000 4.6 220 01:47 22.02.2020
2183 Clouds 5 1028 75 10000 3.6 210 01:28 22.02.2020
2184 Clear 5 1028 70 10000 3.1 210 00:46 22.02.2020
2185 Clear 5 1028 75 10000 3.1 200 00:28 22.02.2020
2186 Clear 5 1028 70 10000 4.1 200 23:52 21.02.2020
2187 Clouds 5 1029 70 10000 4.1 200 23:25 21.02.2020
2188 Clouds 6 1029 75 10000 3.6 220 22:58 21.02.2020
2189 Clouds 6 1029 75 10000 3.6 220 22:39 21.02.2020
2190 -273 0 0 0 0 0 22:21 21.02.2020
2191 Clouds 7 1029 65 10000 5.7 210 21:42 21.02.2020
2192 Clouds 7 1029 65 10000 6.2 220 21:24 21.02.2020
2193 Clouds 7 1030 65 10000 4.6 210 20:58 21.02.2020
2194 Clouds 7 1029 65 10000 5.1 210 20:38 21.02.2020
2195 Clouds 7 1029 65 10000 5.1 210 20:19 21.02.2020
2196 Clouds 7 1029 70 10000 3.6 230 19:39 21.02.2020
2197 Clouds 7 1029 70 10000 3.6 230 19:39 21.02.2020
2198 Clouds 7 1029 70 10000 3.6 230 19:19 21.02.2020
2199 Clouds 8 1029 57 10000 6.2 220 18:42 21.02.2020
2200 Clouds 8 1029 57 10000 6.2 220 18:23 21.02.2020
2201 Clouds 8 1029 65 10000 4.6 220 17:57 21.02.2020
2202 Clouds 9 1029 53 10000 6.2 230 17:37 21.02.2020
2203 Clouds 9 1029 53 10000 6.2 230 17:19 21.02.2020
2204 Clouds 9 1029 57 10000 6.2 230 16:42 21.02.2020
2205 Clouds 10 1029 57 10000 6.2 250 16:22 21.02.2020
2206 Clouds 10 1029 53 10000 6.2 240 15:59 21.02.2020
2207 Clouds 10 1030 53 10000 5.7 230 15:38 21.02.2020
2208 Clouds 10 1030 53 10000 5.7 230 15:18 21.02.2020
2209 Clouds 10 1030 53 10000 5.7 230 14:42 21.02.2020
2210 Clouds 10 1030 53 10000 5.7 230 14:22 21.02.2020
2211 Clouds 10 1031 57 10000 5.7 230 13:59 21.02.2020
2212 Clouds 10 1031 57 10000 5.7 230 13:39 21.02.2020
2213 Clouds 9 1031 57 10000 5.1 230 13:20 21.02.2020
2214 Clouds 9 1031 66 10000 4.6 230 12:45 21.02.2020
2215 Clouds 9 1031 66 10000 4.1 230 12:27 21.02.2020
2216 Clouds 8 1031 75 10000 3.6 220 11:57 21.02.2020
2217 Clouds 7 1031 70 10000 4.1 200 11:38 21.02.2020
2218 Clouds 7 1031 70 10000 4.1 200 11:20 21.02.2020
2219 Clouds 5 1031 81 10000 3.6 220 10:42 21.02.2020
2220 Clouds 5 1031 81 10000 3.6 220 10:22 21.02.2020
2221 Clouds 4 1031 80 10000 1.5 0 09:58 21.02.2020
2222 Clouds 3 1031 86 10000 3.74 230 09:40 21.02.2020
2223 Clouds 3 1031 86 10000 3.74 230 09:22 21.02.2020
2224 Clouds 2 1030 86 10000 2.6 240 08:56 21.02.2020
2225 Clouds 2 1030 69 10000 2.1 220 08:37 21.02.2020
2226 Clouds 2 1030 73 10000 2.1 220 08:18 21.02.2020
2227 Clouds 2 1029 73 10000 2.1 220 07:42 21.02.2020
2228 Clouds 2 1029 73 10000 2.1 220 07:21 21.02.2020
2229 Clouds 2 1029 73 10000 2.6 210 06:56 21.02.2020
2230 Clouds 2 1029 93 10000 2.6 220 06:33 21.02.2020
2231 Clouds 2 1029 86 10000 2.6 240 05:58 21.02.2020
2232 Clouds 2 1029 86 10000 3.1 240 05:31 21.02.2020
2233 Clouds 2 1028 86 10000 3.6 230 04:26 21.02.2020
2234 Clouds 3 1028 93 10000 4.1 260 03:52 21.02.2020
2235 Clouds 3 1027 86 10000 4.6 240 02:59 21.02.2020
2236 Clouds 4 1027 86 10000 3.6 240 01:44 21.02.2020
2237 Clouds 4 1026 86 10000 2.6 230 01:22 21.02.2020
2238 Clouds 4 1026 86 10000 3.6 250 00:39 21.02.2020
2239 Clouds 4 1026 86 10000 3.6 250 00:20 21.02.2020
2240 Clouds 5 1025 80 10000 3.6 230 23:42 20.02.2020
2241 Clouds 5 1025 80 10000 3.6 230 23:22 20.02.2020
2242 Rain 5 1024 81 10000 4.6 250 22:42 20.02.2020
2243 Rain 5 1023 81 10000 4.1 240 22:24 20.02.2020
2244 Rain 5 1022 81 10000 3.6 260 21:58 20.02.2020
2245 Rain 5 1022 81 10000 3.6 260 21:40 20.02.2020
2246 Clouds 6 1022 81 10000 8.2 280 21:20 20.02.2020
2247 Rain 6 1021 75 10000 4.6 260 20:57 20.02.2020
2248 Rain 6 1021 75 10000 4.6 260 20:39 20.02.2020
2249 Rain 6 1020 75 10000 5.1 270 20:20 20.02.2020
2250 Rain 6 1020 81 10000 8.2 300 19:59 20.02.2020
2251 Rain 7 1020 81 10000 8.2 300 19:41 20.02.2020
2252 Rain 7 1018 81 5000 8.7 280 19:23 20.02.2020
2253 Rain 9 1016 76 10000 9.3 210 18:58 20.02.2020
2254 Clouds 10 1015 71 10000 9.8 210 18:37 20.02.2020
2255 Clouds 10 1015 71 10000 9.8 210 18:19 20.02.2020
2256 Clouds 11 1016 76 10000 6.7 220 17:39 20.02.2020
2257 Clouds 11 1015 71 10000 7.7 200 17:20 20.02.2020
2258 Clouds 11 1015 71 10000 7.7 200 16:58 20.02.2020
2259 Clouds 11 1016 66 10000 9.8 200 16:39 20.02.2020
2260 -273 0 0 0 0 0 16:39 20.02.2020
2261 Clouds 11 1016 76 10000 6.2 220 16:19 20.02.2020
2262 Clouds 11 1016 71 10000 8.7 200 15:56 20.02.2020
2263 Clouds 11 1016 71 10000 8.2 200 15:37 20.02.2020
2264 Clouds 11 1016 71 10000 8.2 200 15:19 20.02.2020
2265 Clouds 11 1017 71 10000 9.3 200 14:44 20.02.2020
2266 Clouds 10 1017 76 10000 7.2 210 14:25 20.02.2020
2267 Clouds 10 1017 76 10000 8.2 200 13:59 20.02.2020
2268 Clouds 10 1018 76 10000 6.7 200 13:41 20.02.2020
2269 Clouds 10 1018 76 10000 6.7 200 13:19 20.02.2020
2270 Clouds 10 1018 76 10000 6.7 190 12:43 20.02.2020
2271 Clouds 10 1019 76 10000 7.7 200 12:21 20.02.2020
2272 Clouds 9 1019 71 10000 6.7 200 11:59 20.02.2020
2273 Clouds 9 1019 71 10000 6.7 200 11:41 20.02.2020
2274 Clouds 9 1019 71 10000 7.2 190 11:22 20.02.2020
2275 Clouds 9 1019 87 10000 4.6 210 10:57 20.02.2020
2276 Clouds 9 1019 76 10000 7.2 200 10:38 20.02.2020
2277 Clouds 9 1019 76 10000 7.2 200 10:20 20.02.2020
2278 Clouds 8 1019 81 10000 5.7 190 09:44 20.02.2020
2279 Clouds 8 1019 76 10000 6.7 180 09:24 20.02.2020
2280 Clouds 8 1019 87 10000 4.6 190 09:24 20.02.2020
2281 Clouds 8 1019 87 10000 3.6 210 08:57 20.02.2020
2282 Clouds 8 1019 87 10000 3.6 210 08:38 20.02.2020
2283 Clouds 8 1019 93 10000 3.6 200 08:19 20.02.2020
2284 Clouds 8 1019 93 10000 3.6 200 07:45 20.02.2020
2285 Clouds 8 1019 93 10000 3.6 200 07:21 20.02.2020
2286 Clouds 8 1020 87 10000 4.1 220 06:44 20.02.2020
2287 Clouds 8 1020 87 10000 4.1 220 06:26 20.02.2020
2288 Clouds 8 1020 93 10000 4.1 210 05:45 20.02.2020
2289 Clouds 8 1020 93 10000 4.1 220 04:51 20.02.2020
2290 Clouds 7 1021 93 10000 3.6 230 03:58 20.02.2020
2291 Clouds 7 1021 93 10000 4.6 230 03:28 20.02.2020
2292 Clouds 7 1021 87 10000 4.6 210 02:23 20.02.2020
2293 Clouds 7 1022 87 10000 4.6 210 00:59 20.02.2020
2294 Clouds 7 1022 93 10000 4.6 230 00:32 20.02.2020
2295 Clouds 7 1022 100 10000 3.6 220 23:49 19.02.2020
2296 Clouds 7 1022 100 10000 3.6 220 23:49 19.02.2020
2297 Clouds 7 1023 100 10000 2.1 200 23:22 19.02.2020
2298 Clouds 8 1023 93 10000 3.1 210 22:47 19.02.2020
2299 Clouds 8 1023 93 10000 2.1 200 22:28 19.02.2020
2300 Clouds 8 1023 87 10000 2.6 200 21:59 19.02.2020
2301 Clouds 8 1024 87 10000 3.1 220 21:41 19.02.2020
2302 Clouds 8 1024 87 10000 3.1 220 21:19 19.02.2020
2303 Clouds 8 1024 87 10000 4.1 200 20:58 19.02.2020
2304 Clouds 8 1024 87 10000 4.6 200 20:39 19.02.2020
2305 Clouds 8 1024 87 10000 4.6 200 20:20 19.02.2020
2306 Clouds 7 1024 87 10000 4.6 200 20:20 19.02.2020
2307 Rain 7 1024 87 10000 4.1 180 19:59 19.02.2020
2308 Rain 7 1025 87 7000 3.1 190 19:39 19.02.2020
2309 Rain 7 1025 87 7000 3.1 190 19:20 19.02.2020
2310 Drizzle 7 1025 87 10000 3.1 200 18:59 19.02.2020
2311 Drizzle 8 1025 87 10000 3.1 200 18:40 19.02.2020
2312 Drizzle 8 1025 87 10000 3.1 210 18:22 19.02.2020
2313 Rain 8 1025 81 10000 4.1 240 17:59 19.02.2020
2314 Rain 8 1025 81 10000 4.1 240 17:41 19.02.2020
2315 Rain 8 1025 76 10000 4.6 250 17:19 19.02.2020
2316 Clouds 9 1025 70 10000 4.1 240 16:43 19.02.2020
2317 Clouds 9 1025 70 10000 4.1 240 16:19 19.02.2020
2318 Drizzle 9 1025 70 10000 4.6 260 15:57 19.02.2020
2319 Rain 9 1025 66 10000 6.2 250 15:38 19.02.2020
2320 Rain 9 1025 66 10000 6.2 250 15:20 19.02.2020
2321 Clouds 9 1026 57 10000 5.1 250 14:41 19.02.2020
2322 Clouds 9 1026 57 10000 5.1 250 14:23 19.02.2020
2323 Clouds 9 1026 57 10000 6.2 250 13:56 19.02.2020
2324 Clouds 9 1026 57 10000 6.2 250 13:37 19.02.2020
2325 Clouds 9 1026 61 10000 5.1 250 13:18 19.02.2020
2326 Clouds 9 1026 70 10000 5.1 240 12:39 19.02.2020
2327 Clouds 9 1026 70 10000 5.1 240 12:19 19.02.2020
2328 Clouds 8 1026 75 10000 5.1 250 11:55 19.02.2020
2329 Clouds 8 1026 75 10000 4.6 250 11:37 19.02.2020
2330 Clouds 7 1026 75 10000 4.6 250 11:18 19.02.2020
2331 Clouds 7 1026 87 10000 4.6 270 10:56 19.02.2020
2332 Clouds 7 1026 81 10000 5.1 250 10:37 19.02.2020
2333 Clouds 6 1026 81 10000 5.1 250 10:19 19.02.2020
2334 Clouds 6 1025 81 10000 4.1 250 09:56 19.02.2020
2335 Clouds 5 1025 86 10000 4.6 240 09:37 19.02.2020
2336 Clouds 5 1025 86 10000 4.6 240 09:18 19.02.2020
2337 Clouds 5 1024 93 10000 3.6 240 08:42 19.02.2020
2338 Clouds 5 1024 93 10000 3.6 240 08:23 19.02.2020
2339 Clouds 5 1024 86 10000 3.1 230 07:41 19.02.2020
2340 Clouds 5 1023 86 10000 4.6 240 07:20 19.02.2020
2341 Clouds 5 1023 86 10000 4.6 250 06:47 19.02.2020
2342 Clouds 5 1023 86 10000 4.1 240 06:19 19.02.2020
2343 Rain 5 1021 81 10000 4.6 250 04:18 19.02.2020
2344 Rain 5 1021 87 10000 5.7 230 02:52 19.02.2020
2345 Rain 5 1021 87 10000 5.1 250 02:29 19.02.2020
2346 Rain 7 1021 81 7000 6.7 210 01:23 19.02.2020
2347 Clouds 7 1021 87 10000 6.7 230 00:47 19.02.2020
2348 Clouds 8 1022 81 10000 6.2 220 00:28 19.02.2020
2349 Clouds 8 1022 81 10000 6.7 230 23:42 18.02.2020
2350 Clouds 8 1022 81 10000 6.7 230 23:20 18.02.2020
2351 Clouds 8 1022 70 10000 7.7 210 22:56 18.02.2020
2352 Clouds 8 1023 75 10000 5.7 230 22:37 18.02.2020
2353 Clouds 8 1023 75 10000 5.7 230 22:37 18.02.2020
2354 Clouds 8 1023 75 10000 5.7 230 22:19 18.02.2020
2355 Clouds 8 1023 70 10000 6.7 210 21:55 18.02.2020
2356 Clouds 8 1023 70 10000 6.7 210 21:37 18.02.2020
2357 Clouds 8 1024 70 10000 7.2 210 21:18 18.02.2020
2358 Clouds 8 1024 70 10000 7.2 210 21:18 18.02.2020
2359 Clouds 8 1024 66 10000 6.7 200 20:56 18.02.2020
2360 Clouds 8 1024 66 10000 6.7 200 20:56 18.02.2020
2361 Clouds 8 1024 75 10000 5.1 220 20:37 18.02.2020
2362 Clouds 8 1024 75 10000 5.1 220 20:19 18.02.2020
2363 Clouds 8 1025 70 10000 4.1 230 19:42 18.02.2020
2364 Clouds 8 1025 70 10000 3.6 220 19:20 18.02.2020
2365 Clouds 9 1025 66 10000 3.1 220 18:59 18.02.2020
2366 Clouds 9 1025 66 10000 3.1 220 18:59 18.02.2020
2367 Clouds 9 1025 57 10000 6.2 220 18:40 18.02.2020
2368 Clouds 9 1025 57 10000 6.2 220 18:20 18.02.2020
2369 Clouds 9 1025 57 10000 5.1 230 17:55 18.02.2020
2370 Clouds 10 1025 53 10000 7.7 230 17:36 18.02.2020
2371 Clouds 10 1025 53 10000 7.7 230 17:18 18.02.2020
2372 Clouds 10 1026 57 10000 7.2 230 16:39 18.02.2020
2373 Clouds 10 1026 57 10000 7.2 230 16:19 18.02.2020
2374 Clouds 10 1026 61 10000 9.3 250 15:40 18.02.2020
2375 Clouds 10 1026 66 10000 6.7 250 15:20 18.02.2020
2376 Clouds 10 1026 53 10000 7.7 240 14:57 18.02.2020
2377 Clouds 10 1026 53 10000 7.7 240 14:57 18.02.2020
2378 Clouds 10 1027 61 10000 7.2 230 14:39 18.02.2020
2379 Clouds 10 1027 61 10000 7.2 230 14:20 18.02.2020
2380 Clouds 10 1027 61 10000 7.2 240 13:42 18.02.2020
2381 Clouds 10 1027 61 10000 7.2 240 13:23 18.02.2020
2382 Clouds 10 1027 61 10000 6.7 240 12:59 18.02.2020
2383 Clouds 9 1028 66 10000 6.2 230 12:41 18.02.2020
2384 Clouds 9 1028 66 10000 6.2 230 12:22 18.02.2020
2385 Clouds 8 1028 66 10000 6.7 230 11:55 18.02.2020
2386 Clouds 8 1028 70 10000 7.2 230 11:37 18.02.2020
2387 Clouds 8 1028 70 10000 7.2 230 11:37 18.02.2020
2388 Clouds 8 1028 70 10000 7.2 230 11:18 18.02.2020
2389 Clouds 7 1028 70 10000 6.2 220 10:41 18.02.2020
2390 Clouds 6 1028 75 10000 5.7 210 10:18 18.02.2020
2391 Clouds 5 1028 75 10000 5.1 210 09:56 18.02.2020
2392 Clouds 4 1028 86 10000 4.6 230 09:38 18.02.2020
2393 Clouds 4 1028 86 10000 4.6 230 09:19 18.02.2020
2394 Clouds 4 1028 80 10000 3.6 220 08:54 18.02.2020
2395 Clouds 4 1027 80 10000 2.1 210 08:36 18.02.2020
2396 Clouds 3 1027 80 10000 2.1 210 08:18 18.02.2020
2397 Clouds 3 1027 80 10000 3.1 200 07:42 18.02.2020
2398 Clouds 3 1027 80 10000 3.6 220 07:23 18.02.2020
2399 Clouds 4 1027 75 10000 1 0 06:48 18.02.2020
2400 Clouds 4 1027 80 10000 3.6 210 06:27 18.02.2020
2401 Clouds 4 1027 80 10000 4.1 230 05:47 18.02.2020
2402 Clouds 4 1026 80 10000 4.6 230 04:52 18.02.2020
2403 Clouds 4 1026 80 10000 4.6 240 03:38 18.02.2020
2404 Clouds 5 1026 75 10000 5.1 230 02:58 18.02.2020
2405 Clouds 5 1025 75 10000 6.7 230 01:25 18.02.2020
2406 Clouds 5 1024 80 10000 5.1 240 00:22 18.02.2020
2407 Clouds 5 1024 86 10000 5.1 240 23:59 17.02.2020
2408 Clouds 6 1024 86 10000 5.7 240 23:39 17.02.2020
2409 Clear 6 1024 75 10000 6.2 230 23:19 17.02.2020
2410 Clear 6 1023 75 10000 6.2 230 22:57 17.02.2020
2411 Clear 6 1023 75 10000 6.7 230 22:38 17.02.2020
2412 Clear 6 1023 75 10000 6.7 230 22:18 17.02.2020
2413 Clear 6 1023 75 10000 7.2 240 21:39 17.02.2020
2414 Clouds 7 1022 70 10000 8.2 240 21:19 17.02.2020
2415 Clear 7 1022 70 10000 7.2 230 20:55 17.02.2020
2416 Clear 7 1022 70 10000 5.7 220 20:37 17.02.2020
2417 Clouds 7 1022 70 10000 5.7 220 20:18 17.02.2020
2418 Clouds 7 1021 81 10000 4.1 270 19:42 17.02.2020
2419 Clouds 7 1021 81 10000 4.1 270 19:21 17.02.2020
2420 Rain 8 1020 75 10000 5.7 240 18:55 17.02.2020
2421 Rain 8 1020 81 10000 5.1 240 18:36 17.02.2020
2422 Rain 8 1020 81 10000 5.1 240 18:36 17.02.2020
2423 Rain 8 1020 81 10000 5.1 240 18:36 17.02.2020
2424 Rain 8 1020 81 10000 5.1 240 18:18 17.02.2020
2425 Rain 9 1019 61 10000 9.3 250 17:38 17.02.2020
2426 Rain 10 1018 50 10000 8.2 230 17:19 17.02.2020
2427 Clouds 10 1018 57 10000 7.7 240 16:58 17.02.2020
2428 Clouds 10 1018 57 10000 7.7 240 16:40 17.02.2020
2429 Clouds 11 1018 57 10000 7.7 240 16:22 17.02.2020
2430 Rain 11 1017 54 10000 7.7 240 15:46 17.02.2020
2431 Rain 11 1017 54 10000 7.7 240 15:46 17.02.2020
2432 Clouds 11 1018 57 10000 8.7 260 15:28 17.02.2020
2433 Rain 11 1017 50 10000 10.8 240 14:58 17.02.2020
2434 Clouds 11 1017 57 10000 8.7 240 14:40 17.02.2020
2435 Clouds 11 1017 57 10000 8.7 240 14:22 17.02.2020
2436 Rain 12 1017 54 10000 7.7 240 14:22 17.02.2020
2437 Clouds 11 1017 54 10000 10.3 230 13:57 17.02.2020
2438 Clouds 11 1017 54 10000 10.3 230 13:57 17.02.2020
2439 Clouds 11 1017 54 10000 9.8 240 13:38 17.02.2020
2440 Clouds 11 1017 54 10000 9.8 240 13:38 17.02.2020
2441 Clouds 11 1017 54 10000 9.8 240 13:18 17.02.2020
2442 Clouds 11 1017 62 10000 7.7 230 12:43 17.02.2020
2443 Clouds 11 1017 62 10000 7.7 230 12:24 17.02.2020
2444 Clouds 11 1017 66 10000 7.2 220 11:58 17.02.2020
2445 Clouds 10 1017 71 10000 7.7 220 11:39 17.02.2020
2446 Rain 10 1017 71 10000 7.7 220 11:20 17.02.2020
2447 Clouds 10 1017 76 10000 5.7 210 10:54 17.02.2020
2448 Clouds 9 1016 81 10000 5.7 200 10:36 17.02.2020
2449 Clouds 9 1016 81 10000 5.7 200 10:18 17.02.2020
2450 Rain 8 1016 81 10000 5.1 210 09:41 17.02.2020
2451 Clouds 8 1016 81 10000 4.1 200 09:21 17.02.2020
2452 Clouds 8 1016 93 10000 3.1 220 09:21 17.02.2020
2453 Clouds 8 1016 93 10000 3.6 210 08:58 17.02.2020
2454 Clouds 8 1015 93 10000 3.1 200 08:39 17.02.2020
2455 Clouds 8 1015 93 10000 3.1 200 08:19 17.02.2020
2456 Clouds 8 1015 93 10000 3.1 200 07:44 17.02.2020
2457 Clouds 8 1015 93 10000 3.1 200 07:24 17.02.2020
2458 Clouds 8 1015 81 10000 4.1 190 06:52 17.02.2020
2459 Clouds 8 1016 81 10000 4.1 200 06:32 17.02.2020
2460 Clouds 8 1016 81 10000 5.1 210 05:56 17.02.2020
2461 Clouds 8 1016 81 10000 5.1 210 05:37 17.02.2020
2462 Clouds 8 1015 81 10000 5.1 220 03:22 17.02.2020
2463 Clouds 8 1015 81 10000 5.1 230 01:58 17.02.2020
2464 Clouds 8 1014 81 10000 5.7 230 00:48 17.02.2020
2465 Rain 8 1014 87 10000 5.7 220 00:22 17.02.2020
2466 Rain 8 1013 87 10000 4.6 230 23:54 16.02.2020
2467 Rain 9 1012 87 10000 3.6 230 23:32 16.02.2020
2468 Rain 9 1012 87 10000 5.1 240 22:58 16.02.2020
2469 Rain 8 1012 93 6000 4.1 250 22:39 16.02.2020
2470 Rain 8 1012 93 6000 4.1 250 22:39 16.02.2020
2471 Rain 9 1012 87 10000 5.1 240 22:39 16.02.2020
2472 Rain 9 1012 93 6000 4.1 250 22:21 16.02.2020
2473 Drizzle 9 1011 87 10000 6.2 260 21:58 16.02.2020
2474 Drizzle 9 1011 93 6000 5.7 250 21:40 16.02.2020
2475 Drizzle 9 1011 93 6000 5.7 250 21:22 16.02.2020
2476 Rain 9 1010 93 6000 5.1 260 20:58 16.02.2020
2477 Rain 10 1009 87 4400 6.2 280 20:40 16.02.2020
2478 Rain 11 1009 87 4400 6.2 280 20:21 16.02.2020
2479 Rain 11 1009 87 4400 6.2 280 20:21 16.02.2020
2480 Drizzle 13 1007 82 10000 10.3 200 19:58 16.02.2020
2481 Drizzle 14 1007 72 10000 13.4 210 19:38 16.02.2020
2482 Drizzle 15 1007 72 10000 13.4 210 19:19 16.02.2020
2483 Clouds 16 1006 67 10000 12.3 200 18:45 16.02.2020
2484 Clouds 16 1006 67 10000 13.4 210 18:26 16.02.2020
2485 Clouds 17 1006 63 10000 10.3 220 17:58 16.02.2020
2486 Clouds 17 1006 59 10000 12.9 200 17:40 16.02.2020
2487 Clouds 17 1006 59 10000 11.8 200 17:20 16.02.2020
2488 Clouds 17 1006 59 10000 12.3 200 16:56 16.02.2020
2489 Clouds 17 1006 59 10000 12.3 200 16:38 16.02.2020
2490 Clouds 17 1006 59 10000 12.3 200 16:19 16.02.2020
2491 Clouds 17 1006 59 10000 12.3 200 15:42 16.02.2020
2492 Clouds 17 1006 59 10000 14.4 200 15:23 16.02.2020
2493 Clouds 17 1006 59 10000 11.3 200 14:59 16.02.2020
2494 Clouds 17 1007 63 10000 12.3 200 14:38 16.02.2020
2495 Clouds 17 1007 63 10000 12.3 200 14:19 16.02.2020
2496 Clouds 16 1008 63 10000 11.3 200 13:45 16.02.2020
2497 Clouds 16 1008 63 10000 11.3 200 13:24 16.02.2020
2498 Clouds 15 1008 63 10000 10.8 200 12:54 16.02.2020
2499 Clouds 15 1008 67 10000 10.8 190 12:36 16.02.2020
2500 Clouds 15 1008 67 10000 10.8 190 12:18 16.02.2020
2501 Clouds 14 1008 62 10000 12.3 200 11:38 16.02.2020
2502 Clouds 14 1008 62 10000 11.3 200 11:18 16.02.2020
2503 Clouds 14 1008 62 10000 12.3 190 10:56 16.02.2020
2504 Clouds 14 1008 62 10000 11.3 200 10:38 16.02.2020
2505 Clouds 14 1008 62 10000 11.3 200 10:19 16.02.2020
2506 Clouds 13 1008 62 10000 10.8 200 09:55 16.02.2020
2507 Clouds 13 1009 62 10000 10.3 200 09:36 16.02.2020
2508 Clouds 13 1009 62 10000 10.3 200 09:18 16.02.2020
2509 Clouds 13 1009 62 10000 10.8 190 08:44 16.02.2020
2510 Rain 13 1009 62 10000 10.3 200 08:21 16.02.2020
2511 Rain 13 1009 62 10000 10.8 190 07:52 16.02.2020
2512 Rain 13 1010 62 10000 10.8 190 07:34 16.02.2020
2513 Clouds 13 1010 67 10000 9.8 190 06:33 16.02.2020
2514 Rain 13 1011 67 10000 9.8 190 04:43 16.02.2020
2515 Rain 13 1012 71 10000 10.8 200 03:31 16.02.2020
2516 Rain 13 1012 71 10000 9.3 200 02:32 16.02.2020
2517 Clouds 12 1013 66 10000 9.3 190 01:43 16.02.2020
2518 Clouds 12 1013 66 10000 9.3 190 01:23 16.02.2020
2519 Clouds 12 1013 71 10000 8.2 210 00:53 16.02.2020
2520 Clouds 12 1013 62 10000 8.7 190 00:33 16.02.2020
2521 Clouds 12 1013 66 10000 9.3 200 23:58 15.02.2020
2522 Clouds 12 1013 66 10000 9.3 200 23:40 15.02.2020
2523 Clouds 12 1013 66 10000 8.7 190 23:40 15.02.2020
2524 Rain 12 1013 66 10000 8.7 190 23:21 15.02.2020
2525 Rain 12 1014 66 10000 8.2 190 22:56 15.02.2020
2526 Clouds 12 1014 66 10000 8.7 200 22:37 15.02.2020
2527 Clouds 12 1014 66 10000 8.7 200 22:18 15.02.2020
2528 Clouds 12 1014 76 10000 8.2 190 21:42 15.02.2020
2529 Clouds 12 1015 71 10000 8.2 190 21:23 15.02.2020
2530 Clouds 11 1015 76 10000 8.7 190 20:42 15.02.2020
2531 Clouds 11 1015 76 10000 7.7 180 20:21 15.02.2020
2532 Clouds 11 1015 76 10000 7.7 180 20:21 15.02.2020
2533 Clouds 11 1015 76 10000 7.7 180 20:21 15.02.2020
2534 Rain 11 1016 76 10000 8.7 190 19:57 15.02.2020
2535 Rain 12 1016 76 10000 5.7 200 19:39 15.02.2020
2536 Rain 12 1016 76 10000 5.7 200 19:20 15.02.2020
2537 Clouds 12 1016 62 10000 5.7 190 18:40 15.02.2020
2538 Clouds 12 1016 66 10000 6.2 180 18:20 15.02.2020
2539 Clouds 12 1016 66 10000 6.2 180 17:55 15.02.2020
2540 Clouds 12 1015 66 10000 8.7 170 17:37 15.02.2020
2541 Clouds 12 1015 66 10000 8.7 170 17:18 15.02.2020
2542 Clouds 13 1016 66 10000 8.7 180 16:39 15.02.2020
2543 Clouds 13 1016 66 10000 8.7 180 16:20 15.02.2020
2544 Clouds 13 1016 66 10000 7.7 180 15:49 15.02.2020
2545 Clouds 13 1017 66 10000 7.7 180 15:31 15.02.2020
2546 Clouds 13 1017 62 10000 7.7 200 14:55 15.02.2020
2547 Clouds 13 1017 62 10000 8.2 180 14:37 15.02.2020
2548 Clouds 13 1017 62 10000 8.2 180 14:18 15.02.2020
2549 Clouds 13 1018 66 10000 7.7 180 13:41 15.02.2020
2550 Clouds 13 1018 66 10000 7.7 180 13:22 15.02.2020
2551 Clouds 13 1019 66 10000 7.7 180 12:56 15.02.2020
2552 Clouds 12 1019 71 10000 7.7 180 12:38 15.02.2020
2553 Clouds 12 1019 71 10000 7.7 180 12:19 15.02.2020
2554 Clouds 11 1020 76 10000 6.7 180 11:45 15.02.2020
2555 Clouds 10 1020 76 10000 5.1 170 11:25 15.02.2020
2556 Clouds 9 1020 87 10000 5.7 220 10:47 15.02.2020
2557 Clouds 9 1021 81 10000 5.7 190 10:29 15.02.2020
2558 Clouds 8 1021 81 10000 4.1 190 09:55 15.02.2020
2559 Clouds 8 1020 87 10000 5.1 180 09:36 15.02.2020
2560 Clouds 7 1020 87 10000 5.1 180 09:18 15.02.2020
2561 Clouds 7 1021 87 10000 4.6 170 08:41 15.02.2020
2562 Clouds 7 1021 87 10000 4.1 160 08:23 15.02.2020
2563 Clouds 7 1021 81 10000 2.6 160 07:44 15.02.2020
2564 Clouds 7 1021 81 10000 2.6 160 07:25 15.02.2020
2565 Clouds 7 1021 87 10000 3.1 150 06:45 15.02.2020
2566 Clouds 7 1021 87 10000 2.1 150 06:26 15.02.2020
2567 Clouds 6 1021 81 10000 3.6 160 05:30 15.02.2020
2568 Clouds 6 1022 81 10000 3.1 170 04:44 15.02.2020
2569 Clouds 6 1022 87 10000 2.6 160 03:23 15.02.2020
2570 Clouds 7 1023 87 10000 2.6 140 02:42 15.02.2020
2571 Clouds 6 1023 81 10000 4.1 160 02:19 15.02.2020
2572 Clouds 7 1023 81 10000 3.1 180 01:38 15.02.2020
2573 Clouds 7 1023 81 10000 5.1 160 00:41 15.02.2020
2574 Clouds 7 1023 81 10000 5.1 160 00:19 15.02.2020
2575 Clouds 8 1023 81 10000 4.6 170 23:39 14.02.2020
2576 Clouds 8 1023 81 10000 4.6 170 23:19 14.02.2020
2577 Clouds 8 1023 81 10000 3.6 160 22:44 14.02.2020
2578 Clouds 8 1024 76 10000 4.6 170 22:23 14.02.2020
2579 Clouds 8 1024 76 10000 4.1 170 21:52 14.02.2020
2580 Clouds 8 1024 81 10000 3.1 180 21:34 14.02.2020
2581 Clouds 9 1024 71 10000 2.6 170 20:59 14.02.2020
2582 Clouds 9 1024 71 10000 2.6 170 20:41 14.02.2020
2583 Clouds 9 1024 81 10000 3.1 190 20:19 14.02.2020
2584 Clouds 9 1024 81 10000 3.1 190 19:54 14.02.2020
2585 Clouds 10 1024 66 10000 4.1 200 19:36 14.02.2020
2586 Clouds 10 1024 66 10000 4.1 200 19:18 14.02.2020
2587 Clouds 10 1023 66 10000 5.1 200 18:54 14.02.2020
2588 Clouds 10 1023 66 10000 5.1 200 18:36 14.02.2020
2589 Clouds 10 1023 66 10000 5.1 200 18:18 14.02.2020
2590 Clouds 11 1023 66 10000 5.1 200 17:40 14.02.2020
2591 Clouds 11 1023 66 10000 4.1 200 17:19 14.02.2020
2592 Clouds 11 1023 66 10000 4.1 200 17:18 14.02.2020
2593 Clouds 11 1023 58 10000 6.2 190 16:43 14.02.2020
2594 Clouds 12 1023 58 10000 5.1 190 16:24 14.02.2020
2595 Clouds 12 1023 58 10000 5.7 190 15:58 14.02.2020
2596 Clouds 12 1023 58 10000 5.7 190 15:40 14.02.2020
2597 Clouds 12 1023 58 10000 4.6 200 15:21 14.02.2020
2598 Clouds 11 1023 62 10000 4.1 220 14:59 14.02.2020
2599 Clouds 11 1023 62 10000 4.1 220 14:59 14.02.2020
2600 Clouds 11 1023 62 10000 4.1 220 14:41 14.02.2020
2601 Clouds 11 1023 58 10000 4.6 240 14:22 14.02.2020
2602 Clouds 11 1023 62 10000 5.1 240 13:58 14.02.2020
2603 Clouds 11 1023 62 10000 3.6 220 13:39 14.02.2020
2604 Clouds 11 1023 62 10000 3.6 220 13:20 14.02.2020
2605 Clouds 11 1024 66 10000 4.6 230 12:57 14.02.2020
2606 Clouds 10 1024 66 10000 4.6 230 12:38 14.02.2020
2607 Clouds 10 1024 71 10000 4.6 230 12:20 14.02.2020
2608 Clouds 10 1023 71 10000 5.7 240 11:57 14.02.2020
2609 Clouds 10 1023 71 10000 5.7 240 11:57 14.02.2020
2610 Clouds 10 1023 81 10000 2.6 250 11:39 14.02.2020
2611 Clouds 10 1023 81 10000 2.6 250 11:19 14.02.2020
2612 Clouds 9 1023 81 10000 3.1 240 10:43 14.02.2020
2613 Clouds 9 1022 87 10000 2.6 240 10:23 14.02.2020
2614 Clouds 9 1022 81 10000 2.6 250 09:56 14.02.2020
2615 Clouds 8 1022 81 10000 4.6 240 09:36 14.02.2020
2616 Clouds 8 1022 81 10000 4.6 240 09:36 14.02.2020
2617 Clouds 8 1021 81 10000 3.1 250 09:18 14.02.2020
2618 Clouds 8 1021 81 10000 3.1 240 08:40 14.02.2020
2619 Clouds 8 1021 81 10000 3.1 240 08:22 14.02.2020
2620 Clouds 8 1021 81 10000 3.1 240 08:22 14.02.2020
2621 Clouds 8 1021 81 10000 3.1 240 08:22 14.02.2020
2622 Clouds 8 1020 81 10000 2.6 240 07:50 14.02.2020
2623 Clouds 8 1020 81 10000 3.6 250 07:31 14.02.2020
2624 Clouds 8 1019 93 10000 2.1 250 06:54 14.02.2020
2625 Rain 8 1019 81 10000 4.1 250 06:22 14.02.2020
2626 Clouds 8 1018 87 10000 2.6 240 05:42 14.02.2020
2627 Clouds 8 1017 76 10000 3.6 250 03:52 14.02.2020
2628 Clouds 8 1016 81 10000 3.6 240 03:24 14.02.2020
2629 Clouds 8 1015 81 10000 3.6 250 02:19 14.02.2020
2630 Clouds 8 1014 76 10000 5.1 260 01:21 14.02.2020
2631 Clouds 8 1013 76 10000 4.6 260 00:42 14.02.2020
2632 Clouds 8 1013 76 10000 4.6 260 00:21 14.02.2020
2633 Clouds 9 1012 76 10000 4.1 260 23:42 13.02.2020
2634 Clouds 8 1012 76 10000 4.1 260 23:19 13.02.2020
2635 Clouds 9 1010 76 10000 5.1 270 22:42 13.02.2020
2636 Clouds 9 1010 76 10000 5.1 270 22:20 13.02.2020
2637 Clouds 9 1009 76 10000 5.1 270 21:59 13.02.2020
2638 Clouds 9 1009 76 10000 5.1 270 21:40 13.02.2020
2639 Rain 9 1008 76 10000 7.2 280 21:21 13.02.2020
2640 Rain 9 1007 76 10000 6.7 260 20:56 13.02.2020
2641 Rain 9 1007 76 10000 6.7 260 20:37 13.02.2020
2642 Rain 9 1006 70 10000 8.2 260 20:19 13.02.2020
2643 Rain 9 1005 76 10000 8.7 270 19:55 13.02.2020
2644 Rain 9 1004 71 10000 7.7 260 19:36 13.02.2020
2645 Rain 9 1004 71 10000 7.7 260 19:18 13.02.2020
2646 Rain 9 1003 76 10000 6.2 260 18:42 13.02.2020
2647 Rain 9 1002 81 10000 6.2 260 18:23 13.02.2020
2648 Rain 9 1001 71 10000 11.3 240 17:58 13.02.2020
2649 Rain 9 1001 71 10000 11.3 240 17:39 13.02.2020
2650 Rain 9 1000 66 10000 11.8 240 17:20 13.02.2020
2651 Rain 9 1000 66 10000 11.8 240 17:20 13.02.2020
2652 Rain 9 1001 76 10000 10.3 250 16:57 13.02.2020
2653 Rain 9 1000 71 8000 9.8 240 16:37 13.02.2020
2654 Rain 10 1000 71 8000 9.8 240 16:19 13.02.2020
2655 Rain 11 999 58 10000 9.8 220 15:56 13.02.2020
2656 Rain 11 999 58 10000 9.8 220 15:37 13.02.2020
2657 Clouds 11 1000 54 10000 12.3 240 15:19 13.02.2020
2658 Clouds 11 1000 50 10000 10.3 230 14:55 13.02.2020
2659 Clouds 11 1000 50 10000 10.3 230 14:55 13.02.2020
2660 Clouds 12 1000 50 10000 10.3 230 14:37 13.02.2020
2661 Rain 12 1000 50 10000 9.8 230 14:19 13.02.2020
2662 Clouds 12 1001 50 10000 9.3 240 13:42 13.02.2020
2663 Clouds 12 1001 54 10000 9.8 250 13:18 13.02.2020
2664 -273 0 0 0 0 0 12:54 13.02.2020
2665 Clouds 11 1002 58 10000 9.8 250 12:54 13.02.2020
2666 Clouds 11 1002 71 10000 7.7 230 12:36 13.02.2020
2667 Clouds 10 1002 71 10000 7.7 230 12:18 13.02.2020
2668 Clouds 10 1002 71 10000 7.2 230 11:43 13.02.2020
2669 Clouds 10 1002 71 10000 7.2 230 11:43 13.02.2020
2670 Rain 9 1002 76 10000 5.7 230 11:43 13.02.2020
2671 Rain 9 1002 76 10000 5.7 230 11:20 13.02.2020
2672 Rain 8 1001 81 10000 9.8 190 10:46 13.02.2020
2673 Rain 8 1001 81 10000 9.8 190 10:27 13.02.2020
2674 Clouds 8 1002 81 10000 9.3 180 09:55 13.02.2020
2675 Clouds 8 1003 81 10000 9.8 180 09:36 13.02.2020
2676 Clouds 7 1003 81 10000 9.8 180 09:18 13.02.2020
2677 Clouds 7 1003 81 10000 10.3 170 08:37 13.02.2020
2678 Clouds 7 1004 81 10000 10.3 180 08:19 13.02.2020
2679 Rain 7 1006 75 10000 8.7 170 07:40 13.02.2020
2680 Rain 7 1006 75 10000 8.7 170 07:21 13.02.2020
2681 Clouds 7 1007 75 10000 7.2 160 06:44 13.02.2020
2682 Clouds 6 1008 75 10000 6.7 160 06:21 13.02.2020
2683 Rain 6 1011 81 10000 5.1 170 05:37 13.02.2020
2684 Clouds 6 1012 81 10000 5.1 160 04:26 13.02.2020
2685 Clouds 6 1013 81 10000 4.6 160 03:52 13.02.2020
2686 Clouds 5 1014 86 10000 4.6 160 03:26 13.02.2020
2687 Clouds 5 1014 86 10000 5.1 160 02:53 13.02.2020
2688 Clouds 5 1015 80 10000 4.1 160 02:19 13.02.2020
2689 Clouds 5 1016 81 10000 4.6 170 01:35 13.02.2020
2690 Clouds 6 1018 75 10000 3.6 170 00:43 13.02.2020
2691 Clouds 6 1018 75 10000 3.6 170 00:22 13.02.2020
2692 Clouds 6 1018 75 10000 3.6 180 23:41 12.02.2020
2693 Clouds 6 1018 75 10000 4.1 170 23:22 12.02.2020
2694 Clouds 6 1018 81 10000 3.6 150 22:54 12.02.2020
2695 Clouds 6 1019 81 10000 3.1 170 22:36 12.02.2020
2696 Clouds 6 1019 70 10000 3.1 170 22:18 12.02.2020
2697 Clouds 6 1019 70 10000 3.1 170 21:55 12.02.2020
2698 Clouds 6 1019 70 10000 2.6 190 21:36 12.02.2020
2699 Clouds 6 1019 70 10000 2.6 190 21:18 12.02.2020
2700 Rain 6 1020 65 10000 3.1 190 20:42 12.02.2020
2701 Clouds 6 1020 65 10000 3.1 190 20:23 12.02.2020
2702 Rain 6 1020 70 10000 2.6 190 19:57 12.02.2020
2703 Rain 6 1020 70 10000 2.6 190 19:37 12.02.2020
2704 Rain 6 1020 65 10000 0.5 0 19:19 12.02.2020
2705 Rain 7 1020 65 10000 1.5 210 18:47 12.02.2020
2706 Rain 7 1020 61 10000 2.6 230 18:20 12.02.2020
2707 Clouds 8 1020 61 10000 4.1 240 17:58 12.02.2020
2708 Clouds 8 1020 61 10000 4.1 240 17:38 12.02.2020
2709 Clouds 8 1020 61 10000 4.1 240 17:38 12.02.2020
2710 Clouds 8 1020 58 10000 6.7 250 17:19 12.02.2020
2711 Clouds 8 1020 57 10000 6.7 250 16:55 12.02.2020
2712 Rain 9 1020 57 10000 5.7 250 16:36 12.02.2020
2713 Rain 9 1020 58 10000 5.7 250 16:18 12.02.2020
2714 Clouds 9 1020 57 10000 7.2 250 15:37 12.02.2020
2715 Clouds 9 1020 58 10000 7.2 250 15:19 12.02.2020
2716 Clouds 9 1021 58 10000 7.2 250 14:42 12.02.2020
2717 Clouds 9 1021 61 10000 6.2 250 14:21 12.02.2020
2718 Clouds 9 1021 57 10000 6.7 270 13:59 12.02.2020
2719 Clouds 9 1021 57 10000 6.7 270 13:40 12.02.2020
2720 Clouds 9 1021 61 10000 6.7 250 13:40 12.02.2020
2721 Clouds 9 1021 61 10000 6.7 250 13:22 12.02.2020
2722 Clouds 8 1021 65 10000 7.7 250 12:58 12.02.2020
2723 Clouds 8 1021 65 10000 7.7 250 12:39 12.02.2020
2724 Clouds 8 1021 65 10000 8.2 240 12:19 12.02.2020
2725 Clouds 8 1020 70 10000 7.7 250 11:59 12.02.2020
2726 Clouds 7 1020 70 10000 7.2 240 11:40 12.02.2020
2727 Clouds 7 1020 70 10000 7.2 240 11:21 12.02.2020
2728 Clouds 7 1020 70 10000 7.2 240 11:21 12.02.2020
2729 Clouds 6 1020 70 10000 7.2 230 10:58 12.02.2020
2730 Clouds 6 1020 75 10000 6.7 240 10:39 12.02.2020
2731 Clouds 5 1020 75 10000 6.7 240 10:20 12.02.2020
2732 Clouds 5 1020 86 10000 4.1 230 09:42 12.02.2020
2733 Clouds 5 1020 86 10000 4.1 230 09:42 12.02.2020
2734 Clouds 4 1020 80 10000 5.7 230 09:24 12.02.2020
2735 Clouds 4 1020 80 10000 5.7 230 09:24 12.02.2020
2736 Clouds 4 1020 75 10000 5.7 230 08:59 12.02.2020
2737 Clouds 3 1020 80 10000 4.6 240 08:39 12.02.2020
2738 Clouds 3 1020 80 10000 4.6 240 08:20 12.02.2020
2739 Clouds 3 1020 80 10000 4.6 240 08:20 12.02.2020
2740 Clouds 3 1020 80 10000 4.6 240 08:20 12.02.2020
2741 Clouds 3 1019 86 10000 4.6 240 07:59 12.02.2020
2742 Clouds 3 1019 86 10000 4.6 240 07:41 12.02.2020
2743 Clouds 3 1019 86 10000 4.6 240 07:20 12.02.2020
2744 Clouds 3 1019 86 10000 4.1 240 06:47 12.02.2020
2745 Clouds 4 1019 86 10000 4.6 240 06:20 12.02.2020
2746 Clouds 4 1019 75 10000 5.7 240 05:32 12.02.2020
2747 Clouds 4 1019 75 10000 5.7 240 04:43 12.02.2020
2748 Clouds 4 1019 80 10000 6.2 250 03:59 12.02.2020
2749 Clouds 4 1019 86 10000 4.6 240 03:30 12.02.2020
2750 Clouds 3 1019 86 10000 4.1 250 02:54 12.02.2020
2751 Clear 3 1019 80 10000 5.1 240 02:27 12.02.2020
2752 Clear 3 1019 80 10000 4.6 240 01:34 12.02.2020
2753 Clouds 3 1019 86 10000 3.6 240 00:43 12.02.2020
2754 Clouds 4 1019 80 10000 4.6 240 00:25 12.02.2020
2755 Clouds 4 1019 86 10000 5.1 250 23:53 11.02.2020
2756 Clouds 4 1019 80 10000 4.1 260 23:35 11.02.2020
2757 Clear 4 1019 75 10000 5.7 240 22:59 11.02.2020
2758 Clear 4 1019 75 10000 5.7 240 22:40 11.02.2020
2759 Clear 4 1019 75 10000 6.7 250 22:20 11.02.2020
2760 Clear 4 1019 75 10000 6.7 250 22:20 11.02.2020
2761 Clear 4 1018 75 10000 7.2 240 21:57 11.02.2020
2762 Clear 4 1018 75 10000 7.2 240 21:39 11.02.2020
2763 Clear 4 1018 75 10000 6.2 240 21:19 11.02.2020
2764 Clouds 5 1018 80 10000 4.1 240 20:59 11.02.2020
2765 Clear 5 1018 75 10000 4.1 250 20:39 11.02.2020
2766 Rain 5 1018 75 10000 4.1 250 20:20 11.02.2020
2767 Rain 5 1018 75 10000 5.7 250 19:58 11.02.2020
2768 Rain 5 1017 66 10000 8.7 250 19:40 11.02.2020
2769 Rain 5 1017 66 10000 8.7 250 19:22 11.02.2020
2770 Clouds 5 1017 75 10000 7.2 250 18:46 11.02.2020
2771 Clouds 5 1016 70 10000 6.7 250 18:28 11.02.2020
2772 Clouds 6 1016 70 10000 6.7 250 17:59 11.02.2020
2773 Clouds 6 1016 65 10000 8.7 260 17:40 11.02.2020
2774 Clouds 6 1016 65 10000 8.7 260 17:21 11.02.2020
2775 Clouds 6 1016 65 10000 8.2 260 16:59 11.02.2020
2776 Rain 6 1016 65 10000 9.8 240 16:40 11.02.2020
2777 Rain 6 1016 65 10000 9.8 240 16:22 11.02.2020
2778 Rain 6 1016 70 10000 8.7 240 15:59 11.02.2020
2779 Clouds 7 1015 61 10000 7.2 240 15:41 11.02.2020
2780 Rain 7 1015 61 10000 7.2 240 15:21 11.02.2020
2781 Rain 7 1016 56 10000 11.8 250 14:43 11.02.2020
2782 Rain 7 1016 56 10000 11.8 250 14:43 11.02.2020
2783 Clouds 8 1015 51 10000 7.7 260 14:19 11.02.2020
2784 Clouds 8 1015 51 10000 8.7 260 13:58 11.02.2020
2785 Clouds 9 1015 57 10000 9.8 250 13:39 11.02.2020
2786 Clouds 9 1015 57 10000 9.8 250 13:20 11.02.2020
2787 Clouds 8 1015 65 10000 9.3 240 12:57 11.02.2020
2788 Clouds 8 1015 61 10000 7.7 260 12:38 11.02.2020
2789 Clouds 8 1015 61 10000 7.7 260 12:19 11.02.2020
2790 Clouds 7 1015 70 10000 8.7 250 11:41 11.02.2020
2791 Clouds 7 1015 70 10000 8.7 250 11:20 11.02.2020
2792 Clouds 7 1015 70 10000 8.7 250 11:20 11.02.2020
2793 Clouds 7 1014 70 10000 8.7 240 10:55 11.02.2020
2794 Clouds 6 1014 70 10000 7.7 240 10:36 11.02.2020
2795 Clouds 6 1014 70 10000 7.7 240 10:18 11.02.2020
2796 Clouds 6 1014 81 10000 5.7 240 09:55 11.02.2020
2797 Clouds 5 1014 75 10000 5.7 240 09:37 11.02.2020
2798 Clouds 5 1014 75 10000 5.7 240 09:18 11.02.2020
2799 Clouds 5 1014 80 10000 4.6 240 08:42 11.02.2020
2800 Rain 5 1014 80 10000 5.7 240 08:23 11.02.2020
2801 Rain 5 1014 80 10000 8.2 250 07:48 11.02.2020
2802 Rain 5 1013 80 10000 7.2 250 07:26 11.02.2020
2803 Rain 6 1013 80 10000 7.7 250 06:44 11.02.2020
2804 Rain 6 1013 81 7000 9.3 250 06:22 11.02.2020
2805 Clouds 6 1012 81 10000 6.2 230 05:54 11.02.2020
2806 Clouds 6 1012 75 10000 7.2 240 05:24 11.02.2020
2807 Clouds 6 1012 75 10000 6.7 240 04:40 11.02.2020
2808 Rain 6 1012 81 10000 6.7 240 03:20 11.02.2020
2809 Rain 6 1011 81 10000 6.2 250 02:32 11.02.2020
2810 Rain 7 1011 70 10000 6.7 230 01:38 11.02.2020
2811 Clouds 7 1010 70 10000 6.7 260 00:41 11.02.2020
2812 Clouds 7 1009 70 10000 8.7 260 23:59 10.02.2020
2813 Clouds 7 1009 75 10000 9.8 270 23:38 10.02.2020
2814 Clouds 7 1009 75 10000 9.8 270 23:20 10.02.2020
2815 Rain 8 1008 75 10000 8.2 240 22:41 10.02.2020
2816 Clouds 8 1007 75 10000 8.2 260 22:20 10.02.2020
2817 Rain 8 1007 75 10000 8.7 250 21:54 10.02.2020
2818 Rain 8 1008 81 10000 10.3 260 21:36 10.02.2020
2819 Rain 8 1008 81 10000 10.3 260 21:18 10.02.2020
2820 Rain 8 1007 87 4700 9.3 280 20:54 10.02.2020
2821 Rain 9 1005 76 10000 5.7 250 20:36 10.02.2020
2822 Rain 9 1005 76 10000 5.7 250 20:18 10.02.2020
2823 Rain 10 1005 76 10000 10.3 240 19:54 10.02.2020
2824 Rain 10 1005 76 10000 4.1 290 19:36 10.02.2020
2825 Rain 10 1005 76 10000 4.1 290 19:18 10.02.2020
2826 Rain 10 1006 76 10000 7.2 250 18:41 10.02.2020
2827 Rain 11 1006 76 10000 7.2 250 18:21 10.02.2020
2828 Rain 10 1006 81 5000 10.3 240 17:59 10.02.2020
2829 Rain 10 1006 81 10000 7.2 240 17:39 10.02.2020
2830 Rain 10 1006 81 10000 7.2 240 17:21 10.02.2020
2831 Rain 11 1006 87 10000 4.6 230 16:59 10.02.2020
2832 Rain 11 1006 87 10000 4.6 230 16:40 10.02.2020
2833 Rain 10 1006 81 10000 6.2 210 16:20 10.02.2020
2834 Rain 10 1007 76 10000 8.7 210 15:58 10.02.2020
2835 Rain 10 1009 76 10000 8.7 210 15:39 10.02.2020
2836 Rain 10 1009 76 10000 8.7 210 15:21 10.02.2020
2837 Rain 10 1009 57 10000 10.3 220 14:57 10.02.2020
2838 Clouds 10 1010 61 10000 8.2 230 14:39 10.02.2020
2839 Clouds 11 1010 50 10000 8.7 220 14:19 10.02.2020
2840 Clouds 11 1012 53 10000 8.2 230 13:44 10.02.2020
2841 -273 0 0 0 0 0 13:25 10.02.2020
2842 Clouds 11 1012 53 10000 9.8 230 12:57 10.02.2020
2843 Clouds 11 1012 53 10000 9.8 230 12:38 10.02.2020
2844 Clouds 10 1012 53 10000 10.8 230 12:20 10.02.2020
2845 Clouds 10 1012 61 10000 8.7 240 11:45 10.02.2020
2846 Clouds 10 1012 61 10000 9.8 230 11:21 10.02.2020
2847 Clouds 9 1012 61 10000 9.8 240 10:57 10.02.2020
2848 Clouds 9 1012 66 10000 8.7 240 10:38 10.02.2020
2849 Clouds 9 1012 66 10000 8.7 240 10:20 10.02.2020
2850 Clouds 8 1011 61 10000 8.7 240 09:42 10.02.2020
2851 Clouds 8 1011 66 10000 10.3 250 09:23 10.02.2020
2852 Clouds 8 1010 70 10000 8.2 250 08:40 10.02.2020
2853 Clouds 8 1009 66 10000 9.8 250 08:21 10.02.2020
2854 Rain 8 1008 70 10000 9.8 250 07:55 10.02.2020
2855 Drizzle 8 1007 70 10000 11.8 250 07:35 10.02.2020
2856 Clouds 9 1006 66 10000 8.7 250 06:50 10.02.2020
2857 Rain 9 1005 71 10000 9.8 250 05:38 10.02.2020
2858 Rain 11 1002 66 10000 11.8 250 03:55 10.02.2020
2859 Rain 12 1001 81 5000 9.3 250 03:23 10.02.2020
2860 Rain 12 1000 93 9000 6.2 260 02:51 10.02.2020
2861 Rain 13 1000 82 10000 9.8 240 01:25 10.02.2020
2862 Rain 13 1000 87 2500 13.4 230 00:45 10.02.2020
2863 Rain 13 1000 76 10000 13.4 230 00:27 10.02.2020
2864 Clouds 13 1000 87 10000 9.8 220 23:43 09.02.2020
2865 Rain 13 1001 87 10000 10.3 230 23:24 09.02.2020
2866 Rain 13 1000 87 10000 11.8 210 22:54 09.02.2020
2867 Rain 13 1000 87 10000 11.8 210 22:54 09.02.2020
2868 Drizzle 13 1001 87 9000 11.8 210 22:36 09.02.2020
2869 Drizzle 13 1001 87 9000 11.8 210 22:18 09.02.2020
2870 Rain 12 1001 87 10000 12.9 200 21:41 09.02.2020
2871 Rain 12 1001 87 10000 12.9 200 21:22 09.02.2020
2872 Rain 12 1002 93 10000 12.3 200 20:46 09.02.2020
2873 Drizzle 12 1003 87 7000 11.8 200 20:23 09.02.2020
2874 Rain 12 1003 87 9000 11.8 210 19:57 09.02.2020
2875 Rain 12 1003 87 9000 11.8 210 19:57 09.02.2020
2876 Clouds 12 1004 81 10000 11.8 200 19:38 09.02.2020
2877 Clouds 12 1004 81 10000 11.8 200 19:20 09.02.2020
2878 Clouds 12 1003 81 10000 13.4 200 18:42 09.02.2020
2879 Clouds 12 1004 81 10000 14.4 200 18:24 09.02.2020
2880 Clouds 12 1004 81 10000 13.9 200 17:59 09.02.2020
2881 Clouds 12 1004 81 10000 13.9 200 17:39 09.02.2020
2882 Clouds 11 1005 81 10000 13.9 190 17:21 09.02.2020
2883 Clouds 11 1006 76 10000 15.9 190 16:43 09.02.2020
2884 Clouds 11 1007 76 10000 14.4 210 16:24 09.02.2020
2885 Clouds 11 1007 76 10000 13.9 200 15:59 09.02.2020
2886 Clouds 11 1008 76 10000 11.8 200 15:41 09.02.2020
2887 Clouds 11 1008 76 10000 11.8 200 15:21 09.02.2020
2888 Clouds 12 1008 71 10000 12.9 200 14:57 09.02.2020
2889 Clouds 12 1009 71 10000 13.4 200 14:38 09.02.2020
2890 Clouds 12 1009 71 10000 13.4 200 14:20 09.02.2020
2891 Clouds 11 1010 62 10000 13.4 190 13:44 09.02.2020
2892 Clouds 12 1010 62 10000 13.4 190 13:26 09.02.2020
2893 Clouds 11 1012 62 10000 12.9 200 12:56 09.02.2020
2894 Clouds 11 1012 66 10000 11.3 200 12:37 09.02.2020
2895 Clouds 10 1012 66 10000 11.3 200 12:18 09.02.2020
2896 Clouds 9 1014 71 10000 9.3 190 11:41 09.02.2020
2897 Clouds 9 1014 71 10000 9.3 190 11:22 09.02.2020
2898 Clouds 9 1014 76 10000 8.7 190 10:59 09.02.2020
2899 Clouds 9 1015 81 10000 9.8 200 10:40 09.02.2020
2900 Clouds 9 1015 81 10000 9.8 200 10:21 09.02.2020
2901 Clouds 9 1015 81 10000 9.8 190 09:45 09.02.2020
2902 Clouds 8 1016 81 10000 8.7 200 09:25 09.02.2020
2903 Clouds 8 1016 87 10000 7.7 210 08:45 09.02.2020
2904 Clouds 8 1016 81 10000 6.7 210 08:45 09.02.2020
2905 Clouds 8 1016 81 10000 6.7 210 08:27 09.02.2020
2906 Clouds 8 1016 81 10000 6.7 220 07:59 09.02.2020
2907 Clouds 8 1017 81 10000 5.7 210 07:39 09.02.2020
2908 Clouds 8 1017 87 10000 5.7 210 06:47 09.02.2020
2909 Clouds 8 1017 87 10000 5.7 210 06:28 09.02.2020
2910 Clouds 8 1018 87 10000 5.7 210 05:43 09.02.2020
2911 Clouds 8 1018 76 10000 5.7 200 05:18 09.02.2020
2912 Clouds 8 1018 81 10000 7.7 200 03:52 09.02.2020
2913 Clouds 8 1019 87 10000 5.1 190 02:46 09.02.2020
2914 Clouds 8 1019 87 10000 4.6 200 02:26 09.02.2020
2915 Clouds 8 1020 93 10000 4.1 190 01:35 09.02.2020
2916 Clouds 7 1020 87 10000 4.1 170 00:46 09.02.2020
2917 Clouds 7 1020 87 10000 4.1 170 00:25 09.02.2020
2918 Clouds 7 1020 87 10000 4.1 180 23:44 08.02.2020
2919 Clouds 7 1020 87 10000 4.1 180 23:22 08.02.2020
2920 Clouds 7 1021 87 10000 3.1 170 22:55 08.02.2020
2921 Drizzle 7 1021 87 10000 2.6 180 22:36 08.02.2020
2922 Drizzle 7 1021 87 10000 2.6 180 22:18 08.02.2020
2923 Clouds 8 1021 81 10000 3.6 170 21:41 08.02.2020
2924 Clouds 8 1022 87 10000 2.6 190 21:23 08.02.2020
2925 Clouds 8 1022 87 10000 2.6 160 20:57 08.02.2020
2926 Clouds 8 1022 87 10000 2.1 220 20:39 08.02.2020
2927 Clouds 8 1022 87 10000 2.1 220 20:19 08.02.2020
2928 Rain 8 1022 87 10000 2.1 220 19:55 08.02.2020
2929 Clouds 8 1021 87 10000 2.1 210 19:37 08.02.2020
2930 Clouds 8 1021 87 10000 2.1 210 19:19 08.02.2020
2931 Clouds 8 1021 87 10000 2.1 210 19:19 08.02.2020
2932 Rain 9 1021 93 10000 3.1 250 18:43 08.02.2020
2933 Rain 9 1020 93 10000 5.7 130 18:24 08.02.2020
2934 Rain 9 1021 93 9000 3.1 180 17:56 08.02.2020
2935 Rain 9 1021 87 9000 2.6 230 17:37 08.02.2020
2936 Rain 9 1021 87 9000 2.6 230 17:18 08.02.2020
2937 Rain 9 1021 81 10000 2.6 210 16:40 08.02.2020
2938 Rain 9 1021 81 10000 2.6 210 16:22 08.02.2020
2939 Clouds 10 1020 76 10000 3.1 210 15:57 08.02.2020
2940 Clouds 10 1020 76 10000 3.1 210 15:39 08.02.2020
2941 Clouds 10 1020 76 10000 3.6 220 15:18 08.02.2020
2942 Clouds 10 1020 76 10000 3.1 220 14:43 08.02.2020
2943 Clouds 10 1021 71 10000 3.1 200 14:20 08.02.2020
2944 Clouds 10 1021 71 10000 4.6 190 13:56 08.02.2020
2945 Clouds 10 1021 71 10000 4.1 200 13:37 08.02.2020
2946 Clouds 10 1021 71 10000 4.1 200 13:19 08.02.2020
2947 Clouds 10 1021 71 10000 4.1 190 12:40 08.02.2020
2948 Clouds 10 1021 71 10000 4.1 190 12:21 08.02.2020
2949 Clouds 10 1021 71 10000 4.1 190 11:55 08.02.2020
2950 Clouds 10 1020 76 10000 5.1 170 11:37 08.02.2020
2951 Clouds 10 1020 76 10000 4.1 160 11:18 08.02.2020
2952 Clouds 9 1020 76 10000 4.1 180 10:42 08.02.2020
2953 Clouds 9 1020 76 10000 4.1 180 10:21 08.02.2020
2954 Clouds 9 1020 76 10000 4.1 180 09:51 08.02.2020
2955 Clouds 9 1020 76 10000 4.1 170 09:27 08.02.2020
2956 Clouds 9 1020 76 10000 4.6 170 08:54 08.02.2020
2957 Clouds 8 1019 76 10000 3.6 180 08:36 08.02.2020
2958 Clouds 8 1019 76 10000 3.6 180 08:36 08.02.2020
2959 Clouds 8 1019 76 10000 3.6 180 08:18 08.02.2020
2960 Clouds 8 1019 81 10000 3.1 150 07:43 08.02.2020
2961 Clouds 8 1019 81 10000 2.6 160 07:19 08.02.2020
2962 Clouds 8 1019 75 10000 4.1 160 06:28 08.02.2020
2963 Clouds 9 1019 76 10000 3.6 150 05:48 08.02.2020
2964 Clouds 9 1019 76 10000 3.6 150 05:48 08.02.2020
2965 Clouds 9 1019 76 10000 3.6 140 05:29 08.02.2020
2966 Clouds 9 1019 76 10000 3.6 160 04:48 08.02.2020
2967 Clouds 9 1020 76 10000 4.1 170 03:51 08.02.2020
2968 Clouds 8 1020 81 10000 3.1 140 02:51 08.02.2020
2969 Clouds 8 1020 81 10000 2.6 130 01:41 08.02.2020
2970 Clouds 8 1020 81 10000 2.6 130 01:22 08.02.2020
2971 Clouds 8 1020 76 10000 2.6 160 00:39 08.02.2020
2972 Clouds 8 1020 76 10000 2.6 160 00:21 08.02.2020
2973 Clouds 8 1020 81 10000 3.1 150 23:45 07.02.2020
2974 Clouds 8 1020 81 10000 3.1 150 23:21 07.02.2020
2975 Clouds 8 1020 75 10000 2.6 150 22:58 07.02.2020
2976 Clouds 8 1020 75 10000 2.6 120 22:39 07.02.2020
2977 Clouds 8 1020 75 10000 2.6 120 22:19 07.02.2020
2978 Clouds 8 1020 75 10000 3.1 160 21:43 07.02.2020
2979 Clouds 8 1020 75 10000 3.1 160 21:22 07.02.2020
2980 Clouds 8 1020 70 10000 3.6 150 20:57 07.02.2020
2981 Clouds 8 1021 75 10000 3.6 150 20:38 07.02.2020
2982 Clouds 8 1021 65 10000 2.6 140 20:18 07.02.2020
2983 Clouds 8 1021 70 10000 2.6 130 19:40 07.02.2020
2984 Clouds 8 1021 70 10000 2.6 130 19:21 07.02.2020
2985 Clouds 8 1020 65 10000 3.1 160 18:58 07.02.2020
2986 Clouds 8 1020 70 10000 3.6 160 18:40 07.02.2020
2987 Clouds 8 1020 70 10000 3.6 160 18:20 07.02.2020
2988 Clouds 9 1020 66 10000 4.1 150 17:43 07.02.2020
2989 Clouds 9 1020 61 10000 4.6 140 17:22 07.02.2020
2990 Clouds 10 1020 57 10000 4.6 140 16:57 07.02.2020
2991 Clouds 10 1020 53 10000 3.1 190 16:38 07.02.2020
2992 Clouds 10 1020 53 10000 3.1 190 16:19 07.02.2020
2993 Clouds 11 1020 53 10000 5.7 140 15:47 07.02.2020
2994 Clouds 11 1020 53 10000 4.6 130 15:22 07.02.2020
2995 Clouds 11 1020 53 10000 4.1 140 14:46 07.02.2020
2996 Clouds 11 1021 50 10000 4.1 150 14:26 07.02.2020
2997 Clear 10 1021 53 10000 3.6 140 13:58 07.02.2020
2998 Clear 10 1022 53 10000 3.6 150 13:39 07.02.2020
2999 Clear 10 1022 53 10000 3.6 150 13:21 07.02.2020
3000 Clear 9 1022 57 10000 3.6 150 12:56 07.02.2020
3001 Clear 8 1023 62 10000 4.1 150 12:38 07.02.2020
3002 Clear 8 1023 62 10000 4.1 150 12:20 07.02.2020
3003 Clear 6 1023 62 10000 4.6 140 11:42 07.02.2020
3004 Clear 6 1023 70 10000 4.6 140 11:21 07.02.2020
3005 Clear 4 1023 69 10000 3.1 130 10:42 07.02.2020
3006 Clear 3 1023 69 10000 3.1 130 10:24 07.02.2020
3007 Clear 2 1023 69 10000 2.1 120 09:58 07.02.2020
3008 Clear 2 1024 74 10000 2.1 120 09:37 07.02.2020
3009 Clear 1 1024 74 10000 2.1 120 09:19 07.02.2020
3010 Clear 0 1023 70 10000 2.1 100 08:43 07.02.2020
3011 Clear 0 1024 68 10000 2.1 80 08:21 07.02.2020
3012 Clear 0 1024 68 10000 2.1 60 07:46 07.02.2020
3013 Clear 0 1023 68 10000 2.1 60 07:28 07.02.2020
3014 Clear 0 1024 68 10000 1.5 40 06:47 07.02.2020
3015 Clear 1 1024 68 10000 2.6 60 06:26 07.02.2020
3016 Clear 0 1024 68 10000 2.6 60 06:26 07.02.2020
3017 Clear 1 1024 68 10000 3.1 70 05:56 07.02.2020
3018 Clear 1 1024 80 10000 2.1 60 05:35 07.02.2020
3019 Clear 2 1025 80 10000 2.6 50 03:19 07.02.2020
3020 Clear 2 1026 80 10000 2.1 40 01:51 07.02.2020
3021 Clear 2 1026 63 10000 2.1 30 00:49 07.02.2020
3022 Clear 3 1027 63 10000 1 50 00:21 07.02.2020
3023 Clear 3 1027 63 10000 1 30 23:38 06.02.2020
3024 Clear 4 1027 66 10000 1.5 30 23:19 06.02.2020
3025 Clear 4 1027 66 10000 1 60 22:45 06.02.2020
3026 Clear 4 1027 80 10000 2.6 30 22:25 06.02.2020
3027 Clear 4 1028 80 10000 3.1 40 21:57 06.02.2020
3028 Clear 5 1028 80 10000 2.6 50 21:36 06.02.2020
3029 Clear 5 1028 80 10000 2.6 50 21:18 06.02.2020
3030 Clear 5 1028 75 10000 4.1 50 20:54 06.02.2020
3031 Clear 5 1028 75 10000 4.1 40 20:36 06.02.2020
3032 Clear 5 1028 75 10000 4.1 40 20:18 06.02.2020
3033 Clear 5 1028 75 10000 4.1 40 19:55 06.02.2020
3034 Clear 6 1029 80 10000 4.1 40 19:36 06.02.2020
3035 Clear 6 1029 80 10000 4.1 40 19:18 06.02.2020
3036 Clear 6 1029 75 10000 2.6 40 18:40 06.02.2020
3037 Clear 7 1029 75 10000 3.1 40 18:22 06.02.2020
3038 Clear 8 1029 65 10000 3.6 40 17:57 06.02.2020
3039 Clear 8 1029 65 10000 3.6 40 17:38 06.02.2020
3040 Clear 9 1029 61 10000 4.1 50 17:19 06.02.2020
3041 Clear 10 1029 57 10000 4.1 60 16:42 06.02.2020
3042 Clear 10 1029 57 10000 4.1 60 16:23 06.02.2020
3043 Clear 10 1029 57 10000 3.6 60 15:43 06.02.2020
3044 Clear 10 1029 57 10000 3.6 60 15:23 06.02.2020
3045 Clear 9 1030 47 10000 3.6 60 14:58 06.02.2020
3046 Clear 9 1030 47 10000 4.1 70 14:40 06.02.2020
3047 Clear 9 1030 53 10000 4.1 70 14:22 06.02.2020
3048 Clear 9 1031 53 10000 5.1 70 13:42 06.02.2020
3049 Clear 8 1031 52 10000 5.1 70 13:24 06.02.2020
3050 Clear 8 1031 61 10000 4.6 80 12:45 06.02.2020
3051 Clear 7 1031 65 10000 3.6 70 12:20 06.02.2020
3052 Clear 6 1031 75 10000 3.6 70 11:58 06.02.2020
3053 Clear 6 1032 80 10000 3.6 80 11:39 06.02.2020
3054 Clear 5 1032 80 10000 3.6 80 11:21 06.02.2020
3055 Clear 5 1032 80 10000 2.6 80 10:57 06.02.2020
3056 Clear 4 1032 80 10000 2.6 80 10:39 06.02.2020
3057 Clear 3 1032 86 10000 1.5 50 10:21 06.02.2020
3058 Clear 2 1032 93 10000 1 20 09:57 06.02.2020
3059 Clear 1 1032 75 10000 1 10 09:38 06.02.2020
3060 Clear 1 1032 75 10000 1 10 09:19 06.02.2020
3061 Clear 0 1032 75 8000 1.5 360 08:42 06.02.2020
3062 Clouds 0 1032 83 10000 1.5 10 08:22 06.02.2020
3063 Clouds 0 1032 83 10000 2.6 360 07:51 06.02.2020
3064 Clouds 0 1032 83 9000 2.1 360 07:28 06.02.2020
3065 Clouds 1 1032 83 10000 1 360 06:46 06.02.2020
3066 Clouds 1 1033 83 10000 2.1 350 06:18 06.02.2020
3067 Clouds 2 1033 82 10000 1.5 10 05:22 06.02.2020
3068 Clouds 2 1034 93 10000 1.5 10 03:44 06.02.2020
3069 Clouds 2 1034 93 10000 2.1 20 02:58 06.02.2020
3070 Clouds 2 1035 86 10000 1.5 20 01:42 06.02.2020
3071 Clouds 2 1035 86 10000 1.5 70 00:59 06.02.2020
3072 Clouds 3 1035 86 10000 1 10 00:28 06.02.2020
3073 Clouds 3 1035 86 10000 1.5 40 23:55 05.02.2020
3074 Clouds 3 1035 86 10000 1.5 110 23:36 05.02.2020
3075 Clouds 3 1036 86 10000 1.5 70 23:18 05.02.2020
3076 Clouds 4 1036 86 10000 1.5 90 22:40 05.02.2020
3077 Clouds 4 1036 86 10000 1.5 90 22:22 05.02.2020
3078 Clouds 4 1036 86 10000 2.6 70 21:57 05.02.2020
3079 Clouds 4 1036 86 10000 1.5 50 21:39 05.02.2020
3080 Clouds 4 1036 86 10000 1.5 50 21:19 05.02.2020
3081 Clouds 5 1036 86 10000 3.1 80 20:39 05.02.2020
3082 Clouds 6 1036 86 10000 3.1 80 20:20 05.02.2020
3083 Clouds 6 1036 75 10000 3.1 60 19:59 05.02.2020
3084 Rain 7 1037 75 10000 2.1 90 19:40 05.02.2020
3085 Rain 7 1037 75 10000 2.1 90 19:19 05.02.2020
3086 Rain 7 1037 75 10000 2.6 90 18:57 05.02.2020
3087 Rain 8 1037 70 10000 2.1 60 18:39 05.02.2020
3088 Rain 8 1037 70 10000 2.1 60 18:19 05.02.2020
3089 Rain 8 1036 70 10000 2.6 60 17:38 05.02.2020
3090 Rain 8 1036 70 10000 2.6 60 17:20 05.02.2020
3091 Rain 8 1036 70 10000 3.1 70 16:57 05.02.2020
3092 Clouds 9 1036 66 10000 2.6 40 16:39 05.02.2020
3093 Clouds 9 1036 66 10000 2.6 40 16:20 05.02.2020
3094 Clouds 9 1036 66 10000 3.1 60 15:46 05.02.2020
3095 Clouds 9 1036 61 10000 2.6 80 15:20 05.02.2020
3096 Clouds 9 1037 57 10000 2.1 70 14:59 05.02.2020
3097 Clouds 9 1037 61 10000 1.5 0 14:41 05.02.2020
3098 Clouds 9 1037 61 10000 1.5 0 14:21 05.02.2020
3099 Clouds 9 1037 61 10000 1 0 13:43 05.02.2020
3100 Clouds 9 1037 66 10000 2.1 60 13:23 05.02.2020
3101 Clouds 8 1037 75 10000 1 0 12:59 05.02.2020
3102 Clouds 8 1038 75 10000 1.5 10 12:37 05.02.2020
3103 Clouds 8 1038 75 10000 1.5 10 12:19 05.02.2020
3104 Clouds 7 1037 75 10000 2.6 10 11:41 05.02.2020
3105 Clouds 7 1037 75 10000 2.6 10 11:23 05.02.2020
3106 Clouds 7 1037 81 10000 3.6 10 10:58 05.02.2020
3107 Clouds 7 1037 81 10000 3.1 340 10:39 05.02.2020
3108 Clouds 7 1037 81 10000 3.1 340 10:18 05.02.2020
3109 Clouds 6 1037 81 10000 2.6 340 09:43 05.02.2020
3110 Clouds 6 1036 75 10000 2.6 340 09:22 05.02.2020
3111 Clouds 6 1036 75 10000 2.1 340 08:56 05.02.2020
3112 Clouds 6 1035 75 10000 1.5 330 08:37 05.02.2020
3113 Clouds 6 1035 75 10000 1.5 330 08:19 05.02.2020
3114 Clouds 6 1035 75 10000 2.1 310 07:42 05.02.2020
3115 Clouds 6 1035 75 10000 2.1 310 07:19 05.02.2020
3116 Clouds 6 1034 75 10000 2.1 330 06:40 05.02.2020
3117 Clouds 6 1034 70 10000 2.1 310 06:21 05.02.2020
3118 Clouds 6 1034 70 10000 2.1 340 05:47 05.02.2020
3119 Clouds 6 1034 70 10000 2.1 340 05:18 05.02.2020
3120 Clouds 6 1033 70 10000 3.6 320 04:27 05.02.2020
3121 Clear 6 1032 75 10000 3.6 340 02:59 05.02.2020
3122 Clouds 7 1032 65 10000 3.6 320 02:22 05.02.2020
3123 Clouds 7 1032 70 10000 3.1 300 01:34 05.02.2020
3124 Clouds 7 1031 75 10000 3.6 290 00:25 05.02.2020
3125 Clouds 7 1031 75 10000 2.6 280 23:42 04.02.2020
3126 Clouds 7 1030 75 10000 3.1 280 23:23 04.02.2020
3127 Clouds 7 1030 75 10000 3.6 290 22:58 04.02.2020
3128 Clouds 7 1030 75 10000 3.6 290 22:40 04.02.2020
3129 Clouds 7 1030 75 10000 3.6 290 22:21 04.02.2020
3130 Clouds 7 1029 75 10000 4.1 290 21:57 04.02.2020
3131 Clouds 7 1029 75 10000 4.6 290 21:38 04.02.2020
3132 Clouds 7 1029 75 10000 4.6 290 21:19 04.02.2020
3133 Clouds 7 1028 70 10000 4.6 280 20:55 04.02.2020
3134 Clouds 7 1028 70 10000 5.1 290 20:37 04.02.2020
3135 Clouds 7 1028 70 10000 5.1 290 20:18 04.02.2020
3136 Clouds 7 1027 65 10000 5.1 290 19:43 04.02.2020
3137 Clouds 7 1027 65 10000 5.1 290 19:25 04.02.2020
3138 Clouds 7 1027 65 10000 5.1 290 18:59 04.02.2020
3139 Clouds 7 1026 65 10000 4.6 290 18:40 04.02.2020
3140 Clouds 7 1026 65 10000 4.6 290 18:21 04.02.2020
3141 Clouds 7 1026 65 10000 6.2 290 17:58 04.02.2020
3142 Clouds 7 1026 65 10000 4.6 290 17:40 04.02.2020
3143 Clouds 8 1026 65 10000 4.6 290 17:19 04.02.2020
3144 Clouds 8 1025 61 10000 6.2 300 16:39 04.02.2020
3145 Clouds 8 1025 61 10000 6.2 300 16:20 04.02.2020
3146 Clouds 8 1024 61 10000 6.2 300 15:57 04.02.2020
3147 Clouds 8 1024 61 10000 6.2 300 15:39 04.02.2020
3148 Rain 8 1024 70 10000 7.7 300 15:20 04.02.2020
3149 Rain 8 1023 65 10000 8.2 310 14:55 04.02.2020
3150 Rain 8 1023 61 10000 6.7 290 14:37 04.02.2020
3151 Clouds 8 1023 61 10000 6.7 290 14:18 04.02.2020
3152 Clouds 8 1023 61 10000 6.2 310 13:41 04.02.2020
3153 Clouds 8 1023 61 10000 5.7 300 13:22 04.02.2020
3154 Clouds 8 1022 66 10000 6.7 290 12:57 04.02.2020
3155 Clouds 8 1022 66 10000 6.7 290 12:37 04.02.2020
3156 Clouds 8 1022 70 10000 4.6 280 12:19 04.02.2020
3157 Rain 7 1022 75 10000 5.1 280 11:55 04.02.2020
3158 Rain 7 1022 86 10000 3.6 320 11:36 04.02.2020
3159 Rain 7 1022 86 10000 3.6 320 11:18 04.02.2020
3160 Thunderstorm 6 1021 86 10000 2.6 320 10:44 04.02.2020
3161 Rain 6 1021 81 10000 7.7 280 10:24 04.02.2020
3162 Rain 6 1021 81 10000 6.2 250 09:55 04.02.2020
3163 Rain 6 1021 81 10000 5.7 250 09:37 04.02.2020
3164 Rain 5 1021 81 10000 5.7 250 09:18 04.02.2020
3165 Rain 5 1020 81 10000 6.2 250 08:43 04.02.2020
3166 Clouds 5 1020 86 10000 6.2 250 08:24 04.02.2020
3167 Clouds 5 1020 86 10000 5.7 250 07:49 04.02.2020
3168 Clouds 5 1020 81 10000 6.7 250 07:24 04.02.2020
3169 Clouds 5 1020 81 10000 5.1 250 06:45 04.02.2020
3170 Clouds 5 1020 81 10000 5.1 250 06:45 04.02.2020
3171 Clouds 5 1019 81 10000 4.6 250 06:26 04.02.2020
3172 Rain 5 1019 75 10000 5.1 260 05:29 04.02.2020
3173 Clouds 6 1018 81 10000 4.1 270 03:56 04.02.2020
3174 Clouds 6 1017 86 10000 7.2 290 03:37 04.02.2020
3175 Clouds 6 1017 75 10000 5.1 280 03:19 04.02.2020
3176 Clouds 6 1016 81 10000 6.2 270 02:34 04.02.2020
3177 Clouds 6 1015 81 10000 3.6 280 01:56 04.02.2020
3178 Clouds 6 1015 81 10000 4.1 280 01:36 04.02.2020
3179 Rain 6 1015 87 10000 5.1 300 00:52 04.02.2020
3180 Rain 7 1014 87 10000 5.7 300 00:22 04.02.2020
3181 Rain 7 1013 87 9000 5.7 300 23:45 03.02.2020
3182 Rain 7 1012 87 10000 5.1 300 23:26 03.02.2020
3183 Rain 8 1012 87 7000 5.7 300 22:54 03.02.2020
3184 Rain 8 1010 87 10000 9.8 330 22:36 03.02.2020
3185 Rain 8 1010 87 10000 9.8 330 22:18 03.02.2020
3186 Rain 12 1008 76 10000 9.3 220 21:41 03.02.2020
3187 Rain 13 1008 76 10000 9.3 220 21:19 03.02.2020
3188 Rain 13 1008 76 10000 9.3 220 21:19 03.02.2020
3189 Rain 13 1009 76 10000 8.7 210 20:42 03.02.2020
3190 Clouds 13 1010 76 10000 8.7 200 20:20 03.02.2020
3191 Clouds 13 1011 76 10000 7.7 200 19:59 03.02.2020
3192 Clouds 13 1011 76 10000 8.7 200 19:41 03.02.2020
3193 Clouds 13 1011 76 10000 8.7 200 19:21 03.02.2020
3194 Clouds 13 1012 82 10000 6.7 190 18:57 03.02.2020
3195 Clouds 13 1013 87 10000 5.7 190 18:38 03.02.2020
3196 Clouds 13 1013 87 10000 5.7 190 18:20 03.02.2020
3197 Clouds 12 1014 82 10000 4.6 180 17:55 03.02.2020
3198 Clouds 12 1015 82 10000 4.6 180 17:36 03.02.2020
3199 Clouds 12 1015 82 10000 4.6 180 17:18 03.02.2020
3200 Clouds 12 1017 71 10000 5.1 220 16:40 03.02.2020
3201 Clouds 12 1017 71 10000 5.1 220 16:21 03.02.2020
3202 Clouds 12 1017 71 10000 4.6 210 15:56 03.02.2020
3203 Clouds 12 1018 71 10000 4.1 220 15:38 03.02.2020
3204 Clouds 12 1018 71 10000 4.1 220 15:19 03.02.2020
3205 Clouds 12 1019 71 10000 4.6 230 14:45 03.02.2020
3206 Clouds 12 1019 71 10000 4.6 230 14:45 03.02.2020
3207 Clouds 12 1019 71 10000 4.6 230 14:27 03.02.2020
3208 Clouds 12 1019 71 10000 4.1 230 13:59 03.02.2020
3209 Clouds 12 1019 71 10000 4.1 230 13:41 03.02.2020
3210 Clouds 12 1020 71 10000 5.1 230 13:21 03.02.2020
3211 Clouds 12 1021 71 10000 5.7 240 12:57 03.02.2020
3212 Clouds 12 1020 71 10000 5.1 240 12:38 03.02.2020
3213 Clouds 12 1020 71 10000 5.1 240 12:20 03.02.2020
3214 Clouds 12 1020 81 10000 5.1 240 11:40 03.02.2020
3215 Clouds 12 1020 81 10000 5.1 240 11:20 03.02.2020
3216 Clouds 11 1020 81 10000 6.2 230 10:58 03.02.2020
3217 Clouds 11 1020 81 10000 4.6 230 10:40 03.02.2020
3218 Clouds 11 1020 81 10000 4.6 230 10:40 03.02.2020
3219 Clouds 11 1020 81 10000 4.6 230 10:21 03.02.2020
3220 Clouds 11 1019 81 10000 4.1 240 09:44 03.02.2020
3221 Clouds 11 1019 81 10000 4.1 240 09:21 03.02.2020
3222 Clouds 11 1019 87 10000 4.1 220 08:42 03.02.2020
3223 Clouds 11 1019 87 10000 4.1 220 08:23 03.02.2020
3224 Clouds 11 1018 87 10000 3.6 220 07:59 03.02.2020
3225 Clouds 11 1018 87 10000 3.1 230 07:40 03.02.2020
3226 Clouds 11 1018 87 10000 3.1 230 07:21 03.02.2020
3227 Clouds 11 1018 93 10000 2.6 230 06:49 03.02.2020
3228 Clouds 11 1018 93 10000 3.1 250 06:27 03.02.2020
3229 Rain 11 1017 93 10000 3.6 240 05:37 03.02.2020
3230 Rain 11 1017 100 9000 3.1 240 04:59 03.02.2020
3231 Drizzle 11 1017 100 6000 2.6 220 03:19 03.02.2020
3232 Rain 11 1017 100 3200 3.1 230 02:34 03.02.2020
3233 Drizzle 11 1017 100 6000 3.6 210 01:42 03.02.2020
3234 Drizzle 11 1016 100 10000 2.6 230 00:47 03.02.2020
3235 Drizzle 11 1016 100 10000 2.6 230 00:24 03.02.2020
3236 Drizzle 12 1016 93 10000 3.6 270 23:39 02.02.2020
3237 Drizzle 12 1016 93 10000 3.6 270 23:21 02.02.2020
3238 Rain 12 1016 93 5000 3.1 260 22:57 02.02.2020
3239 Rain 12 1016 93 5000 3.1 260 22:57 02.02.2020
3240 Rain 12 1016 93 5000 3.1 260 22:57 02.02.2020
3241 Rain 12 1016 93 4700 2.6 260 22:38 02.02.2020
3242 Rain 12 1016 93 4700 2.6 260 22:19 02.02.2020
3243 Rain 12 1016 93 3300 1 0 21:54 02.02.2020
3244 Rain 12 1016 100 4800 1.5 270 21:36 02.02.2020
3245 Rain 12 1016 100 4800 1.5 270 21:18 02.02.2020
3246 Rain 13 1016 100 3500 4.1 280 20:55 02.02.2020
3247 Rain 13 1015 87 4000 3.1 280 20:36 02.02.2020
3248 Rain 13 1015 87 4000 3.1 280 20:18 02.02.2020
3249 Rain 13 1015 87 6000 4.1 260 19:55 02.02.2020
3250 Rain 13 1015 93 7000 3.6 290 19:36 02.02.2020
3251 Rain 13 1015 93 7000 3.6 290 19:18 02.02.2020
3252 Rain 13 1015 93 7000 3.6 290 19:18 02.02.2020
3253 Rain 13 1015 87 10000 4.1 230 18:39 02.02.2020
3254 Rain 13 1015 87 10000 4.1 230 18:21 02.02.2020
3255 Rain 13 1015 87 10000 4.1 230 18:21 02.02.2020
3256 Rain 13 1015 87 10000 3.6 230 17:58 02.02.2020
3257 Rain 14 1015 87 10000 3.6 230 17:38 02.02.2020
3258 Rain 14 1014 82 10000 5.1 230 17:19 02.02.2020
3259 Rain 14 1014 82 10000 5.1 230 16:58 02.02.2020
3260 Rain 15 1014 87 10000 3.6 240 16:39 02.02.2020
3261 Clouds 15 1014 87 10000 3.6 240 16:19 02.02.2020
3262 Clouds 15 1014 87 10000 5.7 230 15:59 02.02.2020
3263 Clouds 15 1014 87 10000 4.1 250 15:39 02.02.2020
3264 Rain 15 1014 87 10000 4.1 250 15:20 02.02.2020
3265 Rain 15 1013 82 8000 7.2 240 14:58 02.02.2020
3266 -273 0 0 0 0 0 14:40 02.02.2020
3267 Clouds 15 1013 77 10000 5.7 250 14:18 02.02.2020
3268 Clouds 15 1013 77 10000 6.2 240 13:55 02.02.2020
3269 Clouds 15 1013 82 10000 6.7 250 13:37 02.02.2020
3270 Clouds 15 1013 82 10000 6.7 250 13:18 02.02.2020
3271 Clouds 15 1013 82 10000 5.7 250 12:44 02.02.2020
3272 Clouds 15 1012 82 10000 6.7 250 12:22 02.02.2020
3273 Rain 14 1012 87 10000 6.7 240 11:58 02.02.2020
3274 Clouds 14 1011 82 10000 6.7 240 11:39 02.02.2020
3275 Clouds 14 1011 82 10000 6.7 240 11:19 02.02.2020
3276 Clouds 14 1011 87 10000 6.7 240 10:56 02.02.2020
3277 Clouds 13 1011 93 10000 7.2 240 10:36 02.02.2020
3278 Clouds 13 1011 93 10000 7.2 240 10:18 02.02.2020
3279 Clouds 13 1011 93 10000 7.2 240 10:18 02.02.2020
3280 Clouds 13 1010 93 10000 5.7 220 09:55 02.02.2020
3281 Rain 13 1010 93 10000 5.7 200 09:36 02.02.2020
3282 Rain 12 1010 93 10000 5.7 200 09:18 02.02.2020
3283 Drizzle 12 1010 93 4600 4.1 190 08:41 02.02.2020
3284 Rain 12 1010 93 5000 4.6 190 08:22 02.02.2020
3285 Rain 12 1010 93 10000 5.1 200 07:46 02.02.2020
3286 Rain 12 1010 93 10000 5.1 200 07:28 02.02.2020
3287 Rain 11 1011 93 10000 5.7 190 06:43 02.02.2020
3288 Rain 11 1011 93 10000 5.7 190 06:25 02.02.2020
3289 Rain 11 1012 93 10000 4.6 190 05:47 02.02.2020
3290 Rain 11 1013 93 10000 4.6 190 04:38 02.02.2020
3291 Rain 11 1014 87 10000 5.1 200 03:25 02.02.2020
3292 Drizzle 11 1015 87 10000 5.1 200 02:29 02.02.2020
3293 Clouds 11 1016 93 10000 4.6 220 01:53 02.02.2020
3294 Clouds 11 1015 87 10000 1.5 190 01:22 02.02.2020
3295 Clouds 11 1016 87 10000 1 0 00:43 02.02.2020
3296 Rain 11 1016 87 5000 2.1 250 00:22 02.02.2020
3297 Rain 11 1016 76 10000 3.6 250 23:46 01.02.2020
3298 Rain 11 1016 76 10000 3.6 250 23:21 01.02.2020
3299 Rain 10 1016 76 10000 5.1 250 22:51 01.02.2020
3300 Rain 11 1016 81 10000 4.6 250 22:20 01.02.2020
3301 Clouds 11 1015 81 10000 4.1 240 21:59 01.02.2020
3302 Clouds 11 1015 87 10000 4.1 240 21:39 01.02.2020
3303 Clouds 11 1015 87 10000 4.1 240 21:18 01.02.2020
3304 Rain 11 1014 87 10000 5.7 250 20:41 01.02.2020
3305 Rain 11 1014 87 10000 5.7 250 20:20 01.02.2020
3306 Rain 12 1014 87 7000 5.1 260 19:57 01.02.2020
3307 Rain 12 1014 87 7000 5.1 260 19:39 01.02.2020
3308 Rain 12 1013 76 10000 6.7 230 19:19 01.02.2020
3309 Rain 12 1013 71 10000 8.2 230 18:58 01.02.2020
3310 Clouds 12 1013 76 10000 5.7 230 18:40 01.02.2020
3311 Clouds 13 1012 67 10000 8.2 230 18:21 01.02.2020
3312 Clouds 13 1012 67 10000 8.2 220 17:58 01.02.2020
3313 Clouds 13 1012 67 10000 8.2 220 17:39 01.02.2020
3314 Clouds 13 1012 67 10000 6.7 220 17:19 01.02.2020
3315 Clouds 13 1011 67 10000 6.7 230 16:43 01.02.2020
3316 Clouds 13 1011 67 10000 7.2 240 16:25 01.02.2020
3317 Clouds 13 1011 82 10000 6.7 240 15:59 01.02.2020
3318 Clouds 13 1011 71 10000 5.1 240 15:40 01.02.2020
3319 Clouds 13 1011 71 10000 5.1 240 15:22 01.02.2020
3320 Clouds 13 1011 71 10000 6.7 230 14:54 01.02.2020
3321 Clouds 13 1011 76 10000 6.2 250 14:36 01.02.2020
3322 Clouds 13 1011 76 10000 6.2 250 14:18 01.02.2020
3323 Clouds 13 1011 76 10000 5.7 250 13:42 01.02.2020
3324 Clouds 12 1010 76 10000 6.2 260 13:18 01.02.2020
3325 Clouds 12 1010 87 10000 4.1 280 12:43 01.02.2020
3326 Clouds 12 1010 87 10000 4.1 280 12:24 01.02.2020
3327 Clouds 12 1009 87 10000 4.6 260 11:55 01.02.2020
3328 Rain 11 1009 93 10000 3.1 260 11:37 01.02.2020
3329 Rain 11 1009 93 10000 3.1 260 11:18 01.02.2020
3330 Drizzle 11 1008 87 6000 4.1 270 10:54 01.02.2020
3331 Rain 11 1007 87 3800 4.6 300 10:36 01.02.2020
3332 Rain 11 1007 87 3800 4.6 300 10:18 01.02.2020
3333 Rain 12 1006 87 10000 5.7 210 09:41 01.02.2020
3334 Clouds 12 1007 93 10000 5.7 230 09:22 01.02.2020
3335 Rain 12 1007 93 9000 6.2 230 08:58 01.02.2020
3336 Rain 12 1006 93 5000 6.2 220 08:27 01.02.2020
3337 Rain 12 1006 87 8000 7.2 200 07:46 01.02.2020
3338 Rain 12 1006 87 10000 6.7 200 07:24 01.02.2020
3339 Rain 12 1007 87 10000 6.7 200 06:44 01.02.2020
3340 Rain 12 1007 93 8000 6.7 200 05:54 01.02.2020
3341 Rain 12 1008 93 10000 6.7 200 04:58 01.02.2020
3342 Clouds 12 1009 87 10000 6.7 190 03:26 01.02.2020
3343 Clouds 12 1009 87 10000 7.2 190 02:59 01.02.2020
3344 Clouds 12 1009 87 10000 7.2 190 02:40 01.02.2020
3345 Clouds 12 1009 87 10000 5.7 190 02:20 01.02.2020
3346 Clouds 12 1010 87 10000 4.6 190 01:47 01.02.2020
3347 Clouds 12 1010 87 10000 5.1 200 01:27 01.02.2020
3348 Clouds 12 1011 93 10000 4.6 210 00:24 01.02.2020
3349 Clouds 12 1011 93 10000 4.6 210 23:42 31.01.2020
3350 Clouds 12 1012 82 10000 5.7 200 23:19 31.01.2020
3351 Clouds 12 1012 82 10000 5.1 200 22:57 31.01.2020
3352 Clouds 12 1012 82 10000 5.7 210 22:39 31.01.2020
3353 Clouds 12 1012 82 10000 5.7 210 22:21 31.01.2020
3354 Clouds 12 1012 76 10000 7.2 200 21:55 31.01.2020
3355 Clouds 12 1012 93 10000 4.1 210 21:37 31.01.2020
3356 Clouds 12 1012 76 10000 6.2 200 21:18 31.01.2020
3357 Clouds 12 1013 93 10000 4.6 220 20:55 31.01.2020
3358 Clouds 12 1013 82 10000 5.7 210 20:37 31.01.2020
3359 Clouds 12 1013 82 10000 5.7 210 20:18 31.01.2020
3360 Clouds 12 1013 76 10000 5.7 190 19:54 31.01.2020
3361 Clouds 12 1013 76 10000 6.2 210 19:36 31.01.2020
3362 Clouds 12 1013 76 10000 6.2 210 19:18 31.01.2020
3363 Clouds 12 1013 76 10000 7.2 200 18:39 31.01.2020
3364 Clouds 12 1013 76 10000 7.2 200 18:20 31.01.2020
3365 Clouds 12 1013 76 10000 6.2 200 17:46 31.01.2020
3366 Clouds 12 1013 76 10000 6.2 200 17:46 31.01.2020
3367 Clouds 12 1013 76 10000 6.2 210 17:28 31.01.2020
3368 Clouds 13 1013 82 10000 6.7 210 16:58 31.01.2020
3369 Clouds 13 1013 76 10000 5.1 220 16:38 31.01.2020
3370 Clouds 13 1013 76 10000 5.1 220 16:19 31.01.2020
3371 Clouds 13 1013 71 10000 5.7 190 15:58 31.01.2020
3372 Clouds 13 1013 71 10000 5.7 190 15:58 31.01.2020
3373 Clouds 13 1013 71 10000 5.7 190 15:40 31.01.2020
3374 Clouds 13 1013 71 10000 6.2 200 15:20 31.01.2020
3375 Clouds 13 1013 76 10000 5.7 200 14:44 31.01.2020
3376 Clouds 13 1014 76 10000 5.7 210 14:24 31.01.2020
3377 Clouds 13 1014 82 10000 5.1 210 13:57 31.01.2020
3378 Clouds 13 1014 82 10000 5.1 210 13:38 31.01.2020
3379 Clouds 13 1014 82 10000 6.2 200 13:20 31.01.2020
3380 Clouds 12 1014 81 10000 7.2 220 12:45 31.01.2020
3381 Clouds 12 1015 87 10000 3.6 230 12:24 31.01.2020
3382 Clouds 12 1015 87 10000 5.1 230 11:55 31.01.2020
3383 Clouds 11 1015 87 10000 5.1 220 11:37 31.01.2020
3384 Clouds 11 1015 81 10000 6.7 230 11:19 31.01.2020
3385 Clouds 11 1015 87 10000 4.1 220 10:44 31.01.2020
3386 Clouds 11 1015 81 10000 6.7 230 10:44 31.01.2020
3387 Clouds 11 1015 87 10000 4.1 220 10:23 31.01.2020
3388 Clouds 11 1014 87 10000 4.6 230 09:59 31.01.2020
3389 Clouds 11 1014 87 10000 5.1 230 09:41 31.01.2020
3390 Clouds 11 1014 87 10000 5.1 230 09:41 31.01.2020
3391 Clouds 11 1014 87 10000 5.1 230 09:21 31.01.2020
3392 Clouds 11 1014 87 10000 6.7 230 08:54 31.01.2020
3393 Clouds 11 1014 87 10000 4.1 220 08:28 31.01.2020
3394 Clouds 11 1013 87 10000 4.6 220 07:59 31.01.2020
3395 Clouds 11 1013 87 10000 5.1 230 07:40 31.01.2020
3396 Clouds 11 1013 87 10000 5.1 230 07:18 31.01.2020
3397 Clouds 11 1013 93 10000 3.6 220 06:31 31.01.2020
3398 Clouds 11 1013 87 10000 4.1 240 05:54 31.01.2020
3399 Clouds 11 1013 87 10000 4.1 240 05:54 31.01.2020
3400 Clouds 11 1012 87 10000 4.6 240 05:19 31.01.2020
3401 Drizzle 12 1012 100 6000 5.1 240 03:52 31.01.2020
3402 Clouds 12 1011 82 10000 5.7 230 01:54 31.01.2020
3403 Clouds 12 1012 100 7000 4.6 250 01:29 31.01.2020
3404 Clouds 12 1011 93 10000 5.1 250 00:38 31.01.2020
3405 Clouds 12 1011 93 10000 5.1 250 00:20 31.01.2020
3406 Rain 12 1010 87 10000 5.1 220 23:40 30.01.2020
3407 Rain 12 1011 87 10000 4.6 220 23:40 30.01.2020
3408 Rain 12 1010 87 10000 5.1 220 23:21 30.01.2020
3409 Clouds 12 1010 93 8000 5.1 240 22:38 30.01.2020
3410 Clouds 12 1010 93 8000 5.1 240 22:20 30.01.2020
3411 Clouds 12 1010 87 10000 6.2 220 21:58 30.01.2020
3412 Clouds 12 1009 87 10000 5.1 210 21:40 30.01.2020
3413 Clouds 12 1009 87 10000 5.7 220 21:18 30.01.2020
3414 Clouds 12 1009 87 10000 5.7 220 20:56 30.01.2020
3415 Clouds 12 1009 87 10000 6.2 220 20:38 30.01.2020
3416 Clouds 12 1009 87 10000 6.2 220 20:19 30.01.2020
3417 Clouds 13 1009 93 10000 6.7 240 19:44 30.01.2020
3418 Clouds 13 1009 87 10000 7.2 240 19:44 30.01.2020
3419 Clouds 13 1009 87 10000 7.2 240 19:19 30.01.2020
3420 Clouds 13 1008 82 10000 6.2 220 18:58 30.01.2020
3421 Clouds 13 1008 82 10000 6.2 220 18:37 30.01.2020
3422 Clouds 13 1008 82 10000 6.2 220 18:18 30.01.2020
3423 Rain 13 1008 87 10000 5.7 220 17:41 30.01.2020
3424 Clouds 13 1007 87 10000 5.7 220 17:19 30.01.2020
3425 Clouds 13 1007 87 10000 5.7 210 16:58 30.01.2020
3426 Clouds 12 1007 93 10000 5.1 200 16:39 30.01.2020
3427 Clouds 12 1007 93 10000 5.1 200 16:21 30.01.2020
3428 Clouds 12 1008 93 10000 3.6 190 15:45 30.01.2020
3429 Clouds 12 1008 93 10000 4.6 200 15:21 30.01.2020
3430 Clouds 11 1008 100 10000 4.1 190 14:58 30.01.2020
3431 Rain 11 1008 100 10000 3.6 180 14:39 30.01.2020
3432 Rain 10 1008 100 10000 3.6 180 14:21 30.01.2020
3433 Rain 9 1009 93 10000 4.1 180 13:41 30.01.2020
3434 Rain 9 1009 100 10000 4.1 180 13:23 30.01.2020
3435 Rain 8 1009 93 7000 4.1 170 12:56 30.01.2020
3436 Rain 8 1010 93 10000 4.6 180 12:38 30.01.2020
3437 Rain 8 1010 93 10000 4.6 180 12:19 30.01.2020
3438 Rain 7 1010 93 9000 5.7 170 11:41 30.01.2020
3439 Rain 7 1010 93 9000 5.7 170 11:22 30.01.2020
3440 Rain 7 1011 93 5000 5.1 170 10:59 30.01.2020
3441 Rain 7 1011 87 9000 5.1 170 10:40 30.01.2020
3442 Rain 7 1011 87 9000 5.1 170 10:20 30.01.2020
3443 Clouds 6 1012 87 10000 5.1 170 09:45 30.01.2020
3444 Clouds 6 1012 93 10000 4.1 160 09:26 30.01.2020
3445 Clouds 6 1012 87 10000 3.6 170 08:43 30.01.2020
3446 Clouds 5 1012 87 10000 4.1 160 08:22 30.01.2020
3447 Clouds 5 1012 93 10000 4.1 160 07:59 30.01.2020
3448 Clouds 5 1013 93 10000 3.6 150 07:41 30.01.2020
3449 Clouds 5 1013 93 10000 3.6 150 07:19 30.01.2020
3450 Clouds 4 1013 93 10000 2.6 130 06:45 30.01.2020
3451 Clouds 4 1013 93 10000 2.6 130 06:26 30.01.2020
3452 Clouds 4 1013 93 10000 2.6 130 06:26 30.01.2020
3453 Clouds 4 1014 93 10000 2.1 140 05:39 30.01.2020
3454 Clouds 4 1014 93 10000 2.1 140 05:19 30.01.2020
3455 Clouds 4 1015 86 10000 2.6 170 03:48 30.01.2020
3456 Clouds 4 1016 86 10000 1.5 140 03:26 30.01.2020
3457 Clouds 4 1017 86 10000 2.6 130 01:41 30.01.2020
3458 Clouds 4 1017 75 10000 3.1 170 00:38 30.01.2020
3459 Clouds 4 1017 75 10000 3.1 170 00:19 30.01.2020
3460 Clouds 4 1017 81 10000 2.6 180 23:45 29.01.2020
3461 Clouds 4 1017 81 10000 2.6 180 23:21 29.01.2020
3462 Clouds 4 1017 86 10000 2.6 230 22:56 29.01.2020
3463 Clouds 5 1017 86 10000 1 0 22:38 29.01.2020
3464 Clouds 5 1017 86 10000 1 0 22:19 29.01.2020
3465 Clouds 5 1017 75 10000 3.6 220 21:57 29.01.2020
3466 Clouds 5 1017 75 10000 3.6 210 21:38 29.01.2020
3467 Clouds 5 1017 75 10000 3.6 210 21:18 29.01.2020
3468 Clouds 5 1017 75 10000 3.1 220 20:57 29.01.2020
3469 Clouds 5 1017 75 10000 3.1 220 20:37 29.01.2020
3470 Clouds 5 1016 75 10000 3.1 220 20:19 29.01.2020
3471 Clouds 6 1016 70 10000 2.6 210 19:55 29.01.2020
3472 Clouds 6 1016 75 10000 1.5 0 19:36 29.01.2020
3473 Clouds 6 1016 70 10000 4.1 220 19:18 29.01.2020
3474 Clouds 7 1016 70 10000 3.6 240 18:40 29.01.2020
3475 Clouds 7 1016 70 10000 3.6 240 18:19 29.01.2020
3476 Clouds 8 1015 61 10000 5.1 240 17:55 29.01.2020
3477 Clouds 8 1016 70 10000 3.1 250 17:36 29.01.2020
3478 Clouds 9 1016 61 10000 4.6 250 17:18 29.01.2020
3479 Clouds 9 1015 61 10000 4.1 260 16:40 29.01.2020
3480 Clouds 9 1015 61 10000 4.1 260 16:20 29.01.2020
3481 Clouds 9 1015 70 10000 4.6 260 15:40 29.01.2020
3482 Clouds 9 1015 70 10000 4.6 260 15:22 29.01.2020
3483 Clouds 9 1015 70 10000 5.7 260 14:59 29.01.2020
3484 Clouds 9 1014 70 10000 6.2 260 14:40 29.01.2020
3485 Clouds 9 1014 70 10000 6.2 260 14:19 29.01.2020
3486 Clouds 9 1015 70 10000 6.2 260 13:41 29.01.2020
3487 Clouds 9 1015 70 10000 6.2 260 13:22 29.01.2020
3488 Clouds 8 1014 70 10000 5.7 250 12:59 29.01.2020
3489 Clouds 8 1014 75 10000 6.2 250 12:39 29.01.2020
3490 Clouds 8 1014 75 10000 6.2 250 12:21 29.01.2020
3491 Clouds 8 1014 75 10000 6.2 250 11:58 29.01.2020
3492 Clouds 8 1014 75 10000 6.2 250 11:39 29.01.2020
3493 Clouds 7 1014 75 10000 6.2 250 11:19 29.01.2020
3494 Clouds 7 1013 81 10000 5.7 250 10:46 29.01.2020
3495 Clouds 6 1013 81 10000 5.1 250 10:22 29.01.2020
3496 Clouds 5 1012 81 10000 4.1 250 09:57 29.01.2020
3497 Clouds 5 1012 81 10000 4.1 250 09:38 29.01.2020
3498 Clouds 5 1012 81 10000 4.1 250 09:18 29.01.2020
3499 Clouds 5 1013 86 10000 4.1 240 08:41 29.01.2020
3500 Clouds 5 1012 81 10000 4.6 240 08:22 29.01.2020
3501 Clouds 5 1011 81 10000 5.7 230 07:45 29.01.2020
3502 Clouds 5 1011 81 10000 5.7 230 07:45 29.01.2020
3503 Clouds 5 1011 81 10000 4.6 230 07:26 29.01.2020
3504 Clouds 5 1011 81 10000 4.6 240 06:56 29.01.2020
3505 Clouds 5 1010 81 10000 4.6 250 06:37 29.01.2020
3506 Clouds 5 1010 81 10000 4.6 250 06:19 29.01.2020
3507 Clouds 5 1010 81 10000 3.1 240 05:49 29.01.2020
3508 Clouds 5 1010 81 10000 2.6 250 05:30 29.01.2020
3509 Clouds 5 1010 80 10000 2.6 240 04:38 29.01.2020
3510 Clouds 5 1010 80 10000 4.1 230 03:58 29.01.2020
3511 Clouds 5 1009 93 10000 1.5 0 02:33 29.01.2020
3512 Rain 4 1008 86 10000 5.1 320 00:59 29.01.2020
3513 Clouds 4 1007 80 10000 6.7 240 00:36 29.01.2020
3514 Clouds 5 1007 80 10000 6.7 240 00:18 29.01.2020
3515 Clouds 4 1007 80 10000 4.6 240 23:39 28.01.2020
3516 Clouds 4 1007 80 10000 4.6 240 23:19 28.01.2020
3517 Clouds 5 1006 80 10000 5.7 250 22:49 28.01.2020
3518 Clouds 5 1006 80 10000 6.2 250 22:27 28.01.2020
3519 Clouds 5 1006 81 10000 7.7 260 21:57 28.01.2020
3520 Rain 5 1005 81 10000 4.6 250 21:38 28.01.2020
3521 Rain 5 1005 81 10000 4.6 250 21:19 28.01.2020
3522 Rain 5 1005 87 10000 5.7 260 20:45 28.01.2020
3523 Rain 6 1005 87 10000 5.7 260 20:26 28.01.2020
3524 Drizzle 5 1005 93 10000 3.6 230 19:55 28.01.2020
3525 Rain 5 1005 81 10000 4.6 250 19:37 28.01.2020
3526 Rain 5 1005 81 10000 4.6 250 19:19 28.01.2020
3527 Rain 5 1005 86 10000 3.6 230 18:42 28.01.2020
3528 Rain 6 1005 65 10000 3.6 230 18:23 28.01.2020
3529 Clouds 6 1005 65 10000 7.7 240 17:59 28.01.2020
3530 Rain 6 1005 65 10000 6.7 230 17:40 28.01.2020
3531 Rain 6 1005 65 10000 6.7 230 17:21 28.01.2020
3532 Clouds 7 1005 65 10000 8.2 240 16:59 28.01.2020
3533 Clouds 7 1005 65 10000 8.2 240 16:40 28.01.2020
3534 Clouds 7 1005 65 10000 7.7 250 16:22 28.01.2020
3535 Clouds 7 1005 65 10000 7.7 250 15:55 28.01.2020
3536 Clouds 7 1005 65 10000 8.2 240 15:37 28.01.2020
3537 Clouds 7 1005 65 10000 8.2 240 15:18 28.01.2020
3538 Clouds 7 1005 70 10000 8.7 240 14:43 28.01.2020
3539 Clouds 7 1005 86 10000 4.1 250 14:19 28.01.2020
3540 Rain 6 1005 86 10000 5.7 270 13:42 28.01.2020
3541 Rain 6 1005 65 10000 10.3 250 13:24 28.01.2020
3542 Clouds 6 1004 65 10000 10.8 240 12:45 28.01.2020
3543 Clouds 6 1004 65 10000 10.8 240 12:25 28.01.2020
3544 Clouds 6 1003 70 10000 8.7 240 11:59 28.01.2020
3545 Clouds 6 1003 70 10000 10.8 240 11:41 28.01.2020
3546 Clouds 6 1003 70 10000 10.8 240 11:21 28.01.2020
3547 Clouds 5 1002 70 10000 9.8 240 10:55 28.01.2020
3548 Clouds 5 1002 59 10000 9.3 250 10:36 28.01.2020
3549 Clouds 5 1002 59 10000 9.3 250 10:18 28.01.2020
3550 Rain 5 1001 86 10000 9.8 260 09:41 28.01.2020
3551 Rain 5 1001 86 10000 9.8 260 09:20 28.01.2020
3552 Rain 5 1000 70 10000 8.2 240 08:45 28.01.2020
3553 Rain 5 999 63 10000 11.8 250 08:26 28.01.2020
3554 Rain 6 998 65 10000 10.3 230 07:56 28.01.2020
3555 Rain 6 998 70 10000 8.7 230 07:34 28.01.2020
3556 Clouds 6 998 70 10000 9.8 230 06:48 28.01.2020
3557 Clouds 6 998 70 10000 10.3 230 06:25 28.01.2020
3558 Clouds 6 997 75 10000 7.2 240 05:40 28.01.2020
3559 Clouds 7 997 65 10000 8.7 230 05:21 28.01.2020
3560 Clouds 8 997 75 10000 8.7 210 03:49 28.01.2020
3561 Clouds 7 998 87 10000 6.7 200 02:46 28.01.2020
3562 Rain 8 998 87 10000 6.2 190 02:25 28.01.2020
3563 Rain 8 999 81 10000 7.7 200 01:55 28.01.2020
3564 Clouds 7 999 81 10000 5.7 200 01:22 28.01.2020
3565 Clouds 7 999 81 10000 9.3 210 00:45 28.01.2020
3566 Clouds 7 1000 81 10000 6.7 210 00:22 28.01.2020
3567 Clouds 7 1000 81 10000 7.2 200 23:44 27.01.2020
3568 Clouds 8 1000 93 10000 6.7 220 23:20 27.01.2020
3569 Rain 8 1001 93 10000 5.7 240 22:45 27.01.2020
3570 Rain 8 1000 81 10000 7.7 210 22:20 27.01.2020
3571 Rain 8 1000 81 10000 7.7 210 22:20 27.01.2020
3572 Clouds 8 1000 81 10000 6.2 220 21:58 27.01.2020
3573 Clouds 8 1000 81 10000 7.2 210 21:39 27.01.2020
3574 Clouds 8 1000 81 10000 7.2 210 21:19 27.01.2020
3575 Clouds 8 1000 81 10000 7.2 210 21:19 27.01.2020
3576 Clouds 8 1000 81 10000 7.2 210 21:19 27.01.2020
3577 Clouds 8 1000 81 10000 8.2 200 20:57 27.01.2020
3578 Rain 8 1000 87 10000 7.2 200 20:38 27.01.2020
3579 Rain 8 1000 87 10000 7.2 200 20:20 27.01.2020
3580 Rain 8 1000 87 10000 8.7 190 19:57 27.01.2020
3581 Rain 8 1000 87 10000 8.7 190 19:39 27.01.2020
3582 Rain 8 1000 87 10000 6.2 190 19:21 27.01.2020
3583 Rain 8 1001 87 10000 7.7 190 18:54 27.01.2020
3584 Drizzle 8 1002 87 10000 7.7 190 18:36 27.01.2020
3585 Drizzle 8 1002 87 10000 7.7 190 18:18 27.01.2020
3586 Rain 8 1004 87 10000 7.7 180 17:39 27.01.2020
3587 Rain 8 1004 87 10000 7.7 180 17:19 27.01.2020
3588 Rain 8 1004 87 10000 7.7 180 16:57 27.01.2020
3589 Clouds 8 1004 87 10000 5.7 180 16:39 27.01.2020
3590 Clouds 8 1004 87 10000 5.7 180 16:21 27.01.2020
3591 Clouds 8 1005 87 10000 6.7 180 15:54 27.01.2020
3592 Rain 8 1006 87 10000 5.7 190 15:36 27.01.2020
3593 Rain 8 1006 87 10000 5.7 190 15:18 27.01.2020
3594 Rain 8 1006 87 10000 7.7 200 14:40 27.01.2020
3595 Drizzle 8 1007 87 10000 7.2 200 14:21 27.01.2020
3596 Clouds 9 1007 87 10000 6.7 200 13:54 27.01.2020
3597 Rain 9 1008 81 10000 6.2 200 13:36 27.01.2020
3598 Rain 9 1008 81 10000 6.2 200 13:18 27.01.2020
3599 Clouds 9 1008 87 10000 6.2 210 12:42 27.01.2020
3600 Clouds 9 1009 87 10000 6.7 210 12:22 27.01.2020
3601 Clouds 8 1009 87 10000 6.2 200 11:55 27.01.2020
3602 Rain 8 1009 87 5000 5.7 210 11:36 27.01.2020
3603 Rain 8 1009 87 5000 5.7 210 11:18 27.01.2020
3604 Drizzle 8 1009 87 7000 6.2 210 10:42 27.01.2020
3605 Drizzle 8 1009 87 7000 6.2 210 10:23 27.01.2020
3606 Rain 8 1009 87 10000 7.2 200 09:40 27.01.2020
3607 Rain 8 1009 87 10000 7.2 200 09:19 27.01.2020
3608 Drizzle 8 1009 93 10000 5.7 200 08:58 27.01.2020
3609 Rain 8 1009 93 9000 5.7 190 08:40 27.01.2020
3610 Rain 8 1009 93 9000 5.7 190 08:19 27.01.2020
3611 Rain 8 1010 93 8000 6.2 200 07:50 27.01.2020
3612 Clouds 9 1010 93 10000 6.2 190 07:32 27.01.2020
3613 Clouds 9 1010 93 9000 7.2 190 06:39 27.01.2020
3614 Rain 9 1010 93 10000 5.7 190 05:53 27.01.2020
3615 Rain 9 1011 93 10000 7.2 190 05:18 27.01.2020
3616 Rain 8 1012 87 10000 5.7 190 03:36 27.01.2020
3617 Rain 8 1013 87 10000 6.7 180 01:57 27.01.2020
3618 Rain 8 1013 87 8000 6.7 180 01:28 27.01.2020
3619 Rain 8 1013 87 8000 6.7 180 01:28 27.01.2020
3620 Rain 8 1013 87 8000 6.2 180 00:42 27.01.2020
3621 Rain 8 1014 87 9000 6.2 180 00:22 27.01.2020
3622 Rain 8 1014 87 9000 6.2 180 00:22 27.01.2020
3623 Drizzle 8 1014 87 10000 5.1 180 23:58 26.01.2020
3624 Clouds 8 1014 81 10000 5.1 180 23:39 26.01.2020
3625 Clouds 8 1014 81 10000 5.1 180 23:18 26.01.2020
3626 Clouds 8 1014 81 10000 5.7 170 22:39 26.01.2020
3627 Clouds 8 1015 81 10000 4.6 180 22:20 26.01.2020
3628 Clouds 8 1015 87 10000 4.6 180 21:59 26.01.2020
3629 Clouds 8 1015 87 10000 5.7 170 21:40 26.01.2020
3630 Clouds 8 1015 87 10000 5.7 170 21:22 26.01.2020
3631 Clouds 8 1015 87 10000 4.6 160 20:58 26.01.2020
3632 Clouds 8 1015 87 10000 4.6 160 20:40 26.01.2020
3633 Clouds 8 1015 81 10000 5.1 170 20:20 26.01.2020
3634 Clouds 7 1015 87 10000 4.6 180 19:59 26.01.2020
3635 Clouds 7 1015 87 10000 4.1 170 19:39 26.01.2020
3636 Clouds 7 1015 87 10000 4.1 170 19:21 26.01.2020
3637 Clouds 7 1015 87 10000 2.6 160 18:59 26.01.2020
3638 Clouds 7 1015 87 10000 2.6 160 18:39 26.01.2020
3639 Clouds 7 1015 87 10000 3.6 180 18:21 26.01.2020
3640 Clouds 7 1015 87 10000 3.6 180 18:21 26.01.2020
3641 Clouds 8 1015 81 10000 3.6 180 17:57 26.01.2020
3642 Clouds 8 1016 76 10000 4.6 190 17:38 26.01.2020
3643 Clouds 8 1016 76 10000 4.6 190 17:18 26.01.2020
3644 Clouds 8 1016 81 10000 2.6 200 16:57 26.01.2020
3645 Clouds 8 1015 81 10000 4.6 180 16:39 26.01.2020
3646 Clouds 9 1015 81 10000 4.6 180 16:20 26.01.2020
3647 Clouds 8 1016 81 10000 4.1 220 15:55 26.01.2020
3648 Clouds 8 1014 89 0 0.89 45 15:36 26.01.2020
3649 Clouds 8 1015 90 0 0.45 125 15:18 26.01.2020
3650 Clouds 8 1015 91 0 0.45 209 14:39 26.01.2020
3651 Clouds 8 1015 92 0 0.89 348 14:19 26.01.2020
3652 Clouds 7 1015 92 0 0.89 60 13:42 26.01.2020
3653 Clouds 7 1015 92 0 0.45 173 13:20 26.01.2020
3654 Clouds 7 1015 92 0 4.35 200 12:57 26.01.2020
3655 Clouds 7 1015 93 0 0.45 186 12:38 26.01.2020
3656 Clouds 6 1015 92 0 4.35 200 12:20 26.01.2020
3657 Clouds 6 1016 93 0 0.45 224 11:57 26.01.2020
3658 Mist 5 1017 100 3800 1 140 11:37 26.01.2020
3659 Mist 5 1017 100 3800 1 140 11:18 26.01.2020
3660 Mist 4 1017 100 3800 1 140 10:57 26.01.2020
3661 Mist 4 1017 100 3800 1 140 10:38 26.01.2020
3662 Mist 4 1017 100 3800 1 140 10:19 26.01.2020
3663 Mist 3 1017 100 3600 2.1 140 09:56 26.01.2020
3664 Rain 3 1017 100 2800 2.1 130 09:38 26.01.2020
3665 Rain 3 1017 100 2800 2.1 130 09:19 26.01.2020
3666 Mist 2 1016 100 2700 2.6 130 08:42 26.01.2020
3667 Mist 2 1016 100 3100 1 100 08:22 26.01.2020
3668 Mist 2 1016 100 3600 1.5 120 07:54 26.01.2020
3669 Mist 2 1016 100 3800 1 100 07:36 26.01.2020
3670 Mist 2 1016 100 3800 1 100 07:18 26.01.2020
3671 Mist 2 1016 100 3200 2.1 90 06:26 26.01.2020
3672 Mist 2 1016 93 3100 1.5 80 05:29 26.01.2020
3673 Mist 2 1016 100 3300 1.5 90 04:43 26.01.2020
3674 Mist 2 1017 93 3400 2.39 171 02:38 26.01.2020
3675 Mist 2 1017 100 3300 1 0 01:46 26.01.2020
3676 Mist 2 1017 100 3000 1.5 40 01:23 26.01.2020
3677 Mist 2 1017 95 2900 1 360 00:44 26.01.2020
3678 Mist 2 1018 100 2900 1 0 00:26 26.01.2020
3679 Clouds 2 1016 91 0 2.17 156 23:40 25.01.2020
3680 Clouds 2 1016 90 0 2.11 153 23:21 25.01.2020
3681 Clouds 2 1016 90 0 2.11 153 22:58 25.01.2020
3682 Clouds 2 1017 90 0 2.11 153 22:39 25.01.2020
3683 Clouds 2 1017 90 0 2.11 153 22:18 25.01.2020
3684 Clouds 3 1017 90 0 2.11 153 21:56 25.01.2020
3685 Clouds 4 1019 94 0 2.11 153 21:38 25.01.2020
3686 Clouds 4 1019 94 0 2.11 153 21:19 25.01.2020
3687 Clouds 3 1017 89 0 2.11 153 20:43 25.01.2020
3688 Clouds 5 1019 90 0 2.22 140 20:25 25.01.2020
3689 Clouds 5 1019 90 0 2.22 140 19:54 25.01.2020
3690 Clouds 4 1017 88 0 2.05 147 19:36 25.01.2020
3691 Clouds 4 1017 86 0 2.22 140 19:18 25.01.2020
3692 Clouds 4 1017 88 0 2.22 140 18:41 25.01.2020
3693 Clouds 4 1017 86 0 2.22 140 18:21 25.01.2020
3694 Clouds 4 1017 85 0 2.05 147 17:57 25.01.2020
3695 Clouds 5 1017 85 0 2.22 140 17:37 25.01.2020
3696 Clouds 5 1017 85 0 2.22 140 17:37 25.01.2020
3697 Clouds 5 1017 85 0 1.72 140 17:18 25.01.2020
3698 Clouds 5 1017 84 0 1.72 140 16:42 25.01.2020
3699 Clouds 5 1017 84 0 1.72 140 16:42 25.01.2020
3700 Clouds 5 1017 83 0 1.72 140 16:23 25.01.2020
3701 Clouds 6 1018 83 0 1.72 140 15:57 25.01.2020
3702 Clouds 6 1018 84 0 1.72 140 15:39 25.01.2020
3703 Clouds 6 1018 95 0 1.72 140 15:20 25.01.2020
3704 Clouds 6 1018 86 0 1.72 140 14:42 25.01.2020
3705 Clouds 4 1018 87 0 2.03 147 14:19 25.01.2020
3706 Clouds 4 1019 90 0 2.03 147 13:45 25.01.2020
3707 Clouds 4 1019 92 0 1.81 160 13:27 25.01.2020
3708 Mist 3 1022 100 2700 1.5 0 12:58 25.01.2020
3709 Mist 3 1022 100 2700 1.5 0 12:38 25.01.2020
3710 Mist 2 1022 100 2700 1.5 0 12:19 25.01.2020
3711 Fog 1 1022 79 800 1.5 30 11:40 25.01.2020
3712 Fog 1 1022 92 800 1.5 30 11:20 25.01.2020
3713 Fog 1 1022 92 300 1.5 30 10:56 25.01.2020
3714 Fog 0 1022 92 300 1.5 0 10:38 25.01.2020
3715 Fog 0 1022 92 300 1.5 0 10:18 25.01.2020
3716 Fog 0 1022 100 450 2.1 50 09:40 25.01.2020
3717 Fog 0 1022 100 450 2.1 50 09:19 25.01.2020
3718 Fog 0 1022 92 600 2.6 80 08:43 25.01.2020
3719 Fog -1 1021 94 800 0.5 0 07:59 25.01.2020
3720 Fog -1 1021 100 900 1.5 40 07:40 25.01.2020
3721 Mist -1 1021 100 1300 2.6 50 06:44 25.01.2020
3722 Mist -1 1021 92 5000 2.6 50 06:24 25.01.2020
3723 Fog -1 1021 100 1200 2.6 40 05:44 25.01.2020
3724 Fog -2 1021 100 450 1 0 04:25 25.01.2020
3725 Fog -1 1022 92 400 2.1 30 03:50 25.01.2020
3726 Fog -1 1022 92 350 0.78 104 02:40 25.01.2020
3727 Fog -1 1022 92 350 1 0 01:58 25.01.2020
3728 Fog -1 1023 92 350 0.86 152 01:35 25.01.2020
3729 Fog -1 1023 100 350 1.5 40 00:42 25.01.2020
3730 Fog -1 1023 100 350 1.5 40 00:23 25.01.2020
3731 Fog -1 1023 100 400 1.5 110 23:56 24.01.2020
3732 Fog -1 1023 100 500 1.5 30 23:38 24.01.2020
3733 Fog -1 1023 100 500 1.5 30 23:19 24.01.2020
3734 Fog -1 1023 71 450 1.5 20 22:42 24.01.2020
3735 Fog -1 1023 71 350 1 0 22:23 24.01.2020
3736 Fog 0 1023 71 900 1.5 80 21:41 24.01.2020
3737 Fog 0 1023 71 900 1.5 80 21:20 24.01.2020
3738 Fog 0 1023 71 1000 2.1 60 20:56 24.01.2020
3739 Mist 0 1023 71 2200 1.5 70 20:37 24.01.2020
3740 Mist 0 1023 59 2200 1.5 70 20:18 24.01.2020
3741 Mist 1 1023 59 3200 2.1 60 19:55 24.01.2020
3742 Mist 1 1023 86 3800 1.5 80 19:37 24.01.2020
3743 Mist 1 1023 86 3800 1.5 80 19:19 24.01.2020
3744 Mist 2 1022 59 4300 2.1 70 18:42 24.01.2020
3745 Mist 2 1022 59 4300 2.1 70 18:22 24.01.2020
3746 Mist 2 1023 86 3500 1.5 70 17:46 24.01.2020
3747 Mist 3 1023 86 3600 2.1 20 17:23 24.01.2020
3748 Mist 3 1023 86 3700 1.5 50 16:58 24.01.2020
3749 Mist 3 1023 86 3600 2.1 40 16:39 24.01.2020
3750 Mist 3 1023 86 3600 2.1 40 16:19 24.01.2020
3751 Mist 4 1023 86 3400 1.5 10 15:42 24.01.2020
3752 Mist 4 1023 86 3800 1.5 0 15:22 24.01.2020
3753 Mist 3 1023 86 3300 1.5 30 14:56 24.01.2020
3754 Mist 3 1023 86 3200 1.5 10 14:38 24.01.2020
3755 Mist 3 1023 86 3200 1.5 10 14:19 24.01.2020
3756 Mist 3 1023 86 3100 2.6 20 13:42 24.01.2020
3757 Mist 2 1024 86 3200 1.5 0 13:22 24.01.2020
3758 Mist 2 1024 86 3200 2.1 20 12:44 24.01.2020
3759 Mist 2 1024 86 3200 2.1 20 12:44 24.01.2020
3760 Mist 1 1024 44 3300 1.5 0 12:22 24.01.2020
3761 Mist 0 1024 44 3200 2.1 120 11:45 24.01.2020
3762 Mist 0 1024 56 3200 2.1 120 11:20 24.01.2020
3763 Mist 0 1024 56 3200 2.6 130 10:59 24.01.2020
3764 Mist 0 1024 56 3400 1.5 70 10:41 24.01.2020
3765 Mist 0 1024 56 3400 1.5 70 10:41 24.01.2020
3766 Mist 0 1024 56 3400 1.5 70 10:19 24.01.2020
3767 Mist -1 1024 56 3500 1.5 80 09:42 24.01.2020
3768 Mist -1 1024 56 3500 1.5 80 09:42 24.01.2020
3769 Mist -1 1024 56 3700 2.1 90 09:24 24.01.2020
3770 Mist -1 1024 56 4500 3.1 70 08:59 24.01.2020
3771 Mist -1 1024 56 4700 2.6 70 08:38 24.01.2020
3772 Mist -1 1024 68 4700 2.6 70 08:18 24.01.2020
3773 Mist -1 1023 68 4700 2.6 60 07:43 24.01.2020
3774 Mist -1 1023 68 4700 2.6 40 07:22 24.01.2020
3775 Mist -1 1024 68 4500 2.6 40 06:43 24.01.2020
3776 Mist -1 1023 68 4500 2.1 30 06:23 24.01.2020
3777 Mist -1 1023 92 4600 1.5 10 05:22 24.01.2020
3778 Mist 0 1024 100 5000 1.5 20 03:34 24.01.2020
3779 Mist 0 1024 92 4800 1.5 80 02:40 24.01.2020
3780 Mist 0 1024 92 4800 1.5 80 02:20 24.01.2020
3781 Mist 0 1025 75 4900 3.6 30 01:38 24.01.2020
3782 Mist 0 1025 75 5000 2.6 20 00:49 24.01.2020
3783 Mist 0 1025 100 4500 1.5 10 00:19 24.01.2020
3784 Mist 0 1025 92 3600 1 50 23:42 23.01.2020
3785 Mist 0 1025 76 3800 2.1 20 23:22 23.01.2020
3786 Mist 0 1026 76 5000 2.6 10 22:58 23.01.2020
3787 Mist 0 1026 92 5000 1 350 22:37 23.01.2020
3788 Mist 0 1026 92 5000 1 350 22:37 23.01.2020
3789 Mist 0 1026 92 5000 1 350 22:18 23.01.2020
3790 Mist 0 1026 76 5000 0.5 0 21:55 23.01.2020
3791 Mist 0 1026 76 5000 1 60 21:37 23.01.2020
3792 Mist 0 1026 76 5000 1 60 21:19 23.01.2020
3793 Mist 0 1026 76 5000 1 60 21:19 23.01.2020
3794 Clear 0 1026 76 7000 1.5 40 20:55 23.01.2020
3795 Clear 0 1026 76 8000 1 0 20:37 23.01.2020
3796 Clear 1 1026 78 8000 1 0 20:18 23.01.2020
3797 Clear 1 1026 86 9000 2.6 10 19:42 23.01.2020
3798 Clear 1 1026 86 10000 2.6 360 19:23 23.01.2020
3799 Clear 1 1026 80 10000 2.6 10 18:58 23.01.2020
3800 Clouds 1 1026 78 10000 3.1 360 18:39 23.01.2020
3801 Clouds 1 1026 78 10000 3.1 360 18:20 23.01.2020
3802 Clouds 2 1027 78 10000 3.6 30 17:56 23.01.2020
3803 Clouds 2 1027 78 10000 3.6 40 17:37 23.01.2020
3804 Clouds 2 1027 63 10000 3.6 40 17:18 23.01.2020
3805 Clouds 3 1027 63 10000 4.6 50 16:39 23.01.2020
3806 Clouds 3 1027 63 10000 4.6 50 16:20 23.01.2020
3807 Clouds 3 1027 63 10000 4.1 20 15:58 23.01.2020
3808 Clouds 3 1027 63 10000 4.1 20 15:40 23.01.2020
3809 Clouds 3 1027 63 10000 4.1 20 15:19 23.01.2020
3810 Clouds 3 1028 63 10000 4.6 20 14:59 23.01.2020
3811 Clouds 3 1028 63 10000 4.6 30 14:41 23.01.2020
3812 Clouds 3 1028 58 10000 4.6 30 14:23 23.01.2020
3813 Clouds 3 1028 58 10000 4.6 20 13:59 23.01.2020
3814 Clouds 3 1029 58 10000 5.1 40 13:37 23.01.2020
3815 Clouds 3 1029 61 10000 5.1 40 13:19 23.01.2020
3816 Clouds 3 1029 61 10000 4.6 40 12:44 23.01.2020
3817 Clouds 2 1030 61 10000 4.6 40 12:25 23.01.2020
3818 Clouds 2 1030 61 10000 3.6 40 11:56 23.01.2020
3819 Clouds 1 1030 64 9000 3.6 40 11:37 23.01.2020
3820 Clouds 1 1030 77 9000 3.6 40 11:18 23.01.2020
3821 Clouds 0 1031 86 9000 3.6 30 10:44 23.01.2020
3822 Clouds 0 1031 86 9000 3.6 30 10:44 23.01.2020
3823 Clouds 0 1031 86 8000 4.6 40 10:22 23.01.2020
3824 Clouds 0 1031 86 8000 4.6 40 10:22 23.01.2020
3825 Clouds 0 1031 86 7000 4.6 30 09:57 23.01.2020
3826 Clouds 0 1031 77 7000 4.1 20 09:36 23.01.2020
3827 Clouds -1 1031 77 7000 4.1 20 09:18 23.01.2020
3828 Clouds -1 1031 77 6000 4.6 30 08:41 23.01.2020
3829 Clouds -1 1031 92 6000 3.1 20 08:22 23.01.2020
3830 Clouds -1 1031 92 6000 3.1 20 07:45 23.01.2020
3831 Clouds -1 1031 92 6000 3.1 20 07:26 23.01.2020
3832 Mist -1 1031 92 5000 2.1 10 06:52 23.01.2020
3833 Mist -1 1031 92 4500 4.1 40 06:23 23.01.2020
3834 Mist -1 1031 86 5000 2.1 10 05:57 23.01.2020
3835 Clear -1 1031 63 6000 3.1 20 04:24 23.01.2020
3836 Mist -1 1033 92 5000 3.1 20 02:34 23.01.2020
3837 Mist -1 1033 92 5000 2.1 20 01:41 23.01.2020
3838 Mist -1 1034 92 4700 2.6 10 00:28 23.01.2020
3839 Mist -1 1034 92 4900 2.1 30 23:48 22.01.2020
3840 Mist -1 1034 92 4600 2.6 10 23:30 22.01.2020
3841 Mist 0 1034 59 4400 3.1 10 22:59 22.01.2020
3842 Mist 0 1034 59 4900 3.1 20 22:41 22.01.2020
3843 Mist 0 1034 59 4900 3.1 20 22:41 22.01.2020
3844 Mist 0 1034 59 4900 3.1 20 22:22 22.01.2020
3845 Mist 0 1034 59 4000 2.1 10 21:41 22.01.2020
3846 Mist 0 1034 59 4000 2.1 10 21:22 22.01.2020
3847 Mist 0 1034 59 4400 3.6 20 20:58 22.01.2020
3848 Mist 0 1034 65 3800 3.6 20 20:39 22.01.2020
3849 Mist 0 1034 61 3800 3.6 20 20:21 22.01.2020
3850 Mist 0 1034 61 5000 2.6 10 19:57 22.01.2020
3851 Clear 0 1034 61 6000 2.6 20 19:39 22.01.2020
3852 Clear 0 1034 61 6000 2.6 20 19:19 22.01.2020
3853 Clear 1 1034 61 7000 1.5 360 18:57 22.01.2020
3854 Clear 1 1034 86 8000 2.1 20 18:38 22.01.2020
3855 Clear 1 1034 61 7000 1.5 360 18:38 22.01.2020
3856 Clear 1 1034 86 8000 2.1 20 18:19 22.01.2020
3857 Clear 1 1034 80 10000 2.6 20 17:55 22.01.2020
3858 Clear 2 1034 74 10000 3.1 360 17:36 22.01.2020
3859 Clear 2 1034 74 10000 3.1 360 17:18 22.01.2020
3860 Clear 2 1034 74 10000 1.5 0 16:43 22.01.2020
3861 Clear 2 1034 74 10000 1.5 0 16:23 22.01.2020
3862 Clear 3 1034 80 10000 2.6 30 15:58 22.01.2020
3863 Clear 3 1035 86 6000 4.6 10 15:40 22.01.2020
3864 Clear 3 1035 86 6000 4.6 10 15:22 22.01.2020
3865 Clear 3 1034 74 9000 4.1 30 14:56 22.01.2020
3866 Clouds 3 1035 52 7000 4.6 360 14:36 22.01.2020
3867 Clouds 3 1035 54 7000 4.6 360 14:18 22.01.2020
3868 Mist 3 1036 80 5000 3.6 350 13:54 22.01.2020
3869 Mist 3 1036 54 5000 3.6 360 13:36 22.01.2020
3870 Mist 3 1036 54 5000 3.6 360 13:36 22.01.2020
3871 Mist 3 1036 56 5000 3.6 360 13:18 22.01.2020
3872 Clear 3 1035 74 8000 3.6 30 12:54 22.01.2020
3873 Clear 2 1036 56 6000 3.6 360 12:36 22.01.2020
3874 Clear 2 1036 56 6000 3.6 360 12:18 22.01.2020
3875 Mist 1 1036 92 5000 2.6 10 11:55 22.01.2020
3876 Mist 1 1036 86 4700 3.6 10 11:36 22.01.2020
3877 Mist 0 1036 86 4700 3.6 10 11:18 22.01.2020
3878 Mist -1 1036 92 4400 2.6 10 10:43 22.01.2020
3879 Mist -1 1036 92 2900 1 340 10:20 22.01.2020
3880 Mist -2 1036 92 3200 2.6 20 09:43 22.01.2020
3881 Mist -2 1036 92 3200 2.6 20 09:25 22.01.2020
3882 Mist -3 1036 92 3800 3.1 10 08:57 22.01.2020
3883 Mist -3 1036 92 3800 3.1 10 08:39 22.01.2020
3884 Clouds -3 1036 92 6000 2.1 360 08:21 22.01.2020
3885 Clouds -3 1036 86 6000 2.1 20 07:54 22.01.2020
3886 Clouds -3 1036 92 6000 1.5 30 07:36 22.01.2020
3887 Clouds -3 1036 92 6000 1.5 30 07:18 22.01.2020
3888 Clouds -2 1036 92 7000 1 0 06:30 22.01.2020
3889 Clouds -2 1036 86 7000 3.1 350 05:41 22.01.2020
3890 Clouds -2 1037 92 7000 2.1 350 04:18 22.01.2020
3891 Mist -2 1037 92 5000 2.1 350 03:22 22.01.2020
3892 Clear -2 1037 86 6000 1.38 62 01:44 22.01.2020
3893 Clear -1 1038 80 7000 2.1 360 00:44 22.01.2020
3894 Clear -1 1038 80 7000 3.1 350 00:26 22.01.2020
3895 Clear -1 1038 80 7000 1.5 340 23:39 21.01.2020
3896 Clear -1 1038 77 7000 1.5 340 23:21 21.01.2020
3897 Clear -1 1038 86 7000 2.04 37 22:59 21.01.2020
3898 Clear 0 1039 77 8000 1.5 350 22:39 21.01.2020
3899 Clear 0 1039 77 8000 1.5 350 22:20 21.01.2020
3900 Clear 0 1039 77 8000 2.6 360 21:56 21.01.2020
3901 Clear 0 1039 77 9000 2.1 10 21:37 21.01.2020
3902 Clear 0 1039 77 9000 2.1 10 21:19 21.01.2020
3903 Clear 0 1039 77 9000 2.1 10 21:19 21.01.2020
3904 Clear 0 1039 77 9000 2.1 360 20:55 21.01.2020
3905 Clear 0 1039 77 9000 2.1 360 20:37 21.01.2020
3906 Clear 0 1039 86 10000 1.5 30 20:18 21.01.2020
3907 Clear 1 1039 86 10000 1.5 30 19:55 21.01.2020
3908 Clear 1 1039 80 10000 2.1 360 19:37 21.01.2020
3909 Clear 1 1039 80 10000 2.1 360 19:18 21.01.2020
3910 Clear 1 1039 80 10000 2.1 360 18:55 21.01.2020
3911 Clear 2 1039 74 10000 1.5 20 18:36 21.01.2020
3912 Clear 2 1039 74 10000 1.5 20 18:18 21.01.2020
3913 Clear 3 1039 74 10000 2.6 20 17:42 21.01.2020
3914 Clear 3 1039 59 10000 3.1 30 17:19 21.01.2020
3915 Clear 4 1039 59 10000 2.6 30 16:57 21.01.2020
3916 Clear 4 1039 59 10000 3.6 20 16:36 21.01.2020
3917 Clear 4 1039 59 10000 3.6 20 16:36 21.01.2020
3918 Clear 4 1039 59 10000 3.6 20 16:18 21.01.2020
3919 Clear 4 1039 80 10000 3.6 360 15:40 21.01.2020
3920 Clear 5 1040 59 10000 3.1 360 15:20 21.01.2020
3921 Clear 4 1040 59 10000 2.6 350 14:58 21.01.2020
3922 Clear 4 1040 59 10000 3.1 360 14:37 21.01.2020
3923 Clear 4 1040 59 10000 3.1 360 14:19 21.01.2020
3924 Clear 4 1041 59 10000 2.6 340 13:39 21.01.2020
3925 Clear 3 1041 60 10000 3.1 350 13:19 21.01.2020
3926 Clear 3 1042 74 10000 2.1 50 12:43 21.01.2020
3927 Clear 3 1042 74 10000 2.1 50 12:25 21.01.2020
3928 Clear 2 1042 80 10000 2.1 60 11:57 21.01.2020
3929 Clear 2 1042 86 10000 1.5 30 11:38 21.01.2020
3930 Clear 1 1042 86 10000 1.5 30 11:20 21.01.2020
3931 Clear 0 1042 79 8000 1.5 350 10:44 21.01.2020
3932 Clear 0 1042 79 8000 1.5 350 10:24 21.01.2020
3933 Clear -1 1042 100 7000 1.5 360 09:59 21.01.2020
3934 Clear -1 1042 100 7000 1.5 360 09:41 21.01.2020
3935 Clear -1 1041 92 8000 2.1 340 09:22 21.01.2020
3936 Clear -1 1041 92 8000 2.1 340 09:22 21.01.2020
3937 Mist -1 1041 92 5000 1.5 350 08:48 21.01.2020
3938 Clear -1 1041 92 7000 1 360 08:29 21.01.2020
3939 Clear -1 1041 92 8000 2.1 350 07:57 21.01.2020
3940 Clear -1 1042 86 10000 1 0 07:38 21.01.2020
3941 Clear -1 1042 86 10000 1 0 07:20 21.01.2020
3942 Clear -1 1041 92 9000 1 350 06:45 21.01.2020
3943 Clear 0 1041 92 8000 0.5 0 06:25 21.01.2020
3944 Clear -1 1041 92 7000 0.5 0 05:41 21.01.2020
3945 Mist 0 1042 84 5000 2.1 20 04:39 21.01.2020
3946 Mist 1 1043 93 5000 3.1 10 02:56 21.01.2020
3947 Mist 1 1043 93 5000 3.6 20 01:51 21.01.2020
3948 Mist 2 1043 93 5000 3.6 20 00:57 21.01.2020
3949 Mist 2 1044 93 5000 4.1 10 00:35 21.01.2020
3950 Mist 2 1044 93 5000 3.1 20 23:58 20.01.2020
3951 Mist 2 1044 93 5000 3.6 20 23:38 20.01.2020
3952 Mist 2 1044 93 5000 3.6 20 23:19 20.01.2020
3953 Clouds 2 1044 93 6000 4.1 10 22:56 20.01.2020
3954 Clear 2 1044 93 6000 2.6 350 22:37 20.01.2020
3955 Clear 2 1044 93 6000 2.6 350 22:19 20.01.2020
3956 Clear 2 1044 93 8000 1.5 340 21:57 20.01.2020
3957 Clear 2 1044 93 9000 2.1 10 21:37 20.01.2020
3958 Clear 2 1044 93 9000 2.1 10 21:37 20.01.2020
3959 Clear 2 1044 93 9000 2.1 10 21:19 20.01.2020
3960 Clear 2 1044 93 8000 2.1 360 20:55 20.01.2020
3961 Clear 2 1044 93 9000 2.6 360 20:36 20.01.2020
3962 Clear 2 1044 93 9000 2.6 360 20:18 20.01.2020
3963 Clear 2 1044 93 9000 2.6 360 20:18 20.01.2020
3964 Clear 2 1044 93 9000 2.6 360 19:56 20.01.2020
3965 Clear 2 1044 93 10000 2.6 350 19:37 20.01.2020
3966 Clear 2 1044 93 10000 2.6 350 19:18 20.01.2020
3967 Clear 3 1044 86 10000 2.1 350 18:43 20.01.2020
3968 Clear 3 1044 86 10000 2.6 360 18:22 20.01.2020
3969 Clouds 4 1044 80 10000 3.6 360 17:41 20.01.2020
3970 Clouds 4 1044 80 10000 3.6 360 17:19 20.01.2020
3971 Clouds 5 1044 75 10000 4.1 360 16:58 20.01.2020
3972 Clear 5 1045 75 10000 2.6 10 16:37 20.01.2020
3973 Clear 5 1045 75 10000 2.6 10 16:18 20.01.2020
3974 Clear 5 1045 75 10000 2.6 10 16:18 20.01.2020
3975 Clear 5 1045 75 10000 2.6 10 16:18 20.01.2020
3976 Clear 5 1045 75 10000 3.6 10 15:54 20.01.2020
3977 Clear 5 1045 75 10000 4.1 360 15:36 20.01.2020
3978 Clear 5 1045 75 10000 4.1 360 15:18 20.01.2020
3979 Clear 5 1045 75 10000 4.6 360 14:41 20.01.2020
3980 Clear 5 1046 75 9000 5.1 10 14:22 20.01.2020
3981 Clear 5 1046 80 9000 5.1 10 13:58 20.01.2020
3982 Clear 5 1047 80 9000 3.6 20 13:40 20.01.2020
3983 Clear 5 1047 80 9000 3.6 20 13:21 20.01.2020
3984 Clouds 4 1047 86 9000 2.6 360 12:46 20.01.2020
3985 Clouds 4 1047 86 9000 2.6 360 12:28 20.01.2020
3986 Clouds 4 1048 67 8000 3.1 360 11:57 20.01.2020
3987 Clouds 3 1046 86 9000 4.6 30 11:38 20.01.2020
3988 Clouds 3 1047 86 8000 3.1 30 11:20 20.01.2020
3989 Clouds 2 1047 86 6000 2.6 10 10:48 20.01.2020
3990 Mist 2 1047 86 4400 2.6 360 10:22 20.01.2020
3991 Mist 2 1047 86 4400 2.6 360 10:22 20.01.2020
3992 Clouds 1 1047 86 7000 1.5 20 09:57 20.01.2020
3993 Clear 1 1047 86 9000 1 0 09:38 20.01.2020
3994 Clear 1 1047 86 9000 1 0 09:19 20.01.2020
3995 Clear 1 1046 86 10000 1.5 20 08:43 20.01.2020
3996 Clear 1 1046 87 10000 1.5 20 08:25 20.01.2020
3997 Clear 1 1046 88 10000 2.1 30 07:45 20.01.2020
3998 Clear 1 1046 86 10000 1.5 0 07:24 20.01.2020
3999 Clear 1 1046 86 10000 1 0 06:48 20.01.2020
4000 Clear 1 1046 88 10000 2.1 10 06:27 20.01.2020
4001 Clear 1 1045 88 10000 3.71 36 05:42 20.01.2020
4002 Clear 2 1045 86 10000 1 0 05:22 20.01.2020
4003 Clear 2 1045 84 10000 2.1 360 04:47 20.01.2020
4004 Clear 2 1046 84 10000 3.1 10 02:58 20.01.2020
4005 Clear 3 1046 81 10000 3.6 10 01:55 20.01.2020
4006 Clear 3 1046 81 10000 3.6 10 01:37 20.01.2020
4007 Clear 3 1046 80 10000 3.1 360 00:45 20.01.2020
4008 Clear 3 1046 80 10000 4.6 10 00:24 20.01.2020
4009 Clouds 4 1045 86 10000 3.1 360 23:39 19.01.2020
4010 Clouds 4 1045 86 10000 3.1 360 23:20 19.01.2020
4011 Clouds 4 1045 86 10000 3.1 360 23:20 19.01.2020
4012 Clear 4 1045 86 10000 3.6 10 22:57 19.01.2020
4013 Clear 4 1045 80 10000 3.1 10 22:39 19.01.2020
4014 Clear 4 1045 80 10000 3.1 10 22:20 19.01.2020
4015 Clear 4 1045 80 10000 3.1 360 21:57 19.01.2020
4016 Clouds 4 1045 80 10000 3.1 360 21:38 19.01.2020
4017 Clouds 4 1045 80 10000 3.1 360 21:20 19.01.2020
4018 Clouds 4 1044 80 10000 3.6 360 20:57 19.01.2020
4019 Clear 5 1044 75 10000 3.1 360 20:39 19.01.2020
4020 Clear 5 1044 75 10000 3.1 360 20:21 19.01.2020
4021 Clouds 5 1043 75 10000 2.6 350 19:57 19.01.2020
4022 Clouds 5 1043 75 10000 3.1 350 19:39 19.01.2020
4023 Clouds 5 1043 75 10000 3.1 350 19:21 19.01.2020
4024 Clear 5 1043 75 10000 2.6 360 18:59 19.01.2020
4025 Clear 5 1043 75 10000 2.6 360 18:41 19.01.2020
4026 Clouds 5 1042 75 10000 3.1 350 18:21 19.01.2020
4027 Clouds 6 1042 70 10000 3.1 10 17:59 19.01.2020
4028 Clouds 6 1042 65 10000 5.1 20 17:40 19.01.2020
4029 Clouds 6 1042 65 10000 5.1 20 17:22 19.01.2020
4030 Clouds 6 1041 65 10000 5.1 10 17:00 19.01.2020
4031 Clouds 7 1041 65 10000 5.1 20 16:40 19.01.2020
4032 Clouds 7 1041 65 10000 5.1 20 16:40 19.01.2020
4033 -273 0 0 0 0 0 16:22 19.01.2020
4034 Clouds 7 1041 65 10000 5.7 10 16:00 19.01.2020
4035 Clouds 7 1041 65 10000 5.1 20 15:40 19.01.2020
4036 Clouds 7 1041 65 10000 5.1 20 15:22 19.01.2020
4037 Clouds 7 1040 70 10000 5.1 10 14:59 19.01.2020
4038 Clouds 7 1040 70 10000 5.1 10 14:59 19.01.2020
4039 Clouds 7 1040 65 10000 5.7 10 14:40 19.01.2020
4040 Clouds 7 1040 65 10000 5.7 10 14:19 19.01.2020
4041 Clouds 6 1040 70 10000 5.1 10 13:58 19.01.2020
4042 Clouds 6 1040 70 10000 4.6 360 13:39 19.01.2020
4043 Clouds 6 1040 70 10000 5.1 10 13:39 19.01.2020
4044 Clouds 6 1040 70 10000 4.6 360 13:20 19.01.2020
4045 Clouds 6 1040 75 10000 4.6 350 12:58 19.01.2020
4046 Clouds 6 1040 75 10000 4.6 350 12:58 19.01.2020
4047 Clouds 6 1040 75 10000 4.6 350 12:58 19.01.2020
4048 Clouds 5 1041 80 10000 4.6 350 12:40 19.01.2020
4049 Clouds 5 1041 80 10000 4.6 350 12:40 19.01.2020
4050 Clouds 5 1041 80 10000 4.6 350 12:21 19.01.2020
4051 Clouds 5 1041 80 10000 3.6 350 11:57 19.01.2020
4052 Clouds 4 1040 80 10000 3.6 350 11:37 19.01.2020
4053 Clouds 4 1040 80 10000 3.6 350 11:18 19.01.2020
4054 Clouds 2 1040 86 10000 3.6 340 10:39 19.01.2020
4055 Clouds 2 1039 86 10000 3.1 340 10:20 19.01.2020
4056 Clouds 1 1039 80 10000 3.6 340 09:57 19.01.2020
4057 Clouds 1 1039 80 10000 3.6 340 09:38 19.01.2020
4058 Clouds 1 1038 80 10000 3.6 330 09:20 19.01.2020
4059 Clouds 1 1038 80 10000 3.1 330 08:55 19.01.2020
4060 Clouds 1 1037 88 10000 2.6 340 08:33 19.01.2020
4061 Clouds 1 1037 88 10000 2.1 350 07:55 19.01.2020
4062 Clouds 1 1037 88 10000 2.1 340 07:29 19.01.2020
4063 Clouds 1 1036 88 10000 2.6 340 06:55 19.01.2020
4064 Clouds 1 1036 88 10000 1.5 350 06:22 19.01.2020
4065 Clouds 0 1035 88 10000 1 320 04:18 19.01.2020
4066 Clouds 0 1034 88 10000 2.1 340 02:34 19.01.2020
4067 Clouds 1 1034 83 10000 1.5 330 01:43 19.01.2020
4068 Clouds 1 1034 84 10000 1.5 350 01:21 19.01.2020
4069 Clouds 1 1033 84 10000 1.5 340 00:45 19.01.2020
4070 Clouds 1 1033 93 9000 1.5 350 00:25 19.01.2020
4071 Clouds 1 1032 93 7000 1.5 350 23:55 18.01.2020
4072 Clouds 1 1032 93 7000 2.1 340 23:36 18.01.2020
4073 Clouds 1 1032 93 7000 2.1 340 23:18 18.01.2020
4074 Clouds 2 1032 93 7000 2.1 340 22:54 18.01.2020
4075 Clouds 2 1031 93 7000 2.1 350 22:36 18.01.2020
4076 Clouds 2 1031 93 7000 2.1 350 22:18 18.01.2020
4077 Clouds 3 1031 93 8000 1.5 340 21:55 18.01.2020
4078 Clouds 3 1031 93 10000 1.5 360 21:36 18.01.2020
4079 Clouds 3 1031 93 10000 1.5 360 21:18 18.01.2020
4080 Clouds 3 1030 86 10000 1.5 10 20:41 18.01.2020
4081 Clouds 3 1030 86 10000 1 340 20:19 18.01.2020
4082 Clear 4 1030 86 10000 1.5 360 19:54 18.01.2020
4083 Clear 4 1030 80 10000 2.1 10 19:36 18.01.2020
4084 Clear 4 1030 80 10000 2.1 10 19:18 18.01.2020
4085 Clear 5 1029 81 10000 2.1 340 18:40 18.01.2020
4086 Clear 5 1029 81 10000 2.1 340 18:21 18.01.2020
4087 Clouds 6 1029 81 10000 3.1 360 17:41 18.01.2020
4088 Clouds 6 1028 75 10000 2.6 350 17:21 18.01.2020
4089 Clear 7 1028 70 10000 3.1 340 16:57 18.01.2020
4090 Clouds 7 1027 75 10000 3.1 360 16:39 18.01.2020
4091 Clouds 8 1027 75 10000 3.1 360 16:21 18.01.2020
4092 Clouds 8 1028 75 10000 2.6 360 15:57 18.01.2020
4093 Clouds 8 1027 66 10000 3.6 320 15:39 18.01.2020
4094 Clouds 8 1027 66 10000 3.6 320 15:20 18.01.2020
4095 Clouds 8 1028 66 10000 1.5 0 14:42 18.01.2020
4096 Clouds 8 1028 66 10000 1.5 0 14:20 18.01.2020
4097 Clear 8 1028 70 10000 2.6 240 13:59 18.01.2020
4098 Clear 8 1028 70 10000 2.6 240 13:41 18.01.2020
4099 Clear 7 1028 70 10000 2.1 220 13:20 18.01.2020
4100 Clouds 7 1028 75 10000 2.1 220 12:55 18.01.2020
4101 Clouds 6 1028 75 10000 2.6 240 12:36 18.01.2020
4102 Clouds 6 1028 75 10000 2.6 240 12:18 18.01.2020
4103 Clouds 5 1028 80 10000 3.1 260 11:43 18.01.2020
4104 Clear 5 1028 80 10000 3.1 260 11:21 18.01.2020
4105 Clear 4 1028 80 10000 2.6 250 10:45 18.01.2020
4106 Clear 3 1028 86 10000 3.1 230 10:23 18.01.2020
4107 Clear 2 1028 86 10000 2.1 240 09:59 18.01.2020
4108 Clear 2 1028 86 10000 2.1 240 09:41 18.01.2020
4109 Clear 2 1027 81 10000 1 100 09:20 18.01.2020
4110 Clear 2 1027 81 10000 1 220 08:42 18.01.2020
4111 Clouds 2 1027 86 10000 2.6 240 08:20 18.01.2020
4112 Clouds 2 1026 86 10000 2.6 230 07:59 18.01.2020
4113 Clouds 2 1026 86 10000 2.6 230 07:40 18.01.2020
4114 Clouds 2 1026 86 10000 3.1 240 07:20 18.01.2020
4115 Clouds 2 1026 80 10000 4.1 240 06:45 18.01.2020
4116 Clouds 3 1026 80 10000 3.6 230 05:52 18.01.2020
4117 Clouds 4 1026 80 10000 3.6 260 04:28 18.01.2020
4118 Clouds 4 1025 75 10000 5.1 230 02:49 18.01.2020
4119 Clouds 4 1025 75 10000 3.6 210 01:40 18.01.2020
4120 Clouds 4 1025 75 10000 3.6 210 00:39 18.01.2020
4121 Clouds 4 1024 75 10000 4.6 210 00:20 18.01.2020
4122 Clouds 4 1024 75 10000 2.1 190 23:59 17.01.2020
4123 Clouds 4 1024 75 10000 2.1 190 23:40 17.01.2020
4124 Clouds 4 1024 75 10000 2.6 240 23:18 17.01.2020
4125 Clouds 4 1024 80 10000 2.6 240 22:42 17.01.2020
4126 Clouds 5 1024 80 10000 3.1 240 22:20 17.01.2020
4127 Clouds 5 1023 80 10000 3.6 230 21:57 17.01.2020
4128 Clouds 5 1023 80 10000 3.6 230 21:39 17.01.2020
4129 Clouds 5 1023 75 10000 4.1 240 21:20 17.01.2020
4130 Clouds 5 1023 75 10000 5.1 240 20:55 17.01.2020
4131 Clouds 5 1023 75 10000 5.7 240 20:36 17.01.2020
4132 Clouds 6 1022 75 10000 4.1 240 20:18 17.01.2020
4133 Clouds 6 1022 75 10000 4.1 240 19:54 17.01.2020
4134 Clouds 6 1022 75 10000 4.1 240 19:54 17.01.2020
4135 Rain 6 1023 75 10000 7.2 250 19:36 17.01.2020
4136 Rain 6 1023 75 10000 7.2 250 19:18 17.01.2020
4137 Rain 7 1021 70 10000 4.1 240 18:44 17.01.2020
4138 Rain 8 1021 70 10000 4.1 240 18:26 17.01.2020
4139 Rain 8 1021 70 10000 5.1 250 17:56 17.01.2020
4140 Rain 8 1020 66 10000 3.6 280 17:38 17.01.2020
4141 Clouds 8 1020 66 10000 3.6 280 17:20 17.01.2020
4142 Clouds 9 1020 66 10000 6.2 270 16:42 17.01.2020
4143 Rain 10 1019 61 10000 8.2 260 16:20 17.01.2020
4144 Clouds 10 1019 57 10000 7.7 250 15:48 17.01.2020
4145 Clouds 10 1018 57 10000 6.7 270 15:28 17.01.2020
4146 Clouds 10 1018 71 10000 7.7 290 14:57 17.01.2020
4147 Clouds 11 1018 58 10000 7.2 260 14:38 17.01.2020
4148 Clouds 11 1017 62 10000 6.2 260 14:20 17.01.2020
4149 Clouds 11 1017 66 10000 6.2 250 13:41 17.01.2020
4150 Clouds 11 1017 62 10000 7.7 230 13:22 17.01.2020
4151 Clouds 11 1017 62 10000 7.7 230 13:22 17.01.2020
4152 Clouds 11 1018 71 10000 5.7 240 12:46 17.01.2020
4153 Clouds 10 1017 76 10000 6.2 220 12:23 17.01.2020
4154 Clouds 10 1017 81 10000 6.2 210 11:41 17.01.2020
4155 Clouds 10 1017 87 10000 6.2 210 11:20 17.01.2020
4156 Rain 9 1017 87 10000 5.7 210 10:56 17.01.2020
4157 Rain 9 1016 87 10000 4.6 190 10:37 17.01.2020
4158 Rain 9 1016 87 10000 4.6 190 10:19 17.01.2020
4159 Clouds 9 1016 93 10000 5.7 190 09:43 17.01.2020
4160 Clouds 9 1016 93 10000 5.7 190 09:21 17.01.2020
4161 Clouds 9 1016 87 10000 5.7 180 08:58 17.01.2020
4162 Drizzle 9 1015 87 10000 6.7 190 08:40 17.01.2020
4163 Drizzle 8 1015 87 10000 6.7 190 08:21 17.01.2020
4164 Rain 9 1015 93 7000 4.1 200 07:46 17.01.2020
4165 Clouds 9 1015 93 10000 5.1 190 07:28 17.01.2020
4166 Rain 9 1015 87 10000 6.2 190 06:55 17.01.2020
4167 Rain 9 1015 93 10000 5.1 200 06:35 17.01.2020
4168 Clouds 10 1016 71 10000 6.2 180 04:32 17.01.2020
4169 Clouds 11 1016 66 10000 6.2 180 03:19 17.01.2020
4170 Clouds 10 1015 77 0 0.45 346 02:39 17.01.2020
4171 Clouds 11 1015 75 0 0.89 6 01:44 17.01.2020
4172 Clouds 11 1015 76 0 1.34 45 01:25 17.01.2020
4173 Clouds 11 1015 78 0 0.45 59 00:40 17.01.2020
4174 Clouds 10 1017 76 10000 3.1 160 00:19 17.01.2020
4175 Clouds 10 1017 76 10000 3.1 160 23:41 16.01.2020
4176 Clouds 10 1017 76 10000 3.1 160 23:22 16.01.2020
4177 Clouds 10 1017 71 10000 4.6 150 22:43 16.01.2020
4178 Clouds 10 1018 71 10000 3.6 150 22:22 16.01.2020
4179 Clouds 10 1018 71 10000 4.6 150 21:57 16.01.2020
4180 Clouds 10 1018 66 10000 5.7 150 21:38 16.01.2020
4181 Clouds 10 1018 66 10000 5.7 150 21:19 16.01.2020
4182 Clouds 10 1018 66 10000 6.7 150 20:58 16.01.2020
4183 Clouds 10 1018 66 10000 6.7 150 20:39 16.01.2020
4184 Clouds 11 1018 71 10000 5.1 150 20:20 16.01.2020
4185 Clouds 11 1019 71 10000 5.7 150 19:56 16.01.2020
4186 Clouds 11 1018 71 10000 5.1 150 19:38 16.01.2020
4187 Clouds 11 1018 71 10000 5.1 150 19:38 16.01.2020
4188 Clouds 11 1018 71 10000 5.1 150 19:20 16.01.2020
4189 Clouds 11 1018 66 10000 5.1 140 18:55 16.01.2020
4190 Clouds 11 1019 66 10000 5.7 140 18:37 16.01.2020
4191 Clouds 11 1019 66 10000 5.7 140 18:18 16.01.2020
4192 Clouds 12 1019 66 10000 5.7 140 17:55 16.01.2020
4193 Clouds 12 1019 62 10000 6.7 160 17:37 16.01.2020
4194 Clear 12 1019 62 10000 6.7 160 17:18 16.01.2020
4195 Clear 13 1020 58 10000 6.7 170 16:40 16.01.2020
4196 Clear 13 1020 58 10000 6.7 170 16:21 16.01.2020
4197 Clear 14 1020 62 10000 6.7 160 15:56 16.01.2020
4198 Clear 14 1020 58 10000 7.2 170 15:38 16.01.2020
4199 Clear 14 1020 58 10000 7.2 170 15:19 16.01.2020
4200 Clear 14 1020 62 10000 7.7 160 14:42 16.01.2020
4201 Clouds 13 1021 67 10000 6.7 160 14:23 16.01.2020
4202 Clouds 13 1021 71 10000 7.7 150 13:47 16.01.2020
4203 Clouds 12 1022 76 10000 7.7 160 13:29 16.01.2020
4204 Clouds 11 1023 81 10000 7.2 160 12:59 16.01.2020
4205 Clouds 11 1023 81 10000 6.2 170 12:40 16.01.2020
4206 Clouds 10 1023 81 10000 6.2 170 12:21 16.01.2020
4207 Clouds 9 1023 87 10000 5.7 170 11:43 16.01.2020
4208 Clouds 8 1024 93 10000 4.1 150 11:24 16.01.2020
4209 Clouds 7 1024 93 10000 3.6 140 10:57 16.01.2020
4210 Clouds 6 1024 100 10000 2.1 140 10:37 16.01.2020
4211 Clouds 6 1024 100 10000 2.1 140 10:19 16.01.2020
4212 Mist 5 1024 93 3700 3.6 130 09:44 16.01.2020
4213 Mist 5 1024 93 3700 3.6 130 09:24 16.01.2020
4214 Mist 5 1025 93 1500 2.6 130 08:59 16.01.2020
4215 Mist 5 1025 100 1000 3.1 140 08:41 16.01.2020
4216 Mist 5 1025 100 1000 3.1 140 08:20 16.01.2020
4217 Fog 5 1025 100 1000 2.6 140 07:43 16.01.2020
4218 Fog 4 1024 100 550 3.1 140 07:24 16.01.2020
4219 Mist 4 1025 100 2500 2.6 90 06:55 16.01.2020
4220 Mist 4 1025 93 1400 3.6 70 06:35 16.01.2020
4221 Fog 4 1025 93 1000 3.6 70 05:56 16.01.2020
4222 Mist 3 1025 100 1200 3.1 60 05:25 16.01.2020
4223 Fog 3 1025 100 700 1.5 120 04:23 16.01.2020
4224 Mist 4 1024 100 3200 1.5 130 03:27 16.01.2020
4225 Clouds 4 1024 100 6000 1 0 02:24 16.01.2020
4226 Fog 4 1024 93 6000 2.02 180 00:44 16.01.2020
4227 Clear 5 1024 93 7000 0.5 130 00:24 16.01.2020
4228 Clear 5 1023 87 10000 2.02 180 23:46 15.01.2020
4229 Clear 5 1023 87 10000 2.02 180 23:46 15.01.2020
4230 Clear 6 1023 93 10000 1.91 236 23:22 15.01.2020
4231 Clear 6 1023 93 10000 1 260 22:57 15.01.2020
4232 Clear 7 1022 93 10000 2.1 250 22:39 15.01.2020
4233 Clear 7 1022 93 10000 2.1 250 22:19 15.01.2020
4234 Clear 7 1022 87 10000 2.1 260 21:57 15.01.2020
4235 Clouds 8 1021 87 10000 2.1 270 21:37 15.01.2020
4236 Clouds 8 1021 87 10000 2.1 270 21:37 15.01.2020
4237 Clouds 8 1021 87 10000 2.1 270 21:19 15.01.2020
4238 Clouds 8 1021 87 10000 2.6 240 20:57 15.01.2020
4239 Clouds 9 1021 87 10000 2.6 240 20:39 15.01.2020
4240 Clear 9 1020 87 10000 2.1 240 20:39 15.01.2020
4241 Rain 9 1020 87 10000 2.1 240 20:20 15.01.2020
4242 Clouds 9 1019 87 10000 3.6 230 19:55 15.01.2020
4243 Drizzle 10 1019 87 10000 3.1 220 19:37 15.01.2020
4244 Drizzle 10 1019 87 10000 3.1 220 19:18 15.01.2020
4245 Rain 10 1018 87 10000 3.6 210 18:56 15.01.2020
4246 Rain 11 1018 87 8000 5.1 230 18:38 15.01.2020
4247 Rain 11 1018 87 8000 5.1 230 18:19 15.01.2020
4248 Rain 11 1018 87 8000 5.1 230 18:19 15.01.2020
4249 Rain 11 1017 66 10000 5.7 230 17:56 15.01.2020
4250 Rain 12 1017 66 10000 5.7 230 17:37 15.01.2020
4251 Clouds 12 1016 66 10000 6.2 220 17:18 15.01.2020
4252 Clouds 12 1015 66 10000 8.2 210 16:40 15.01.2020
4253 Clouds 12 1015 66 10000 8.2 210 16:22 15.01.2020
4254 Rain 12 1014 66 10000 8.7 210 15:57 15.01.2020
4255 Clouds 12 1013 62 10000 9.3 200 15:39 15.01.2020
4256 Clouds 12 1013 62 10000 9.3 200 15:19 15.01.2020
4257 Rain 12 1013 62 10000 8.2 200 14:43 15.01.2020
4258 Clouds 12 1013 58 10000 9.3 200 14:20 15.01.2020
4259 Clouds 12 1013 58 10000 9.3 200 13:55 15.01.2020
4260 Clouds 12 1013 62 10000 10.8 200 13:37 15.01.2020
4261 Clouds 12 1013 62 10000 10.8 200 13:18 15.01.2020
4262 Clouds 11 1012 58 10000 9.3 200 12:41 15.01.2020
4263 Clouds 11 1012 62 10000 10.8 190 12:20 15.01.2020
4264 Clouds 11 1012 62 10000 10.3 190 11:58 15.01.2020
4265 Clouds 11 1012 62 10000 9.3 190 11:38 15.01.2020
4266 Clouds 11 1012 62 10000 9.3 190 11:19 15.01.2020
4267 Clouds 10 1011 62 10000 9.3 180 10:46 15.01.2020
4268 Clouds 10 1011 66 10000 8.7 180 10:28 15.01.2020
4269 Clouds 9 1011 66 10000 8.2 180 09:55 15.01.2020
4270 Clouds 9 1011 66 10000 8.2 180 09:37 15.01.2020
4271 Clouds 9 1011 66 10000 8.2 180 09:19 15.01.2020
4272 Clouds 9 1011 66 10000 8.2 190 08:44 15.01.2020
4273 Clouds 9 1011 66 10000 8.2 190 08:24 15.01.2020
4274 Clouds 9 1011 70 10000 8.7 180 07:54 15.01.2020
4275 Clouds 9 1011 70 10000 9.3 180 07:33 15.01.2020
4276 Clouds 9 1011 70 10000 8.7 180 06:49 15.01.2020
4277 Clouds 9 1011 70 10000 8.7 190 06:26 15.01.2020
4278 Clouds 9 1011 71 10000 7.2 180 04:56 15.01.2020
4279 Clouds 10 1011 66 10000 7.7 180 02:48 15.01.2020
4280 Clouds 10 1011 71 10000 6.7 190 01:48 15.01.2020
4281 Clouds 10 1011 71 10000 6.2 180 01:20 15.01.2020
4282 Clouds 10 1012 66 10000 6.7 180 00:37 15.01.2020
4283 Clouds 10 1012 66 10000 6.7 180 00:19 15.01.2020
4284 Clouds 10 1012 71 10000 7.7 180 23:46 14.01.2020
4285 Clouds 10 1011 76 10000 8.2 190 23:24 14.01.2020
4286 Clouds 10 1012 76 10000 8.2 190 22:57 14.01.2020
4287 Clouds 10 1012 76 10000 8.2 190 22:38 14.01.2020
4288 Clouds 10 1011 76 10000 8.2 200 22:18 14.01.2020
4289 Clouds 10 1011 76 10000 8.2 200 21:56 14.01.2020
4290 Rain 10 1011 81 10000 6.7 210 21:37 14.01.2020
4291 Clouds 10 1011 66 10000 9.3 200 21:19 14.01.2020
4292 Clouds 11 1011 66 10000 8.2 210 20:42 14.01.2020
4293 Clouds 11 1010 58 10000 11.8 200 20:23 14.01.2020
4294 Clouds 11 1010 58 10000 11.8 200 19:57 14.01.2020
4295 Clouds 11 1010 58 10000 10.3 200 19:39 14.01.2020
4296 Clouds 11 1010 58 10000 10.3 200 19:21 14.01.2020
4297 Clouds 12 1010 62 10000 9.3 200 18:59 14.01.2020
4298 Clouds 12 1010 62 10000 11.3 200 18:40 14.01.2020
4299 Clouds 12 1010 71 10000 7.7 210 18:20 14.01.2020
4300 Clouds 11 1010 71 10000 7.7 210 17:55 14.01.2020
4301 Clouds 11 1010 62 10000 10.3 200 17:36 14.01.2020
4302 Clouds 11 1010 62 10000 10.3 200 17:18 14.01.2020
4303 Clouds 11 1009 66 10000 9.8 200 16:42 14.01.2020
4304 Clouds 11 1009 66 10000 9.3 200 16:22 14.01.2020
4305 Clouds 11 1009 71 10000 10.3 200 15:56 14.01.2020
4306 Rain 11 1009 81 10000 9.3 210 15:38 14.01.2020
4307 Rain 11 1009 81 10000 9.3 210 15:18 14.01.2020
4308 Clouds 11 1009 71 10000 8.7 200 15:18 14.01.2020
4309 Clouds 11 1009 81 10000 9.8 220 14:43 14.01.2020
4310 Clouds 11 1009 81 10000 9.8 210 14:20 14.01.2020
4311 Rain 11 1009 76 10000 9.3 200 13:54 14.01.2020
4312 Clouds 10 1009 71 10000 9.3 200 13:36 14.01.2020
4313 Clouds 11 1009 71 10000 9.3 200 13:18 14.01.2020
4314 Clouds 10 1009 66 10000 9.3 200 12:41 14.01.2020
4315 Clouds 10 1009 66 10000 9.3 200 12:20 14.01.2020
4316 Clouds 10 1009 66 10000 8.7 190 11:43 14.01.2020
4317 Clouds 10 1009 66 10000 8.7 190 11:23 14.01.2020
4318 Clouds 10 1009 70 10000 7.7 210 10:59 14.01.2020
4319 Clouds 10 1009 62 10000 9.3 190 10:40 14.01.2020
4320 Clouds 10 1009 62 10000 9.3 190 10:20 14.01.2020
4321 Clouds 10 1009 62 10000 9.8 190 09:58 14.01.2020
4322 Clouds 9 1009 70 10000 7.2 210 09:40 14.01.2020
4323 Clouds 9 1009 70 10000 7.2 210 09:20 14.01.2020
4324 Clouds 9 1008 71 10000 9.8 200 08:48 14.01.2020
4325 Clouds 9 1008 66 10000 8.2 200 08:25 14.01.2020
4326 Clouds 9 1008 66 10000 8.2 210 07:53 14.01.2020
4327 Clouds 10 1008 62 10000 9.3 200 07:33 14.01.2020
4328 Clouds 10 1007 62 10000 9.3 200 06:56 14.01.2020
4329 Clouds 10 1007 62 10000 9.8 200 06:33 14.01.2020
4330 Clouds 9 1007 70 10000 8.7 210 05:28 14.01.2020
4331 Clouds 9 1008 70 10000 7.7 210 03:52 14.01.2020
4332 Clouds 9 1008 70 10000 7.7 210 03:52 14.01.2020
4333 Clouds 9 1008 66 10000 9.3 190 02:50 14.01.2020
4334 Clouds 9 1009 66 10000 9.3 190 01:56 14.01.2020
4335 Clouds 9 1009 70 10000 7.2 200 00:53 14.01.2020
4336 Clouds 9 1009 71 10000 7.7 180 00:35 14.01.2020
4337 Clouds 9 1009 71 10000 8.2 180 23:56 13.01.2020
4338 Clouds 10 1010 76 10000 7.7 190 23:37 13.01.2020
4339 Clouds 10 1010 76 10000 7.7 190 23:18 13.01.2020
4340 Clouds 10 1010 81 10000 6.7 190 22:43 13.01.2020
4341 Clouds 10 1010 76 10000 7.2 190 22:22 13.01.2020
4342 Clouds 10 1011 76 10000 7.2 190 21:58 13.01.2020
4343 Clouds 9 1011 76 10000 7.2 180 21:38 13.01.2020
4344 Clouds 9 1011 76 10000 7.2 180 21:19 13.01.2020
4345 Clouds 9 1011 81 10000 7.7 180 20:59 13.01.2020
4346 Clouds 9 1011 81 10000 7.7 180 20:41 13.01.2020
4347 Clouds 9 1011 81 10000 9.3 180 20:22 13.01.2020
4348 Clouds 9 1011 81 10000 9.3 180 20:22 13.01.2020
4349 Clouds 9 1011 81 10000 9.3 180 20:22 13.01.2020
4350 Clouds 10 1011 87 10000 8.7 180 19:59 13.01.2020
4351 Clouds 10 1012 87 10000 8.2 180 19:40 13.01.2020
4352 Clouds 10 1012 87 10000 8.2 180 19:20 13.01.2020
4353 Clouds 10 1012 87 10000 7.7 180 18:58 13.01.2020
4354 Clouds 10 1012 81 10000 7.2 180 18:37 13.01.2020
4355 Clouds 10 1012 81 10000 7.2 180 18:19 13.01.2020
4356 Clouds 10 1013 81 10000 7.7 190 17:55 13.01.2020
4357 Clouds 10 1013 81 10000 7.2 190 17:36 13.01.2020
4358 Clouds 10 1013 81 10000 7.2 190 17:18 13.01.2020
4359 Clouds 9 1013 81 10000 6.7 180 16:40 13.01.2020
4360 Clouds 9 1013 90 0 0.45 336 16:22 13.01.2020
4361 Clouds 9 1013 91 0 2.24 20 15:56 13.01.2020
4362 Clouds 9 1013 91 0 2.24 346 15:38 13.01.2020
4363 Clouds 9 1014 92 0 1.34 11 15:19 13.01.2020
4364 Clouds 9 1014 92 0 0.89 90 14:43 13.01.2020
4365 Clouds 9 1014 92 0 0.89 5 14:24 13.01.2020
4366 Clouds 8 1014 92 0 0.45 286 13:59 13.01.2020
4367 Clouds 8 1015 92 0 0.89 321 13:40 13.01.2020
4368 Rain 8 1015 92 0 0.45 27 13:21 13.01.2020
4369 Clouds 8 1019 87 10000 6.2 180 12:56 13.01.2020
4370 Clouds 8 1019 87 10000 6.2 180 12:38 13.01.2020
4371 Clouds 8 1019 87 10000 6.2 180 12:20 13.01.2020
4372 Clouds 8 1019 87 10000 6.2 180 12:19 13.01.2020
4373 Clouds 8 1019 87 10000 6.2 180 12:19 13.01.2020
4374 Clouds 8 1019 87 10000 6.2 180 11:39 13.01.2020
4375 Clouds 8 1020 87 10000 5.1 190 11:20 13.01.2020
4376 Clouds 8 1020 87 10000 5.7 190 10:57 13.01.2020
4377 Clouds 7 1020 87 10000 3.6 170 10:39 13.01.2020
4378 Clouds 7 1020 87 10000 3.6 170 10:20 13.01.2020
4379 Clouds 7 1020 87 10000 3.6 170 10:20 13.01.2020
4380 Clouds 7 1020 87 10000 4.6 190 09:58 13.01.2020
4381 Clouds 7 1020 87 10000 3.6 170 09:40 13.01.2020
4382 Clouds 7 1020 93 10000 3.6 200 09:21 13.01.2020
4383 Clouds 7 1020 87 10000 3.6 170 08:41 13.01.2020
4384 Clouds 7 1020 87 10000 3.6 170 08:20 13.01.2020
4385 Clouds 6 1021 87 10000 3.6 160 07:52 13.01.2020
4386 Clouds 7 1021 87 10000 4.1 180 07:33 13.01.2020
4387 Clouds 7 1021 87 10000 2.6 170 06:43 13.01.2020
4388 Clouds 7 1022 81 10000 2.6 210 06:22 13.01.2020
4389 Clouds 7 1022 100 10000 2.6 220 05:36 13.01.2020
4390 Clouds 8 1023 81 10000 3.1 200 03:57 13.01.2020
4391 Clouds 8 1024 87 10000 4.1 190 03:26 13.01.2020
4392 Clouds 8 1024 87 10000 3.6 190 02:47 13.01.2020
4393 Clouds 8 1024 87 10000 3.1 200 02:29 13.01.2020
4394 Clouds 8 1025 87 10000 1.5 200 01:22 13.01.2020
4395 Clouds 8 1025 87 10000 1.5 200 01:22 13.01.2020
4396 Clouds 8 1025 87 10000 3.1 210 00:42 13.01.2020
4397 Clouds 8 1025 87 10000 4.1 190 00:24 13.01.2020
4398 Clouds 8 1025 87 10000 1.5 170 23:55 12.01.2020
4399 Rain 8 1025 87 10000 2.6 180 23:36 12.01.2020
4400 Rain 8 1025 87 10000 2.6 180 23:18 12.01.2020
4401 Rain 8 1025 87 10000 2.6 180 23:18 12.01.2020
4402 Clouds 8 1025 93 8000 3.1 220 22:42 12.01.2020
4403 Clouds 8 1025 93 8000 3.1 220 22:24 12.01.2020
4404 Clouds 8 1025 93 10000 2.6 220 21:57 12.01.2020
4405 Clouds 8 1026 87 10000 3.1 190 21:38 12.01.2020
4406 Clouds 8 1026 87 10000 3.1 190 21:19 12.01.2020
4407 Clouds 8 1026 87 10000 1.5 230 20:56 12.01.2020
4408 Clouds 8 1026 87 10000 3.1 210 20:38 12.01.2020
4409 Clouds 8 1026 87 10000 3.1 210 20:20 12.01.2020
4410 Clouds 8 1026 87 10000 4.1 190 19:56 12.01.2020
4411 Clouds 8 1026 87 10000 4.1 190 19:38 12.01.2020
4412 Clouds 8 1026 87 10000 3.6 210 19:18 12.01.2020
4413 Rain 8 1025 81 10000 4.1 210 18:57 12.01.2020
4414 Rain 8 1025 81 10000 4.1 210 18:57 12.01.2020
4415 Rain 8 1025 81 10000 4.1 210 18:39 12.01.2020
4416 Clouds 8 1025 81 10000 2.6 200 18:21 12.01.2020
4417 Clouds 9 1025 81 10000 4.1 200 17:55 12.01.2020
4418 Clouds 9 1025 81 10000 4.6 200 17:37 12.01.2020
4419 Clouds 9 1025 81 10000 4.6 200 17:18 12.01.2020
4420 Clouds 9 1025 81 10000 4.1 190 16:54 12.01.2020
4421 Clouds 9 1025 81 10000 3.6 200 16:36 12.01.2020
4422 Clouds 9 1025 81 10000 3.6 200 16:18 12.01.2020
4423 Clouds 9 1025 76 10000 3.6 190 15:42 12.01.2020
4424 Clouds 9 1024 76 10000 4.1 190 15:23 12.01.2020
4425 Clouds 9 1025 81 10000 5.7 210 14:55 12.01.2020
4426 Clouds 9 1025 81 10000 5.1 210 14:36 12.01.2020
4427 Clouds 9 1025 81 10000 5.1 210 14:18 12.01.2020
4428 Clouds 9 1025 76 10000 5.1 210 13:42 12.01.2020
4429 Clouds 8 1025 76 10000 5.1 210 13:23 12.01.2020
4430 Clouds 8 1025 76 10000 4.1 200 12:58 12.01.2020
4431 Clouds 8 1026 81 10000 4.6 190 12:38 12.01.2020
4432 Clouds 8 1026 81 10000 4.6 190 12:19 12.01.2020
4433 Clouds 7 1026 75 10000 4.1 190 11:55 12.01.2020
4434 Clouds 7 1026 75 10000 5.1 200 11:36 12.01.2020
4435 Clouds 7 1026 75 10000 5.1 200 11:18 12.01.2020
4436 Clouds 6 1025 75 10000 5.1 190 10:41 12.01.2020
4437 Clouds 6 1025 75 10000 5.1 190 10:21 12.01.2020
4438 Clouds 6 1025 81 10000 4.1 170 09:56 12.01.2020
4439 Clouds 5 1025 80 10000 4.6 160 09:38 12.01.2020
4440 Clouds 5 1025 80 10000 4.6 160 09:18 12.01.2020
4441 Clouds 5 1025 80 10000 5.7 180 08:42 12.01.2020
4442 Clouds 4 1025 86 10000 4.1 170 08:19 12.01.2020
4443 Clouds 4 1026 80 10000 3.1 160 07:40 12.01.2020
4444 Clouds 4 1026 80 10000 3.1 160 07:21 12.01.2020
4445 Clouds 4 1026 80 10000 4.1 180 06:43 12.01.2020
4446 Clouds 5 1026 80 10000 5.1 180 06:24 12.01.2020
4447 Clouds 5 1027 75 10000 4.1 180 05:23 12.01.2020
4448 Clouds 4 1027 70 10000 5.1 190 03:55 12.01.2020
4449 Clouds 4 1027 75 10000 4.1 190 03:22 12.01.2020
4450 Clouds 4 1028 80 10000 3.1 200 02:33 12.01.2020
4451 Clouds 3 1028 80 10000 3.1 180 01:43 12.01.2020
4452 Clouds 3 1028 86 10000 3.6 160 01:22 12.01.2020
4453 Clouds 3 1028 86 10000 3.1 170 00:41 12.01.2020
4454 Clouds 3 1029 80 10000 3.6 170 00:20 12.01.2020
4455 Clouds 3 1029 80 10000 3.1 170 23:42 11.01.2020
4456 Clouds 3 1029 80 10000 3.1 170 23:42 11.01.2020
4457 Clouds 3 1029 80 10000 2.1 150 23:19 11.01.2020
4458 Clouds 3 1030 80 10000 2.6 150 22:58 11.01.2020
4459 Clouds 3 1030 80 10000 2.6 150 22:40 11.01.2020
4460 Clouds 4 1030 80 10000 3.1 170 22:20 11.01.2020
4461 Clouds 4 1030 75 10000 3.1 180 21:58 11.01.2020
4462 Clouds 4 1030 75 10000 3.1 180 21:40 11.01.2020
4463 Clouds 4 1030 75 10000 2.6 200 21:18 11.01.2020
4464 Clouds 4 1031 70 10000 3.6 180 20:41 11.01.2020
4465 Clouds 4 1031 70 10000 3.6 180 20:22 11.01.2020
4466 Clouds 4 1031 70 10000 3.1 190 19:58 11.01.2020
4467 Clouds 4 1031 70 10000 3.1 190 19:39 11.01.2020
4468 Clouds 5 1031 75 10000 3.1 190 19:21 11.01.2020
4469 Clouds 5 1031 70 10000 3.6 180 18:59 11.01.2020
4470 Clouds 5 1031 70 10000 3.6 180 18:39 11.01.2020
4471 Clouds 5 1031 65 10000 3.6 180 18:20 11.01.2020
4472 Clouds 6 1031 65 10000 4.1 190 17:58 11.01.2020
4473 Clouds 6 1031 65 10000 4.1 190 17:39 11.01.2020
4474 Clouds 6 1031 65 10000 4.1 190 17:19 11.01.2020
4475 Clouds 7 1031 61 10000 5.1 190 16:46 11.01.2020
4476 Clouds 7 1031 61 10000 4.6 190 16:46 11.01.2020
4477 Clouds 7 1031 61 10000 5.1 190 16:27 11.01.2020
4478 Clouds 8 1031 61 10000 3.6 200 15:59 11.01.2020
4479 Clouds 8 1031 61 10000 3.6 200 15:41 11.01.2020
4480 Clouds 8 1031 61 10000 5.1 210 15:22 11.01.2020
4481 Clouds 8 1031 61 10000 5.1 210 14:58 11.01.2020
4482 Clouds 8 1031 61 10000 5.1 210 14:58 11.01.2020
4483 Clouds 8 1032 61 10000 4.6 200 14:39 11.01.2020
4484 Clouds 8 1032 61 10000 4.6 200 14:39 11.01.2020
4485 Clouds 8 1032 61 10000 4.6 200 14:21 11.01.2020
4486 Clouds 8 1032 61 10000 5.7 200 13:55 11.01.2020
4487 Clouds 8 1032 57 10000 6.2 190 13:36 11.01.2020
4488 Clouds 8 1032 57 10000 6.2 190 13:18 11.01.2020
4489 Clouds 7 1033 61 10000 4.6 190 12:41 11.01.2020
4490 Clouds 7 1033 61 10000 4.6 190 12:23 11.01.2020
4491 Clouds 6 1033 65 10000 5.7 190 11:48 11.01.2020
4492 Clouds 6 1034 65 10000 4.6 190 11:27 11.01.2020
4493 Clouds 5 1034 70 10000 4.1 190 10:59 11.01.2020
4494 Clouds 4 1034 80 10000 2.1 170 10:40 11.01.2020
4495 Clouds 4 1034 80 10000 2.1 170 10:40 11.01.2020
4496 Clouds 4 1034 80 10000 2.1 170 10:22 11.01.2020
4497 Clouds 3 1033 80 10000 2.1 180 09:39 11.01.2020
4498 Clouds 3 1033 80 10000 2.1 180 09:21 11.01.2020
4499 Clouds 3 1033 80 10000 2.6 160 08:43 11.01.2020
4500 Clouds 3 1033 86 10000 2.6 160 08:22 11.01.2020
4501 Clouds 3 1033 86 10000 3.6 150 07:44 11.01.2020
4502 Clouds 3 1033 86 10000 3.6 150 07:26 11.01.2020
4503 Clouds 3 1033 86 10000 2.6 150 06:55 11.01.2020
4504 Clouds 3 1033 93 10000 2.1 130 06:22 11.01.2020
4505 Clouds 4 1034 86 10000 0.5 0 04:48 11.01.2020
4506 Clouds 4 1034 93 10000 1.55 238 04:30 11.01.2020
4507 Clouds 3 1034 86 10000 1 240 03:58 11.01.2020
4508 Clouds 4 1034 86 10000 1 150 02:43 11.01.2020
4509 Clouds 5 1034 75 10000 1.5 260 01:44 11.01.2020
4510 Clouds 5 1034 75 10000 1.5 290 01:21 11.01.2020
4511 Clouds 5 1033 75 10000 1 0 00:46 11.01.2020
4512 Clouds 5 1033 75 10000 1 0 00:20 11.01.2020
4513 Clouds 6 1033 75 10000 1.5 0 23:41 10.01.2020
4514 Clouds 6 1033 75 10000 2.1 290 23:22 10.01.2020
4515 Clouds 6 1033 75 10000 2.1 270 22:59 10.01.2020
4516 Clouds 6 1032 75 10000 2.6 270 22:41 10.01.2020
4517 Clouds 6 1032 75 10000 2.6 270 22:21 10.01.2020
4518 Clouds 6 1032 81 10000 1 250 21:58 10.01.2020
4519 Clouds 6 1031 81 10000 0.5 130 21:39 10.01.2020
4520 Clouds 6 1031 81 10000 0.5 130 21:20 10.01.2020
4521 Clouds 6 1031 81 10000 1.05 278 20:56 10.01.2020
4522 Clouds 6 1031 81 10000 1 0 20:38 10.01.2020
4523 Clouds 6 1031 81 10000 1 0 20:19 10.01.2020
4524 Clouds 7 1031 75 10000 2.6 320 19:40 10.01.2020
4525 Clouds 7 1030 81 10000 3.6 320 19:20 10.01.2020
4526 Clouds 7 1030 81 10000 2.6 320 18:55 10.01.2020
4527 Clouds 7 1030 75 10000 2.6 290 18:36 10.01.2020
4528 Clouds 7 1030 75 10000 2.6 290 18:18 10.01.2020
4529 Clouds 7 1029 70 10000 2.6 310 18:18 10.01.2020
4530 Clouds 7 1029 70 10000 2.6 310 17:56 10.01.2020
4531 Clouds 7 1029 70 10000 3.1 320 17:37 10.01.2020
4532 Clouds 7 1029 70 10000 3.1 320 17:19 10.01.2020
4533 Clouds 7 1028 75 10000 2.6 320 16:41 10.01.2020
4534 Clouds 7 1028 75 10000 2.6 320 16:21 10.01.2020
4535 Clouds 8 1027 75 10000 3.1 340 15:56 10.01.2020
4536 Clouds 8 1026 70 10000 4.1 310 15:38 10.01.2020
4537 Clouds 8 1026 70 10000 4.1 310 15:19 10.01.2020
4538 Clouds 8 1026 75 10000 4.1 300 14:58 10.01.2020
4539 Clouds 8 1026 75 10000 3.6 300 14:40 10.01.2020
4540 Clouds 8 1026 75 10000 4.1 300 14:19 10.01.2020
4541 Clouds 8 1026 75 10000 4.1 300 13:56 10.01.2020
4542 Clouds 8 1025 75 10000 4.1 310 13:37 10.01.2020
4543 Clouds 8 1025 75 10000 4.1 310 13:18 10.01.2020
4544 Clouds 8 1025 75 10000 3.6 310 12:56 10.01.2020
4545 Clouds 7 1024 81 10000 3.1 300 12:38 10.01.2020
4546 Clouds 8 1024 81 10000 3.1 300 12:18 10.01.2020
4547 Rain 7 1024 81 10000 3.6 290 11:42 10.01.2020
4548 Rain 7 1023 81 10000 4.1 300 11:22 10.01.2020
4549 Rain 7 1022 81 10000 5.1 290 10:59 10.01.2020
4550 Clouds 7 1021 81 10000 4.6 290 10:38 10.01.2020
4551 Clouds 7 1021 81 10000 4.6 290 10:20 10.01.2020
4552 Rain 8 1020 81 10000 4.6 290 09:55 10.01.2020
4553 Rain 8 1019 76 10000 5.7 310 09:36 10.01.2020
4554 Rain 8 1019 76 10000 5.7 310 09:18 10.01.2020
4555 Clouds 8 1017 87 10000 4.6 290 08:40 10.01.2020
4556 Clouds 8 1017 87 10000 4.6 290 08:21 10.01.2020
4557 Clouds 9 1016 93 10000 6.2 300 07:44 10.01.2020
4558 Clouds 9 1015 81 10000 4.6 290 07:23 10.01.2020
4559 Clouds 9 1014 93 10000 3.1 280 06:45 10.01.2020
4560 Rain 9 1013 87 10000 3.1 270 06:25 10.01.2020
4561 Rain 9 1012 93 10000 2.6 220 05:46 10.01.2020
4562 Rain 9 1011 87 10000 5.7 180 03:35 10.01.2020
4563 Rain 9 1011 87 10000 6.2 180 02:59 10.01.2020
4564 Rain 9 1011 87 10000 6.2 180 02:39 10.01.2020
4565 Clouds 10 1010 87 10000 5.7 180 01:38 10.01.2020
4566 Clouds 10 1010 87 10000 5.7 180 01:19 10.01.2020
4567 Clouds 10 1011 76 10000 6.2 180 00:39 10.01.2020
4568 Clouds 10 1011 76 10000 5.7 190 23:58 09.01.2020
4569 Clouds 10 1011 76 10000 7.2 200 23:38 09.01.2020
4570 Clouds 10 1011 76 10000 7.2 200 23:20 09.01.2020
4571 Rain 10 1011 81 10000 7.7 200 22:57 09.01.2020
4572 Rain 10 1011 81 10000 7.2 190 22:38 09.01.2020
4573 Rain 10 1011 81 10000 7.2 190 22:19 09.01.2020
4574 Clouds 10 1011 87 10000 6.7 190 21:57 09.01.2020
4575 Clouds 10 1011 93 10000 6.7 200 21:37 09.01.2020
4576 Clouds 10 1011 93 10000 6.7 200 21:37 09.01.2020
4577 Clouds 10 1011 93 10000 6.7 200 21:37 09.01.2020
4578 Clouds 10 1011 93 10000 6.7 200 21:19 09.01.2020
4579 Clouds 10 1010 87 10000 7.2 180 20:57 09.01.2020
4580 Clouds 10 1010 87 10000 7.2 180 20:39 09.01.2020
4581 Rain 11 1011 81 10000 7.2 190 20:19 09.01.2020
4582 Rain 11 1011 81 10000 7.2 190 19:57 09.01.2020
4583 Rain 11 1011 93 10000 6.2 180 19:37 09.01.2020
4584 Drizzle 11 1011 93 10000 6.2 180 19:19 09.01.2020
4585 Drizzle 11 1011 93 10000 6.2 180 18:55 09.01.2020
4586 Drizzle 11 1012 93 10000 6.7 190 18:36 09.01.2020
4587 Rain 11 1012 93 10000 7.7 180 18:18 09.01.2020
4588 Rain 11 1012 93 5000 7.7 200 17:41 09.01.2020
4589 Clouds 11 1012 81 10000 7.7 190 17:18 09.01.2020
4590 Clouds 11 1012 87 10000 7.2 190 16:49 09.01.2020
4591 Clouds 11 1012 87 10000 7.2 190 16:24 09.01.2020
4592 Clouds 12 1013 82 10000 8.7 200 15:59 09.01.2020
4593 Clouds 12 1012 82 10000 7.7 190 15:40 09.01.2020
4594 Clouds 12 1012 82 10000 7.2 190 15:19 09.01.2020
4595 Clouds 12 1013 82 10000 8.2 190 14:43 09.01.2020
4596 -273 0 0 0 0 0 14:22 09.01.2020
4597 Clouds 12 1014 82 10000 7.7 200 13:57 09.01.2020
4598 Clouds 12 1014 82 10000 6.7 200 13:39 09.01.2020
4599 Clouds 12 1014 82 10000 8.2 180 13:21 09.01.2020
4600 Clouds 12 1014 82 10000 8.2 180 12:59 09.01.2020
4601 Clouds 12 1015 87 10000 7.2 190 12:40 09.01.2020
4602 Clouds 12 1016 87 10000 7.2 190 12:22 09.01.2020
4603 Clouds 12 1016 87 10000 7.2 190 11:57 09.01.2020
4604 Clouds 11 1016 87 10000 6.7 190 11:38 09.01.2020
4605 Clouds 11 1016 87 10000 6.7 190 11:20 09.01.2020
4606 Drizzle 11 1016 87 10000 7.2 190 10:44 09.01.2020
4607 Clouds 11 1016 87 10000 6.7 180 10:23 09.01.2020
4608 Clouds 11 1016 87 10000 6.7 180 09:59 09.01.2020
4609 Rain 11 1017 87 10000 6.2 180 09:39 09.01.2020
4610 Rain 11 1017 87 10000 6.2 180 09:21 09.01.2020
4611 Clouds 11 1017 87 10000 5.7 190 08:55 09.01.2020
4612 Clouds 11 1017 87 10000 6.7 190 08:37 09.01.2020
4613 Clouds 11 1017 87 10000 6.7 190 08:19 09.01.2020
4614 Clouds 11 1018 87 10000 6.7 190 07:42 09.01.2020
4615 Rain 11 1018 87 10000 6.2 180 07:24 09.01.2020
4616 Clouds 11 1019 87 10000 6.2 190 06:39 09.01.2020
4617 Clouds 11 1019 87 10000 6.7 180 06:20 09.01.2020
4618 Clouds 11 1019 87 10000 7.7 190 05:50 09.01.2020
4619 Clouds 11 1019 87 10000 7.7 190 05:50 09.01.2020
4620 Clouds 11 1020 87 10000 7.2 190 04:44 09.01.2020
4621 Clouds 11 1021 87 10000 5.1 190 03:54 09.01.2020
4622 Clouds 11 1021 87 10000 6.7 180 02:55 09.01.2020
4623 Clouds 11 1021 87 10000 6.7 180 02:30 09.01.2020
4624 Clouds 11 1022 87 10000 5.1 190 01:40 09.01.2020
4625 Clouds 11 1023 87 10000 5.1 190 00:44 09.01.2020
4626 Clouds 11 1023 87 10000 5.7 190 00:22 09.01.2020
4627 Clouds 11 1023 87 10000 5.7 190 23:56 08.01.2020
4628 Clouds 11 1024 87 10000 4.6 190 23:37 08.01.2020
4629 Clouds 11 1024 87 10000 4.6 190 23:19 08.01.2020
4630 Clouds 11 1024 93 10000 5.1 190 22:40 08.01.2020
4631 Clouds 11 1024 93 10000 5.1 190 22:21 08.01.2020
4632 Clouds 11 1025 87 10000 5.7 200 21:58 08.01.2020
4633 Clouds 11 1025 93 10000 4.6 200 21:39 08.01.2020
4634 Clouds 11 1025 93 10000 4.6 190 21:20 08.01.2020
4635 Clouds 11 1025 93 10000 4.6 190 20:58 08.01.2020
4636 Clouds 11 1025 93 10000 3.6 180 20:40 08.01.2020
4637 Clouds 11 1026 93 7000 4.1 200 20:20 08.01.2020
4638 Clouds 11 1025 93 10000 3.6 180 20:20 08.01.2020
4639 Clouds 11 1026 93 7000 4.1 200 19:57 08.01.2020
4640 Mist 11 1026 100 2600 3.6 220 19:38 08.01.2020
4641 Mist 11 1026 100 3600 3.6 210 19:19 08.01.2020
4642 Mist 11 1026 100 3600 3.6 210 18:57 08.01.2020
4643 Clouds 11 1026 93 10000 3.6 200 18:38 08.01.2020
4644 Clouds 12 1026 93 10000 2.6 200 18:18 08.01.2020
4645 Clouds 12 1026 93 10000 2.6 200 17:56 08.01.2020
4646 Clouds 12 1026 93 10000 2.6 220 17:37 08.01.2020
4647 Clouds 12 1026 93 10000 2.6 200 17:18 08.01.2020
4648 Clouds 12 1026 93 10000 2.6 200 17:18 08.01.2020
4649 Clouds 12 1026 93 10000 2.6 200 16:55 08.01.2020
4650 Clouds 12 1026 93 10000 3.6 210 16:37 08.01.2020
4651 Drizzle 12 1026 93 4300 3.1 200 16:18 08.01.2020
4652 Clouds 12 1026 93 10000 2.6 210 15:42 08.01.2020
4653 Clouds 12 1026 93 10000 2.6 210 15:21 08.01.2020
4654 Drizzle 12 1026 100 2200 3.6 220 14:57 08.01.2020
4655 Clouds 12 1026 93 8000 3.1 220 14:39 08.01.2020
4656 Clouds 12 1026 93 10000 3.6 230 14:20 08.01.2020
4657 Clouds 12 1026 93 10000 3.6 230 14:20 08.01.2020
4658 Clouds 12 1027 87 10000 4.1 220 13:41 08.01.2020
4659 Clouds 12 1027 87 10000 3.1 220 13:20 08.01.2020
4660 Clouds 12 1027 87 10000 4.1 220 12:43 08.01.2020
4661 Clouds 12 1027 87 10000 4.1 210 12:20 08.01.2020
4662 Clouds 12 1027 100 8000 3.1 220 11:59 08.01.2020
4663 Clouds 11 1027 93 10000 4.1 200 11:41 08.01.2020
4664 Clouds 11 1027 93 10000 4.1 200 11:19 08.01.2020
4665 Clouds 11 1027 87 10000 3.6 200 10:57 08.01.2020
4666 Clouds 11 1027 87 10000 3.6 210 10:39 08.01.2020
4667 Clouds 11 1026 87 10000 3.1 210 10:19 08.01.2020
4668 Clouds 11 1026 87 10000 3.1 220 09:42 08.01.2020
4669 Clouds 11 1026 87 10000 3.1 210 09:20 08.01.2020
4670 Clouds 11 1026 87 10000 3.1 210 08:58 08.01.2020
4671 Clouds 11 1026 87 10000 3.1 230 08:38 08.01.2020
4672 Clouds 11 1025 87 10000 3.1 210 08:20 08.01.2020
4673 Clouds 11 1025 87 10000 3.6 230 07:51 08.01.2020
4674 Clouds 11 1025 87 10000 3.6 230 07:33 08.01.2020
4675 Clouds 11 1025 87 10000 3.6 200 06:58 08.01.2020
4676 Clouds 11 1026 87 10000 5.1 220 06:40 08.01.2020
4677 Clouds 11 1026 87 10000 4.1 220 05:54 08.01.2020
4678 Clouds 11 1026 87 10000 4.1 220 05:25 08.01.2020
4679 Clouds 11 1025 93 10000 6.7 210 04:35 08.01.2020
4680 Clouds 11 1026 93 10000 3.6 190 02:46 08.01.2020
4681 Clouds 11 1026 93 10000 2.6 180 02:28 08.01.2020
4682 Clouds 10 1026 100 9000 3.6 160 01:52 08.01.2020
4683 Clouds 10 1026 100 9000 3.6 160 01:29 08.01.2020
4684 Clouds 10 1027 93 10000 2.6 190 00:42 08.01.2020
4685 Clouds 10 1027 93 9000 3.1 180 00:21 08.01.2020
4686 Clouds 10 1027 93 7000 3.1 180 23:45 07.01.2020
4687 Clouds 10 1027 93 7000 3.6 180 23:20 07.01.2020
4688 Clouds 9 1027 100 7000 3.1 180 22:41 07.01.2020
4689 Clouds 9 1027 100 7000 4.1 190 22:21 07.01.2020
4690 Clouds 9 1027 100 7000 4.1 190 21:59 07.01.2020
4691 Clouds 9 1027 100 7000 4.1 190 21:59 07.01.2020
4692 Clouds 9 1027 100 8000 4.1 180 21:41 07.01.2020
4693 Clouds 9 1027 100 8000 4.1 180 21:21 07.01.2020
4694 Clouds 9 1028 93 8000 5.1 180 21:21 07.01.2020
4695 Clouds 9 1028 93 8000 5.1 180 20:58 07.01.2020
4696 Clouds 9 1028 93 6000 4.6 180 20:39 07.01.2020
4697 Clouds 9 1028 93 8000 3.6 180 20:21 07.01.2020
4698 Clouds 9 1028 93 8000 3.6 180 19:57 07.01.2020
4699 Mist 8 1028 93 4900 4.1 170 19:37 07.01.2020
4700 Clouds 8 1028 93 6000 4.1 160 19:19 07.01.2020
4701 Clouds 9 1028 93 6000 4.1 160 18:56 07.01.2020
4702 Clouds 8 1028 93 7000 3.6 160 18:37 07.01.2020
4703 Clouds 8 1028 93 10000 4.1 170 18:18 07.01.2020
4704 Clouds 9 1028 93 10000 4.1 170 17:54 07.01.2020
4705 Clouds 9 1028 93 10000 4.6 180 17:36 07.01.2020
4706 Clouds 9 1028 87 10000 4.1 180 17:18 07.01.2020
4707 Clouds 9 1028 87 10000 4.1 180 16:54 07.01.2020
4708 Clouds 9 1028 93 10000 4.6 180 16:36 07.01.2020
4709 Clouds 9 1028 93 10000 4.6 180 16:18 07.01.2020
4710 Clouds 9 1028 93 10000 3.6 170 15:42 07.01.2020
4711 Clouds 8 1028 87 10000 3.6 160 15:23 07.01.2020
4712 Clouds 8 1028 87 10000 3.6 160 14:58 07.01.2020
4713 Clouds 8 1028 87 10000 4.1 170 14:38 07.01.2020
4714 Clouds 8 1029 87 10000 3.6 170 14:19 07.01.2020
4715 Clouds 8 1029 87 10000 4.6 190 13:46 07.01.2020
4716 Clouds 8 1029 87 10000 4.6 190 13:20 07.01.2020
4717 Clouds 8 1029 93 10000 4.1 180 13:20 07.01.2020
4718 Clouds 8 1029 93 10000 4.1 180 12:56 07.01.2020
4719 Clouds 8 1030 87 10000 3.6 180 12:37 07.01.2020
4720 Clouds 8 1030 93 10000 4.6 190 12:18 07.01.2020
4721 Clouds 7 1030 93 10000 4.6 170 11:41 07.01.2020
4722 Clouds 7 1030 93 10000 4.6 170 11:23 07.01.2020
4723 Clouds 7 1030 93 10000 3.1 180 10:57 07.01.2020
4724 Clouds 7 1030 87 10000 3.1 180 10:57 07.01.2020
4725 Clouds 7 1030 93 10000 3.1 180 10:39 07.01.2020
4726 Clouds 6 1030 93 10000 2.6 210 10:20 07.01.2020
4727 Rain 6 1029 93 7000 2.2 216 09:39 07.01.2020
4728 Clouds 6 1029 93 10000 0.5 0 09:21 07.01.2020
4729 Rain 6 1029 93 7000 2.2 216 09:21 07.01.2020
4730 Clouds 6 1029 93 10000 0.5 0 09:21 07.01.2020
4731 Clouds 6 1029 93 10000 0.5 0 08:59 07.01.2020
4732 Clouds 6 1028 100 10000 1 0 08:41 07.01.2020
4733 Clouds 6 1028 100 10000 1.5 230 08:18 07.01.2020
4734 Clouds 6 1028 93 8000 1 0 07:47 07.01.2020
4735 Clouds 6 1028 93 8000 1 0 07:20 07.01.2020
4736 Clouds 6 1028 93 10000 3.1 230 06:50 07.01.2020
4737 Clouds 6 1028 93 10000 3.1 230 06:30 07.01.2020
4738 Clouds 5 1028 93 10000 1 190 05:41 07.01.2020
4739 Clouds 6 1028 93 8000 1 0 03:51 07.01.2020
4740 Clouds 7 1027 93 10000 3.6 230 03:25 07.01.2020
4741 Clouds 7 1027 93 10000 2.1 240 02:20 07.01.2020
4742 Clouds 7 1026 87 10000 1.5 280 01:40 07.01.2020
4743 Clouds 7 1026 87 10000 1.5 280 01:40 07.01.2020
4744 Clouds 7 1026 87 10000 1.5 280 01:40 07.01.2020
4745 Clouds 7 1026 93 10000 3.1 240 00:59 07.01.2020
4746 Clouds 6 1025 93 9000 1.5 0 00:21 07.01.2020
4747 Clouds 6 1025 93 9000 1.5 0 23:58 06.01.2020
4748 Drizzle 6 1025 93 5000 2.6 200 23:38 06.01.2020
4749 Drizzle 6 1025 93 3300 2.6 190 23:20 06.01.2020
4750 Drizzle 6 1025 93 3300 2.6 190 22:56 06.01.2020
4751 Drizzle 6 1025 93 5000 3.6 190 22:37 06.01.2020
4752 Clouds 6 1025 87 10000 4.1 190 22:19 06.01.2020
4753 Clouds 6 1025 87 10000 4.1 190 21:54 06.01.2020
4754 Clouds 5 1025 81 10000 3.1 190 21:36 06.01.2020
4755 Clouds 5 1025 81 10000 4.1 220 21:18 06.01.2020
4756 Clouds 5 1024 80 10000 4.6 210 20:54 06.01.2020
4757 Clouds 5 1025 81 10000 4.1 220 20:54 06.01.2020
4758 Clouds 5 1024 80 10000 4.6 210 20:36 06.01.2020
4759 Clouds 5 1025 75 10000 5.7 230 20:18 06.01.2020
4760 Clouds 5 1026 75 10000 8.2 250 19:55 06.01.2020
4761 Clouds 5 1026 75 10000 8.2 250 19:36 06.01.2020
4762 Clouds 5 1024 80 10000 7.7 240 19:18 06.01.2020
4763 Clear 5 1024 81 10000 3.6 240 18:43 06.01.2020
4764 Clear 5 1024 81 10000 3.6 240 18:20 06.01.2020
4765 Clear 6 1023 81 10000 4.6 220 17:39 06.01.2020
4766 Clear 6 1023 75 10000 4.1 210 17:20 06.01.2020
4767 Clear 7 1023 65 10000 3.6 190 16:57 06.01.2020
4768 Clear 7 1023 65 10000 4.6 190 16:39 06.01.2020
4769 Clear 7 1023 65 10000 5.7 170 16:21 06.01.2020
4770 Clear 7 1023 65 10000 5.7 170 15:59 06.01.2020
4771 Clear 7 1023 70 10000 4.6 160 15:36 06.01.2020
4772 Clear 7 1023 70 10000 5.1 170 15:18 06.01.2020
4773 Clear 7 1023 75 10000 4.6 160 14:41 06.01.2020
4774 Clear 7 1024 70 10000 5.1 160 14:22 06.01.2020
4775 Clear 6 1024 70 10000 5.1 160 13:59 06.01.2020
4776 Clear 6 1025 70 10000 5.1 160 13:39 06.01.2020
4777 Clear 5 1025 70 10000 5.1 160 13:21 06.01.2020
4778 Clear 5 1025 70 10000 5.1 160 12:55 06.01.2020
4779 Clear 5 1026 75 10000 3.1 160 12:37 06.01.2020
4780 Clear 4 1026 80 10000 4.6 160 12:18 06.01.2020
4781 Clear 3 1027 80 10000 3.6 150 11:42 06.01.2020
4782 Clear 3 1027 80 10000 3.6 150 11:24 06.01.2020
4783 Clear 2 1027 86 9000 4.1 130 10:59 06.01.2020
4784 Clear 1 1027 93 8000 1.5 0 10:40 06.01.2020
4785 Clear 1 1027 82 7000 1.5 90 10:20 06.01.2020
4786 Clear 0 1027 82 7000 1.5 90 10:20 06.01.2020
4787 Clear 0 1028 100 7000 2.1 80 09:39 06.01.2020
4788 Clear 0 1028 92 7000 2.1 90 09:21 06.01.2020
4789 Clear 0 1028 92 7000 2.1 90 08:52 06.01.2020
4790 Clear 0 1028 92 7000 2.1 90 08:34 06.01.2020
4791 Clear 0 1029 89 8000 2.1 90 07:57 06.01.2020
4792 Clear 0 1029 89 8000 1 90 07:38 06.01.2020
4793 Clear 0 1029 89 7000 2.1 60 06:49 06.01.2020
4794 Clear 0 1029 89 7000 2.6 50 06:30 06.01.2020
4795 Clear 0 1030 89 8000 2.1 50 05:48 06.01.2020
4796 Clear 0 1030 86 9000 2.1 50 04:58 06.01.2020
4797 Clear 1 1030 86 10000 1.5 40 04:22 06.01.2020
4798 Clear 1 1031 86 10000 2.1 60 03:26 06.01.2020
4799 Clouds 2 1031 86 10000 1.5 90 02:26 06.01.2020
4800 Clouds 3 1032 86 10000 2.1 120 01:49 06.01.2020
4801 Clouds 3 1032 86 10000 2.1 120 01:29 06.01.2020
4802 Clouds 4 1032 75 10000 2.6 120 00:45 06.01.2020
4803 Clouds 4 1032 75 10000 2.6 120 00:26 06.01.2020
4804 Clouds 5 1033 70 10000 3.1 130 23:57 05.01.2020
4805 Clouds 5 1033 65 10000 2.1 120 23:38 05.01.2020
4806 Clouds 6 1033 65 10000 2.1 120 23:19 05.01.2020
4807 Clouds 6 1034 70 10000 1.5 110 22:40 05.01.2020
4808 Clouds 6 1034 70 10000 1.5 110 22:20 05.01.2020
4809 Clouds 6 1034 70 10000 1.5 110 22:20 05.01.2020
4810 Clouds 7 1034 65 10000 1.5 110 21:57 05.01.2020
4811 Clouds 7 1034 65 10000 1.5 110 21:39 05.01.2020
4812 Clouds 7 1034 70 10000 1.5 100 21:20 05.01.2020
4813 Clouds 7 1034 75 10000 1.5 90 20:56 05.01.2020
4814 Clouds 7 1034 75 10000 1.5 90 20:38 05.01.2020
4815 Clouds 7 1034 70 10000 1 0 20:19 05.01.2020
4816 Clouds 7 1034 70 10000 1 0 19:58 05.01.2020
4817 Clouds 7 1035 75 10000 1.5 80 19:38 05.01.2020
4818 Clouds 7 1035 75 10000 2.1 80 19:20 05.01.2020
4819 Clouds 7 1035 75 10000 2.1 80 19:20 05.01.2020
4820 Clouds 7 1035 75 10000 2.1 80 18:55 05.01.2020
4821 Clouds 7 1035 75 10000 1 0 18:37 05.01.2020
4822 Clouds 7 1035 75 10000 1 0 18:37 05.01.2020
4823 Clouds 7 1035 81 10000 1 80 18:19 05.01.2020
4824 Clouds 8 1035 81 10000 1 80 17:57 05.01.2020
4825 Clouds 8 1035 81 10000 0.5 0 17:38 05.01.2020
4826 Clouds 8 1035 81 10000 0.5 0 17:38 05.01.2020
4827 Clouds 8 1035 81 10000 0.5 0 17:38 05.01.2020
4828 Clouds 8 1035 81 10000 1 60 17:19 05.01.2020
4829 Clouds 8 1035 81 10000 1 60 16:56 05.01.2020
4830 Clouds 8 1035 87 10000 1 90 16:38 05.01.2020
4831 Clouds 8 1035 81 10000 0.31 111 16:19 05.01.2020
4832 Clouds 8 1035 81 10000 0.31 111 16:19 05.01.2020
4833 Clouds 8 1035 76 10000 1 70 15:38 05.01.2020
4834 Clouds 8 1035 76 10000 1 70 15:20 05.01.2020
4835 Clouds 8 1035 76 10000 0.31 111 14:56 05.01.2020
4836 Clouds 8 1035 76 10000 0.31 111 14:37 05.01.2020
4837 Clouds 8 1035 76 10000 0.85 242 14:19 05.01.2020
4838 Clouds 8 1035 76 10000 0.85 242 13:56 05.01.2020
4839 Clouds 8 1036 81 10000 1 0 13:37 05.01.2020
4840 Clouds 8 1036 87 10000 1 0 13:18 05.01.2020
4841 Clouds 8 1036 87 10000 1 0 13:18 05.01.2020
4842 Clouds 8 1036 87 10000 1 0 12:55 05.01.2020
4843 Clouds 8 1036 81 10000 1 0 12:37 05.01.2020
4844 Clouds 7 1037 87 10000 1 0 12:18 05.01.2020
4845 Clouds 7 1037 87 10000 1 0 11:43 05.01.2020
4846 Clouds 7 1037 93 10000 1.5 0 11:20 05.01.2020
4847 Clouds 7 1037 93 10000 1.5 0 10:58 05.01.2020
4848 Clouds 6 1037 87 10000 1.5 0 10:39 05.01.2020
4849 Clouds 6 1037 87 10000 1.5 0 10:39 05.01.2020
4850 Clouds 6 1037 87 10000 1.5 230 10:19 05.01.2020
4851 Clouds 6 1037 87 10000 1 260 09:42 05.01.2020
4852 Clouds 6 1037 87 10000 1 260 09:42 05.01.2020
4853 Clouds 6 1037 87 10000 1 0 09:22 05.01.2020
4854 Clouds 6 1037 87 10000 1 0 08:51 05.01.2020
4855 Clouds 6 1037 87 10000 1 0 08:32 05.01.2020
4856 Clouds 6 1037 87 10000 1 240 07:59 05.01.2020
4857 Clouds 6 1037 93 10000 1.5 0 07:39 05.01.2020
4858 Clouds 6 1037 93 10000 1.5 0 07:20 05.01.2020
4859 Clouds 6 1037 93 10000 0.48 220 06:40 05.01.2020
4860 Clouds 6 1037 87 10000 1.5 250 05:34 05.01.2020
4861 Clouds 6 1037 87 10000 1.5 250 05:34 05.01.2020
4862 Clouds 6 1037 87 10000 1.5 240 04:49 05.01.2020
4863 Clouds 6 1037 87 10000 2.1 260 04:18 05.01.2020
4864 Clouds 6 1037 87 10000 2.1 260 04:18 05.01.2020
4865 Clouds 6 1037 81 10000 1 0 02:50 05.01.2020
4866 Clouds 6 1037 81 10000 1 0 02:32 05.01.2020
4867 Clouds 6 1037 81 10000 2.1 260 01:49 05.01.2020
4868 Clouds 7 1037 75 10000 0.5 0 01:20 05.01.2020
4869 Clouds 7 1037 75 10000 0.5 0 00:56 05.01.2020
4870 Clouds 7 1037 93 10000 2.1 280 00:37 05.01.2020
4871 Clouds 7 1037 93 10000 2.1 280 00:19 05.01.2020
4872 Clouds 7 1037 75 10000 2.1 300 23:40 04.01.2020
4873 Clouds 7 1037 75 10000 2.1 290 23:20 04.01.2020
4874 Clouds 7 1037 75 10000 2.6 290 22:55 04.01.2020
4875 Clouds 7 1037 75 10000 2.6 290 22:37 04.01.2020
4876 Clouds 7 1036 70 10000 3.1 290 22:19 04.01.2020
4877 Clouds 7 1036 70 10000 3.1 290 21:55 04.01.2020
4878 Clouds 7 1037 75 10000 2.1 290 21:36 04.01.2020
4879 Clouds 7 1037 75 10000 2.1 290 21:18 04.01.2020
4880 Clouds 7 1036 75 10000 2.6 270 20:41 04.01.2020
4881 Clouds 7 1036 75 10000 1.5 260 20:22 04.01.2020
4882 Clouds 7 1036 75 10000 1.5 260 19:57 04.01.2020
4883 Clouds 7 1036 75 10000 2.1 260 19:39 04.01.2020
4884 Clouds 7 1036 75 10000 2.1 260 19:21 04.01.2020
4885 Clouds 7 1036 75 10000 2.1 260 18:57 04.01.2020
4886 Clouds 7 1036 75 10000 1.5 270 18:38 04.01.2020
4887 Clouds 7 1036 75 10000 1.5 270 18:19 04.01.2020
4888 Clouds 8 1036 75 10000 2.6 270 17:55 04.01.2020
4889 Clouds 8 1036 75 10000 2.6 270 17:37 04.01.2020
4890 Clouds 8 1036 75 10000 3.6 260 17:18 04.01.2020
4891 Clouds 8 1036 70 10000 3.1 260 16:41 04.01.2020
4892 Clouds 8 1036 70 10000 3.1 260 16:23 04.01.2020
4893 Clouds 8 1036 70 10000 3.6 270 15:57 04.01.2020
4894 Clouds 8 1035 70 10000 3.6 260 15:38 04.01.2020
4895 Clouds 8 1036 70 10000 3.1 270 15:19 04.01.2020
4896 Clouds 8 1036 70 10000 4.1 270 14:56 04.01.2020
4897 Clouds 8 1036 70 10000 4.1 270 14:38 04.01.2020
4898 Clouds 8 1036 75 10000 4.1 260 14:19 04.01.2020
4899 Clouds 8 1036 75 10000 4.1 260 14:19 04.01.2020
4900 Clouds 8 1036 75 10000 3.1 260 13:55 04.01.2020
4901 Clouds 8 1036 75 10000 3.1 260 13:36 04.01.2020
4902 Clouds 8 1036 81 10000 3.1 260 13:18 04.01.2020
4903 Clouds 7 1036 81 10000 4.6 250 12:41 04.01.2020
4904 Clouds 6 1036 81 10000 3.6 240 12:20 04.01.2020
4905 Clouds 6 1036 81 10000 3.6 240 11:58 04.01.2020
4906 Clouds 6 1036 86 10000 3.1 250 11:39 04.01.2020
4907 Clouds 6 1036 86 10000 3.1 250 11:39 04.01.2020
4908 Clouds 5 1036 86 10000 3.1 250 11:19 04.01.2020
4909 Clouds 4 1036 86 10000 3.1 250 10:55 04.01.2020
4910 Clouds 4 1036 86 10000 2.1 260 10:36 04.01.2020
4911 Clouds 3 1036 93 10000 2.1 260 10:18 04.01.2020
4912 Clouds 2 1035 93 10000 1.5 0 09:41 04.01.2020
4913 Clouds 2 1035 93 10000 2.1 240 09:22 04.01.2020
4914 Clouds 2 1035 93 10000 1.5 270 08:42 04.01.2020
4915 Clouds 2 1035 93 10000 1.5 270 08:21 04.01.2020
4916 Clouds 2 1035 93 10000 1.5 240 07:44 04.01.2020
4917 Clouds 2 1035 93 10000 1.5 240 07:26 04.01.2020
4918 Clouds 3 1035 86 10000 2.6 260 06:36 04.01.2020
4919 Clouds 3 1034 86 10000 2.6 250 05:45 04.01.2020
4920 Clear 3 1034 80 10000 1.5 260 04:44 04.01.2020
4921 Clear 3 1034 80 10000 1.5 260 04:26 04.01.2020
4922 Clear 5 1033 81 10000 1.5 300 03:19 04.01.2020
4923 Clear 5 1033 81 10000 2.1 320 02:36 04.01.2020
4924 Clouds 6 1032 75 10000 2.6 330 01:58 04.01.2020
4925 Clouds 6 1033 87 10000 3.1 340 01:32 04.01.2020
4926 Clouds 7 1032 87 10000 3.1 330 00:56 04.01.2020
4927 Clouds 7 1032 81 10000 3.6 320 00:28 04.01.2020
4928 Clouds 7 1032 87 10000 3.1 330 23:52 03.01.2020
4929 Clouds 8 1031 87 10000 4.6 340 23:27 03.01.2020
4930 Clouds 8 1031 87 10000 4.6 340 22:55 03.01.2020
4931 Clouds 8 1030 81 10000 3.6 330 22:37 03.01.2020
4932 Clouds 8 1030 81 10000 3.1 330 22:18 03.01.2020
4933 Clouds 8 1030 81 10000 3.1 330 21:56 03.01.2020
4934 Clouds 8 1029 87 10000 3.6 330 21:37 03.01.2020
4935 Clouds 9 1029 87 10000 5.7 330 21:18 03.01.2020
4936 Rain 9 1029 87 10000 5.7 330 20:54 03.01.2020
4937 Rain 9 1028 81 10000 5.7 320 20:36 03.01.2020
4938 Rain 9 1027 93 10000 3.6 280 20:18 03.01.2020
4939 Drizzle 10 1027 93 6000 3.6 250 19:42 03.01.2020
4940 Drizzle 10 1027 93 6000 3.6 250 19:23 03.01.2020
4941 Rain 10 1026 87 10000 4.1 250 18:54 03.01.2020
4942 Rain 10 1026 87 10000 4.1 250 18:36 03.01.2020
4943 Clouds 10 1025 87 10000 5.1 240 18:18 03.01.2020
4944 Clouds 10 1025 87 10000 3.6 250 17:41 03.01.2020
4945 Rain 11 1025 87 10000 5.7 250 17:21 03.01.2020
4946 Rain 11 1024 93 10000 4.6 260 16:58 03.01.2020
4947 Rain 11 1024 93 10000 4.6 260 16:39 03.01.2020
4948 Clouds 11 1024 93 10000 4.6 260 16:20 03.01.2020
4949 Clouds 11 1023 76 10000 7.2 230 15:41 03.01.2020
4950 Clouds 11 1023 76 10000 6.7 230 15:19 03.01.2020
4951 Clouds 11 1023 76 10000 7.2 240 14:40 03.01.2020
4952 Clouds 11 1023 76 10000 7.2 240 14:40 03.01.2020
4953 Rain 11 1023 76 10000 7.2 240 14:20 03.01.2020
4954 Rain 11 1023 76 10000 7.7 240 13:59 03.01.2020
4955 Clouds 11 1023 76 10000 7.2 240 13:40 03.01.2020
4956 Clouds 11 1023 76 10000 7.2 240 13:22 03.01.2020
4957 Clouds 11 1023 76 10000 7.2 230 12:41 03.01.2020
4958 Clouds 11 1023 76 10000 5.1 230 12:22 03.01.2020
4959 Clouds 11 1023 76 10000 5.1 230 11:57 03.01.2020
4960 Clouds 11 1023 76 10000 5.1 230 11:57 03.01.2020
4961 Clouds 10 1023 81 10000 6.2 210 11:39 03.01.2020
4962 Clouds 10 1023 87 10000 5.1 210 10:59 03.01.2020
4963 Clouds 10 1023 87 10000 5.1 210 10:59 03.01.2020
4964 Clouds 9 1022 87 10000 3.6 200 10:40 03.01.2020
4965 Clouds 9 1022 87 10000 6.2 200 10:22 03.01.2020
4966 Clouds 9 1022 87 10000 6.2 200 09:56 03.01.2020
4967 Clouds 9 1022 87 10000 5.1 210 09:38 03.01.2020
4968 Clouds 9 1022 87 10000 5.1 210 09:20 03.01.2020
4969 Clouds 9 1022 87 10000 5.1 210 08:54 03.01.2020
4970 Clouds 9 1021 93 10000 6.2 210 08:36 03.01.2020
4971 Clouds 8 1021 87 10000 5.7 210 08:18 03.01.2020
4972 Clouds 8 1021 87 10000 6.2 200 07:39 03.01.2020
4973 Clouds 8 1021 87 10000 5.7 200 07:18 03.01.2020
4974 Clouds 8 1021 81 10000 6.2 200 06:42 03.01.2020
4975 Clouds 8 1021 81 10000 6.2 200 06:23 03.01.2020
4976 Clouds 8 1021 81 10000 5.7 190 05:20 03.01.2020
4977 Clouds 8 1022 87 10000 5.1 190 03:45 03.01.2020
4978 Clouds 9 1022 81 10000 5.1 190 02:55 03.01.2020
4979 Clouds 9 1023 93 10000 5.1 220 01:57 03.01.2020
4980 Clouds 9 1023 81 10000 6.2 200 01:38 03.01.2020
4981 Clouds 9 1023 81 10000 5.1 190 00:46 03.01.2020
4982 Clouds 9 1023 81 10000 5.1 190 00:26 03.01.2020
4983 Clouds 9 1023 81 10000 5.1 180 23:55 02.01.2020
4984 Clouds 9 1023 81 10000 5.1 180 23:37 02.01.2020
4985 Clouds 9 1023 93 10000 5.1 180 23:18 02.01.2020
4986 Clouds 9 1023 93 10000 4.6 180 22:44 02.01.2020
4987 Clouds 9 1023 93 10000 4.6 180 22:21 02.01.2020
4988 Clouds 9 1024 87 10000 5.7 180 21:57 02.01.2020
4989 Clouds 9 1024 87 10000 5.7 180 21:39 02.01.2020
4990 Clouds 9 1024 87 10000 6.2 180 21:21 02.01.2020
4991 Clouds 9 1024 87 10000 6.2 180 20:57 02.01.2020
4992 Clouds 9 1024 87 10000 5.1 180 20:39 02.01.2020
4993 Clouds 9 1024 87 10000 5.1 180 20:20 02.01.2020
4994 Clouds 8 1024 87 10000 5.1 180 19:55 02.01.2020
4995 Clouds 8 1024 87 10000 5.1 180 19:37 02.01.2020
4996 Clouds 8 1024 87 10000 5.1 180 19:37 02.01.2020
4997 Clouds 8 1024 87 10000 5.1 180 19:19 02.01.2020
4998 Clouds 8 1024 87 10000 5.1 180 18:56 02.01.2020
4999 Clouds 8 1024 87 10000 4.6 180 18:37 02.01.2020
5000 Clouds 8 1024 87 10000 4.1 190 18:19 02.01.2020
5001 Clouds 8 1024 87 10000 4.1 200 17:55 02.01.2020
5002 Clouds 8 1024 87 10000 4.1 200 17:36 02.01.2020
5003 Clouds 8 1024 87 10000 4.1 190 17:18 02.01.2020
5004 Clouds 8 1024 87 10000 4.1 190 17:18 02.01.2020
5005 Clouds 8 1024 87 10000 4.1 180 16:54 02.01.2020
5006 Clouds 8 1024 87 10000 4.1 180 16:36 02.01.2020
5007 Clouds 8 1024 87 10000 4.1 190 16:18 02.01.2020
5008 Clouds 8 1024 87 10000 5.1 210 15:42 02.01.2020
5009 Clouds 8 1025 93 10000 3.1 190 15:24 02.01.2020
5010 Clouds 9 1025 93 10000 3.6 190 14:58 02.01.2020
5011 Clouds 8 1025 93 10000 3.6 190 14:37 02.01.2020
5012 Clouds 8 1025 93 6000 3.1 180 14:19 02.01.2020
5013 Drizzle 8 1026 93 2700 2.6 200 13:58 02.01.2020
5014 Drizzle 8 1026 93 2700 2.6 200 13:38 02.01.2020
5015 Clouds 8 1026 93 10000 2.6 170 13:18 02.01.2020
5016 Clouds 8 1026 100 10000 2.1 160 12:42 02.01.2020
5017 Clouds 8 1027 93 10000 2.1 160 12:21 02.01.2020
5018 Clouds 7 1027 93 10000 2.1 160 11:42 02.01.2020
5019 Clouds 7 1026 100 9000 1.5 150 11:21 02.01.2020
5020 Clouds 7 1026 93 7000 1.5 140 10:46 02.01.2020
5021 Clouds 7 1026 93 7000 1.5 140 10:28 02.01.2020
5022 Clouds 6 1026 100 6000 1.5 130 09:58 02.01.2020
5023 Mist 6 1026 100 2200 0.5 0 09:35 02.01.2020
5024 Drizzle 6 1026 100 1800 0.5 0 08:59 02.01.2020
5025 Mist 6 1026 100 1300 1.5 70 08:40 02.01.2020
5026 Fog 6 1026 100 900 1.5 70 08:21 02.01.2020
5027 Mist 5 1026 93 1100 1.5 70 07:47 02.01.2020
5028 Mist 5 1026 93 1800 2.1 70 07:27 02.01.2020
5029 Mist 5 1027 100 1600 1.5 60 06:43 02.01.2020
5030 Mist 5 1027 100 1200 1.5 60 05:42 02.01.2020
5031 Mist 5 1027 100 4900 1.5 50 04:36 02.01.2020
5032 Mist 5 1027 100 4900 1.5 60 03:54 02.01.2020
5033 Mist 4 1028 93 5000 2.1 40 02:21 02.01.2020
5034 Clouds 4 1028 100 6000 2.1 100 01:57 02.01.2020
5035 Clouds 4 1028 100 6000 2.1 100 01:30 02.01.2020
5036 Clouds 4 1029 93 7000 2.1 110 00:52 02.01.2020
5037 Clouds 4 1029 93 7000 2.1 110 00:26 02.01.2020
5038 Clouds 4 1029 93 6000 1.5 110 23:44 01.01.2020
5039 Clouds 4 1029 93 6000 1.5 110 23:23 01.01.2020
5040 Mist 4 1029 93 5000 2.6 100 22:39 01.01.2020
5041 Mist 4 1029 93 5000 2.6 100 22:21 01.01.2020
5042 Mist 4 1030 93 3800 2.1 80 21:59 01.01.2020
5043 Mist 4 1030 100 2800 2.1 100 21:40 01.01.2020
5044 Rain 4 1030 100 2800 2.1 110 21:21 01.01.2020
5045 Rain 4 1030 100 2800 2.1 110 20:58 01.01.2020
5046 Rain 4 1030 100 3300 2.6 140 20:39 01.01.2020
5047 Mist 4 1030 100 3800 2.1 120 20:20 01.01.2020
5048 Mist 4 1030 100 3800 2.1 120 19:57 01.01.2020
5049 Mist 4 1030 100 3300 2.1 100 19:39 01.01.2020
5050 Mist 4 1030 100 2700 1.5 120 19:20 01.01.2020
5051 Mist 4 1030 100 2700 1.5 120 18:57 01.01.2020
5052 Mist 4 1030 100 2600 2.6 140 18:38 01.01.2020
5053 Mist 4 1030 100 3200 2.6 130 18:20 01.01.2020
5054 Mist 4 1030 100 3200 2.6 130 17:58 01.01.2020
5055 Mist 4 1030 100 2400 2.6 120 17:40 01.01.2020
5056 Mist 4 1030 100 3400 2.6 120 17:20 01.01.2020
5057 Mist 4 1030 100 3400 2.6 120 16:58 01.01.2020
5058 Mist 4 1030 100 3700 2.6 130 16:38 01.01.2020
5059 Mist 4 1030 100 3700 2.6 130 16:38 01.01.2020
5060 Mist 4 1030 100 2500 3.1 140 16:19 01.01.2020
5061 Mist 4 1030 100 2500 3.1 140 15:57 01.01.2020
5062 Mist 4 1030 100 2500 3.1 140 15:57 01.01.2020
5063 Mist 4 1030 100 1600 2.6 130 15:37 01.01.2020
5064 Mist 4 1030 93 4200 3.1 130 15:19 01.01.2020
5065 Mist 4 1030 93 4200 3.1 130 14:56 01.01.2020
5066 Mist 4 1030 93 2700 3.6 130 14:37 01.01.2020
5067 Mist 4 1031 100 2500 2.6 110 14:19 01.01.2020
5068 Mist 3 1031 100 2000 2.6 130 13:55 01.01.2020
5069 Mist 3 1031 100 2500 2.6 110 13:55 01.01.2020
5070 Mist 3 1031 100 2000 2.6 130 13:36 01.01.2020
5071 Mist 3 1031 100 3100 2.6 140 13:18 01.01.2020
5072 Mist 3 1032 93 4300 3.6 130 12:40 01.01.2020
5073 Mist 2 1032 93 5000 2.6 140 12:19 01.01.2020
5074 Mist 2 1032 93 5000 2.6 140 11:57 01.01.2020
5075 Mist 2 1032 93 5000 2.6 140 11:57 01.01.2020
5076 Mist 2 1032 100 3300 3.1 150 11:39 01.01.2020
5077 Mist 1 1032 100 1800 2.6 160 11:20 01.01.2020
5078 Mist 1 1032 93 1700 2.6 190 10:55 01.01.2020
5079 Mist 1 1032 93 1700 2.6 190 10:37 01.01.2020
5080 Mist 1 1032 100 2400 2.6 180 10:18 01.01.2020
5081 Mist 1 1031 100 2100 2.6 150 09:40 01.01.2020
5082 Mist 0 1031 100 3300 3.1 140 09:20 01.01.2020
5083 Mist 0 1031 100 4100 3.1 140 08:57 01.01.2020
5084 Mist 0 1031 100 3300 3.1 140 08:57 01.01.2020
5085 Mist 0 1031 100 4100 3.1 140 08:38 01.01.2020
5086 Mist 0 1031 87 5000 1.5 100 08:19 01.01.2020
5087 Clouds 0 1031 87 10000 1 0 07:57 01.01.2020
5088 Clouds 0 1031 87 10000 1 0 07:39 01.01.2020
5089 Clouds 0 1031 87 7000 1.5 130 06:55 01.01.2020
5090 Clouds 0 1031 87 6000 1.5 160 06:36 01.01.2020
5091 Mist 0 1031 87 1700 2.6 160 05:51 01.01.2020
5092 Mist -1 1031 85 3300 2.6 190 04:28 01.01.2020
5093 Mist -1 1031 92 4100 2.1 160 03:39 01.01.2020
5094 Mist -1 1031 92 4100 2.1 160 03:21 01.01.2020
5095 Mist -1 1031 100 4000 1 0 02:42 01.01.2020
5096 Mist -1 1031 92 4300 2.1 80 02:23 01.01.2020
5097 Mist -1 1032 92 4800 2.01 109 01:42 01.01.2020
5098 Mist -1 1032 92 4400 2.6 80 01:23 01.01.2020
5099 Mist -1 1032 92 4100 2.1 80 00:45 01.01.2020
5100 Mist -1 1032 92 4100 2.1 80 00:26 01.01.2020
5101 Mist -1 1032 92 4300 2.1 90 23:58 31.12.2019
5102 Mist -1 1032 92 3800 2.6 40 23:38 31.12.2019
5103 Mist -1 1032 92 3900 1.5 10 23:18 31.12.2019
5104 Mist -1 1032 92 3900 1.5 10 22:56 31.12.2019
5105 Mist -1 1032 65 3800 1 350 22:37 31.12.2019
5106 Mist 0 1032 65 4400 3.1 40 22:18 31.12.2019
5107 Mist 0 1032 65 5000 1 0 21:43 31.12.2019
5108 Mist 0 1031 65 4800 2.04 118 21:25 31.12.2019
5109 Mist 1 1031 65 4800 2.04 118 20:57 31.12.2019
5110 Mist 1 1031 66 5000 1.5 80 20:39 31.12.2019
5111 Mist 1 1031 70 5000 1.5 80 20:21 31.12.2019
5112 Mist 1 1032 70 5000 2.1 70 19:58 31.12.2019
5113 Clouds 1 1032 70 6000 2.6 90 19:40 31.12.2019
5114 Clouds 1 1032 70 6000 3.1 80 19:21 31.12.2019
5115 Clouds 1 1032 70 6000 3.1 80 18:57 31.12.2019
5116 Clouds 2 1032 93 6000 3.1 70 18:38 31.12.2019
5117 Clouds 2 1031 70 6000 3.1 60 18:19 31.12.2019
5118 Mist 3 1032 86 5000 2.6 50 17:56 31.12.2019
5119 Mist 3 1032 86 5000 2.6 50 17:37 31.12.2019
5120 Clouds 3 1031 80 6000 2.6 50 17:18 31.12.2019
5121 Clouds 4 1032 80 7000 2.1 50 16:56 31.12.2019
5122 Clouds 4 1032 80 7000 2.1 50 16:37 31.12.2019
5123 Clouds 5 1032 80 7000 2.1 50 16:19 31.12.2019
5124 Clouds 5 1031 80 8000 2.6 80 15:56 31.12.2019
5125 Clouds 5 1031 80 7000 3.1 70 15:38 31.12.2019
5126 Clouds 5 1032 80 7000 3.6 70 15:20 31.12.2019
5127 Clouds 5 1032 80 6000 3.6 60 14:56 31.12.2019
5128 Clouds 5 1032 80 6000 3.6 60 14:37 31.12.2019
5129 Clouds 5 1032 80 6000 3.1 40 14:19 31.12.2019
5130 Clouds 4 1032 80 6000 2.6 50 13:56 31.12.2019
5131 Clouds 4 1032 80 6000 2.6 50 13:38 31.12.2019
5132 Mist 3 1033 86 5000 1 0 13:20 31.12.2019
5133 Mist 3 1033 86 5000 1 0 12:56 31.12.2019
5134 Mist 3 1033 86 5000 1.5 110 12:38 31.12.2019
5135 Mist 2 1033 93 4500 3.1 70 12:19 31.12.2019
5136 Mist 1 1033 93 4500 3.1 70 11:56 31.12.2019
5137 Mist 1 1033 53 4500 1.5 70 11:37 31.12.2019
5138 Mist 0 1032 63 3400 3.1 80 11:19 31.12.2019
5139 Mist -1 1032 92 3700 2.6 100 10:56 31.12.2019
5140 Mist -1 1032 92 3700 2.6 100 10:37 31.12.2019
5141 Mist -2 1032 100 3200 1.5 90 10:19 31.12.2019
5142 Mist -2 1032 100 3200 1.5 90 09:58 31.12.2019
5143 Mist -2 1032 100 3200 1.5 90 09:58 31.12.2019
5144 Mist -2 1032 92 3100 0.5 0 09:38 31.12.2019
5145 Mist -2 1031 100 4900 2.1 100 09:19 31.12.2019
5146 Mist -2 1031 100 5000 1.5 120 08:57 31.12.2019
5147 Mist -2 1031 100 5000 1.5 120 08:37 31.12.2019
5148 Mist -2 1031 92 4600 2.6 100 08:18 31.12.2019
5149 Fog -2 1031 100 1900 1.5 50 07:41 31.12.2019
5150 Fog -2 1031 100 1900 1.5 50 07:19 31.12.2019
5151 Mist -2 1031 92 4900 2.1 90 06:48 31.12.2019
5152 Mist -1 1031 92 5000 1.5 90 05:55 31.12.2019
5153 Mist -2 1031 92 5000 1.5 70 04:27 31.12.2019
5154 Mist -1 1031 92 5000 1.5 90 03:27 31.12.2019
5155 Clouds -1 1031 92 6000 1 110 02:49 31.12.2019
5156 Clear -1 1031 86 6000 1.5 110 01:55 31.12.2019
5157 Clear -1 1031 92 6000 1.5 90 01:34 31.12.2019
5158 Clouds -1 1032 92 6000 1 0 00:59 31.12.2019
5159 Clouds -1 1031 53 7000 1 110 00:41 31.12.2019
5160 Clouds 0 1032 53 7000 1 0 00:21 31.12.2019
5161 Clouds 0 1032 53 7000 1 0 23:56 30.12.2019
5162 Clouds 0 1031 86 7000 2.6 120 23:38 30.12.2019
5163 Clear 0 1031 86 7000 2.6 120 23:19 30.12.2019
5164 Clear 0 1031 51 7000 1.5 110 22:57 30.12.2019
5165 Clear 0 1031 51 7000 1.5 110 22:57 30.12.2019
5166 Clear 1 1031 86 7000 2.1 130 22:38 30.12.2019
5167 Clear 1 1031 86 7000 2.09 186 22:19 30.12.2019
5168 Clear 1 1031 86 7000 2.09 186 21:56 30.12.2019
5169 Clear 1 1031 80 7000 2.1 110 21:38 30.12.2019
5170 Clear 1 1031 80 8000 1.5 100 21:18 30.12.2019
5171 Clear 2 1031 80 9000 1 0 20:56 30.12.2019
5172 Clear 2 1031 80 9000 1 0 20:38 30.12.2019
5173 Clear 1 1031 46 9000 1.5 110 20:20 30.12.2019
5174 Clear 2 1031 46 9000 1.5 110 19:57 30.12.2019
5175 Clear 2 1031 74 9000 0.5 110 19:37 30.12.2019
5176 Clear 2 1031 74 9000 1.5 150 19:19 30.12.2019
5177 Clear 3 1031 74 9000 1.5 150 18:56 30.12.2019
5178 Clear 3 1031 69 10000 1.5 140 18:38 30.12.2019
5179 Clear 3 1031 65 10000 1.5 140 18:20 30.12.2019
5180 Clear 4 1031 65 10000 1.5 140 17:55 30.12.2019
5181 Clear 4 1031 46 10000 2.1 130 17:36 30.12.2019
5182 Clear 4 1031 46 10000 2.1 130 17:36 30.12.2019
5183 Clear 5 1031 39 10000 1.5 130 17:18 30.12.2019
5184 Clear 6 1031 39 10000 1.5 130 16:55 30.12.2019
5185 Clear 6 1031 39 10000 2.1 150 16:55 30.12.2019
5186 Clear 7 1031 39 10000 2.1 150 16:36 30.12.2019
5187 Clear 7 1031 39 10000 1.5 150 16:18 30.12.2019
5188 Clear 7 1031 39 10000 2.1 150 15:54 30.12.2019
5189 Clear 7 1031 39 10000 2.1 150 15:36 30.12.2019
5190 Clear 7 1032 39 10000 1.5 150 15:18 30.12.2019
5191 Clear 7 1032 39 10000 1.5 150 15:18 30.12.2019
5192 Clear 7 1032 52 10000 1 0 14:42 30.12.2019
5193 Clouds 6 1032 56 10000 1.5 150 14:19 30.12.2019
5194 Clouds 6 1033 60 10000 2.1 160 13:56 30.12.2019
5195 Clouds 6 1033 60 10000 2.1 160 13:37 30.12.2019
5196 Clouds 6 1033 60 10000 2.6 150 13:19 30.12.2019
5197 Clouds 5 1033 38 10000 2.6 160 12:43 30.12.2019
5198 Clouds 4 1034 38 9000 2.1 130 12:20 30.12.2019
5199 Clouds 4 1034 38 9000 2.1 130 11:59 30.12.2019
5200 Clouds 3 1034 38 9000 1.5 100 11:40 30.12.2019
5201 Clouds 2 1034 51 7000 1 100 11:19 30.12.2019
5202 Clouds 1 1034 51 6000 2.1 100 10:44 30.12.2019
5203 Clouds 0 1033 51 6000 1.5 70 10:22 30.12.2019
5204 Clouds 0 1033 51 6000 1.5 70 10:22 30.12.2019
5205 Clouds -1 1033 51 6000 1.5 70 09:59 30.12.2019
5206 Clouds -1 1033 92 6000 1.5 70 09:41 30.12.2019
5207 Clouds -1 1033 92 6000 1.5 70 09:20 30.12.2019
5208 Clouds -1 1033 92 6000 1 100 08:54 30.12.2019
5209 Clouds -1 1033 92 6000 1 80 08:36 30.12.2019
5210 Clouds -1 1033 92 6000 1 80 08:18 30.12.2019
5211 Clouds -1 1033 92 6000 1.5 70 07:39 30.12.2019
5212 Clouds -1 1033 92 6000 1.5 50 06:52 30.12.2019
5213 Clear -1 1034 92 6000 1 20 05:24 30.12.2019
5214 Clear -1 1034 92 6000 1.5 20 03:58 30.12.2019
5215 Clear -1 1034 62 6000 1.5 50 03:32 30.12.2019
5216 Clear 0 1034 62 6000 2.1 70 02:40 30.12.2019
5217 Clouds 0 1034 62 6000 2.1 60 01:56 30.12.2019
5218 Clouds 0 1034 62 6000 2.1 60 01:25 30.12.2019
5219 Clouds 0 1035 62 6000 2.1 60 00:46 30.12.2019
5220 Clouds 0 1035 86 6000 1.5 50 00:23 30.12.2019
5221 Clouds 1 1035 86 6000 2.1 70 23:40 29.12.2019
5222 Clear 0 1035 86 6000 2.1 80 23:22 29.12.2019
5223 Clear 1 1035 86 6000 2.1 80 22:56 29.12.2019
5224 Clear 1 1035 60 6000 1 60 22:38 29.12.2019
5225 Clear 1 1035 60 6000 1 60 22:19 29.12.2019
5226 Clear 1 1035 60 6000 1.5 70 21:45 29.12.2019
5227 Clear 2 1035 60 7000 1 0 21:21 29.12.2019
5228 Clear 1 1035 60 6000 1.5 70 21:21 29.12.2019
5229 Clear 2 1035 60 7000 1 0 20:59 29.12.2019
5230 Clear 2 1035 60 7000 2.1 70 20:39 29.12.2019
5231 Clear 2 1035 60 7000 2.1 70 20:39 29.12.2019
5232 Clouds 2 1035 63 7000 2.1 70 20:21 29.12.2019
5233 Clouds 2 1035 63 8000 1.5 80 19:59 29.12.2019
5234 Clouds 2 1035 93 8000 1.5 80 19:40 29.12.2019
5235 Clouds 2 1035 93 8000 1.5 80 19:21 29.12.2019
5236 Clouds 2 1035 63 9000 2.6 80 18:59 29.12.2019
5237 Clouds 3 1035 86 10000 2.1 50 18:40 29.12.2019
5238 Clouds 3 1035 86 10000 2.1 50 18:21 29.12.2019
5239 Clouds 3 1035 63 10000 2.1 80 17:58 29.12.2019
5240 Clouds 4 1035 80 10000 2.6 70 17:39 29.12.2019
5241 Clouds 4 1035 75 10000 2.6 50 17:20 29.12.2019
5242 Clouds 5 1035 75 10000 2.6 50 16:57 29.12.2019
5243 Clouds 5 1035 75 10000 2.6 60 16:39 29.12.2019
5244 Clouds 5 1035 75 10000 2.6 60 16:39 29.12.2019
5245 Clouds 5 1035 75 10000 2.6 60 16:21 29.12.2019
5246 Clouds 6 1035 80 10000 2.6 40 15:59 29.12.2019
5247 Clouds 6 1035 75 10000 2.6 80 15:40 29.12.2019
5248 Clouds 5 1035 75 10000 2.6 50 15:20 29.12.2019
5249 Clouds 5 1035 75 10000 2.6 50 14:58 29.12.2019
5250 Clouds 5 1035 58 10000 1 0 14:39 29.12.2019
5251 Clouds 5 1035 56 10000 1.5 0 14:18 29.12.2019
5252 Clouds 5 1035 56 10000 1.5 0 13:58 29.12.2019
5253 Clouds 5 1036 55 10000 1.5 0 13:39 29.12.2019
5254 Clouds 4 1036 55 10000 1 0 13:21 29.12.2019
5255 Clouds 4 1036 55 10000 1 0 12:56 29.12.2019
5256 Clouds 4 1036 55 10000 1 0 12:38 29.12.2019
5257 Clouds 3 1037 55 10000 2.1 90 12:20 29.12.2019
5258 Clouds 2 1037 55 7000 2.1 40 11:41 29.12.2019
5259 Mist 1 1037 69 5000 1.5 60 11:21 29.12.2019
5260 Mist 1 1037 69 5000 1.5 60 10:57 29.12.2019
5261 Clouds 0 1037 69 6000 1 10 10:38 29.12.2019
5262 Clouds 0 1037 92 6000 2.6 80 10:18 29.12.2019
5263 Clouds -1 1037 92 7000 2.1 80 09:45 29.12.2019
5264 Clouds -1 1037 92 7000 2.1 80 09:27 29.12.2019
5265 Clouds -1 1037 100 7000 1 20 08:55 29.12.2019
5266 Clouds -1 1037 100 7000 1 20 08:37 29.12.2019
5267 Clouds -1 1037 100 6000 1 10 08:18 29.12.2019
5268 Clouds -1 1036 75 7000 1 0 07:43 29.12.2019
5269 Clouds -1 1036 75 7000 1 0 07:25 29.12.2019
5270 Clouds -1 1037 75 6000 1.5 20 06:28 29.12.2019
5271 Clouds 0 1037 75 6000 1.5 360 05:55 29.12.2019
5272 Clouds 0 1037 79 7000 2.1 40 04:59 29.12.2019
5273 Clouds 0 1037 79 8000 1.5 10 04:30 29.12.2019
5274 Clouds 0 1037 86 7000 2.1 30 03:32 29.12.2019
5275 Clouds 1 1036 79 7000 1.5 50 02:27 29.12.2019
5276 Clouds 1 1036 80 7000 1.5 50 01:52 29.12.2019
5277 Clouds 1 1036 78 7000 2.1 70 01:29 29.12.2019
5278 Clouds 2 1037 93 7000 1.5 50 00:45 29.12.2019
5279 Clouds 2 1037 93 7000 2.1 30 00:24 29.12.2019
5280 Clouds 2 1037 93 8000 2.1 30 23:55 28.12.2019
5281 Clouds 2 1037 93 8000 2.1 30 23:37 28.12.2019
5282 Clouds 2 1037 93 10000 1.5 80 23:18 28.12.2019
5283 Clouds 3 1037 86 10000 2.1 70 22:37 28.12.2019
5284 Clouds 3 1038 86 10000 2.6 60 22:18 28.12.2019
5285 Clouds 3 1038 86 10000 2.6 60 21:56 28.12.2019
5286 Clouds 3 1038 86 10000 2.6 60 21:56 28.12.2019
5287 Clouds 3 1038 93 10000 2.1 60 21:37 28.12.2019
5288 Clouds 4 1038 93 10000 2.6 90 21:19 28.12.2019
5289 Clouds 4 1038 93 10000 2.6 90 20:54 28.12.2019
5290 Clouds 4 1038 86 10000 2.6 70 20:36 28.12.2019
5291 Clouds 4 1038 86 10000 2.1 50 20:18 28.12.2019
5292 Clouds 5 1038 86 10000 2.6 60 19:41 28.12.2019
5293 Clouds 5 1038 86 10000 2.6 60 19:23 28.12.2019
5294 Clouds 6 1038 81 10000 3.1 70 18:59 28.12.2019
5295 Clouds 6 1038 81 10000 3.1 70 18:40 28.12.2019
5296 Clouds 6 1038 81 10000 3.1 70 18:20 28.12.2019
5297 Clouds 6 1038 75 10000 2.6 70 17:58 28.12.2019
5298 Clouds 6 1038 75 10000 2.6 70 17:39 28.12.2019
5299 Clouds 7 1037 75 10000 3.6 60 17:20 28.12.2019
5300 Clouds 7 1037 75 10000 3.6 60 16:48 28.12.2019
5301 Clouds 7 1037 75 10000 3.6 60 16:26 28.12.2019
5302 Clouds 7 1037 75 10000 4.1 80 15:57 28.12.2019
5303 Clouds 8 1037 70 10000 3.1 50 15:39 28.12.2019
5304 Clouds 8 1037 70 10000 3.1 50 15:21 28.12.2019
5305 Clouds 8 1037 75 10000 3.1 70 14:46 28.12.2019
5306 Clouds 8 1037 75 10000 3.1 70 14:24 28.12.2019
5307 Clouds 8 1037 75 10000 3.1 80 13:58 28.12.2019
5308 Clouds 8 1037 75 10000 3.1 80 13:58 28.12.2019
5309 Clouds 8 1038 75 10000 2.6 90 13:39 28.12.2019
5310 Clouds 8 1038 75 10000 3.6 80 13:19 28.12.2019
5311 Clouds 8 1038 75 10000 3.6 80 12:55 28.12.2019
5312 Clouds 8 1038 75 10000 4.6 90 12:36 28.12.2019
5313 Clouds 8 1038 75 10000 3.1 100 12:18 28.12.2019
5314 Clouds 8 1038 75 10000 4.1 120 11:39 28.12.2019
5315 Clouds 7 1038 75 10000 3.1 90 11:21 28.12.2019
5316 Clouds 7 1038 87 10000 3.1 90 10:47 28.12.2019
5317 Clouds 7 1038 87 10000 3.1 90 10:23 28.12.2019
5318 Clouds 7 1037 93 10000 2.6 80 09:59 28.12.2019
5319 Clouds 7 1037 93 10000 3.1 80 09:59 28.12.2019
5320 Clouds 7 1037 93 10000 2.6 80 09:41 28.12.2019
5321 Clouds 7 1037 93 10000 2.6 70 09:23 28.12.2019
5322 Clouds 7 1037 93 10000 2.1 60 08:57 28.12.2019
5323 Clouds 7 1037 93 10000 2.1 60 08:38 28.12.2019
5324 Clouds 7 1037 93 10000 1.5 70 08:19 28.12.2019
5325 Clouds 7 1037 93 10000 1.5 50 07:41 28.12.2019
5326 Clouds 7 1036 87 10000 1.5 0 06:55 28.12.2019
5327 Clouds 7 1036 81 10000 1.5 20 05:40 28.12.2019
5328 Clouds 8 1036 87 10000 2.6 60 03:48 28.12.2019
5329 Clouds 8 1035 87 10000 1.5 0 02:50 28.12.2019
5330 Clouds 8 1035 87 10000 1.5 0 02:19 28.12.2019
5331 Clouds 8 1035 87 10000 1.5 50 01:50 28.12.2019
5332 Clouds 8 1035 87 10000 1.5 60 01:21 28.12.2019
5333 Clouds 8 1035 81 10000 1.5 360 00:42 28.12.2019
5334 Clouds 8 1035 81 10000 1 50 00:23 28.12.2019
5335 Clouds 8 1035 81 10000 1 50 23:56 27.12.2019
5336 Clouds 8 1035 81 10000 1.5 20 23:36 27.12.2019
5337 Clouds 8 1035 81 10000 1.5 30 23:18 27.12.2019
5338 Clouds 8 1034 81 10000 1 10 22:55 27.12.2019
5339 Clouds 8 1034 81 10000 1 10 22:37 27.12.2019
5340 Clouds 8 1034 81 10000 1 10 22:19 27.12.2019
5341 Clouds 8 1034 81 10000 1.5 360 21:41 27.12.2019
5342 Clouds 8 1034 81 10000 0.5 360 21:23 27.12.2019
5343 Clouds 8 1033 81 10000 1 40 20:44 27.12.2019
5344 Clouds 8 1033 81 10000 1.5 40 20:26 27.12.2019
5345 Clouds 8 1033 81 10000 1 0 19:57 27.12.2019
5346 Clouds 8 1033 81 10000 1 0 19:38 27.12.2019
5347 Clouds 8 1032 81 10000 2.1 10 19:19 27.12.2019
5348 Clouds 8 1032 81 10000 2.1 10 18:55 27.12.2019
5349 Clouds 9 1032 87 10000 1.5 10 18:36 27.12.2019
5350 Clouds 9 1032 87 10000 1.5 10 18:18 27.12.2019
5351 Clouds 9 1032 87 10000 1.5 10 17:55 27.12.2019
5352 Clouds 9 1031 87 10000 2.6 330 17:36 27.12.2019
5353 Clouds 9 1031 81 10000 2.6 330 17:18 27.12.2019
5354 Clouds 9 1031 81 10000 2.6 330 16:41 27.12.2019
5355 Clouds 9 1030 87 10000 2.1 340 16:23 27.12.2019
5356 Clouds 9 1030 87 10000 2.1 330 15:58 27.12.2019
5357 Clouds 9 1030 87 10000 2.1 330 15:37 27.12.2019
5358 Clouds 9 1030 87 10000 2.1 330 15:37 27.12.2019
5359 Clouds 9 1029 87 10000 2.6 340 15:19 27.12.2019
5360 Clouds 9 1029 87 10000 3.1 310 14:56 27.12.2019
5361 Clouds 9 1029 87 10000 3.1 310 14:38 27.12.2019
5362 Clouds 9 1029 87 10000 3.1 310 14:19 27.12.2019
5363 Clouds 9 1029 81 10000 2.6 300 13:47 27.12.2019
5364 Clouds 9 1029 81 10000 2.6 300 13:24 27.12.2019
5365 Clouds 9 1028 81 10000 2.6 310 12:56 27.12.2019
5366 Clouds 9 1028 81 10000 3.1 300 12:37 27.12.2019
5367 Clouds 8 1028 81 10000 3.6 300 12:18 27.12.2019
5368 Clouds 8 1028 81 10000 3.6 300 11:42 27.12.2019
5369 Clouds 8 1027 81 10000 4.1 310 11:20 27.12.2019
5370 Clouds 8 1026 81 10000 3.6 310 10:54 27.12.2019
5371 Clouds 8 1026 81 10000 3.6 310 10:36 27.12.2019
5372 Clouds 8 1026 81 10000 4.6 330 10:18 27.12.2019
5373 Clouds 9 1025 87 10000 6.2 340 09:40 27.12.2019
5374 Clouds 9 1025 87 10000 6.2 340 09:21 27.12.2019
5375 Clouds 9 1024 87 10000 3.1 300 08:55 27.12.2019
5376 Clouds 9 1023 76 10000 4.6 310 08:35 27.12.2019
5377 Clouds 9 1022 87 10000 2.6 290 07:50 27.12.2019
5378 Clouds 9 1022 87 10000 2.6 290 07:31 27.12.2019
5379 Clouds 9 1022 93 10000 3.1 260 06:36 27.12.2019
5380 Rain 9 1021 87 10000 3.6 280 05:28 27.12.2019
5381 Rain 11 1019 93 5000 5.7 260 03:26 27.12.2019
5382 Rain 10 1019 87 10000 6.2 230 02:20 27.12.2019
5383 Rain 10 1020 87 10000 5.7 230 01:37 27.12.2019
5384 Rain 10 1020 87 6000 5.1 240 01:18 27.12.2019
5385 Drizzle 10 1020 87 10000 6.2 240 00:41 27.12.2019
5386 Drizzle 10 1020 87 10000 6.2 240 00:23 27.12.2019
5387 Rain 10 1021 93 10000 5.1 220 23:41 26.12.2019
5388 Rain 10 1021 87 10000 4.1 200 23:22 26.12.2019
5389 Rain 9 1021 87 8000 4.1 200 22:47 26.12.2019
5390 Rain 9 1022 87 8000 3.6 190 22:23 26.12.2019
5391 Rain 9 1022 87 8000 3.6 190 21:59 26.12.2019
5392 Rain 9 1022 87 4800 3.1 200 21:39 26.12.2019
5393 Rain 9 1022 87 6000 5.1 230 21:20 26.12.2019
5394 Rain 9 1022 81 10000 4.6 230 20:46 26.12.2019
5395 Rain 10 1022 87 10000 3.1 220 20:23 26.12.2019
5396 Clouds 10 1022 87 10000 3.1 220 19:59 26.12.2019
5397 Clouds 9 1022 87 10000 3.1 210 19:40 26.12.2019
5398 Clouds 9 1022 87 10000 3.6 220 19:22 26.12.2019
5399 Clouds 9 1022 87 10000 3.6 220 18:58 26.12.2019
5400 Rain 9 1022 87 5000 3.6 210 18:40 26.12.2019
5401 Rain 9 1022 93 10000 2.6 220 18:20 26.12.2019
5402 Rain 10 1022 93 10000 2.6 220 17:58 26.12.2019
5403 Clouds 10 1021 81 10000 3.1 170 17:40 26.12.2019
5404 Clouds 10 1021 76 10000 4.1 200 17:19 26.12.2019
5405 Clouds 10 1021 76 10000 5.1 200 16:46 26.12.2019
5406 Clouds 10 1021 71 10000 4.1 210 16:26 26.12.2019
5407 Clouds 10 1021 71 10000 4.1 210 15:56 26.12.2019
5408 Clouds 10 1021 71 10000 4.1 210 15:56 26.12.2019
5409 Clouds 9 1021 76 10000 3.6 210 15:38 26.12.2019
5410 Clouds 9 1021 76 10000 2.6 210 15:18 26.12.2019
5411 Clouds 9 1021 76 10000 2.6 180 14:41 26.12.2019
5412 Clouds 9 1022 75 10000 3.6 180 14:23 26.12.2019
5413 Clouds 8 1022 75 10000 3.6 190 13:45 26.12.2019
5414 Clouds 8 1022 75 10000 3.6 190 13:24 26.12.2019
5415 Clouds 8 1022 81 10000 4.1 170 12:59 26.12.2019
5416 Clouds 7 1021 81 10000 3.6 160 12:41 26.12.2019
5417 Clouds 6 1022 81 10000 3.6 140 12:23 26.12.2019
5418 Clouds 6 1022 81 10000 3.6 140 11:58 26.12.2019
5419 Clouds 6 1022 81 10000 4.1 140 11:40 26.12.2019
5420 Rain 5 1023 86 10000 3.1 160 11:21 26.12.2019
5421 Clouds 5 1023 80 10000 2.6 160 10:50 26.12.2019
5422 Clouds 5 1023 80 10000 2.6 160 10:25 26.12.2019
5423 Clouds 4 1022 80 10000 4.1 140 09:55 26.12.2019
5424 Clouds 4 1022 80 10000 3.6 120 09:33 26.12.2019
5425 Clouds 4 1022 80 10000 2.6 110 08:59 26.12.2019
5426 Clouds 4 1022 80 10000 2.6 110 08:39 26.12.2019
5427 Clouds 4 1022 80 10000 2.6 110 08:20 26.12.2019
5428 Clouds 3 1022 86 10000 1 0 07:41 26.12.2019
5429 Clouds 3 1022 86 10000 3.1 110 07:19 26.12.2019
5430 Clouds 3 1022 93 10000 2.1 80 06:38 26.12.2019
5431 Clouds 3 1022 93 10000 2.1 80 06:20 26.12.2019
5432 Clouds 3 1023 93 10000 2.6 60 05:42 26.12.2019
5433 Clouds 2 1024 93 10000 2.6 80 04:33 26.12.2019
5434 Clouds 2 1024 93 10000 2.1 60 03:31 26.12.2019
5435 Clouds 2 1025 86 10000 1 0 02:46 26.12.2019
5436 Clouds 2 1025 86 10000 1 0 02:27 26.12.2019
5437 Clouds 2 1025 86 10000 2.1 70 01:44 26.12.2019
5438 Clouds 3 1025 86 10000 1 100 01:25 26.12.2019
5439 Clouds 3 1025 86 10000 1.5 60 00:44 26.12.2019
5440 Clouds 3 1025 86 10000 1.5 60 00:23 26.12.2019
5441 Clouds 3 1025 86 10000 1.5 80 23:57 25.12.2019
5442 Clouds 3 1025 86 10000 2.6 110 23:37 25.12.2019
5443 Clouds 3 1025 86 10000 2.6 110 23:19 25.12.2019
5444 Clouds 3 1026 86 10000 1.5 120 22:56 25.12.2019
5445 Clouds 3 1026 86 10000 2.1 100 22:37 25.12.2019
5446 Clouds 4 1026 80 10000 2.6 80 22:19 25.12.2019
5447 Clouds 4 1026 80 10000 2.6 80 21:57 25.12.2019
5448 Clouds 4 1026 86 10000 2.6 90 21:39 25.12.2019
5449 Clouds 4 1026 80 10000 2.6 80 21:19 25.12.2019
5450 Clouds 5 1026 86 10000 3.6 80 20:41 25.12.2019
5451 Clouds 5 1026 86 10000 3.6 80 20:21 25.12.2019
5452 Clouds 5 1026 86 10000 2.1 70 19:59 25.12.2019
5453 Clouds 5 1026 80 10000 2.6 110 19:41 25.12.2019
5454 Clouds 5 1026 80 10000 2.6 110 19:22 25.12.2019
5455 Clouds 6 1026 81 10000 3.6 70 18:41 25.12.2019
5456 Clouds 7 1026 65 10000 2.6 50 18:21 25.12.2019
5457 Clouds 7 1026 65 10000 2.6 50 17:59 25.12.2019
5458 Clouds 7 1026 65 10000 1.5 40 17:39 25.12.2019
5459 Clear 8 1026 65 10000 1 340 17:18 25.12.2019
5460 Clear 8 1026 65 10000 1 340 16:55 25.12.2019
5461 Clouds 9 1026 66 10000 1 0 16:36 25.12.2019
5462 Clouds 9 1025 66 10000 1.5 0 16:18 25.12.2019
5463 Clouds 9 1025 66 10000 1.5 0 15:56 25.12.2019
5464 Clouds 9 1025 66 10000 2.1 10 15:37 25.12.2019
5465 Clouds 9 1025 61 10000 2.1 350 15:18 25.12.2019
5466 Clouds 10 1025 61 10000 2.1 350 14:55 25.12.2019
5467 Clouds 10 1025 61 10000 1.5 350 14:37 25.12.2019
5468 Clouds 10 1025 66 10000 2.1 340 14:18 25.12.2019
5469 Clouds 10 1025 61 10000 2.6 330 13:42 25.12.2019
5470 Clouds 10 1025 61 10000 2.6 330 13:21 25.12.2019
5471 Clouds 9 1025 66 10000 3.1 290 12:44 25.12.2019
5472 Clouds 9 1025 66 10000 3.1 290 12:22 25.12.2019
5473 Clouds 9 1025 61 10000 3.1 310 11:58 25.12.2019
5474 Clouds 9 1025 57 10000 4.1 320 11:40 25.12.2019
5475 Clouds 8 1025 66 10000 2.6 290 11:21 25.12.2019
5476 Clouds 8 1024 75 10000 2.6 270 10:41 25.12.2019
5477 Clouds 8 1024 75 10000 2.6 270 10:21 25.12.2019
5478 Clouds 8 1023 70 10000 3.6 290 09:59 25.12.2019
5479 Clouds 8 1023 70 10000 3.6 290 09:41 25.12.2019
5480 Clouds 7 1022 76 10000 3.6 310 09:23 25.12.2019
5481 Clouds 8 1022 76 10000 2.6 290 08:44 25.12.2019
5482 Clouds 8 1022 76 10000 2.6 290 08:24 25.12.2019
5483 Rain 8 1021 76 10000 4.6 270 07:45 25.12.2019
5484 Clouds 9 1021 81 10000 4.6 260 07:23 25.12.2019
5485 Rain 9 1021 76 10000 3.6 260 06:41 25.12.2019
5486 Rain 9 1021 76 10000 3.6 260 06:21 25.12.2019
5487 Clouds 9 1020 81 10000 4.6 260 04:49 25.12.2019
5488 Clouds 10 1020 81 10000 5.1 260 04:25 25.12.2019
5489 Clouds 10 1019 87 10000 5.1 240 03:57 25.12.2019
5490 Drizzle 10 1019 87 10000 4.6 250 03:39 25.12.2019
5491 Clouds 10 1018 87 10000 5.7 240 02:32 25.12.2019
5492 Clouds 10 1018 76 10000 6.2 230 01:55 25.12.2019
5493 Clouds 10 1018 87 10000 4.6 260 01:24 25.12.2019
5494 Clouds 10 1018 76 10000 6.2 240 00:48 25.12.2019
5495 Clouds 10 1018 76 10000 6.2 240 00:28 25.12.2019
5496 Clouds 10 1017 76 10000 5.7 240 23:55 24.12.2019
5497 Clouds 10 1017 76 10000 3.1 230 23:37 24.12.2019
5498 Clouds 10 1017 81 10000 5.1 240 23:19 24.12.2019
5499 Clouds 10 1017 81 10000 6.7 250 22:39 24.12.2019
5500 Clouds 10 1017 81 10000 6.2 250 22:20 24.12.2019
5501 Clouds 10 1016 81 10000 5.1 240 21:42 24.12.2019
5502 Clouds 10 1016 81 10000 5.1 240 21:22 24.12.2019
5503 Rain 10 1017 76 10000 5.1 230 20:54 24.12.2019
5504 Rain 10 1016 76 10000 5.1 250 20:36 24.12.2019
5505 Clouds 11 1016 66 10000 6.2 240 20:18 24.12.2019
5506 Clouds 11 1016 66 10000 5.1 230 19:43 24.12.2019
5507 Clouds 11 1016 66 10000 5.1 230 19:19 24.12.2019
5508 Clouds 11 1016 81 10000 4.1 240 18:43 24.12.2019
5509 Clouds 11 1016 81 10000 4.1 240 18:23 24.12.2019
5510 Rain 11 1016 76 10000 4.1 240 17:58 24.12.2019
5511 Clouds 11 1016 71 10000 4.6 260 17:37 24.12.2019
5512 Clouds 11 1016 66 10000 5.7 240 17:19 24.12.2019
5513 Clouds 11 1016 66 10000 5.7 240 16:55 24.12.2019
5514 Clouds 12 1015 62 10000 7.2 250 16:36 24.12.2019
5515 Clouds 12 1015 66 10000 7.7 240 16:18 24.12.2019
5516 Clouds 12 1015 66 10000 7.7 260 15:54 24.12.2019
5517 Clouds 12 1015 62 10000 6.2 250 15:36 24.12.2019
5518 Clouds 12 1015 62 10000 6.2 250 15:18 24.12.2019
5519 Clouds 12 1015 62 10000 6.2 250 14:54 24.12.2019
5520 Clouds 12 1014 62 10000 7.2 250 14:36 24.12.2019
5521 Clouds 13 1014 62 10000 8.2 250 14:18 24.12.2019
5522 Clouds 12 1015 66 10000 7.7 250 13:54 24.12.2019
5523 Clouds 12 1015 66 10000 7.7 250 13:36 24.12.2019
5524 Clouds 12 1014 66 10000 7.2 250 13:18 24.12.2019
5525 Clouds 12 1014 66 10000 7.2 250 12:54 24.12.2019
5526 Clouds 12 1015 76 10000 6.7 260 12:36 24.12.2019
5527 Clouds 12 1015 76 10000 6.7 250 12:18 24.12.2019
5528 Clouds 12 1015 76 10000 6.7 250 11:54 24.12.2019
5529 Clouds 11 1014 76 10000 6.2 250 11:36 24.12.2019
5530 Clouds 11 1014 76 10000 5.1 260 11:18 24.12.2019
5531 Clouds 11 1014 76 10000 5.1 260 10:54 24.12.2019
5532 Clouds 11 1013 81 10000 4.6 250 10:36 24.12.2019
5533 Clouds 11 1013 87 10000 5.7 260 10:18 24.12.2019
5534 Clouds 11 1012 81 10000 5.1 260 09:54 24.12.2019
5535 Clouds 11 1012 81 10000 5.1 260 09:36 24.12.2019
5536 Clouds 11 1012 87 10000 4.6 260 09:18 24.12.2019
5537 Clouds 11 1012 93 10000 3.6 250 08:42 24.12.2019
5538 Clouds 11 1011 100 10000 4.1 230 08:19 24.12.2019
5539 Clouds 11 1011 93 10000 3.1 220 07:44 24.12.2019
5540 Clouds 11 1011 93 10000 3.1 220 07:22 24.12.2019
5541 Drizzle 10 1011 93 10000 4.6 180 06:41 24.12.2019
5542 Drizzle 10 1011 93 10000 4.6 180 06:22 24.12.2019
5543 Drizzle 8 1012 100 5000 5.1 160 05:56 24.12.2019
5544 Drizzle 8 1013 93 5000 4.6 170 05:20 24.12.2019
5545 Drizzle 8 1013 93 7000 6.2 160 04:22 24.12.2019
5546 Clouds 8 1014 93 10000 5.7 160 03:50 24.12.2019
5547 Drizzle 7 1014 93 10000 5.7 160 02:59 24.12.2019
5548 Rain 7 1015 87 10000 3.6 180 02:18 24.12.2019
5549 Rain 8 1016 81 10000 4.6 180 01:42 24.12.2019
5550 Rain 8 1016 81 10000 4.6 180 01:19 24.12.2019
5551 Rain 8 1017 76 10000 4.6 190 00:41 24.12.2019
5552 Rain 8 1017 76 10000 4.6 190 00:22 24.12.2019
5553 Rain 8 1017 70 10000 3.6 190 23:55 23.12.2019
5554 Rain 8 1017 70 10000 3.6 190 23:37 23.12.2019
5555 Clouds 8 1017 70 10000 4.1 200 23:19 23.12.2019
5556 Clouds 8 1017 70 10000 4.1 210 22:54 23.12.2019
5557 Clouds 8 1017 70 10000 4.1 210 22:36 23.12.2019
5558 Clouds 8 1017 70 10000 5.1 210 22:18 23.12.2019
5559 Clouds 8 1018 70 10000 4.1 220 21:54 23.12.2019
5560 Clouds 8 1018 70 10000 4.1 220 21:36 23.12.2019
5561 Clouds 8 1018 75 10000 3.6 230 21:18 23.12.2019
5562 Clouds 8 1018 75 10000 3.6 230 20:55 23.12.2019
5563 Clouds 8 1018 75 10000 3.6 230 20:37 23.12.2019
5564 Clouds 9 1017 71 10000 5.1 220 20:18 23.12.2019
5565 Clouds 9 1017 71 10000 5.1 220 19:54 23.12.2019
5566 Clouds 9 1017 71 10000 4.6 230 19:36 23.12.2019
5567 Clouds 9 1017 71 10000 4.6 230 19:18 23.12.2019
5568 Clouds 9 1017 71 10000 4.6 230 18:54 23.12.2019
5569 Clouds 9 1017 71 10000 4.6 230 18:36 23.12.2019
5570 Clouds 9 1017 71 10000 6.2 230 18:18 23.12.2019
5571 Clouds 9 1016 71 10000 4.6 230 17:55 23.12.2019
5572 Clouds 9 1016 71 10000 4.6 230 17:37 23.12.2019
5573 Clouds 9 1016 71 10000 4.6 230 17:18 23.12.2019
5574 Clouds 10 1016 71 10000 6.2 240 16:42 23.12.2019
5575 Clouds 10 1016 76 10000 4.6 240 16:19 23.12.2019
5576 Clouds 10 1016 76 10000 4.6 240 15:58 23.12.2019
5577 Clouds 10 1016 71 10000 5.1 260 15:37 23.12.2019
5578 Clouds 10 1015 71 10000 5.7 240 15:19 23.12.2019
5579 Clouds 10 1014 71 10000 6.2 250 14:58 23.12.2019
5580 Clouds 10 1014 71 10000 6.2 250 14:39 23.12.2019
5581 Clouds 10 1014 71 10000 6.2 250 14:21 23.12.2019
5582 Clouds 10 1014 71 10000 7.2 250 13:58 23.12.2019
5583 Clouds 10 1014 71 10000 7.2 250 13:40 23.12.2019
5584 Clouds 10 1014 76 10000 6.7 250 13:21 23.12.2019
5585 Clouds 10 1014 76 10000 6.7 250 12:56 23.12.2019
5586 Clouds 10 1013 76 10000 6.2 260 12:37 23.12.2019
5587 Clouds 10 1013 76 10000 6.2 250 12:19 23.12.2019
5588 Clouds 9 1013 76 10000 6.7 250 11:44 23.12.2019
5589 Clouds 9 1013 76 10000 6.7 250 11:25 23.12.2019
5590 Clouds 9 1012 81 10000 5.7 260 10:57 23.12.2019
5591 Clouds 9 1012 81 10000 5.7 260 10:57 23.12.2019
5592 Rain 9 1012 81 10000 4.6 250 10:39 23.12.2019
5593 Rain 8 1011 81 10000 5.1 260 10:20 23.12.2019
5594 Rain 8 1011 81 10000 5.1 260 09:59 23.12.2019
5595 Rain 8 1011 81 10000 5.7 250 09:39 23.12.2019
5596 Rain 8 1011 81 10000 5.7 250 09:20 23.12.2019
5597 Rain 8 1010 81 10000 4.1 260 08:56 23.12.2019
5598 Rain 8 1009 81 10000 5.1 250 08:38 23.12.2019
5599 Rain 8 1009 81 10000 5.1 250 08:19 23.12.2019
5600 Rain 8 1008 81 10000 5.7 250 07:43 23.12.2019
5601 Rain 8 1008 81 10000 5.7 250 07:20 23.12.2019
5602 Rain 8 1006 76 10000 5.7 240 06:52 23.12.2019
5603 Rain 8 1006 76 10000 6.7 240 06:25 23.12.2019
5604 Clouds 8 1006 76 10000 6.2 240 05:50 23.12.2019
5605 Clouds 8 1005 76 10000 7.2 230 05:27 23.12.2019
5606 Clouds 8 1005 76 10000 7.2 240 04:31 23.12.2019
5607 Clouds 8 1004 76 10000 6.7 230 02:58 23.12.2019
5608 Clouds 8 1003 76 10000 6.7 230 02:40 23.12.2019
5609 Clouds 8 1003 76 10000 6.7 240 02:18 23.12.2019
5610 Clouds 8 1003 76 10000 6.7 240 02:18 23.12.2019
5611 Clouds 8 1002 76 10000 6.7 240 01:41 23.12.2019
5612 Clouds 8 1002 76 10000 7.2 240 01:19 23.12.2019
5613 Clouds 8 1002 76 10000 6.7 240 00:43 23.12.2019
5614 Clouds 8 1001 76 10000 7.2 240 00:21 23.12.2019
5615 Clouds 8 1000 70 10000 6.7 240 23:39 22.12.2019
5616 Clouds 8 1000 70 10000 6.7 240 23:21 22.12.2019
5617 Clouds 7 1000 70 10000 7.7 240 22:58 22.12.2019
5618 Clouds 7 999 75 10000 6.2 230 22:39 22.12.2019
5619 Clouds 7 999 75 10000 6.2 230 22:19 22.12.2019
5620 Clouds 7 999 81 10000 5.1 240 21:57 22.12.2019
5621 Clouds 7 998 75 10000 5.7 240 21:39 22.12.2019
5622 Clouds 7 998 75 10000 6.7 230 21:21 22.12.2019
5623 Clouds 7 998 81 10000 4.6 240 20:58 22.12.2019
5624 Clouds 7 998 81 10000 4.6 240 20:38 22.12.2019
5625 Clouds 7 997 87 10000 2.1 240 20:18 22.12.2019
5626 Rain 8 997 81 10000 4.6 280 19:56 22.12.2019
5627 Rain 8 997 81 10000 4.6 280 19:37 22.12.2019
5628 Rain 8 997 81 10000 4.6 280 19:19 22.12.2019
5629 Rain 8 995 66 10000 7.2 230 18:41 22.12.2019
5630 Rain 9 995 66 10000 7.2 230 18:23 22.12.2019
5631 Rain 9 995 66 10000 7.2 230 17:56 22.12.2019
5632 Clouds 9 994 66 10000 6.2 240 17:37 22.12.2019
5633 Clouds 9 994 71 10000 6.2 240 17:19 22.12.2019
5634 Clouds 9 994 71 10000 6.2 240 17:19 22.12.2019
5635 Clouds 9 994 71 10000 6.2 240 16:57 22.12.2019
5636 Clouds 9 993 76 10000 5.1 250 16:38 22.12.2019
5637 Clouds 10 993 71 10000 5.7 240 16:20 22.12.2019
5638 Clouds 10 993 71 10000 5.7 240 15:56 22.12.2019
5639 Clouds 10 993 71 10000 8.7 250 15:37 22.12.2019
5640 Clouds 10 993 76 10000 7.7 260 15:19 22.12.2019
5641 Clouds 10 993 76 10000 7.7 260 14:55 22.12.2019
5642 Clouds 10 992 71 10000 8.2 250 14:36 22.12.2019
5643 Clouds 10 992 71 10000 7.7 240 14:18 22.12.2019
5644 Rain 10 992 76 10000 8.2 240 13:55 22.12.2019
5645 Rain 10 992 76 10000 8.2 240 13:36 22.12.2019
5646 Rain 10 991 76 10000 8.2 250 13:18 22.12.2019
5647 Rain 10 991 76 10000 8.2 250 13:18 22.12.2019
5648 Rain 10 991 76 10000 8.2 250 13:18 22.12.2019
5649 Rain 10 991 76 10000 8.2 250 12:55 22.12.2019
5650 Rain 10 991 71 10000 8.7 240 12:37 22.12.2019
5651 Clouds 9 990 76 10000 7.2 250 12:18 22.12.2019
5652 Clouds 9 990 76 10000 7.2 250 12:18 22.12.2019
5653 Clouds 9 990 76 10000 7.2 250 11:55 22.12.2019
5654 Clouds 9 990 71 10000 7.7 250 11:36 22.12.2019
5655 Clouds 9 989 76 10000 7.7 250 11:18 22.12.2019
5656 Drizzle 9 988 87 10000 6.7 250 10:54 22.12.2019
5657 Drizzle 9 988 87 10000 6.7 250 10:36 22.12.2019
5658 Clouds 9 987 87 10000 7.7 250 10:18 22.12.2019
5659 Clouds 9 987 87 10000 7.7 250 09:56 22.12.2019
5660 Rain 9 986 87 10000 7.7 260 09:37 22.12.2019
5661 Rain 9 985 81 10000 7.2 250 09:19 22.12.2019
5662 Rain 9 984 93 10000 6.7 250 08:39 22.12.2019
5663 Clouds 9 984 93 10000 6.7 250 08:21 22.12.2019
5664 Drizzle 9 982 93 10000 5.1 240 07:40 22.12.2019
5665 Rain 9 981 93 10000 4.1 230 07:21 22.12.2019
5666 Clouds 9 980 87 10000 4.1 220 06:41 22.12.2019
5667 Drizzle 9 980 93 6000 4.1 230 05:56 22.12.2019
5668 Clouds 9 978 87 10000 5.7 210 05:24 22.12.2019
5669 Rain 9 978 87 10000 5.1 230 04:31 22.12.2019
5670 Rain 9 977 87 7000 3.6 200 03:58 22.12.2019
5671 Clouds 9 977 87 10000 8.2 180 02:43 22.12.2019
5672 Clouds 9 977 87 10000 8.2 180 02:43 22.12.2019
5673 Clouds 9 977 87 10000 8.2 180 02:43 22.12.2019
5674 Rain 9 978 87 10000 8.2 170 01:57 22.12.2019
5675 Clouds 9 978 87 10000 8.7 180 01:31 22.12.2019
5676 Rain 9 979 93 5000 8.2 170 00:48 22.12.2019
5677 Rain 9 979 93 5000 8.2 170 00:28 22.12.2019
5678 Clouds 9 979 87 10000 5.7 170 23:59 21.12.2019
5679 Rain 9 980 87 10000 5.7 190 23:40 21.12.2019
5680 Clouds 9 980 87 10000 5.7 200 23:20 21.12.2019
5681 Clouds 9 980 87 10000 4.6 210 22:46 21.12.2019
5682 Clouds 9 980 81 10000 5.7 220 22:20 21.12.2019
5683 Clouds 9 980 76 10000 6.7 200 21:58 21.12.2019
5684 Clouds 9 979 81 10000 8.2 180 21:40 21.12.2019
5685 Clouds 9 980 87 10000 8.7 180 21:21 21.12.2019
5686 Clouds 8 980 81 10000 8.2 160 20:59 21.12.2019
5687 Clouds 8 980 81 10000 8.2 160 20:41 21.12.2019
5688 Clouds 8 980 81 10000 8.2 160 20:22 21.12.2019
5689 Rain 8 981 81 10000 7.7 140 19:59 21.12.2019
5690 Rain 8 981 81 10000 7.7 140 19:41 21.12.2019
5691 Rain 8 981 81 10000 7.7 140 19:41 21.12.2019
5692 Rain 8 982 81 10000 7.2 150 19:20 21.12.2019
5693 Rain 9 982 76 10000 7.2 150 18:59 21.12.2019
5694 Rain 9 982 76 10000 7.2 150 18:40 21.12.2019
5695 Clouds 9 983 76 10000 7.7 150 18:22 21.12.2019
5696 Clouds 10 984 76 10000 8.2 160 17:55 21.12.2019
5697 Clouds 10 984 76 10000 8.2 160 17:37 21.12.2019
5698 Clouds 10 984 76 10000 8.2 160 17:18 21.12.2019
5699 Clouds 10 984 76 10000 8.2 160 16:54 21.12.2019
5700 Clouds 10 985 87 10000 6.7 180 16:36 21.12.2019
5701 Clouds 10 985 87 10000 6.7 180 16:36 21.12.2019
5702 Clouds 10 986 87 10000 5.7 170 16:18 21.12.2019
5703 Clouds 10 986 87 10000 5.1 180 15:55 21.12.2019
5704 Clouds 10 987 81 10000 5.7 190 15:36 21.12.2019
5705 Clouds 10 987 81 10000 6.2 200 15:18 21.12.2019
5706 Clouds 10 988 71 10000 6.2 180 14:41 21.12.2019
5707 Clouds 10 988 71 10000 6.2 180 14:22 21.12.2019
5708 Clouds 10 988 71 10000 7.2 190 13:58 21.12.2019
5709 Clouds 10 988 71 10000 7.2 190 13:58 21.12.2019
5710 Clouds 10 989 71 10000 7.2 180 13:39 21.12.2019
5711 Clouds 10 989 76 10000 6.7 190 13:19 21.12.2019
5712 Clouds 10 990 81 10000 6.7 180 12:56 21.12.2019
5713 Clouds 10 990 81 10000 6.7 180 12:38 21.12.2019
5714 Clouds 9 990 81 10000 6.7 180 12:20 21.12.2019
5715 Clouds 9 991 81 10000 6.7 200 11:46 21.12.2019
5716 Clouds 9 991 81 10000 6.7 200 11:27 21.12.2019
5717 Clouds 8 991 87 10000 5.1 190 10:59 21.12.2019
5718 Clouds 8 991 87 10000 5.1 190 10:40 21.12.2019
5719 Clouds 8 991 81 10000 5.1 190 10:21 21.12.2019
5720 Clouds 7 991 81 10000 4.6 190 09:58 21.12.2019
5721 Clouds 7 991 81 10000 4.6 190 09:39 21.12.2019
5722 Clouds 7 991 81 10000 4.6 190 09:39 21.12.2019
5723 Clouds 7 991 81 10000 4.6 200 09:19 21.12.2019
5724 Clouds 7 991 81 10000 5.1 200 08:47 21.12.2019
5725 Clouds 7 991 81 10000 5.7 210 08:27 21.12.2019
5726 Clouds 7 991 87 10000 5.1 190 07:47 21.12.2019
5727 Clouds 7 991 87 10000 5.1 190 07:23 21.12.2019
5728 Clouds 7 991 81 10000 6.2 200 06:58 21.12.2019
5729 Clouds 7 990 81 10000 5.1 190 06:40 21.12.2019
5730 Rain 7 990 87 10000 5.1 190 06:21 21.12.2019
5731 Clouds 7 990 81 10000 5.1 180 05:25 21.12.2019
5732 Clouds 7 991 81 10000 4.6 170 04:34 21.12.2019
5733 Clouds 7 991 87 10000 3.6 150 03:56 21.12.2019
5734 Clouds 7 991 87 10000 4.6 160 02:25 21.12.2019
5735 Clouds 7 991 87 10000 5.1 190 01:48 21.12.2019
5736 Clouds 7 991 87 10000 5.1 190 01:25 21.12.2019
5737 Clouds 7 991 81 10000 5.1 190 00:45 21.12.2019
5738 Clouds 8 991 81 10000 5.7 200 00:26 21.12.2019
5739 Clouds 8 991 81 10000 4.6 190 23:39 20.12.2019
5740 Clouds 8 991 81 10000 4.6 190 23:39 20.12.2019
5741 Clouds 8 991 81 10000 6.7 190 23:21 20.12.2019
5742 Clouds 8 991 81 10000 6.7 190 22:59 20.12.2019
5743 Clouds 8 991 81 10000 5.7 190 22:39 20.12.2019
5744 Clouds 8 991 81 10000 5.7 180 22:19 20.12.2019
5745 Clouds 8 991 81 10000 5.7 180 21:54 20.12.2019
5746 Clouds 9 991 76 10000 6.7 180 21:36 20.12.2019
5747 Clouds 9 991 76 10000 7.2 190 21:18 20.12.2019
5748 Clouds 9 991 76 10000 7.2 190 21:18 20.12.2019
5749 Clouds 9 991 76 10000 7.2 190 21:18 20.12.2019
5750 Clouds 9 991 81 10000 5.7 180 20:39 20.12.2019
5751 Clouds 8 990 81 10000 5.7 180 20:19 20.12.2019
5752 Clouds 8 990 81 10000 5.7 180 19:57 20.12.2019
5753 Clouds 8 990 76 10000 6.2 180 19:38 20.12.2019
5754 Clouds 8 990 76 10000 5.7 190 19:19 20.12.2019
5755 Clear 8 990 76 10000 5.1 190 18:42 20.12.2019
5756 Clear 8 990 76 10000 5.1 190 18:23 20.12.2019
5757 Clear 8 990 70 10000 4.6 190 17:58 20.12.2019
5758 Clear 8 990 70 10000 3.6 220 17:40 20.12.2019
5759 Clouds 8 990 70 10000 3.6 220 17:20 20.12.2019
5760 Rain 9 989 71 10000 9.3 240 16:59 20.12.2019
5761 Rain 9 989 71 10000 9.3 240 16:59 20.12.2019
5762 Rain 9 988 62 10000 6.7 220 16:38 20.12.2019
5763 Rain 9 988 62 10000 6.7 220 16:20 20.12.2019
5764 Rain 9 988 62 10000 6.7 220 16:20 20.12.2019
5765 Rain 10 988 62 10000 8.7 220 15:56 20.12.2019
5766 Clouds 10 987 58 10000 8.7 230 15:38 20.12.2019
5767 Clouds 11 987 58 10000 8.7 230 15:19 20.12.2019
5768 Clouds 11 986 66 10000 9.3 230 14:43 20.12.2019
5769 Clouds 11 986 66 10000 9.3 230 14:25 20.12.2019
5770 Clouds 11 987 66 10000 10.3 230 13:59 20.12.2019
5771 Clouds 11 987 76 10000 7.7 240 13:41 20.12.2019
5772 Clouds 11 987 76 10000 7.7 240 13:20 20.12.2019
5773 Clouds 11 987 81 10000 7.2 230 12:57 20.12.2019
5774 Clouds 11 986 76 10000 8.2 220 12:37 20.12.2019
5775 Clouds 11 986 76 10000 8.2 220 12:19 20.12.2019
5776 Clouds 11 985 76 10000 8.7 220 11:58 20.12.2019
5777 Clouds 11 985 76 10000 8.7 220 11:39 20.12.2019
5778 Clouds 11 985 81 10000 6.7 210 11:19 20.12.2019
5779 Rain 11 984 81 10000 7.2 210 10:57 20.12.2019
5780 Rain 11 984 81 10000 7.2 210 10:57 20.12.2019
5781 Rain 11 984 81 10000 7.7 210 10:38 20.12.2019
5782 Rain 11 984 81 10000 7.7 210 10:20 20.12.2019
5783 Clouds 12 983 82 10000 7.7 200 09:44 20.12.2019
5784 Rain 12 983 82 10000 10.3 190 09:22 20.12.2019
5785 Rain 12 982 82 10000 10.8 160 08:59 20.12.2019
5786 Rain 12 982 93 10000 10.8 160 08:41 20.12.2019
5787 Rain 12 982 93 10000 10.8 160 08:22 20.12.2019
5788 Rain 12 982 87 7000 7.7 150 07:58 20.12.2019
5789 Rain 11 983 87 6000 9.3 150 07:39 20.12.2019
5790 Rain 11 983 87 6000 9.3 150 07:18 20.12.2019
5791 Rain 11 983 87 7000 9.8 140 06:48 20.12.2019
5792 Rain 11 983 87 7000 9.8 140 06:48 20.12.2019
5793 Rain 11 984 87 9000 9.8 140 06:30 20.12.2019
5794 Rain 11 985 87 10000 8.2 130 05:49 20.12.2019
5795 Rain 11 986 93 8000 7.7 130 05:25 20.12.2019
5796 Rain 11 988 81 10000 5.1 120 03:50 20.12.2019
5797 Rain 11 989 81 9000 4.1 130 03:29 20.12.2019
5798 Rain 11 991 81 10000 3.6 140 02:38 20.12.2019
5799 Rain 12 992 76 10000 5.7 140 01:36 20.12.2019
5800 Rain 12 993 76 10000 5.7 140 00:59 20.12.2019
5801 Clouds 12 993 76 10000 5.7 140 00:40 20.12.2019
5802 Clouds 12 994 76 10000 4.6 140 23:59 19.12.2019
5803 Clouds 12 994 76 10000 4.6 140 23:40 19.12.2019
5804 Rain 13 995 76 10000 4.1 150 23:22 19.12.2019
5805 Rain 13 996 76 10000 5.7 160 22:56 19.12.2019
5806 Rain 13 996 71 10000 6.2 150 22:36 19.12.2019
5807 Rain 13 996 71 10000 6.2 150 22:18 19.12.2019
5808 Rain 13 996 71 10000 6.2 150 22:18 19.12.2019
5809 Clouds 13 997 76 10000 5.1 150 21:42 19.12.2019
5810 Clouds 13 997 76 10000 5.1 150 21:20 19.12.2019
5811 Clouds 13 997 76 10000 5.1 150 20:58 19.12.2019
5812 Clouds 13 998 76 10000 4.1 130 20:38 19.12.2019
5813 Clouds 13 998 76 10000 4.1 130 20:20 19.12.2019
5814 Clouds 13 998 76 10000 4.1 130 20:20 19.12.2019
5815 Clouds 13 998 81 10000 4.1 130 19:59 19.12.2019
5816 Clouds 12 999 76 10000 4.1 130 19:40 19.12.2019
5817 Clouds 13 999 76 10000 4.1 130 19:20 19.12.2019
5818 Clouds 13 999 81 10000 5.1 130 19:00 19.12.2019
5819 Clouds 13 1000 76 10000 5.1 140 18:40 19.12.2019
5820 Clouds 13 1000 76 10000 5.1 140 18:20 19.12.2019
5821 Clouds 13 1000 71 10000 5.1 150 17:57 19.12.2019
5822 Clouds 13 1000 71 10000 5.1 140 17:38 19.12.2019
5823 Clouds 13 1000 71 10000 5.1 140 17:38 19.12.2019
5824 Clouds 13 1000 71 10000 5.1 140 17:38 19.12.2019
5825 Rain 13 1000 71 10000 5.1 140 17:19 19.12.2019
5826 Rain 14 1001 71 10000 4.6 140 16:57 19.12.2019
5827 Rain 14 1001 71 10000 4.6 150 16:38 19.12.2019
5828 Rain 14 1001 71 10000 4.6 150 16:20 19.12.2019
5829 Rain 14 1001 71 10000 5.1 150 15:58 19.12.2019
5830 Rain 14 1001 71 10000 5.1 150 15:39 19.12.2019
5831 Rain 14 1001 71 10000 6.7 140 15:19 19.12.2019
5832 Rain 14 1002 76 10000 5.7 140 14:58 19.12.2019
5833 Rain 13 1002 76 10000 6.7 130 14:40 19.12.2019
5834 Rain 13 1002 76 10000 6.7 130 14:18 19.12.2019
5835 Rain 13 1004 76 10000 6.2 140 13:54 19.12.2019
5836 Rain 13 1004 76 10000 5.7 140 13:36 19.12.2019
5837 Rain 13 1004 76 10000 5.7 140 13:18 19.12.2019
5838 Rain 13 1004 76 10000 5.1 130 12:54 19.12.2019
5839 Rain 13 1005 76 10000 3.6 130 12:36 19.12.2019
5840 Rain 13 1005 76 10000 3.6 130 12:18 19.12.2019
5841 Rain 13 1005 76 10000 3.6 130 12:18 19.12.2019
5842 Rain 13 1005 76 10000 3.6 130 12:18 19.12.2019
5843 Rain 13 1005 76 10000 3.6 130 12:18 19.12.2019
5844 Rain 12 1006 81 10000 3.1 150 11:42 19.12.2019
5845 Clouds 12 1006 76 10000 3.6 160 11:20 19.12.2019
5846 Clouds 12 1006 76 10000 3.6 160 10:59 19.12.2019
5847 Clouds 12 1006 76 10000 5.1 160 10:38 19.12.2019
5848 Clouds 12 1006 76 10000 5.1 160 10:20 19.12.2019
5849 Clouds 12 1006 76 10000 4.1 170 09:57 19.12.2019
5850 Clouds 12 1006 76 10000 4.1 160 09:38 19.12.2019
5851 Clouds 11 1006 81 10000 4.1 160 09:19 19.12.2019
5852 Clouds 11 1006 81 10000 4.1 160 08:55 19.12.2019
5853 Clouds 11 1006 81 10000 4.1 160 08:55 19.12.2019
5854 Clouds 11 1007 76 10000 3.6 150 08:37 19.12.2019
5855 Clouds 11 1007 76 10000 3.6 150 08:18 19.12.2019
5856 Clouds 11 1007 81 10000 2.6 150 07:54 19.12.2019
5857 Clouds 10 1007 81 10000 3.6 140 07:36 19.12.2019
5858 Clouds 10 1007 81 10000 3.6 140 07:18 19.12.2019
5859 Clouds 10 1007 81 10000 4.1 140 06:42 19.12.2019
5860 Clouds 10 1007 81 10000 4.1 140 06:24 19.12.2019
5861 Clouds 10 1007 81 10000 4.6 140 05:47 19.12.2019
5862 Clouds 10 1008 87 10000 2.6 120 05:27 19.12.2019
5863 Clouds 10 1009 81 10000 2.6 130 03:58 19.12.2019
5864 Clouds 10 1009 81 10000 4.1 140 02:30 19.12.2019
5865 Clouds 10 1009 87 10000 4.1 150 01:43 19.12.2019
5866 Clear 10 1010 87 10000 4.6 150 01:21 19.12.2019
5867 Clear 10 1010 81 10000 4.1 150 00:39 19.12.2019
5868 Clear 10 1010 81 10000 4.1 150 00:19 19.12.2019
5869 Clear 10 1010 81 10000 5.1 150 23:45 18.12.2019
5870 Clear 10 1010 87 10000 4.6 150 23:19 18.12.2019
5871 Clear 10 1010 87 10000 4.1 150 22:58 18.12.2019
5872 Clear 9 1010 87 10000 4.1 140 22:40 18.12.2019
5873 Clear 10 1010 87 10000 4.1 140 22:22 18.12.2019
5874 Clouds 9 1011 87 10000 2.6 160 21:59 18.12.2019
5875 Clear 10 1011 93 10000 4.1 150 21:41 18.12.2019
5876 Clear 9 1011 93 10000 4.1 150 21:21 18.12.2019
5877 Clear 9 1011 93 10000 4.1 150 21:21 18.12.2019
5878 Clear 10 1011 87 10000 5.1 150 20:58 18.12.2019
5879 Clear 10 1011 87 10000 5.1 140 20:39 18.12.2019
5880 Clouds 9 1011 100 10000 4.6 150 20:20 18.12.2019
5881 Clouds 9 1011 87 10000 4.6 140 19:57 18.12.2019
5882 Clouds 9 1011 87 10000 5.7 140 19:39 18.12.2019
5883 Clouds 9 1011 87 10000 5.7 140 19:19 18.12.2019
5884 Clouds 9 1011 87 10000 4.6 140 18:59 18.12.2019
5885 Clouds 9 1011 87 10000 4.6 140 18:41 18.12.2019
5886 Clouds 9 1011 87 10000 5.1 140 18:22 18.12.2019
5887 Clouds 10 1012 81 10000 3.6 140 17:56 18.12.2019
5888 Clouds 10 1012 81 10000 4.6 130 17:38 18.12.2019
5889 Clouds 10 1012 81 10000 4.6 130 17:19 18.12.2019
5890 Clouds 10 1012 76 10000 4.6 130 16:43 18.12.2019
5891 Clouds 10 1012 76 10000 4.6 130 16:43 18.12.2019
5892 Clouds 11 1012 76 10000 4.6 130 16:24 18.12.2019
5893 Clouds 11 1011 81 10000 4.6 130 15:59 18.12.2019
5894 Clouds 11 1012 71 10000 5.7 120 15:40 18.12.2019
5895 Clouds 11 1013 62 10000 5.7 130 15:21 18.12.2019
5896 Clouds 11 1013 71 10000 5.1 130 14:59 18.12.2019
5897 Clouds 11 1013 71 10000 5.1 130 14:40 18.12.2019
5898 Clouds 10 1014 71 10000 5.1 130 14:20 18.12.2019
5899 Clouds 10 1014 71 10000 5.1 130 13:56 18.12.2019
5900 Clouds 10 1014 76 10000 4.1 150 13:37 18.12.2019
5901 Clouds 9 1014 76 10000 4.1 150 13:19 18.12.2019
5902 Clouds 9 1015 81 10000 4.1 140 12:57 18.12.2019
5903 Clouds 8 1015 81 10000 2.6 130 12:37 18.12.2019
5904 Clouds 8 1015 81 10000 2.6 130 12:19 18.12.2019
5905 Clouds 7 1016 93 10000 4.1 150 11:55 18.12.2019
5906 Clouds 7 1016 93 10000 4.1 150 11:37 18.12.2019
5907 Clouds 6 1015 100 10000 2.6 150 11:18 18.12.2019
5908 Clouds 6 1015 100 10000 2.6 150 10:55 18.12.2019
5909 Clouds 5 1015 100 10000 2.6 150 10:37 18.12.2019
5910 Clouds 5 1016 100 7000 2.1 110 10:18 18.12.2019
5911 Clouds 5 1015 93 10000 2.6 150 09:42 18.12.2019
5912 Clouds 5 1015 93 8000 2.6 140 09:18 18.12.2019
5913 Clouds 5 1015 100 9000 1.5 0 08:40 18.12.2019
5914 Clouds 5 1015 93 10000 2.6 170 08:21 18.12.2019
5915 Clouds 5 1014 93 10000 3.1 140 07:43 18.12.2019
5916 Clouds 5 1014 93 10000 3.1 140 07:22 18.12.2019
5917 Clouds 5 1014 93 10000 2.1 120 06:55 18.12.2019
5918 Clouds 5 1014 93 10000 2.1 120 06:27 18.12.2019
5919 Clouds 6 1014 87 10000 1 0 05:44 18.12.2019
5920 Clouds 6 1013 87 10000 3.1 180 04:52 18.12.2019
5921 Clouds 7 1013 81 10000 2.6 210 02:55 18.12.2019
5922 Clouds 7 1012 81 10000 3.1 220 02:36 18.12.2019
5923 Clouds 7 1012 93 10000 3.1 220 02:18 18.12.2019
5924 Clouds 7 1012 87 10000 2.6 210 01:40 18.12.2019
5925 Rain 7 1011 81 10000 2.6 230 01:21 18.12.2019
5926 Rain 7 1011 87 10000 2.6 210 00:40 18.12.2019
5927 Rain 8 1010 81 10000 3.6 230 00:22 18.12.2019
5928 Rain 8 1010 81 10000 3.6 230 23:56 17.12.2019
5929 Rain 8 1010 81 10000 4.1 220 23:38 17.12.2019
5930 Rain 8 1009 81 10000 4.1 240 23:18 17.12.2019
5931 Rain 8 1009 81 10000 4.1 240 22:56 17.12.2019
5932 Rain 8 1009 87 10000 3.1 240 22:37 17.12.2019
5933 Rain 8 1008 87 10000 2.1 210 22:18 17.12.2019
5934 Rain 8 1008 87 10000 2.1 210 21:55 17.12.2019
5935 Clouds 8 1007 81 10000 2.6 210 21:37 17.12.2019
5936 Clouds 8 1007 87 10000 3.1 260 21:19 17.12.2019
5937 Clouds 9 1007 87 10000 3.1 260 20:56 17.12.2019
5938 Clouds 9 1007 87 10000 3.1 270 20:38 17.12.2019
5939 Clouds 9 1006 81 10000 2.6 270 20:18 17.12.2019
5940 Clouds 9 1006 81 10000 2.6 270 19:55 17.12.2019
5941 Rain 9 1005 81 10000 3.6 260 19:37 17.12.2019
5942 Clouds 10 1005 81 10000 4.1 270 19:18 17.12.2019
5943 Drizzle 10 1004 87 10000 3.1 280 18:42 17.12.2019
5944 Drizzle 10 1004 87 10000 3.1 280 18:42 17.12.2019
5945 Drizzle 10 1004 87 10000 3.1 280 18:22 17.12.2019
5946 Drizzle 11 1003 87 10000 3.1 280 17:59 17.12.2019
5947 Rain 11 1003 71 10000 4.6 220 17:41 17.12.2019
5948 Rain 11 1003 71 10000 4.6 220 17:41 17.12.2019
5949 Clouds 12 1002 71 10000 5.1 210 17:19 17.12.2019
5950 Clouds 12 1002 71 10000 5.7 200 16:56 17.12.2019
5951 Clouds 13 1002 71 10000 5.7 200 16:38 17.12.2019
5952 Clouds 13 1002 71 10000 5.7 200 16:19 17.12.2019
5953 Clouds 14 1002 67 10000 6.7 200 15:58 17.12.2019
5954 Rain 14 1002 67 10000 6.2 210 15:37 17.12.2019
5955 Clouds 14 1001 67 10000 5.7 200 15:19 17.12.2019
5956 Clouds 14 1001 67 10000 5.7 200 14:55 17.12.2019
5957 Rain 14 1001 63 10000 5.7 190 14:55 17.12.2019
5958 Rain 14 1001 63 10000 5.7 190 14:37 17.12.2019
5959 Clouds 14 1001 67 10000 6.7 180 14:18 17.12.2019
5960 Clouds 14 1001 63 10000 5.7 190 14:18 17.12.2019
5961 Clouds 15 1001 67 10000 6.7 180 13:56 17.12.2019
5962 Clouds 15 1001 67 10000 6.7 180 13:37 17.12.2019
5963 Rain 15 1001 67 10000 6.7 180 13:18 17.12.2019
5964 Rain 15 1001 67 10000 6.7 180 12:55 17.12.2019
5965 Rain 14 1001 67 10000 6.2 180 12:37 17.12.2019
5966 Rain 14 1001 67 10000 6.2 170 12:18 17.12.2019
5967 Rain 14 1001 67 10000 6.2 170 11:54 17.12.2019
5968 Rain 14 1001 71 10000 6.2 160 11:36 17.12.2019
5969 Clouds 13 1001 71 10000 3.6 170 11:18 17.12.2019
5970 Clouds 13 1000 76 10000 3.1 170 10:55 17.12.2019
5971 Clouds 12 1000 76 10000 3.1 170 10:36 17.12.2019
5972 Clouds 12 1000 71 10000 2.6 180 10:18 17.12.2019
5973 Clouds 12 1000 71 10000 4.1 170 09:42 17.12.2019
5974 Clouds 12 1000 71 10000 4.1 170 09:21 17.12.2019
5975 Clouds 12 999 76 10000 4.1 170 08:58 17.12.2019
5976 Clouds 11 999 81 10000 3.6 160 08:39 17.12.2019
5977 Clouds 11 998 81 10000 3.1 160 08:21 17.12.2019
5978 Clouds 11 998 81 10000 3.1 160 07:57 17.12.2019
5979 Clouds 11 998 81 10000 3.6 150 07:39 17.12.2019
5980 Clouds 11 998 81 10000 3.6 140 07:19 17.12.2019
5981 Clouds 10 998 81 10000 3.6 130 06:41 17.12.2019
5982 Clouds 10 998 81 10000 3.6 150 06:22 17.12.2019
5983 Clouds 10 998 81 10000 4.1 150 05:40 17.12.2019
5984 Clouds 10 998 81 10000 4.1 160 04:48 17.12.2019
5985 Clouds 10 998 81 10000 4.6 160 03:31 17.12.2019
5986 Clouds 9 998 87 10000 3.96 167 02:22 17.12.2019
5987 Clouds 9 998 87 10000 1 0 01:21 17.12.2019
5988 Clouds 9 998 93 10000 2.6 120 00:39 17.12.2019
5989 Clouds 8 998 87 10000 1.5 110 00:21 17.12.2019
5990 Clouds 8 998 93 10000 1 0 23:43 16.12.2019
5991 Clouds 8 998 93 10000 1.5 60 23:20 16.12.2019
5992 Clouds 8 998 93 10000 1.5 80 22:58 16.12.2019
5993 Clouds 8 998 93 10000 1.5 80 22:39 16.12.2019
5994 Clouds 8 998 93 10000 2.1 60 22:21 16.12.2019
5995 Clouds 8 998 93 10000 2.1 60 21:57 16.12.2019
5996 Clouds 8 999 93 10000 1.5 60 21:57 16.12.2019
5997 Clouds 8 999 93 10000 1.5 60 21:39 16.12.2019
5998 Clouds 8 999 93 10000 2.1 40 21:20 16.12.2019
5999 Clouds 8 999 93 10000 2.1 40 20:58 16.12.2019
6000 Clouds 8 999 93 10000 1.5 50 20:39 16.12.2019
6001 Clouds 8 999 93 10000 2.1 50 20:19 16.12.2019
6002 Clouds 9 1000 93 10000 2.1 60 19:57 16.12.2019
6003 Clouds 9 1000 93 10000 2.1 60 19:37 16.12.2019
6004 Clouds 9 1000 93 10000 1 0 19:19 16.12.2019
6005 Clouds 9 1000 93 10000 1 0 18:59 16.12.2019
6006 Clouds 9 1000 93 10000 1.5 0 18:41 16.12.2019
6007 Clouds 9 1000 93 10000 2.6 110 18:20 16.12.2019
6008 Clouds 9 1000 93 10000 2.6 110 17:59 16.12.2019
6009 Clouds 9 1001 93 10000 1.5 90 17:40 16.12.2019
6010 Clouds 9 1001 93 10000 1.5 90 17:40 16.12.2019
6011 Clouds 10 1001 87 10000 2.6 80 17:21 16.12.2019
6012 Clouds 10 1001 87 10000 2.1 100 16:57 16.12.2019
6013 Clouds 10 1001 87 10000 2.1 100 16:39 16.12.2019
6014 Clouds 10 1001 93 10000 2.1 60 16:20 16.12.2019
6015 Clouds 10 1001 93 10000 2.1 60 15:59 16.12.2019
6016 Clouds 10 1002 93 10000 2.1 70 15:39 16.12.2019
6017 Clouds 11 1002 93 10000 2.1 110 15:21 16.12.2019
6018 Clouds 10 1002 93 10000 2.1 110 14:57 16.12.2019
6019 Clouds 10 1002 93 10000 2.1 110 14:37 16.12.2019
6020 Clouds 10 1002 93 10000 2.1 110 14:37 16.12.2019
6021 Clouds 10 1002 93 10000 2.1 110 14:37 16.12.2019
6022 Clouds 10 1003 87 10000 2.1 120 14:19 16.12.2019
6023 Clouds 10 1003 87 10000 2.1 120 13:56 16.12.2019
6024 Clouds 10 1003 93 10000 3.1 130 13:38 16.12.2019
6025 Clouds 10 1003 93 10000 3.1 130 13:38 16.12.2019
6026 Clouds 10 1004 93 10000 2.6 130 13:19 16.12.2019
6027 Drizzle 10 1004 93 10000 2.6 120 12:58 16.12.2019
6028 Drizzle 9 1004 93 10000 2.6 120 12:39 16.12.2019
6029 Clouds 9 1005 93 10000 2.6 140 12:19 16.12.2019
6030 Clouds 9 1005 93 10000 2.6 140 11:59 16.12.2019
6031 Rain 9 1005 100 10000 2.1 110 11:40 16.12.2019
6032 Drizzle 9 1005 100 10000 2.1 90 11:20 16.12.2019
6033 Drizzle 9 1005 100 10000 2.1 90 10:58 16.12.2019
6034 Rain 9 1005 100 10000 1.5 130 10:39 16.12.2019
6035 Drizzle 8 1005 93 10000 1 130 10:20 16.12.2019
6036 Drizzle 8 1005 93 9000 1.5 70 09:45 16.12.2019
6037 Rain 8 1005 93 3900 0.5 110 09:27 16.12.2019
6038 Rain 8 1005 93 3900 0.5 110 08:57 16.12.2019
6039 Rain 8 1005 93 7000 1 0 08:38 16.12.2019
6040 Rain 8 1005 93 9000 1.5 130 08:18 16.12.2019
6041 Rain 8 1005 93 7000 3.6 160 07:47 16.12.2019
6042 Rain 8 1005 93 7000 2.1 170 07:29 16.12.2019
6043 Rain 8 1005 93 10000 2.6 160 06:46 16.12.2019
6044 Rain 8 1005 93 10000 2.6 190 06:26 16.12.2019
6045 Rain 8 1005 93 10000 4.1 150 05:54 16.12.2019
6046 Rain 8 1005 93 10000 4.1 150 05:35 16.12.2019
6047 Clouds 8 1006 87 10000 4.1 180 04:27 16.12.2019
6048 Clouds 8 1006 87 10000 4.6 180 02:36 16.12.2019
6049 Clouds 8 1006 87 10000 4.1 180 01:45 16.12.2019
6050 Clouds 9 1006 93 10000 3.6 170 00:54 16.12.2019
6051 Clouds 8 1006 93 10000 3.6 170 00:36 16.12.2019
6052 Clouds 8 1006 93 10000 4.1 180 00:18 16.12.2019
6053 Clouds 8 1006 93 10000 3.6 170 23:40 15.12.2019
6054 Clouds 8 1006 93 10000 3.1 180 23:21 15.12.2019
6055 Clouds 8 1006 93 10000 3.1 180 22:56 15.12.2019
6056 Clouds 8 1006 87 10000 2.6 170 22:38 15.12.2019
6057 Clouds 8 1006 87 10000 3.1 170 22:18 15.12.2019
6058 Clouds 8 1006 87 10000 3.1 170 21:57 15.12.2019
6059 Clouds 8 1006 87 10000 3.1 190 21:38 15.12.2019
6060 Clouds 8 1006 87 10000 2.1 180 21:19 15.12.2019
6061 Clouds 8 1006 87 10000 2.1 180 20:57 15.12.2019
6062 Clouds 8 1006 87 10000 2.6 170 20:38 15.12.2019
6063 Clouds 8 1006 81 10000 3.1 180 20:19 15.12.2019
6064 Clouds 7 1006 81 10000 3.1 180 19:57 15.12.2019
6065 Clouds 8 1006 81 10000 1.5 190 19:39 15.12.2019
6066 Clouds 8 1006 81 10000 2.6 180 19:18 15.12.2019
6067 Clouds 8 1006 81 10000 2.6 180 18:56 15.12.2019
6068 Clouds 8 1006 81 10000 2.1 160 18:38 15.12.2019
6069 Clouds 8 1006 70 10000 2.6 180 18:18 15.12.2019
6070 Clouds 8 1006 76 10000 2.1 200 17:56 15.12.2019
6071 Clouds 8 1006 76 10000 2.1 200 17:37 15.12.2019
6072 Clouds 9 1006 66 10000 3.6 210 17:19 15.12.2019
6073 Clouds 9 1006 66 10000 5.1 200 16:57 15.12.2019
6074 Clouds 10 1006 66 10000 5.1 200 16:39 15.12.2019
6075 Clouds 10 1006 61 10000 4.6 210 16:20 15.12.2019
6076 Clouds 10 1006 61 10000 4.6 210 15:55 15.12.2019
6077 Clouds 10 1006 61 10000 3.1 220 15:37 15.12.2019
6078 Clouds 10 1006 61 10000 5.1 220 15:18 15.12.2019
6079 Clouds 10 1006 57 10000 4.1 230 14:55 15.12.2019
6080 Clouds 10 1006 57 10000 4.1 230 14:55 15.12.2019
6081 Clouds 10 1006 57 10000 4.1 230 14:36 15.12.2019
6082 Clouds 10 1006 61 10000 4.6 230 14:18 15.12.2019
6083 Clouds 10 1006 61 10000 4.6 230 13:55 15.12.2019
6084 Clouds 10 1005 61 10000 5.1 230 13:37 15.12.2019
6085 Clouds 10 1005 66 10000 5.1 230 13:19 15.12.2019
6086 Clouds 10 1005 66 10000 5.1 230 13:19 15.12.2019
6087 Clouds 9 1005 70 10000 4.6 240 12:56 15.12.2019
6088 Clouds 9 1005 70 10000 4.6 240 12:38 15.12.2019
6089 Clouds 9 1005 76 10000 4.6 230 12:20 15.12.2019
6090 Clouds 8 1005 70 10000 4.1 210 11:39 15.12.2019
6091 Clouds 8 1004 70 10000 6.2 230 11:20 15.12.2019
6092 Clouds 8 1004 70 10000 5.1 220 10:58 15.12.2019
6093 Clouds 8 1004 70 10000 5.1 220 10:40 15.12.2019
6094 Clouds 8 1003 75 10000 5.1 230 10:20 15.12.2019
6095 Clouds 8 1003 75 10000 5.1 230 09:59 15.12.2019
6096 Clouds 8 1003 76 10000 4.6 240 09:39 15.12.2019
6097 Clouds 8 1003 76 10000 4.6 240 09:20 15.12.2019
6098 Clouds 8 1002 81 10000 4.6 240 08:56 15.12.2019
6099 Clouds 8 1002 81 10000 4.1 230 08:38 15.12.2019
6100 Clouds 8 1002 81 10000 4.1 230 08:20 15.12.2019
6101 Rain 9 1001 76 10000 5.7 240 07:55 15.12.2019
6102 Rain 9 1000 81 10000 5.1 230 07:33 15.12.2019
6103 Clouds 9 999 87 10000 7.2 240 06:39 15.12.2019
6104 Rain 9 998 87 10000 8.7 230 06:19 15.12.2019
6105 Rain 10 998 81 10000 8.7 210 05:25 15.12.2019
6106 Rain 10 998 81 10000 8.7 210 05:25 15.12.2019
6107 Clouds 11 997 81 10000 8.7 210 04:24 15.12.2019
6108 Clouds 10 997 81 10000 9.3 210 03:22 15.12.2019
6109 Clouds 10 997 81 10000 8.7 200 02:33 15.12.2019
6110 Rain 10 997 81 10000 8.2 190 01:46 15.12.2019
6111 Rain 10 997 81 10000 8.2 190 01:28 15.12.2019
6112 Rain 10 998 81 10000 7.7 190 00:54 15.12.2019
6113 Rain 10 998 81 10000 7.7 190 00:35 15.12.2019
6114 Drizzle 10 998 87 10000 5.7 180 23:58 14.12.2019
6115 Clouds 10 999 81 10000 6.2 180 23:39 14.12.2019
6116 Rain 9 999 76 10000 7.2 190 23:19 14.12.2019
6117 Clouds 9 999 76 10000 6.7 180 22:57 14.12.2019
6118 Clouds 9 999 76 10000 6.7 180 22:39 14.12.2019
6119 Clouds 9 999 76 10000 6.7 180 22:20 14.12.2019
6120 Clouds 9 1000 76 10000 5.1 180 21:56 14.12.2019
6121 Clouds 8 1001 76 10000 4.1 190 21:37 14.12.2019
6122 Clouds 8 1001 76 10000 5.1 190 21:18 14.12.2019
6123 Clouds 8 1001 76 10000 5.1 190 20:56 14.12.2019
6124 Clouds 8 1002 76 10000 4.6 190 20:37 14.12.2019
6125 Clouds 8 1002 70 10000 3.6 190 20:19 14.12.2019
6126 Clouds 8 1002 70 10000 3.6 190 20:19 14.12.2019
6127 Clouds 8 1002 70 10000 3.1 190 19:54 14.12.2019
6128 Clouds 8 1002 70 10000 3.1 190 19:36 14.12.2019
6129 Clouds 8 1002 66 10000 2.6 190 19:18 14.12.2019
6130 Clouds 8 1002 66 10000 3.1 220 18:55 14.12.2019
6131 Clouds 8 1002 66 10000 3.1 220 18:36 14.12.2019
6132 Clouds 8 1002 70 10000 4.1 210 18:18 14.12.2019
6133 Clouds 9 1002 66 10000 5.1 240 17:42 14.12.2019
6134 Clouds 9 1001 71 10000 6.7 240 17:22 14.12.2019
6135 Rain 10 1001 71 10000 6.2 250 16:55 14.12.2019
6136 Rain 10 1001 71 10000 6.2 250 16:37 14.12.2019
6137 Clouds 10 1001 71 10000 6.2 240 16:18 14.12.2019
6138 Clouds 10 1000 66 10000 7.7 240 15:41 14.12.2019
6139 Clouds 10 1000 76 10000 8.7 240 15:20 14.12.2019
6140 Clouds 10 1000 76 10000 7.7 220 14:58 14.12.2019
6141 Clouds 10 1000 76 10000 7.7 220 14:38 14.12.2019
6142 Rain 10 1000 81 10000 7.2 230 14:19 14.12.2019
6143 Rain 9 1000 66 10000 8.2 220 13:45 14.12.2019
6144 Clouds 9 999 66 10000 8.2 220 13:20 14.12.2019
6145 Clouds 9 999 66 10000 8.2 220 12:59 14.12.2019
6146 Clouds 9 1000 61 10000 8.7 210 12:41 14.12.2019
6147 Clouds 9 1000 57 10000 7.2 210 12:21 14.12.2019
6148 Clouds 9 1000 57 10000 7.2 210 12:21 14.12.2019
6149 Clouds 9 1000 57 10000 7.2 210 12:21 14.12.2019
6150 Clouds 9 1000 70 10000 6.7 230 11:59 14.12.2019
6151 Clouds 9 1000 70 10000 6.7 230 11:40 14.12.2019
6152 Clouds 8 999 66 10000 6.7 220 11:20 14.12.2019
6153 Clouds 8 999 66 10000 6.7 220 10:59 14.12.2019
6154 Clouds 8 999 70 10000 7.2 230 10:40 14.12.2019
6155 Clouds 8 999 66 10000 7.2 230 10:22 14.12.2019
6156 Clouds 8 999 70 10000 5.7 240 09:59 14.12.2019
6157 Clouds 8 998 70 10000 5.7 230 09:40 14.12.2019
6158 Clouds 8 997 70 10000 5.7 240 09:20 14.12.2019
6159 Clouds 8 997 70 10000 7.2 260 08:43 14.12.2019
6160 Clouds 8 996 70 10000 8.2 260 08:20 14.12.2019
6161 Clouds 8 996 70 10000 8.2 260 07:55 14.12.2019
6162 Clouds 8 995 81 10000 8.7 260 07:36 14.12.2019
6163 Rain 8 994 81 10000 9.8 250 07:18 14.12.2019
6164 Clouds 9 993 76 10000 6.7 250 06:39 14.12.2019
6165 Rain 9 992 76 10000 6.7 260 06:18 14.12.2019
6166 Clouds 9 991 61 10000 12.9 280 05:20 14.12.2019
6167 Drizzle 10 986 87 8000 7.7 240 02:44 14.12.2019
6168 Drizzle 10 986 93 6000 5.7 220 02:22 14.12.2019
6169 Rain 9 986 87 10000 5.7 230 01:43 14.12.2019
6170 Rain 8 987 87 7000 5.7 190 00:50 14.12.2019
6171 Rain 8 987 87 7000 5.7 190 00:29 14.12.2019
6172 Rain 7 988 93 6000 6.2 180 23:58 13.12.2019
6173 Rain 7 990 93 7000 5.1 190 23:39 13.12.2019
6174 Rain 7 990 87 10000 6.2 200 23:19 13.12.2019
6175 Rain 7 990 87 10000 6.2 200 22:55 13.12.2019
6176 Drizzle 6 990 93 10000 5.1 210 22:36 13.12.2019
6177 Clouds 7 990 81 10000 7.2 200 22:18 13.12.2019
6178 Drizzle 6 992 87 10000 5.1 230 21:40 13.12.2019
6179 Rain 7 992 81 10000 5.7 240 21:21 13.12.2019
6180 Rain 7 992 81 10000 5.7 240 20:57 13.12.2019
6181 Clouds 7 992 81 10000 4.1 240 20:39 13.12.2019
6182 Clouds 6 992 70 10000 5.1 230 20:19 13.12.2019
6183 Clouds 7 992 70 10000 5.1 230 19:56 13.12.2019
6184 Clouds 6 992 70 10000 4.1 240 19:38 13.12.2019
6185 Clouds 6 992 70 10000 4.1 240 19:18 13.12.2019
6186 Clouds 6 992 70 10000 4.1 240 18:42 13.12.2019
6187 Clouds 7 992 65 10000 3.6 230 18:42 13.12.2019
6188 Clouds 7 992 65 10000 5.7 250 18:20 13.12.2019
6189 Clouds 7 992 65 10000 5.7 250 17:59 13.12.2019
6190 Clouds 7 991 61 10000 8.2 250 17:39 13.12.2019
6191 Clouds 7 991 61 10000 8.2 250 17:18 13.12.2019
6192 Rain 8 990 61 10000 8.2 260 16:56 13.12.2019
6193 Clouds 8 990 61 10000 7.7 250 16:38 13.12.2019
6194 Clouds 8 990 61 10000 7.7 250 16:38 13.12.2019
6195 Clouds 8 990 61 10000 7.7 250 16:20 13.12.2019
6196 Clouds 8 989 61 10000 7.7 260 15:42 13.12.2019
6197 Clouds 8 989 61 10000 7.7 260 15:42 13.12.2019
6198 Clouds 8 989 61 10000 7.7 260 15:21 13.12.2019
6199 Clouds 9 988 61 10000 8.2 260 14:57 13.12.2019
6200 Clouds 8 988 61 10000 8.7 280 14:38 13.12.2019
6201 Clouds 9 988 61 10000 8.7 280 14:19 13.12.2019
6202 Clouds 9 987 66 10000 8.2 260 13:44 13.12.2019
6203 Clouds 8 987 66 10000 8.2 270 13:26 13.12.2019
6204 Rain 8 986 75 10000 7.7 260 12:58 13.12.2019
6205 Rain 8 985 81 10000 6.7 260 12:40 13.12.2019
6206 Rain 8 985 81 10000 6.7 260 12:19 13.12.2019
6207 Rain 7 985 81 10000 8.2 260 11:45 13.12.2019
6208 Rain 7 984 75 10000 10.8 260 11:26 13.12.2019
6209 Rain 7 983 81 10000 8.2 250 10:58 13.12.2019
6210 Drizzle 6 983 87 10000 8.2 250 10:40 13.12.2019
6211 Drizzle 6 983 87 10000 8.2 250 10:21 13.12.2019
6212 Rain 6 982 81 10000 8.7 250 09:43 13.12.2019
6213 Rain 5 981 81 10000 8.7 260 09:22 13.12.2019
6214 Rain 5 980 81 10000 8.7 250 08:55 13.12.2019
6215 Rain 5 980 81 10000 9.8 260 08:37 13.12.2019
6216 Rain 6 980 81 10000 9.8 260 08:19 13.12.2019
6217 Rain 6 978 81 10000 8.7 250 07:43 13.12.2019
6218 Rain 6 978 81 10000 8.7 250 07:19 13.12.2019
6219 Rain 7 978 81 10000 7.2 250 06:46 13.12.2019
6220 Rain 7 977 75 10000 6.7 250 06:27 13.12.2019
6221 Clouds 7 977 81 10000 6.7 250 05:41 13.12.2019
6222 Clouds 7 977 81 10000 6.7 260 05:20 13.12.2019
6223 Rain 8 977 81 10000 9.3 250 04:33 13.12.2019
6224 Rain 8 977 87 10000 5.7 200 03:29 13.12.2019
6225 Rain 8 979 93 10000 4.1 210 02:31 13.12.2019
6226 Rain 8 980 93 9000 5.1 190 01:40 13.12.2019
6227 Clouds 8 981 87 10000 5.7 190 00:51 13.12.2019
6228 Clouds 7 982 87 10000 5.7 200 00:32 13.12.2019
6229 Clouds 7 983 87 10000 5.7 200 23:47 12.12.2019
6230 Clouds 7 984 93 10000 4.6 210 23:27 12.12.2019
6231 Clouds 7 984 93 10000 1.5 200 22:59 12.12.2019
6232 Clouds 7 984 93 10000 1.5 200 22:41 12.12.2019
6233 Clouds 7 984 93 10000 1.5 200 22:41 12.12.2019
6234 Rain 7 985 93 10000 2.1 220 22:22 12.12.2019
6235 Clouds 7 985 93 10000 3.1 190 21:56 12.12.2019
6236 Clouds 7 985 93 10000 3.1 190 21:56 12.12.2019
6237 Rain 6 985 93 10000 3.6 180 21:38 12.12.2019
6238 Rain 6 985 93 10000 3.6 180 21:20 12.12.2019
6239 Rain 6 986 87 8000 8.2 160 20:59 12.12.2019
6240 Rain 6 987 93 10000 7.2 150 20:41 12.12.2019
6241 Rain 6 987 93 10000 7.2 150 20:23 12.12.2019
6242 Rain 6 987 93 3500 4.1 160 19:59 12.12.2019
6243 Rain 6 988 87 10000 7.7 160 19:41 12.12.2019
6244 Rain 6 988 87 10000 7.7 160 19:21 12.12.2019
6245 Rain 6 989 87 9000 8.2 160 18:58 12.12.2019
6246 Rain 6 989 87 7000 8.7 160 18:39 12.12.2019
6247 Rain 6 989 87 7000 8.7 160 18:20 12.12.2019
6248 Rain 6 990 87 10000 8.2 160 17:57 12.12.2019
6249 Drizzle 6 991 93 10000 8.2 160 17:39 12.12.2019
6250 Drizzle 6 991 93 10000 8.2 160 17:20 12.12.2019
6251 Drizzle 6 991 93 10000 8.2 160 17:20 12.12.2019
6252 Clouds 6 992 93 10000 9.3 160 16:57 12.12.2019
6253 Clouds 6 993 93 10000 8.7 160 16:39 12.12.2019
6254 Clouds 6 993 93 10000 8.7 160 16:20 12.12.2019
6255 Clouds 6 994 87 10000 9.3 170 15:56 12.12.2019
6256 Clouds 5 995 87 10000 8.7 170 15:37 12.12.2019
6257 Clouds 5 995 87 10000 8.7 170 15:18 12.12.2019
6258 Rain 5 997 93 10000 7.2 160 14:38 12.12.2019
6259 Rain 5 997 93 10000 7.2 160 14:38 12.12.2019
6260 Rain 5 997 93 10000 7.2 160 14:20 12.12.2019
6261 Clouds 5 998 86 10000 7.2 160 13:58 12.12.2019
6262 Drizzle 4 999 86 10000 7.2 160 13:40 12.12.2019
6263 Drizzle 4 999 86 10000 7.2 160 13:21 12.12.2019
6264 Rain 4 1001 93 10000 6.2 160 12:59 12.12.2019
6265 Rain 4 1002 86 10000 6.2 170 12:40 12.12.2019
6266 Rain 4 1002 86 10000 6.2 170 12:21 12.12.2019
6267 Clouds 4 1002 86 10000 6.7 170 11:57 12.12.2019
6268 Clouds 3 1003 86 10000 7.2 160 11:38 12.12.2019
6269 Clouds 3 1003 86 10000 7.2 160 11:19 12.12.2019
6270 Clouds 3 1004 93 10000 7.7 170 10:56 12.12.2019
6271 Clouds 3 1004 93 10000 5.1 170 10:38 12.12.2019
6272 Clouds 3 1004 93 10000 5.1 170 10:20 12.12.2019
6273 Clouds 2 1005 93 10000 5.1 180 09:55 12.12.2019
6274 Clouds 2 1005 86 10000 4.6 180 09:37 12.12.2019
6275 Clouds 2 1005 86 10000 4.6 180 09:18 12.12.2019
6276 Clouds 2 1005 86 10000 3.1 170 08:43 12.12.2019
6277 Clouds 2 1005 86 10000 4.6 180 08:43 12.12.2019
6278 Clouds 2 1005 86 10000 3.1 170 08:25 12.12.2019
6279 Clouds 2 1006 86 10000 3.1 190 07:49 12.12.2019
6280 Clouds 2 1006 86 10000 3.6 210 07:27 12.12.2019
6281 Clouds 2 1006 93 10000 2.1 200 06:56 12.12.2019
6282 Clouds 2 1006 86 10000 4.1 220 06:35 12.12.2019
6283 Clouds 2 1007 86 10000 4.6 230 05:42 12.12.2019
6284 Clouds 3 1007 86 10000 4.6 240 04:55 12.12.2019
6285 Clouds 3 1007 86 10000 4.6 240 04:28 12.12.2019
6286 Clouds 4 1006 86 10000 5.7 250 02:41 12.12.2019
6287 Clouds 4 1006 86 10000 5.7 250 02:22 12.12.2019
6288 Clouds 4 1006 86 10000 5.1 250 01:54 12.12.2019
6289 Clouds 4 1006 81 10000 5.7 240 01:35 12.12.2019
6290 Clouds 4 1006 87 10000 4.6 240 00:48 12.12.2019
6291 Clouds 4 1006 87 10000 5.1 240 00:21 12.12.2019
6292 Clouds 5 1006 87 10000 4.6 230 23:54 11.12.2019
6293 Rain 5 1006 87 10000 3.6 240 23:36 11.12.2019
6294 Rain 5 1006 87 10000 4.6 240 23:18 11.12.2019
6295 Rain 5 1006 87 10000 4.6 240 22:55 11.12.2019
6296 Rain 5 1006 93 10000 2.6 250 22:36 11.12.2019
6297 Rain 5 1006 93 10000 2.6 250 22:36 11.12.2019
6298 Rain 5 1006 93 10000 2.6 250 22:18 11.12.2019
6299 Rain 5 1006 93 10000 3.6 230 21:39 11.12.2019
6300 Clouds 5 1006 75 10000 4.1 220 21:20 11.12.2019
6301 Rain 6 1006 75 10000 5.1 210 20:58 11.12.2019
6302 Rain 6 1006 81 10000 4.1 190 20:40 11.12.2019
6303 Clouds 6 1006 81 10000 4.1 190 20:19 11.12.2019
6304 Clouds 6 1006 87 10000 5.7 180 19:59 11.12.2019
6305 Clouds 6 1006 87 10000 4.6 170 19:40 11.12.2019
6306 Clouds 6 1006 87 10000 4.6 170 19:21 11.12.2019
6307 Clouds 6 1007 81 10000 4.6 180 18:58 11.12.2019
6308 Clouds 6 1007 81 10000 4.1 180 18:39 11.12.2019
6309 Clouds 6 1007 81 10000 4.1 180 18:19 11.12.2019
6310 Clouds 6 1007 81 10000 5.7 200 17:56 11.12.2019
6311 Clouds 7 1007 81 10000 4.1 210 17:37 11.12.2019
6312 Clouds 7 1007 81 10000 4.1 210 17:18 11.12.2019
6313 Clouds 7 1007 75 10000 4.6 200 16:55 11.12.2019
6314 Clouds 7 1008 75 10000 5.7 210 16:37 11.12.2019
6315 Clouds 7 1008 75 10000 5.7 210 16:18 11.12.2019
6316 Clouds 7 1008 75 10000 5.7 220 15:55 11.12.2019
6317 Clouds 7 1008 75 10000 5.1 220 15:36 11.12.2019
6318 Clouds 7 1008 75 10000 5.1 220 15:18 11.12.2019
6319 Clouds 7 1008 87 10000 4.1 230 14:54 11.12.2019
6320 Clouds 8 1009 81 10000 4.1 230 14:36 11.12.2019
6321 Clouds 8 1009 81 10000 4.1 230 14:18 11.12.2019
6322 Clouds 7 1009 81 10000 3.1 250 13:42 11.12.2019
6323 Clouds 7 1009 81 10000 3.1 250 13:42 11.12.2019
6324 Clouds 7 1009 81 10000 4.6 240 13:22 11.12.2019
6325 Rain 7 1009 87 10000 3.6 250 12:58 11.12.2019
6326 Rain 7 1010 87 10000 3.6 250 12:39 11.12.2019
6327 Rain 7 1010 87 10000 3.6 250 12:21 11.12.2019
6328 Clouds 7 1010 87 10000 3.6 240 11:58 11.12.2019
6329 Clouds 7 1010 100 10000 4.1 250 11:39 11.12.2019
6330 Clouds 7 1010 100 10000 4.1 250 11:19 11.12.2019
6331 Clouds 7 1010 93 10000 1.5 230 10:59 11.12.2019
6332 Clouds 7 1010 93 10000 1.5 230 10:39 11.12.2019
6333 Clouds 6 1010 93 10000 1.5 240 10:21 11.12.2019
6334 Clouds 6 1010 100 10000 2.1 240 09:56 11.12.2019
6335 Drizzle 6 1010 93 10000 2.1 240 09:38 11.12.2019
6336 Drizzle 6 1010 93 10000 2.1 240 09:19 11.12.2019
6337 Rain 6 1010 93 10000 1.5 210 08:55 11.12.2019
6338 Rain 6 1011 93 10000 1 220 08:36 11.12.2019
6339 Rain 6 1011 93 10000 1.5 220 08:18 11.12.2019
6340 Rain 6 1011 93 10000 1.5 220 07:42 11.12.2019
6341 Rain 6 1011 93 10000 3.1 220 07:22 11.12.2019
6342 Rain 6 1011 93 8000 2.6 190 06:46 11.12.2019
6343 Rain 6 1011 93 8000 2.6 190 06:24 11.12.2019
6344 Drizzle 6 1011 93 10000 3.1 190 05:53 11.12.2019
6345 Rain 6 1012 93 6000 4.6 200 05:33 11.12.2019
6346 Drizzle 6 1012 93 10000 4.6 200 04:49 11.12.2019
6347 Clouds 6 1013 87 10000 4.6 170 03:19 11.12.2019
6348 Clouds 7 1013 87 10000 6.2 180 02:31 11.12.2019
6349 Clouds 7 1014 81 10000 6.2 180 01:21 11.12.2019
6350 Rain 7 1015 81 10000 6.2 180 00:37 11.12.2019
6351 Rain 7 1015 81 10000 6.2 180 00:18 11.12.2019
6352 Rain 7 1015 81 10000 6.7 180 23:43 10.12.2019
6353 Clouds 7 1016 75 10000 6.7 190 23:23 10.12.2019
6354 Clouds 7 1016 75 10000 7.2 180 22:56 10.12.2019
6355 Clouds 6 1017 75 10000 7.2 180 22:38 10.12.2019
6356 Clouds 7 1017 75 10000 7.2 180 22:20 10.12.2019
6357 Clouds 6 1017 81 10000 6.7 170 21:54 10.12.2019
6358 Clouds 6 1018 81 10000 5.7 170 21:36 10.12.2019
6359 Clouds 6 1018 81 10000 5.7 170 21:18 10.12.2019
6360 Rain 6 1018 75 10000 6.2 180 20:55 10.12.2019
6361 Rain 6 1019 75 10000 6.7 180 20:36 10.12.2019
6362 Rain 6 1019 75 10000 6.7 180 20:18 10.12.2019
6363 Rain 6 1019 75 10000 6.7 180 20:18 10.12.2019
6364 Rain 6 1019 70 10000 7.2 180 19:44 10.12.2019
6365 Rain 6 1019 70 10000 6.7 180 19:25 10.12.2019
6366 Rain 6 1019 70 10000 6.7 180 18:59 10.12.2019
6367 Clouds 6 1020 70 10000 7.7 180 18:39 10.12.2019
6368 Clouds 6 1020 70 10000 7.7 180 18:19 10.12.2019
6369 Clouds 6 1020 70 10000 7.2 180 17:55 10.12.2019
6370 Clouds 6 1021 70 10000 6.7 180 17:36 10.12.2019
6371 Clouds 6 1021 70 10000 6.7 180 17:18 10.12.2019
6372 Clouds 7 1022 70 10000 7.7 180 16:42 10.12.2019
6373 Clouds 7 1022 70 10000 7.7 180 16:20 10.12.2019
6374 Clouds 7 1022 81 10000 5.7 190 15:55 10.12.2019
6375 Clouds 7 1023 70 10000 7.2 170 15:37 10.12.2019
6376 Clouds 7 1023 70 10000 7.2 170 15:18 10.12.2019
6377 Clouds 7 1023 70 10000 7.2 170 15:18 10.12.2019
6378 Clouds 7 1023 70 10000 7.2 180 14:55 10.12.2019
6379 Clouds 7 1024 70 10000 6.2 180 14:36 10.12.2019
6380 Clouds 7 1024 70 10000 6.2 180 14:18 10.12.2019
6381 Clouds 7 1025 70 10000 5.1 190 13:56 10.12.2019
6382 Clouds 7 1025 70 10000 5.1 190 13:56 10.12.2019
6383 Clouds 7 1025 70 10000 6.2 190 13:37 10.12.2019
6384 Clouds 6 1025 70 10000 5.7 170 13:18 10.12.2019
6385 Clouds 6 1026 75 10000 5.1 170 12:40 10.12.2019
6386 Clouds 6 1026 75 10000 5.1 170 12:21 10.12.2019
6387 Clouds 5 1027 80 10000 4.1 180 11:42 10.12.2019
6388 Clouds 4 1027 80 10000 4.1 180 11:23 10.12.2019
6389 Clouds 3 1027 86 10000 4.1 170 10:56 10.12.2019
6390 Clouds 2 1027 76 10000 3.1 160 10:37 10.12.2019
6391 Clouds 2 1027 76 10000 3.1 160 10:19 10.12.2019
6392 Clouds 1 1027 76 10000 3.1 140 09:55 10.12.2019
6393 Clouds 0 1028 76 10000 1.5 130 09:37 10.12.2019
6394 Clouds 0 1028 76 10000 1.5 130 09:19 10.12.2019
6395 Clouds 0 1028 92 10000 1.5 120 08:54 10.12.2019
6396 Clouds 0 1028 76 10000 1 120 08:36 10.12.2019
6397 Clouds 0 1028 76 10000 1 120 08:36 10.12.2019
6398 Clouds -1 1028 80 10000 1 120 08:18 10.12.2019
6399 Clouds -1 1028 80 10000 1.5 110 07:44 10.12.2019
6400 Clouds -1 1028 80 10000 1.5 110 07:44 10.12.2019
6401 Clouds -1 1028 80 10000 1.5 110 07:44 10.12.2019
6402 Clouds -1 1028 80 10000 1 50 07:25 10.12.2019
6403 Clouds -1 1028 80 10000 1 30 06:48 10.12.2019
6404 Clouds -1 1028 80 10000 1 70 06:21 10.12.2019
6405 Clouds -1 1028 92 10000 2.47 204 05:55 10.12.2019
6406 Clear -1 1028 80 10000 1.16 211 04:56 10.12.2019
6407 Clear 0 1028 80 10000 1 80 03:40 10.12.2019
6408 Clear 1 1028 80 10000 1 0 02:47 10.12.2019
6409 Clear 1 1027 86 10000 1 210 01:50 10.12.2019
6410 Clear 1 1027 80 10000 0.5 200 01:25 10.12.2019
6411 Clear 2 1026 78 10000 1.5 0 00:43 10.12.2019
6412 Clear 2 1026 78 10000 1.5 0 00:24 10.12.2019
6413 Clear 2 1026 78 10000 2.1 250 23:43 09.12.2019
6414 Clear 3 1025 69 10000 1.5 260 23:24 09.12.2019
6415 Clear 3 1025 71 10000 2.1 270 22:58 09.12.2019
6416 Clear 4 1024 71 10000 1.5 310 22:40 09.12.2019
6417 Clear 4 1024 71 10000 1.5 310 22:21 09.12.2019
6418 Clear 4 1024 71 10000 2.1 310 21:58 09.12.2019
6419 Clear 4 1023 71 10000 3.1 310 21:39 09.12.2019
6420 Clear 5 1023 71 10000 3.1 310 21:19 09.12.2019
6421 Clear 5 1023 70 10000 3.1 340 20:57 09.12.2019
6422 Clear 6 1022 71 10000 3.6 320 20:39 09.12.2019
6423 Clouds 6 1022 68 10000 3.6 320 20:20 09.12.2019
6424 Clouds 6 1021 68 10000 3.6 310 19:57 09.12.2019
6425 Clouds 6 1020 65 10000 5.1 320 19:39 09.12.2019
6426 Clouds 7 1020 68 10000 3.6 300 19:20 09.12.2019
6427 Clouds 7 1020 61 10000 3.1 300 18:59 09.12.2019
6428 Clouds 7 1019 61 10000 3.6 310 18:40 09.12.2019
6429 Clouds 7 1019 61 10000 3.6 310 18:20 09.12.2019
6430 Clouds 8 1018 61 10000 7.7 310 17:59 09.12.2019
6431 Clouds 8 1018 61 10000 7.7 310 17:59 09.12.2019
6432 Clouds 8 1017 57 10000 5.7 310 17:41 09.12.2019
6433 Clouds 8 1017 57 10000 5.7 310 17:21 09.12.2019
6434 Rain 8 1016 57 10000 6.2 310 16:57 09.12.2019
6435 Clouds 9 1015 57 10000 6.7 310 16:39 09.12.2019
6436 Clouds 9 1015 57 10000 6.7 310 16:21 09.12.2019
6437 Clouds 9 1014 57 10000 7.7 310 15:57 09.12.2019
6438 Clouds 9 1013 81 10000 7.7 330 15:38 09.12.2019
6439 Clouds 9 1013 81 10000 7.7 330 15:19 09.12.2019
6440 Rain 9 1012 70 10000 5.1 310 14:59 09.12.2019
6441 Rain 9 1011 81 10000 7.2 320 14:41 09.12.2019
6442 Rain 9 1011 81 10000 7.2 320 14:41 09.12.2019
6443 Rain 9 1011 81 10000 7.2 320 14:18 09.12.2019
6444 Clouds 9 1010 66 10000 7.2 310 13:56 09.12.2019
6445 Rain 9 1009 70 10000 8.2 300 13:37 09.12.2019
6446 Rain 9 1009 70 10000 8.2 300 13:19 09.12.2019
6447 Rain 9 1008 70 10000 8.2 310 12:55 09.12.2019
6448 Rain 9 1007 71 10000 6.7 300 12:37 09.12.2019
6449 Rain 9 1007 71 10000 6.7 300 12:18 09.12.2019
6450 Rain 9 1005 81 10000 7.2 300 11:41 09.12.2019
6451 Rain 9 1005 81 10000 7.2 300 11:22 09.12.2019
6452 Rain 9 1005 81 10000 7.2 300 11:22 09.12.2019
6453 Rain 8 1004 87 10000 6.2 280 10:59 09.12.2019
6454 Rain 8 1003 93 10000 6.2 260 10:39 09.12.2019
6455 Rain 8 1003 93 10000 6.2 260 10:20 09.12.2019
6456 Rain 8 1002 93 3800 5.1 230 09:56 09.12.2019
6457 Rain 7 1002 93 5000 6.2 240 09:37 09.12.2019
6458 Rain 7 1002 93 5000 6.2 240 09:19 09.12.2019
6459 Rain 7 1002 87 10000 7.7 230 08:40 09.12.2019
6460 Rain 7 1002 87 10000 7.7 230 08:22 09.12.2019
6461 Rain 6 1001 81 10000 5.7 230 07:53 09.12.2019
6462 Rain 6 1001 81 10000 6.2 220 07:34 09.12.2019
6463 Rain 6 1002 87 10000 8.2 230 06:59 09.12.2019
6464 Rain 7 1002 87 7000 8.7 240 06:37 09.12.2019
6465 Rain 7 1002 87 7000 8.7 240 06:19 09.12.2019
6466 Rain 8 1002 75 10000 9.8 230 05:25 09.12.2019
6467 Clouds 8 1002 75 10000 9.3 220 04:29 09.12.2019
6468 Clouds 7 1003 75 10000 8.7 210 03:18 09.12.2019
6469 Rain 7 1004 75 10000 8.7 210 02:18 09.12.2019
6470 Clouds 7 1005 70 10000 7.7 220 01:40 09.12.2019
6471 Clouds 7 1005 70 10000 7.2 230 00:45 09.12.2019
6472 Clouds 7 1006 81 10000 6.7 240 00:24 09.12.2019
6473 Clouds 8 1006 70 10000 7.2 220 23:39 08.12.2019
6474 Clouds 8 1006 70 10000 7.2 220 23:21 08.12.2019
6475 Clouds 8 1006 70 10000 6.2 220 22:56 08.12.2019
6476 Clouds 8 1006 76 10000 7.2 220 22:38 08.12.2019
6477 Clouds 8 1006 76 10000 7.2 220 22:18 08.12.2019
6478 Rain 8 1007 70 10000 6.2 230 21:57 08.12.2019
6479 Clouds 8 1006 76 10000 6.2 220 21:39 08.12.2019
6480 Clouds 8 1006 76 10000 6.2 220 21:39 08.12.2019
6481 Clouds 8 1006 76 10000 6.2 220 21:19 08.12.2019
6482 Rain 8 1007 76 10000 5.7 230 20:57 08.12.2019
6483 Rain 8 1007 76 10000 5.7 230 20:38 08.12.2019
6484 Rain 8 1007 76 10000 5.7 230 20:38 08.12.2019
6485 Clouds 8 1007 76 10000 6.2 230 20:20 08.12.2019
6486 Clouds 9 1007 76 10000 8.2 220 19:57 08.12.2019
6487 Clouds 9 1007 71 10000 6.7 210 19:39 08.12.2019
6488 Clouds 9 1007 71 10000 6.7 210 19:21 08.12.2019
6489 Clouds 9 1007 71 10000 6.2 220 18:55 08.12.2019
6490 Clouds 9 1007 71 10000 6.7 220 18:36 08.12.2019
6491 Clouds 9 1007 71 10000 6.7 220 18:18 08.12.2019
6492 Clouds 9 1007 71 10000 5.7 230 17:56 08.12.2019
6493 Clouds 9 1007 71 10000 5.7 230 17:56 08.12.2019
6494 Clouds 9 1007 76 10000 5.1 230 17:38 08.12.2019
6495 Rain 9 1007 76 10000 5.1 230 17:19 08.12.2019
6496 Clouds 10 1007 71 10000 6.7 230 16:56 08.12.2019
6497 Rain 10 1007 71 10000 5.1 230 16:38 08.12.2019
6498 Rain 10 1007 71 10000 5.1 230 16:20 08.12.2019
6499 Rain 11 1007 76 10000 4.6 230 15:54 08.12.2019
6500 Clouds 11 1007 76 10000 4.6 250 15:36 08.12.2019
6501 Clouds 11 1007 76 10000 4.6 250 15:18 08.12.2019
6502 Clouds 11 1007 76 10000 6.7 270 14:41 08.12.2019
6503 Clouds 11 1008 76 10000 3.6 260 14:22 08.12.2019
6504 Rain 11 1008 81 10000 2.6 250 13:57 08.12.2019
6505 Rain 11 1008 81 10000 7.2 260 13:39 08.12.2019
6506 Rain 11 1008 81 10000 7.2 260 13:21 08.12.2019
6507 Drizzle 12 1008 93 8000 6.7 210 12:55 08.12.2019
6508 Drizzle 12 1008 93 8000 6.2 210 12:37 08.12.2019
6509 Drizzle 12 1008 93 8000 6.2 210 12:18 08.12.2019
6510 Rain 12 1008 93 10000 6.7 210 11:55 08.12.2019
6511 Rain 11 1009 93 10000 8.2 210 11:37 08.12.2019
6512 Rain 11 1009 93 10000 8.2 210 11:18 08.12.2019
6513 Rain 11 1009 87 10000 6.7 210 10:39 08.12.2019
6514 Rain 11 1009 87 10000 6.7 210 10:21 08.12.2019
6515 Rain 11 1009 93 10000 6.7 200 09:58 08.12.2019
6516 Rain 10 1009 87 4900 8.2 200 09:39 08.12.2019
6517 Rain 10 1009 87 4900 8.2 200 09:20 08.12.2019
6518 Rain 10 1009 87 8000 7.2 200 08:59 08.12.2019
6519 Rain 10 1010 87 7000 7.7 200 08:39 08.12.2019
6520 Rain 10 1010 87 7000 7.7 200 08:21 08.12.2019
6521 Clouds 10 1010 81 10000 7.7 210 07:45 08.12.2019
6522 Clouds 10 1010 76 10000 6.7 210 07:20 08.12.2019
6523 Clouds 10 1010 76 10000 7.7 210 06:52 08.12.2019
6524 Clouds 10 1011 81 10000 8.7 200 06:23 08.12.2019
6525 Clouds 10 1011 81 10000 8.7 210 05:52 08.12.2019
6526 Clouds 10 1011 81 10000 8.7 200 05:18 08.12.2019
6527 Clouds 10 1013 76 10000 9.3 210 03:54 08.12.2019
6528 Clouds 10 1013 76 10000 7.7 200 03:36 08.12.2019
6529 Clouds 10 1014 81 10000 5.7 190 02:40 08.12.2019
6530 Clouds 10 1014 81 10000 4.1 190 01:56 08.12.2019
6531 Clouds 10 1015 87 10000 5.1 190 01:33 08.12.2019
6532 Clouds 10 1016 81 10000 6.2 190 00:43 08.12.2019
6533 Clouds 10 1016 81 10000 6.2 190 00:21 08.12.2019
6534 Clouds 10 1016 76 10000 4.6 180 23:55 07.12.2019
6535 Clouds 10 1017 87 10000 4.1 180 23:36 07.12.2019
6536 Clouds 10 1017 87 10000 4.1 180 23:18 07.12.2019
6537 Clouds 10 1017 76 10000 3.6 200 22:54 07.12.2019
6538 Clouds 9 1017 76 10000 3.6 190 22:36 07.12.2019
6539 Clouds 10 1017 76 10000 3.6 190 22:18 07.12.2019
6540 Clouds 9 1018 76 10000 4.1 190 21:54 07.12.2019
6541 Clouds 9 1018 76 10000 4.6 200 21:36 07.12.2019
6542 Clouds 9 1018 76 10000 4.6 200 21:18 07.12.2019
6543 Clouds 9 1018 76 10000 4.1 200 20:38 07.12.2019
6544 Clouds 9 1018 76 10000 4.1 200 20:20 07.12.2019
6545 Clouds 9 1018 76 10000 3.6 200 19:57 07.12.2019
6546 Clouds 10 1018 71 10000 3.6 190 19:39 07.12.2019
6547 Clouds 10 1018 71 10000 3.6 190 19:21 07.12.2019
6548 Clouds 10 1018 66 10000 2.6 210 18:58 07.12.2019
6549 Clouds 10 1018 71 10000 3.6 200 18:39 07.12.2019
6550 Clouds 10 1018 71 10000 3.6 200 18:18 07.12.2019
6551 Clouds 10 1018 71 10000 3.6 200 17:55 07.12.2019
6552 Clouds 10 1018 76 10000 3.1 210 17:37 07.12.2019
6553 Clouds 10 1018 76 10000 3.1 210 17:18 07.12.2019
6554 Clouds 10 1018 76 10000 3.1 210 16:55 07.12.2019
6555 Clouds 10 1018 87 10000 1.5 230 16:36 07.12.2019
6556 Clouds 10 1018 87 10000 1.5 230 16:18 07.12.2019
6557 Clouds 11 1018 76 10000 3.1 260 15:41 07.12.2019
6558 Clouds 11 1018 76 10000 3.1 260 15:22 07.12.2019
6559 Clouds 11 1018 71 10000 3.6 270 14:56 07.12.2019
6560 Clouds 11 1018 76 10000 4.1 250 14:38 07.12.2019
6561 Clouds 11 1018 76 10000 4.6 240 14:18 07.12.2019
6562 Clouds 11 1018 81 10000 3.1 230 13:40 07.12.2019
6563 Clouds 11 1018 81 10000 3.1 230 13:20 07.12.2019
6564 Clouds 10 1018 81 10000 4.6 230 12:55 07.12.2019
6565 Clouds 10 1018 81 10000 3.6 220 12:37 07.12.2019
6566 Clouds 10 1018 81 10000 3.6 220 12:19 07.12.2019
6567 Clouds 9 1019 87 10000 3.1 240 11:42 07.12.2019
6568 Clouds 9 1019 87 10000 3.1 240 11:24 07.12.2019
6569 Clouds 9 1018 87 10000 3.1 240 10:59 07.12.2019
6570 Clouds 9 1018 87 10000 3.1 220 10:37 07.12.2019
6571 Clouds 9 1018 87 10000 3.1 220 10:19 07.12.2019
6572 Clouds 8 1017 93 10000 2.6 220 09:40 07.12.2019
6573 Clouds 8 1017 93 10000 2.6 220 09:21 07.12.2019
6574 Clouds 8 1017 87 10000 2.6 240 08:47 07.12.2019
6575 Clouds 8 1017 93 10000 2.6 240 08:25 07.12.2019
6576 Clouds 8 1017 93 10000 2.6 240 07:57 07.12.2019
6577 Clouds 8 1016 87 10000 2.6 240 07:38 07.12.2019
6578 Clouds 9 1016 87 10000 2.6 240 07:19 07.12.2019
6579 Clouds 9 1016 87 10000 3.6 240 06:45 07.12.2019
6580 Clouds 9 1016 87 10000 3.6 240 06:24 07.12.2019
6581 Clouds 9 1015 87 10000 3.1 240 04:49 07.12.2019
6582 Clouds 9 1015 87 10000 4.1 240 03:53 07.12.2019
6583 Clouds 9 1014 87 10000 3.1 240 02:50 07.12.2019
6584 Clouds 9 1014 87 10000 3.6 240 02:19 07.12.2019
6585 Clouds 9 1014 93 10000 4.1 240 01:31 07.12.2019
6586 Drizzle 9 1014 87 6000 5.1 230 00:43 07.12.2019
6587 Clouds 9 1014 100 10000 4.6 230 00:19 07.12.2019
6588 Clouds 9 1013 93 10000 4.1 240 23:47 06.12.2019
6589 Clouds 9 1013 93 10000 4.1 240 23:24 06.12.2019
6590 Clouds 9 1013 87 10000 3.6 220 22:58 06.12.2019
6591 Clouds 9 1012 93 10000 4.1 210 22:37 06.12.2019
6592 Drizzle 9 1012 93 5000 5.1 220 22:19 06.12.2019
6593 Drizzle 9 1012 93 5000 5.1 220 21:56 06.12.2019
6594 Drizzle 9 1012 93 5000 5.1 220 21:56 06.12.2019
6595 Clouds 9 1012 87 10000 7.2 210 21:38 06.12.2019
6596 Clouds 9 1012 87 10000 7.2 210 21:19 06.12.2019
6597 Clouds 9 1012 87 10000 7.2 210 21:19 06.12.2019
6598 Clouds 9 1012 93 10000 6.7 210 20:42 06.12.2019
6599 Clouds 9 1012 93 10000 6.2 210 20:42 06.12.2019
6600 Clouds 9 1012 93 10000 6.7 210 20:22 06.12.2019
6601 Clouds 8 1012 87 10000 6.7 210 19:58 06.12.2019
6602 Drizzle 8 1012 93 5000 6.7 200 19:39 06.12.2019
6603 Drizzle 8 1012 93 5000 6.7 200 19:21 06.12.2019
6604 Drizzle 7 1012 93 5000 6.7 200 18:55 06.12.2019
6605 Drizzle 7 1012 87 6000 6.7 200 18:36 06.12.2019
6606 Drizzle 7 1012 87 6000 6.7 200 18:18 06.12.2019
6607 Clouds 7 1012 93 10000 5.7 190 17:55 06.12.2019
6608 Rain 6 1013 87 10000 5.1 200 17:37 06.12.2019
6609 Rain 6 1013 87 10000 5.1 200 17:19 06.12.2019
6610 Clouds 6 1013 87 10000 7.7 200 16:42 06.12.2019
6611 Clouds 5 1013 87 10000 7.7 200 16:23 06.12.2019
6612 Clouds 5 1013 93 10000 6.2 190 15:57 06.12.2019
6613 Clouds 5 1013 93 10000 6.2 190 15:39 06.12.2019
6614 Clouds 4 1014 93 10000 6.7 190 15:18 06.12.2019
6615 Rain 4 1014 93 10000 6.2 190 14:55 06.12.2019
6616 Rain 4 1015 93 5000 5.1 190 14:37 06.12.2019
6617 Rain 4 1015 93 5000 5.1 190 14:18 06.12.2019
6618 Rain 4 1016 93 6000 5.1 190 13:42 06.12.2019
6619 Rain 4 1016 93 6000 5.1 190 13:23 06.12.2019
6620 Rain 3 1016 93 5000 5.1 190 12:42 06.12.2019
6621 Rain 3 1017 93 4400 5.1 190 12:22 06.12.2019
6622 Rain 3 1017 93 5000 5.1 190 11:57 06.12.2019
6623 Rain 3 1018 93 7000 5.1 190 11:39 06.12.2019
6624 Rain 3 1018 93 7000 5.1 190 11:19 06.12.2019
6625 Rain 3 1018 93 7000 4.6 180 10:43 06.12.2019
6626 Drizzle 3 1018 86 9000 4.1 190 10:21 06.12.2019
6627 Rain 3 1018 86 9000 3.6 180 09:57 06.12.2019
6628 Rain 2 1018 93 10000 3.1 180 09:37 06.12.2019
6629 Rain 2 1018 93 10000 3.1 180 09:19 06.12.2019
6630 Clouds 2 1018 86 10000 4.1 180 08:45 06.12.2019
6631 Rain 2 1018 86 10000 3.6 170 08:27 06.12.2019
6632 Clouds 1 1018 80 10000 3.1 170 07:56 06.12.2019
6633 Clouds 1 1018 80 10000 3.6 170 07:36 06.12.2019
6634 Clouds 1 1018 80 10000 3.6 170 07:18 06.12.2019
6635 Clouds 1 1019 80 9000 4.1 180 06:29 06.12.2019
6636 Clouds 1 1019 80 8000 4.1 180 05:53 06.12.2019
6637 Clouds 0 1019 80 7000 3.1 170 05:33 06.12.2019
6638 Clouds 0 1021 72 6000 4.1 170 02:19 06.12.2019
6639 Mist 0 1022 78 3500 4.1 160 01:30 06.12.2019
6640 Mist 0 1022 78 3400 4.1 160 00:46 06.12.2019
6641 Mist 0 1022 78 5000 4.1 160 00:21 06.12.2019
6642 Mist 0 1022 78 5000 2.1 150 23:47 05.12.2019
6643 Mist 0 1022 73 5000 2.1 170 23:19 05.12.2019
6644 Mist 0 1023 73 5000 2.6 170 22:57 05.12.2019
6645 Mist 0 1023 73 4800 3.6 180 22:38 05.12.2019
6646 Mist 0 1023 73 4800 3.6 180 22:18 05.12.2019
6647 Mist 0 1023 73 4800 3.6 180 22:18 05.12.2019
6648 Mist 0 1023 73 4400 4.1 170 21:55 05.12.2019
6649 Mist 0 1023 73 4700 4.1 160 21:36 05.12.2019
6650 Mist 0 1023 73 4700 4.1 160 21:18 05.12.2019
6651 Clouds 0 1023 73 7000 3.6 160 20:40 05.12.2019
6652 Clouds 0 1023 76 6000 2.1 220 20:21 05.12.2019
6653 Clouds 0 1023 76 6000 2.1 220 19:58 05.12.2019
6654 Clouds 0 1023 76 6000 2.1 230 19:40 05.12.2019
6655 Clouds 0 1023 76 6000 2.1 230 19:21 05.12.2019
6656 Clouds 0 1023 76 6000 2.1 220 18:57 05.12.2019
6657 Clouds 0 1023 76 6000 2.1 220 18:38 05.12.2019
6658 Clouds 1 1023 76 6000 2.1 250 18:20 05.12.2019
6659 Mist 1 1023 93 5000 2.1 170 17:40 05.12.2019
6660 Mist 1 1023 93 4700 2.6 180 17:20 05.12.2019
6661 Mist 1 1023 93 4700 2.6 180 16:58 05.12.2019
6662 Mist 1 1023 93 4800 2.6 200 16:39 05.12.2019
6663 Mist 1 1023 93 4100 1.5 220 16:21 05.12.2019
6664 Mist 1 1023 93 4100 1.5 220 15:58 05.12.2019
6665 Mist 1 1023 93 3200 1.5 240 15:38 05.12.2019
6666 Mist 1 1023 93 3200 1.5 240 15:20 05.12.2019
6667 Mist 1 1023 100 2400 1 0 14:56 05.12.2019
6668 Mist 1 1023 100 3100 1 0 14:56 05.12.2019
6669 Mist 1 1023 100 2400 1 0 14:37 05.12.2019
6670 Mist 1 1024 100 1700 1 0 14:19 05.12.2019
6671 Mist 1 1024 100 1700 1 0 14:19 05.12.2019
6672 Mist 1 1024 100 1700 1 0 13:56 05.12.2019
6673 Mist 1 1024 93 1400 1.5 240 13:38 05.12.2019
6674 Mist 1 1024 93 1400 1.5 240 13:19 05.12.2019
6675 Mist 1 1024 93 1400 2.1 170 12:57 05.12.2019
6676 Fog 1 1024 100 600 1.5 0 12:38 05.12.2019
6677 Fog 0 1024 100 500 1 0 12:20 05.12.2019
6678 Fog 0 1024 100 500 1 0 12:20 05.12.2019
6679 Fog 0 1025 63 600 1 0 11:39 05.12.2019
6680 Fog 0 1024 70 600 1 0 11:21 05.12.2019
6681 Fog 0 1024 70 600 1 0 10:58 05.12.2019
6682 Fog 0 1024 70 550 1 0 10:40 05.12.2019
6683 Fog 0 1024 100 1500 2.6 290 10:19 05.12.2019
6684 Fog 0 1024 100 1500 2.6 290 09:55 05.12.2019
6685 Mist 0 1024 100 1800 2.6 330 09:37 05.12.2019
6686 Mist 0 1023 100 1500 1.5 340 09:18 05.12.2019
6687 Mist 0 1023 100 3000 2.1 290 08:54 05.12.2019
6688 Mist 0 1023 100 3000 2.1 290 08:36 05.12.2019
6689 Mist -1 1023 100 2300 1 0 08:18 05.12.2019
6690 Mist -1 1022 100 2200 0.74 262 07:41 05.12.2019
6691 Mist -1 1023 100 3900 0.5 0 07:21 05.12.2019
6692 Mist -1 1023 100 1300 1.5 330 06:47 05.12.2019
6693 Fog -1 1023 92 800 1.5 330 06:23 05.12.2019
6694 Fog -1 1022 100 700 2.1 330 05:53 05.12.2019
6695 Fog -1 1022 100 700 2.1 330 05:24 05.12.2019
6696 Fog -1 1022 100 550 2.1 320 04:37 05.12.2019
6697 Fog -2 1022 100 450 1 0 03:35 05.12.2019
6698 Fog -2 1022 100 400 2.1 280 02:41 05.12.2019
6699 Fog -2 1022 100 400 2.1 280 02:21 05.12.2019
6700 Fog -2 1021 100 350 1 0 01:50 05.12.2019
6701 Fog -2 1021 100 350 1 0 01:50 05.12.2019
6702 Fog -1 1021 100 500 2.1 330 01:23 05.12.2019
6703 Fog -1 1021 92 450 0.5 0 00:43 05.12.2019
6704 Fog -1 1021 92 450 0.5 0 00:20 05.12.2019
6705 Fog -1 1021 92 550 1.5 340 23:47 04.12.2019
6706 Mist -1 1021 92 4500 1.5 0 23:22 04.12.2019
6707 Mist 0 1021 92 3300 1.5 350 22:59 04.12.2019
6708 Mist 0 1021 92 3300 1.5 350 22:38 04.12.2019
6709 Mist